<?xml version="1.0" encoding="UTF-8" standalone="no" ?>
<gpx xmlns="http://www.topografix.com/GPX/1/1" xmlns:xsi="http://www.w3.org/2001/XMLSchema-instance" xsi:schemaLocation="http://www.topografix.com/GPX/1/1 http://www.topografix.com/GPX/1/1/gpx.xsd" version="1.1" creator="VisuGPX - https://www.visugpx.com">
  <metadata>
    <name>De Bourrron-Marlotte à Nemours</name>
    <desc><![CDATA[Randonnée de 26 km en ligne à partir de la Gare de Bourron-Marlotte]]></desc>
  </metadata>
  <trk>
    <name><![CDATA[2022-06-05_bourron-larchant-nemours_unified]]></name>
    <extensions>
      <line xmlns="http://www.topografix.com/GPX/gpx_style/0/2">
        <width>4</width>
      </line>
    </extensions>
    <trkseg>
      <trkpt lat="48.33292" lon="2.69258">
        <ele>68.6</ele>
        <time>2022-06-05T07:24:21.000Z</time>
      </trkpt>
      <trkpt lat="48.33292" lon="2.69257">
        <ele>68.4</ele>
        <time>2022-06-05T07:24:22.000Z</time>
      </trkpt>
      <trkpt lat="48.3329" lon="2.69259">
        <ele>68.5</ele>
        <time>2022-06-05T07:24:26.000Z</time>
      </trkpt>
      <trkpt lat="48.3329" lon="2.69259">
        <ele>68.5</ele>
        <time>2022-06-05T07:24:28.000Z</time>
      </trkpt>
      <trkpt lat="48.3329" lon="2.69258">
        <ele>68.5</ele>
        <time>2022-06-05T07:24:32.000Z</time>
      </trkpt>
      <trkpt lat="48.33291" lon="2.69258">
        <ele>68.5</ele>
        <time>2022-06-05T07:24:35.000Z</time>
      </trkpt>
      <trkpt lat="48.3329" lon="2.69258">
        <ele>68.2</ele>
        <time>2022-06-05T07:24:38.000Z</time>
      </trkpt>
      <trkpt lat="48.33291" lon="2.69258">
        <ele>68.6</ele>
        <time>2022-06-05T07:25:25.000Z</time>
      </trkpt>
      <trkpt lat="48.33291" lon="2.69258">
        <ele>68.7</ele>
        <time>2022-06-05T07:25:26.000Z</time>
      </trkpt>
      <trkpt lat="48.33291" lon="2.69258">
        <ele>68.7</ele>
        <time>2022-06-05T07:25:27.000Z</time>
      </trkpt>
      <trkpt lat="48.33291" lon="2.69258">
        <ele>68.8</ele>
        <time>2022-06-05T07:25:28.000Z</time>
      </trkpt>
      <trkpt lat="48.33291" lon="2.69257">
        <ele>68.9</ele>
        <time>2022-06-05T07:25:29.000Z</time>
      </trkpt>
      <trkpt lat="48.33292" lon="2.69257">
        <ele>68.7</ele>
        <time>2022-06-05T07:25:32.000Z</time>
      </trkpt>
      <trkpt lat="48.33292" lon="2.69256">
        <ele>68.9</ele>
        <time>2022-06-05T07:25:33.000Z</time>
      </trkpt>
      <trkpt lat="48.33294" lon="2.69254">
        <ele>68.7</ele>
        <time>2022-06-05T07:25:37.000Z</time>
      </trkpt>
      <trkpt lat="48.33294" lon="2.69253">
        <ele>68.5</ele>
        <time>2022-06-05T07:25:51.000Z</time>
      </trkpt>
      <trkpt lat="48.33294" lon="2.69253">
        <ele>68.6</ele>
        <time>2022-06-05T07:25:57.000Z</time>
      </trkpt>
      <trkpt lat="48.33294" lon="2.69254">
        <ele>68.5</ele>
        <time>2022-06-05T07:26:40.000Z</time>
      </trkpt>
      <trkpt lat="48.33294" lon="2.69254">
        <ele>68.6</ele>
        <time>2022-06-05T07:26:41.000Z</time>
      </trkpt>
      <trkpt lat="48.33294" lon="2.69253">
        <ele>68.4</ele>
        <time>2022-06-05T07:26:45.000Z</time>
      </trkpt>
      <trkpt lat="48.33297" lon="2.69239">
        <ele>68.4</ele>
        <time>2022-06-05T07:26:53.000Z</time>
      </trkpt>
      <trkpt lat="48.33295" lon="2.69223">
        <ele>68.6</ele>
        <time>2022-06-05T07:27:01.000Z</time>
      </trkpt>
      <trkpt lat="48.33294" lon="2.69209">
        <ele>68.8</ele>
        <time>2022-06-05T07:27:10.000Z</time>
      </trkpt>
      <trkpt lat="48.3329" lon="2.69195">
        <ele>69.7</ele>
        <time>2022-06-05T07:27:19.000Z</time>
      </trkpt>
      <trkpt lat="48.33284" lon="2.69184">
        <ele>70</ele>
        <time>2022-06-05T07:27:30.000Z</time>
      </trkpt>
      <trkpt lat="48.33276" lon="2.69175">
        <ele>70.4</ele>
        <time>2022-06-05T07:27:38.000Z</time>
      </trkpt>
      <trkpt lat="48.33269" lon="2.69167">
        <ele>71.1</ele>
        <time>2022-06-05T07:27:48.000Z</time>
      </trkpt>
      <trkpt lat="48.33261" lon="2.69158">
        <ele>71.3</ele>
        <time>2022-06-05T07:27:57.000Z</time>
      </trkpt>
      <trkpt lat="48.33254" lon="2.6915">
        <ele>71.7</ele>
        <time>2022-06-05T07:28:04.000Z</time>
      </trkpt>
      <trkpt lat="48.33246" lon="2.6914">
        <ele>71.8</ele>
        <time>2022-06-05T07:28:12.000Z</time>
      </trkpt>
      <trkpt lat="48.33239" lon="2.69131">
        <ele>72.3</ele>
        <time>2022-06-05T07:28:20.000Z</time>
      </trkpt>
      <trkpt lat="48.33233" lon="2.69119">
        <ele>72.4</ele>
        <time>2022-06-05T07:28:28.000Z</time>
      </trkpt>
      <trkpt lat="48.33227" lon="2.69109">
        <ele>72.9</ele>
        <time>2022-06-05T07:28:37.000Z</time>
      </trkpt>
      <trkpt lat="48.33221" lon="2.69097">
        <ele>73.1</ele>
        <time>2022-06-05T07:28:44.000Z</time>
      </trkpt>
      <trkpt lat="48.33216" lon="2.69085">
        <ele>73.2</ele>
        <time>2022-06-05T07:28:53.000Z</time>
      </trkpt>
      <trkpt lat="48.33211" lon="2.69072">
        <ele>73</ele>
        <time>2022-06-05T07:29:00.000Z</time>
      </trkpt>
      <trkpt lat="48.33205" lon="2.6906">
        <ele>72.9</ele>
        <time>2022-06-05T07:29:07.000Z</time>
      </trkpt>
      <trkpt lat="48.332" lon="2.69048">
        <ele>72.9</ele>
        <time>2022-06-05T07:29:14.000Z</time>
      </trkpt>
      <trkpt lat="48.33195" lon="2.69035">
        <ele>73.3</ele>
        <time>2022-06-05T07:29:22.000Z</time>
      </trkpt>
      <trkpt lat="48.3319" lon="2.69022">
        <ele>73.8</ele>
        <time>2022-06-05T07:29:30.000Z</time>
      </trkpt>
      <trkpt lat="48.33185" lon="2.69009">
        <ele>73.9</ele>
        <time>2022-06-05T07:29:38.000Z</time>
      </trkpt>
      <trkpt lat="48.3318" lon="2.68997">
        <ele>73.8</ele>
        <time>2022-06-05T07:29:45.000Z</time>
      </trkpt>
      <trkpt lat="48.33176" lon="2.68984">
        <ele>71.3</ele>
        <time>2022-06-05T07:29:53.000Z</time>
      </trkpt>
      <trkpt lat="48.3317" lon="2.68972">
        <ele>70.4</ele>
        <time>2022-06-05T07:30:01.000Z</time>
      </trkpt>
      <trkpt lat="48.33165" lon="2.68958">
        <ele>70</ele>
        <time>2022-06-05T07:30:11.000Z</time>
      </trkpt>
      <trkpt lat="48.33161" lon="2.68946">
        <ele>69.1</ele>
        <time>2022-06-05T07:30:18.000Z</time>
      </trkpt>
      <trkpt lat="48.33156" lon="2.68933">
        <ele>68.8</ele>
        <time>2022-06-05T07:30:26.000Z</time>
      </trkpt>
      <trkpt lat="48.3315" lon="2.68922">
        <ele>68.7</ele>
        <time>2022-06-05T07:30:38.000Z</time>
      </trkpt>
      <trkpt lat="48.33156" lon="2.6891">
        <ele>72.3</ele>
        <time>2022-06-05T07:30:44.000Z</time>
      </trkpt>
      <trkpt lat="48.33155" lon="2.68893">
        <ele>72.6</ele>
        <time>2022-06-05T07:30:57.000Z</time>
      </trkpt>
      <trkpt lat="48.33158" lon="2.68875">
        <ele>72.6</ele>
        <time>2022-06-05T07:31:00.000Z</time>
      </trkpt>
      <trkpt lat="48.3316" lon="2.68862">
        <ele>72.7</ele>
        <time>2022-06-05T07:31:03.000Z</time>
      </trkpt>
      <trkpt lat="48.33152" lon="2.68853">
        <ele>73.1</ele>
        <time>2022-06-05T07:31:07.000Z</time>
      </trkpt>
      <trkpt lat="48.33144" lon="2.68846">
        <ele>73.9</ele>
        <time>2022-06-05T07:31:20.000Z</time>
      </trkpt>
      <trkpt lat="48.33143" lon="2.68831">
        <ele>74.4</ele>
        <time>2022-06-05T07:31:28.000Z</time>
      </trkpt>
      <trkpt lat="48.33145" lon="2.68816">
        <ele>74.8</ele>
        <time>2022-06-05T07:31:36.000Z</time>
      </trkpt>
      <trkpt lat="48.33146" lon="2.68802">
        <ele>75.6</ele>
        <time>2022-06-05T07:31:45.000Z</time>
      </trkpt>
      <trkpt lat="48.33152" lon="2.6879">
        <ele>76.5</ele>
        <time>2022-06-05T07:31:54.000Z</time>
      </trkpt>
      <trkpt lat="48.33155" lon="2.68784">
        <ele>77.4</ele>
        <time>2022-06-05T07:32:01.000Z</time>
      </trkpt>
      <trkpt lat="48.33155" lon="2.68784">
        <ele>77.5</ele>
        <time>2022-06-05T07:32:02.000Z</time>
      </trkpt>
      <trkpt lat="48.33162" lon="2.68773">
        <ele>78.6</ele>
        <time>2022-06-05T07:32:15.000Z</time>
      </trkpt>
      <trkpt lat="48.33169" lon="2.68762">
        <ele>79.2</ele>
        <time>2022-06-05T07:32:23.000Z</time>
      </trkpt>
      <trkpt lat="48.33179" lon="2.68755">
        <ele>80</ele>
        <time>2022-06-05T07:32:33.000Z</time>
      </trkpt>
      <trkpt lat="48.33185" lon="2.68746">
        <ele>80.3</ele>
        <time>2022-06-05T07:32:40.000Z</time>
      </trkpt>
      <trkpt lat="48.33193" lon="2.68737">
        <ele>80.6</ele>
        <time>2022-06-05T07:32:48.000Z</time>
      </trkpt>
      <trkpt lat="48.33202" lon="2.6873">
        <ele>80.5</ele>
        <time>2022-06-05T07:32:56.000Z</time>
      </trkpt>
      <trkpt lat="48.33211" lon="2.68723">
        <ele>80.6</ele>
        <time>2022-06-05T07:33:04.000Z</time>
      </trkpt>
      <trkpt lat="48.3322" lon="2.68716">
        <ele>80.5</ele>
        <time>2022-06-05T07:33:12.000Z</time>
      </trkpt>
      <trkpt lat="48.33229" lon="2.68711">
        <ele>80.6</ele>
        <time>2022-06-05T07:33:19.000Z</time>
      </trkpt>
      <trkpt lat="48.33237" lon="2.68703">
        <ele>80.3</ele>
        <time>2022-06-05T07:33:27.000Z</time>
      </trkpt>
      <trkpt lat="48.33244" lon="2.68694">
        <ele>76.7</ele>
        <time>2022-06-05T07:33:35.000Z</time>
      </trkpt>
      <trkpt lat="48.3325" lon="2.68683">
        <ele>76.9</ele>
        <time>2022-06-05T07:33:43.000Z</time>
      </trkpt>
      <trkpt lat="48.33257" lon="2.68672">
        <ele>75.7</ele>
        <time>2022-06-05T07:33:51.000Z</time>
      </trkpt>
      <trkpt lat="48.33263" lon="2.6866">
        <ele>74.3</ele>
        <time>2022-06-05T07:33:58.000Z</time>
      </trkpt>
      <trkpt lat="48.33269" lon="2.68649">
        <ele>72.7</ele>
        <time>2022-06-05T07:34:06.000Z</time>
      </trkpt>
      <trkpt lat="48.33272" lon="2.68635">
        <ele>71.2</ele>
        <time>2022-06-05T07:34:14.000Z</time>
      </trkpt>
      <trkpt lat="48.33272" lon="2.68633">
        <ele>71.3</ele>
        <time>2022-06-05T07:34:17.000Z</time>
      </trkpt>
      <trkpt lat="48.33272" lon="2.68633">
        <ele>71.1</ele>
        <time>2022-06-05T07:34:18.000Z</time>
      </trkpt>
      <trkpt lat="48.33266" lon="2.68622">
        <ele>70.2</ele>
        <time>2022-06-05T07:34:28.000Z</time>
      </trkpt>
      <trkpt lat="48.33262" lon="2.68609">
        <ele>70.7</ele>
        <time>2022-06-05T07:34:37.000Z</time>
      </trkpt>
      <trkpt lat="48.33254" lon="2.686">
        <ele>71.7</ele>
        <time>2022-06-05T07:34:47.000Z</time>
      </trkpt>
      <trkpt lat="48.33248" lon="2.68589">
        <ele>71.7</ele>
        <time>2022-06-05T07:34:54.000Z</time>
      </trkpt>
      <trkpt lat="48.33246" lon="2.68576">
        <ele>71.7</ele>
        <time>2022-06-05T07:35:05.000Z</time>
      </trkpt>
      <trkpt lat="48.33239" lon="2.68565">
        <ele>71.8</ele>
        <time>2022-06-05T07:35:14.000Z</time>
      </trkpt>
      <trkpt lat="48.33232" lon="2.68555">
        <ele>72.5</ele>
        <time>2022-06-05T07:35:22.000Z</time>
      </trkpt>
      <trkpt lat="48.33227" lon="2.68543">
        <ele>72.3</ele>
        <time>2022-06-05T07:35:29.000Z</time>
      </trkpt>
      <trkpt lat="48.33221" lon="2.6853">
        <ele>72.1</ele>
        <time>2022-06-05T07:35:37.000Z</time>
      </trkpt>
      <trkpt lat="48.33213" lon="2.6852">
        <ele>71.8</ele>
        <time>2022-06-05T07:35:45.000Z</time>
      </trkpt>
      <trkpt lat="48.33208" lon="2.6851">
        <ele>72.5</ele>
        <time>2022-06-05T07:35:52.000Z</time>
      </trkpt>
      <trkpt lat="48.33201" lon="2.68499">
        <ele>72.2</ele>
        <time>2022-06-05T07:36:00.000Z</time>
      </trkpt>
      <trkpt lat="48.33195" lon="2.68488">
        <ele>71.9</ele>
        <time>2022-06-05T07:36:08.000Z</time>
      </trkpt>
      <trkpt lat="48.33188" lon="2.68476">
        <ele>72.6</ele>
        <time>2022-06-05T07:36:16.000Z</time>
      </trkpt>
      <trkpt lat="48.33181" lon="2.68467">
        <ele>72.3</ele>
        <time>2022-06-05T07:36:23.000Z</time>
      </trkpt>
      <trkpt lat="48.33176" lon="2.68454">
        <ele>72.3</ele>
        <time>2022-06-05T07:36:31.000Z</time>
      </trkpt>
      <trkpt lat="48.33175" lon="2.68439">
        <ele>72.5</ele>
        <time>2022-06-05T07:36:39.000Z</time>
      </trkpt>
      <trkpt lat="48.33167" lon="2.68433">
        <ele>72.9</ele>
        <time>2022-06-05T07:36:46.000Z</time>
      </trkpt>
      <trkpt lat="48.33162" lon="2.68421">
        <ele>73</ele>
        <time>2022-06-05T07:36:54.000Z</time>
      </trkpt>
      <trkpt lat="48.33156" lon="2.68411">
        <ele>73.7</ele>
        <time>2022-06-05T07:37:02.000Z</time>
      </trkpt>
      <trkpt lat="48.33151" lon="2.68399">
        <ele>74.1</ele>
        <time>2022-06-05T07:37:10.000Z</time>
      </trkpt>
      <trkpt lat="48.33148" lon="2.68386">
        <ele>74.3</ele>
        <time>2022-06-05T07:37:18.000Z</time>
      </trkpt>
      <trkpt lat="48.33144" lon="2.68372">
        <ele>74.4</ele>
        <time>2022-06-05T07:37:25.000Z</time>
      </trkpt>
      <trkpt lat="48.33143" lon="2.68358">
        <ele>74.6</ele>
        <time>2022-06-05T07:37:31.000Z</time>
      </trkpt>
      <trkpt lat="48.33135" lon="2.68348">
        <ele>74.4</ele>
        <time>2022-06-05T07:37:39.000Z</time>
      </trkpt>
      <trkpt lat="48.3313" lon="2.68335">
        <ele>73.5</ele>
        <time>2022-06-05T07:37:48.000Z</time>
      </trkpt>
      <trkpt lat="48.33123" lon="2.68325">
        <ele>73.5</ele>
        <time>2022-06-05T07:37:56.000Z</time>
      </trkpt>
      <trkpt lat="48.33118" lon="2.68313">
        <ele>73.3</ele>
        <time>2022-06-05T07:38:03.000Z</time>
      </trkpt>
      <trkpt lat="48.33112" lon="2.68302">
        <ele>73.4</ele>
        <time>2022-06-05T07:38:11.000Z</time>
      </trkpt>
      <trkpt lat="48.3311" lon="2.68297">
        <ele>73.9</ele>
        <time>2022-06-05T07:38:21.000Z</time>
      </trkpt>
      <trkpt lat="48.3311" lon="2.68297">
        <ele>74.1</ele>
        <time>2022-06-05T07:38:22.000Z</time>
      </trkpt>
      <trkpt lat="48.33107" lon="2.68283">
        <ele>74.5</ele>
        <time>2022-06-05T07:38:32.000Z</time>
      </trkpt>
      <trkpt lat="48.33106" lon="2.68268">
        <ele>74.9</ele>
        <time>2022-06-05T07:38:41.000Z</time>
      </trkpt>
      <trkpt lat="48.331" lon="2.68257">
        <ele>74.9</ele>
        <time>2022-06-05T07:38:49.000Z</time>
      </trkpt>
      <trkpt lat="48.33092" lon="2.68248">
        <ele>74.9</ele>
        <time>2022-06-05T07:38:57.000Z</time>
      </trkpt>
      <trkpt lat="48.33084" lon="2.68238">
        <ele>75.8</ele>
        <time>2022-06-05T07:39:04.000Z</time>
      </trkpt>
      <trkpt lat="48.33082" lon="2.68224">
        <ele>76.3</ele>
        <time>2022-06-05T07:39:11.000Z</time>
      </trkpt>
      <trkpt lat="48.33079" lon="2.68211">
        <ele>76.1</ele>
        <time>2022-06-05T07:39:18.000Z</time>
      </trkpt>
      <trkpt lat="48.33078" lon="2.68197">
        <ele>76</ele>
        <time>2022-06-05T07:39:25.000Z</time>
      </trkpt>
      <trkpt lat="48.33073" lon="2.68184">
        <ele>74.3</ele>
        <time>2022-06-05T07:39:33.000Z</time>
      </trkpt>
      <trkpt lat="48.3307" lon="2.68171">
        <ele>76.2</ele>
        <time>2022-06-05T07:39:41.000Z</time>
      </trkpt>
      <trkpt lat="48.33067" lon="2.68157">
        <ele>76.4</ele>
        <time>2022-06-05T07:39:51.000Z</time>
      </trkpt>
      <trkpt lat="48.33061" lon="2.68146">
        <ele>76.9</ele>
        <time>2022-06-05T07:39:58.000Z</time>
      </trkpt>
      <trkpt lat="48.33054" lon="2.68135">
        <ele>76.5</ele>
        <time>2022-06-05T07:40:05.000Z</time>
      </trkpt>
      <trkpt lat="48.3305" lon="2.68122">
        <ele>76.7</ele>
        <time>2022-06-05T07:40:13.000Z</time>
      </trkpt>
      <trkpt lat="48.33047" lon="2.68108">
        <ele>76.4</ele>
        <time>2022-06-05T07:40:23.000Z</time>
      </trkpt>
      <trkpt lat="48.33042" lon="2.68096">
        <ele>76.7</ele>
        <time>2022-06-05T07:40:30.000Z</time>
      </trkpt>
      <trkpt lat="48.33034" lon="2.68085">
        <ele>76.5</ele>
        <time>2022-06-05T07:40:37.000Z</time>
      </trkpt>
      <trkpt lat="48.33029" lon="2.68074">
        <ele>76.3</ele>
        <time>2022-06-05T07:40:46.000Z</time>
      </trkpt>
      <trkpt lat="48.33022" lon="2.68064">
        <ele>76.3</ele>
        <time>2022-06-05T07:40:52.000Z</time>
      </trkpt>
      <trkpt lat="48.3302" lon="2.6805">
        <ele>76</ele>
        <time>2022-06-05T07:40:58.000Z</time>
      </trkpt>
      <trkpt lat="48.33018" lon="2.68036">
        <ele>74.8</ele>
        <time>2022-06-05T07:41:08.000Z</time>
      </trkpt>
      <trkpt lat="48.33018" lon="2.68022">
        <ele>74.5</ele>
        <time>2022-06-05T07:41:16.000Z</time>
      </trkpt>
      <trkpt lat="48.33016" lon="2.68008">
        <ele>74.3</ele>
        <time>2022-06-05T07:41:25.000Z</time>
      </trkpt>
      <trkpt lat="48.33013" lon="2.67995">
        <ele>74.9</ele>
        <time>2022-06-05T07:41:33.000Z</time>
      </trkpt>
      <trkpt lat="48.3301" lon="2.6798">
        <ele>75.7</ele>
        <time>2022-06-05T07:41:41.000Z</time>
      </trkpt>
      <trkpt lat="48.33005" lon="2.67969">
        <ele>76.3</ele>
        <time>2022-06-05T07:41:47.000Z</time>
      </trkpt>
      <trkpt lat="48.33001" lon="2.67956">
        <ele>76.4</ele>
        <time>2022-06-05T07:41:56.000Z</time>
      </trkpt>
      <trkpt lat="48.32995" lon="2.67947">
        <ele>76.7</ele>
        <time>2022-06-05T07:42:04.000Z</time>
      </trkpt>
      <trkpt lat="48.32992" lon="2.67933">
        <ele>76.8</ele>
        <time>2022-06-05T07:42:11.000Z</time>
      </trkpt>
      <trkpt lat="48.3299" lon="2.67919">
        <ele>76.2</ele>
        <time>2022-06-05T07:42:17.000Z</time>
      </trkpt>
      <trkpt lat="48.32986" lon="2.67907">
        <ele>75.6</ele>
        <time>2022-06-05T07:42:24.000Z</time>
      </trkpt>
      <trkpt lat="48.32979" lon="2.67897">
        <ele>75.1</ele>
        <time>2022-06-05T07:42:33.000Z</time>
      </trkpt>
      <trkpt lat="48.32972" lon="2.67886">
        <ele>74.5</ele>
        <time>2022-06-05T07:42:43.000Z</time>
      </trkpt>
      <trkpt lat="48.32966" lon="2.67874">
        <ele>74.5</ele>
        <time>2022-06-05T07:42:50.000Z</time>
      </trkpt>
      <trkpt lat="48.32961" lon="2.67862">
        <ele>74.3</ele>
        <time>2022-06-05T07:42:57.000Z</time>
      </trkpt>
      <trkpt lat="48.32957" lon="2.67848">
        <ele>73.8</ele>
        <time>2022-06-05T07:43:04.000Z</time>
      </trkpt>
      <trkpt lat="48.3295" lon="2.67837">
        <ele>73.2</ele>
        <time>2022-06-05T07:43:10.000Z</time>
      </trkpt>
      <trkpt lat="48.32946" lon="2.67823">
        <ele>72.3</ele>
        <time>2022-06-05T07:43:19.000Z</time>
      </trkpt>
      <trkpt lat="48.32944" lon="2.67809">
        <ele>71.3</ele>
        <time>2022-06-05T07:43:30.000Z</time>
      </trkpt>
      <trkpt lat="48.32941" lon="2.67794">
        <ele>70.4</ele>
        <time>2022-06-05T07:43:38.000Z</time>
      </trkpt>
      <trkpt lat="48.3294" lon="2.6778">
        <ele>70.4</ele>
        <time>2022-06-05T07:43:48.000Z</time>
      </trkpt>
      <trkpt lat="48.32931" lon="2.67779">
        <ele>70.1</ele>
        <time>2022-06-05T07:43:56.000Z</time>
      </trkpt>
      <trkpt lat="48.32937" lon="2.67767">
        <ele>68.9</ele>
        <time>2022-06-05T07:44:04.000Z</time>
      </trkpt>
      <trkpt lat="48.32942" lon="2.67755">
        <ele>68.8</ele>
        <time>2022-06-05T07:44:10.000Z</time>
      </trkpt>
      <trkpt lat="48.32945" lon="2.67742">
        <ele>69.2</ele>
        <time>2022-06-05T07:44:20.000Z</time>
      </trkpt>
      <trkpt lat="48.32952" lon="2.67732">
        <ele>69</ele>
        <time>2022-06-05T07:44:26.000Z</time>
      </trkpt>
      <trkpt lat="48.3296" lon="2.67726">
        <ele>69</ele>
        <time>2022-06-05T07:44:30.000Z</time>
      </trkpt>
      <trkpt lat="48.32966" lon="2.67714">
        <ele>69</ele>
        <time>2022-06-05T07:44:39.000Z</time>
      </trkpt>
      <trkpt lat="48.32969" lon="2.677">
        <ele>69.2</ele>
        <time>2022-06-05T07:44:48.000Z</time>
      </trkpt>
      <trkpt lat="48.3297" lon="2.67685">
        <ele>69.1</ele>
        <time>2022-06-05T07:44:55.000Z</time>
      </trkpt>
      <trkpt lat="48.32973" lon="2.67671">
        <ele>69.2</ele>
        <time>2022-06-05T07:45:02.000Z</time>
      </trkpt>
      <trkpt lat="48.32972" lon="2.67657">
        <ele>69</ele>
        <time>2022-06-05T07:45:08.000Z</time>
      </trkpt>
      <trkpt lat="48.32972" lon="2.67643">
        <ele>69.1</ele>
        <time>2022-06-05T07:45:15.000Z</time>
      </trkpt>
      <trkpt lat="48.32974" lon="2.67629">
        <ele>69.5</ele>
        <time>2022-06-05T07:45:22.000Z</time>
      </trkpt>
      <trkpt lat="48.32974" lon="2.67629">
        <ele>69.5</ele>
        <time>2022-06-05T07:45:22.000Z</time>
      </trkpt>
      <trkpt lat="48.32978" lon="2.67615">
        <ele>69</ele>
        <time>2022-06-05T07:45:29.000Z</time>
      </trkpt>
      <trkpt lat="48.32984" lon="2.67603">
        <ele>68.6</ele>
        <time>2022-06-05T07:45:37.000Z</time>
      </trkpt>
      <trkpt lat="48.32991" lon="2.67593">
        <ele>68.4</ele>
        <time>2022-06-05T07:45:43.000Z</time>
      </trkpt>
      <trkpt lat="48.32994" lon="2.6758">
        <ele>68.3</ele>
        <time>2022-06-05T07:45:50.000Z</time>
      </trkpt>
      <trkpt lat="48.32999" lon="2.67568">
        <ele>68.7</ele>
        <time>2022-06-05T07:45:58.000Z</time>
      </trkpt>
      <trkpt lat="48.33004" lon="2.67556">
        <ele>68.5</ele>
        <time>2022-06-05T07:46:05.000Z</time>
      </trkpt>
      <trkpt lat="48.3301" lon="2.67544">
        <ele>68.4</ele>
        <time>2022-06-05T07:46:13.000Z</time>
      </trkpt>
      <trkpt lat="48.33016" lon="2.67533">
        <ele>68</ele>
        <time>2022-06-05T07:46:23.000Z</time>
      </trkpt>
      <trkpt lat="48.33026" lon="2.67533">
        <ele>69.6</ele>
        <time>2022-06-05T07:46:34.000Z</time>
      </trkpt>
      <trkpt lat="48.33035" lon="2.6753">
        <ele>69.6</ele>
        <time>2022-06-05T07:46:48.000Z</time>
      </trkpt>
      <trkpt lat="48.3304" lon="2.67518">
        <ele>69.1</ele>
        <time>2022-06-05T07:46:54.000Z</time>
      </trkpt>
      <trkpt lat="48.3305" lon="2.67511">
        <ele>68.8</ele>
        <time>2022-06-05T07:47:04.000Z</time>
      </trkpt>
      <trkpt lat="48.33059" lon="2.67509">
        <ele>69.5</ele>
        <time>2022-06-05T07:47:19.000Z</time>
      </trkpt>
      <trkpt lat="48.33059" lon="2.67504">
        <ele>69.5</ele>
        <time>2022-06-05T07:47:24.000Z</time>
      </trkpt>
      <trkpt lat="48.33059" lon="2.67504">
        <ele>69.5</ele>
        <time>2022-06-05T07:47:25.000Z</time>
      </trkpt>
      <trkpt lat="48.33055" lon="2.67506">
        <ele>70.3</ele>
        <time>2022-06-05T07:48:11.000Z</time>
      </trkpt>
      <trkpt lat="48.33056" lon="2.67507">
        <ele>70.7</ele>
        <time>2022-06-05T07:48:12.000Z</time>
      </trkpt>
      <trkpt lat="48.33047" lon="2.6751">
        <ele>70.7</ele>
        <time>2022-06-05T07:48:19.000Z</time>
      </trkpt>
      <trkpt lat="48.3304" lon="2.67521">
        <ele>71.5</ele>
        <time>2022-06-05T07:48:31.000Z</time>
      </trkpt>
      <trkpt lat="48.33031" lon="2.67528">
        <ele>71.3</ele>
        <time>2022-06-05T07:48:35.000Z</time>
      </trkpt>
      <trkpt lat="48.33039" lon="2.67519">
        <ele>73.5</ele>
        <time>2022-06-05T07:48:43.000Z</time>
      </trkpt>
      <trkpt lat="48.33043" lon="2.67506">
        <ele>73</ele>
        <time>2022-06-05T07:48:48.000Z</time>
      </trkpt>
      <trkpt lat="48.33053" lon="2.67498">
        <ele>73.2</ele>
        <time>2022-06-05T07:48:53.000Z</time>
      </trkpt>
      <trkpt lat="48.33054" lon="2.67512">
        <ele>72.8</ele>
        <time>2022-06-05T07:49:03.000Z</time>
      </trkpt>
      <trkpt lat="48.33063" lon="2.67504">
        <ele>72.3</ele>
        <time>2022-06-05T07:49:13.000Z</time>
      </trkpt>
      <trkpt lat="48.33067" lon="2.67499">
        <ele>71.7</ele>
        <time>2022-06-05T07:49:21.000Z</time>
      </trkpt>
      <trkpt lat="48.33067" lon="2.67499">
        <ele>71.3</ele>
        <time>2022-06-05T07:49:22.000Z</time>
      </trkpt>
      <trkpt lat="48.33075" lon="2.67493">
        <ele>70.9</ele>
        <time>2022-06-05T07:49:45.000Z</time>
      </trkpt>
      <trkpt lat="48.3308" lon="2.67486">
        <ele>68.2</ele>
        <time>2022-06-05T07:49:53.000Z</time>
      </trkpt>
      <trkpt lat="48.3308" lon="2.67486">
        <ele>67.9</ele>
        <time>2022-06-05T07:49:54.000Z</time>
      </trkpt>
      <trkpt lat="48.33085" lon="2.67474">
        <ele>68.2</ele>
        <time>2022-06-05T07:49:57.000Z</time>
      </trkpt>
      <trkpt lat="48.33085" lon="2.67474">
        <ele>61.5</ele>
        <time>2022-06-05T07:49:59.000Z</time>
      </trkpt>
      <trkpt lat="48.33085" lon="2.67473">
        <ele>67.1</ele>
        <time>2022-06-05T07:50:01.000Z</time>
      </trkpt>
      <trkpt lat="48.33081" lon="2.67466">
        <ele>70.7</ele>
        <time>2022-06-05T07:50:21.000Z</time>
      </trkpt>
      <trkpt lat="48.33081" lon="2.67466">
        <ele>70.6</ele>
        <time>2022-06-05T07:50:22.000Z</time>
      </trkpt>
      <trkpt lat="48.3308" lon="2.67467">
        <ele>71.2</ele>
        <time>2022-06-05T07:50:25.000Z</time>
      </trkpt>
      <trkpt lat="48.3308" lon="2.67467">
        <ele>71.3</ele>
        <time>2022-06-05T07:50:26.000Z</time>
      </trkpt>
      <trkpt lat="48.3308" lon="2.67467">
        <ele>71.4</ele>
        <time>2022-06-05T07:50:27.000Z</time>
      </trkpt>
      <trkpt lat="48.33079" lon="2.67467">
        <ele>71.6</ele>
        <time>2022-06-05T07:50:31.000Z</time>
      </trkpt>
      <trkpt lat="48.33079" lon="2.67468">
        <ele>71.8</ele>
        <time>2022-06-05T07:50:33.000Z</time>
      </trkpt>
      <trkpt lat="48.33079" lon="2.67468">
        <ele>72.9</ele>
        <time>2022-06-05T07:50:48.000Z</time>
      </trkpt>
      <trkpt lat="48.33079" lon="2.67468">
        <ele>73</ele>
        <time>2022-06-05T07:50:49.000Z</time>
      </trkpt>
      <trkpt lat="48.33079" lon="2.67468">
        <ele>74</ele>
        <time>2022-06-05T07:51:02.000Z</time>
      </trkpt>
      <trkpt lat="48.3308" lon="2.67468">
        <ele>74.1</ele>
        <time>2022-06-05T07:51:05.000Z</time>
      </trkpt>
      <trkpt lat="48.3308" lon="2.67468">
        <ele>74.2</ele>
        <time>2022-06-05T07:51:06.000Z</time>
      </trkpt>
      <trkpt lat="48.33083" lon="2.67469">
        <ele>74.5</ele>
        <time>2022-06-05T07:51:13.000Z</time>
      </trkpt>
      <trkpt lat="48.33083" lon="2.6747">
        <ele>75.3</ele>
        <time>2022-06-05T07:51:22.000Z</time>
      </trkpt>
      <trkpt lat="48.33083" lon="2.6747">
        <ele>75.6</ele>
        <time>2022-06-05T07:51:24.000Z</time>
      </trkpt>
      <trkpt lat="48.33083" lon="2.6747">
        <ele>75.8</ele>
        <time>2022-06-05T07:51:27.000Z</time>
      </trkpt>
      <trkpt lat="48.33082" lon="2.67471">
        <ele>76.3</ele>
        <time>2022-06-05T07:51:36.000Z</time>
      </trkpt>
      <trkpt lat="48.33082" lon="2.67471">
        <ele>76.1</ele>
        <time>2022-06-05T07:51:40.000Z</time>
      </trkpt>
      <trkpt lat="48.33082" lon="2.67471">
        <ele>76.3</ele>
        <time>2022-06-05T07:51:41.000Z</time>
      </trkpt>
      <trkpt lat="48.33082" lon="2.67471">
        <ele>76.4</ele>
        <time>2022-06-05T07:51:42.000Z</time>
      </trkpt>
      <trkpt lat="48.33089" lon="2.67461">
        <ele>77</ele>
        <time>2022-06-05T07:52:22.000Z</time>
      </trkpt>
      <trkpt lat="48.33089" lon="2.67461">
        <ele>75.5</ele>
        <time>2022-06-05T07:52:25.000Z</time>
      </trkpt>
      <trkpt lat="48.33089" lon="2.67461">
        <ele>75.9</ele>
        <time>2022-06-05T07:52:28.000Z</time>
      </trkpt>
      <trkpt lat="48.33089" lon="2.67461">
        <ele>75.8</ele>
        <time>2022-06-05T07:52:29.000Z</time>
      </trkpt>
      <trkpt lat="48.33089" lon="2.67461">
        <ele>75.8</ele>
        <time>2022-06-05T07:52:30.000Z</time>
      </trkpt>
      <trkpt lat="48.33089" lon="2.67461">
        <ele>75.7</ele>
        <time>2022-06-05T07:52:31.000Z</time>
      </trkpt>
      <trkpt lat="48.33089" lon="2.67461">
        <ele>75.7</ele>
        <time>2022-06-05T07:52:32.000Z</time>
      </trkpt>
      <trkpt lat="48.33089" lon="2.67461">
        <ele>75.6</ele>
        <time>2022-06-05T07:52:34.000Z</time>
      </trkpt>
      <trkpt lat="48.33089" lon="2.6746">
        <ele>75.5</ele>
        <time>2022-06-05T07:52:35.000Z</time>
      </trkpt>
      <trkpt lat="48.33095" lon="2.67449">
        <ele>73.7</ele>
        <time>2022-06-05T07:52:49.000Z</time>
      </trkpt>
      <trkpt lat="48.33095" lon="2.67435">
        <ele>70.9</ele>
        <time>2022-06-05T07:53:07.000Z</time>
      </trkpt>
      <trkpt lat="48.33101" lon="2.67422">
        <ele>70.2</ele>
        <time>2022-06-05T07:53:19.000Z</time>
      </trkpt>
      <trkpt lat="48.33109" lon="2.6741">
        <ele>69.7</ele>
        <time>2022-06-05T07:53:24.000Z</time>
      </trkpt>
      <trkpt lat="48.33118" lon="2.67402">
        <ele>69.9</ele>
        <time>2022-06-05T07:53:28.000Z</time>
      </trkpt>
      <trkpt lat="48.33121" lon="2.67388">
        <ele>69.7</ele>
        <time>2022-06-05T07:53:35.000Z</time>
      </trkpt>
      <trkpt lat="48.33126" lon="2.67376">
        <ele>68.6</ele>
        <time>2022-06-05T07:53:46.000Z</time>
      </trkpt>
      <trkpt lat="48.33126" lon="2.67376">
        <ele>69.5</ele>
        <time>2022-06-05T07:53:47.000Z</time>
      </trkpt>
      <trkpt lat="48.33126" lon="2.67375">
        <ele>69.9</ele>
        <time>2022-06-05T07:53:48.000Z</time>
      </trkpt>
      <trkpt lat="48.33134" lon="2.67365">
        <ele>69.8</ele>
        <time>2022-06-05T07:54:00.000Z</time>
      </trkpt>
      <trkpt lat="48.3314" lon="2.67353">
        <ele>69.9</ele>
        <time>2022-06-05T07:54:08.000Z</time>
      </trkpt>
      <trkpt lat="48.33145" lon="2.67339">
        <ele>69.7</ele>
        <time>2022-06-05T07:54:16.000Z</time>
      </trkpt>
      <trkpt lat="48.33152" lon="2.67325">
        <ele>70.8</ele>
        <time>2022-06-05T07:54:25.000Z</time>
      </trkpt>
      <trkpt lat="48.33155" lon="2.67312">
        <ele>71.6</ele>
        <time>2022-06-05T07:54:31.000Z</time>
      </trkpt>
      <trkpt lat="48.33159" lon="2.673">
        <ele>71.5</ele>
        <time>2022-06-05T07:54:40.000Z</time>
      </trkpt>
      <trkpt lat="48.33159" lon="2.673">
        <ele>71.7</ele>
        <time>2022-06-05T07:54:45.000Z</time>
      </trkpt>
      <trkpt lat="48.33158" lon="2.67299">
        <ele>71.8</ele>
        <time>2022-06-05T07:54:46.000Z</time>
      </trkpt>
      <trkpt lat="48.33159" lon="2.67284">
        <ele>71.3</ele>
        <time>2022-06-05T07:54:58.000Z</time>
      </trkpt>
      <trkpt lat="48.33162" lon="2.67271">
        <ele>70.9</ele>
        <time>2022-06-05T07:55:04.000Z</time>
      </trkpt>
      <trkpt lat="48.33167" lon="2.67264">
        <ele>71.7</ele>
        <time>2022-06-05T07:55:13.000Z</time>
      </trkpt>
      <trkpt lat="48.33169" lon="2.6726">
        <ele>71.1</ele>
        <time>2022-06-05T07:55:15.000Z</time>
      </trkpt>
      <trkpt lat="48.33168" lon="2.67245">
        <ele>71.5</ele>
        <time>2022-06-05T07:55:29.000Z</time>
      </trkpt>
      <trkpt lat="48.3317" lon="2.67231">
        <ele>71.1</ele>
        <time>2022-06-05T07:55:34.000Z</time>
      </trkpt>
      <trkpt lat="48.3317" lon="2.67216">
        <ele>71.1</ele>
        <time>2022-06-05T07:55:40.000Z</time>
      </trkpt>
      <trkpt lat="48.3317" lon="2.67201">
        <ele>70.7</ele>
        <time>2022-06-05T07:55:46.000Z</time>
      </trkpt>
      <trkpt lat="48.3318" lon="2.67203">
        <ele>70.9</ele>
        <time>2022-06-05T07:55:54.000Z</time>
      </trkpt>
      <trkpt lat="48.33189" lon="2.67196">
        <ele>71</ele>
        <time>2022-06-05T07:56:01.000Z</time>
      </trkpt>
      <trkpt lat="48.33199" lon="2.67195">
        <ele>70.9</ele>
        <time>2022-06-05T07:56:07.000Z</time>
      </trkpt>
      <trkpt lat="48.33205" lon="2.67184">
        <ele>73</ele>
        <time>2022-06-05T07:56:25.000Z</time>
      </trkpt>
      <trkpt lat="48.33211" lon="2.67174">
        <ele>73.5</ele>
        <time>2022-06-05T07:56:29.000Z</time>
      </trkpt>
      <trkpt lat="48.33217" lon="2.67162">
        <ele>74.1</ele>
        <time>2022-06-05T07:56:34.000Z</time>
      </trkpt>
      <trkpt lat="48.33222" lon="2.67149">
        <ele>74.6</ele>
        <time>2022-06-05T07:56:40.000Z</time>
      </trkpt>
      <trkpt lat="48.33222" lon="2.67135">
        <ele>74.8</ele>
        <time>2022-06-05T07:56:49.000Z</time>
      </trkpt>
      <trkpt lat="48.33223" lon="2.67121">
        <ele>73.8</ele>
        <time>2022-06-05T07:56:59.000Z</time>
      </trkpt>
      <trkpt lat="48.3323" lon="2.67112">
        <ele>73.7</ele>
        <time>2022-06-05T07:57:04.000Z</time>
      </trkpt>
      <trkpt lat="48.33238" lon="2.67104">
        <ele>72.8</ele>
        <time>2022-06-05T07:57:10.000Z</time>
      </trkpt>
      <trkpt lat="48.33248" lon="2.67098">
        <ele>72.5</ele>
        <time>2022-06-05T07:57:16.000Z</time>
      </trkpt>
      <trkpt lat="48.33253" lon="2.67085">
        <ele>74</ele>
        <time>2022-06-05T07:57:30.000Z</time>
      </trkpt>
      <trkpt lat="48.3324" lon="2.6708">
        <ele>73.9</ele>
        <time>2022-06-05T07:57:34.000Z</time>
      </trkpt>
      <trkpt lat="48.33226" lon="2.67076">
        <ele>73.9</ele>
        <time>2022-06-05T07:57:35.000Z</time>
      </trkpt>
      <trkpt lat="48.33234" lon="2.67066">
        <ele>72.3</ele>
        <time>2022-06-05T07:57:40.000Z</time>
      </trkpt>
      <trkpt lat="48.33242" lon="2.67057">
        <ele>74.2</ele>
        <time>2022-06-05T07:57:45.000Z</time>
      </trkpt>
      <trkpt lat="48.33245" lon="2.67045">
        <ele>73.4</ele>
        <time>2022-06-05T07:57:53.000Z</time>
      </trkpt>
      <trkpt lat="48.33249" lon="2.67032">
        <ele>73.1</ele>
        <time>2022-06-05T07:58:01.000Z</time>
      </trkpt>
      <trkpt lat="48.33258" lon="2.67023">
        <ele>72.9</ele>
        <time>2022-06-05T07:58:07.000Z</time>
      </trkpt>
      <trkpt lat="48.33255" lon="2.6701">
        <ele>72.7</ele>
        <time>2022-06-05T07:58:14.000Z</time>
      </trkpt>
      <trkpt lat="48.33264" lon="2.67006">
        <ele>72.4</ele>
        <time>2022-06-05T07:58:24.000Z</time>
      </trkpt>
      <trkpt lat="48.33266" lon="2.66992">
        <ele>72.5</ele>
        <time>2022-06-05T07:58:34.000Z</time>
      </trkpt>
      <trkpt lat="48.33268" lon="2.66977">
        <ele>71.4</ele>
        <time>2022-06-05T07:58:44.000Z</time>
      </trkpt>
      <trkpt lat="48.33271" lon="2.66964">
        <ele>71</ele>
        <time>2022-06-05T07:58:51.000Z</time>
      </trkpt>
      <trkpt lat="48.33273" lon="2.66951">
        <ele>69.1</ele>
        <time>2022-06-05T07:59:05.000Z</time>
      </trkpt>
      <trkpt lat="48.33278" lon="2.66937">
        <ele>69</ele>
        <time>2022-06-05T07:59:13.000Z</time>
      </trkpt>
      <trkpt lat="48.33279" lon="2.66923">
        <ele>69.1</ele>
        <time>2022-06-05T07:59:20.000Z</time>
      </trkpt>
      <trkpt lat="48.33281" lon="2.66909">
        <ele>70.4</ele>
        <time>2022-06-05T07:59:33.000Z</time>
      </trkpt>
      <trkpt lat="48.3328" lon="2.66895">
        <ele>70.5</ele>
        <time>2022-06-05T07:59:39.000Z</time>
      </trkpt>
      <trkpt lat="48.33279" lon="2.6688">
        <ele>70.7</ele>
        <time>2022-06-05T07:59:46.000Z</time>
      </trkpt>
      <trkpt lat="48.33278" lon="2.66863">
        <ele>70.7</ele>
        <time>2022-06-05T07:59:53.000Z</time>
      </trkpt>
      <trkpt lat="48.33281" lon="2.6685">
        <ele>70.4</ele>
        <time>2022-06-05T07:59:59.000Z</time>
      </trkpt>
      <trkpt lat="48.33291" lon="2.66845">
        <ele>70.9</ele>
        <time>2022-06-05T08:00:04.000Z</time>
      </trkpt>
      <trkpt lat="48.333" lon="2.66835">
        <ele>71.2</ele>
        <time>2022-06-05T08:00:09.000Z</time>
      </trkpt>
      <trkpt lat="48.33307" lon="2.66826">
        <ele>71.5</ele>
        <time>2022-06-05T08:00:18.000Z</time>
      </trkpt>
      <trkpt lat="48.33315" lon="2.66821">
        <ele>71.8</ele>
        <time>2022-06-05T08:00:24.000Z</time>
      </trkpt>
      <trkpt lat="48.33324" lon="2.66814">
        <ele>72.5</ele>
        <time>2022-06-05T08:00:31.000Z</time>
      </trkpt>
      <trkpt lat="48.33331" lon="2.66804">
        <ele>72.8</ele>
        <time>2022-06-05T08:00:36.000Z</time>
      </trkpt>
      <trkpt lat="48.33339" lon="2.66795">
        <ele>72.1</ele>
        <time>2022-06-05T08:00:43.000Z</time>
      </trkpt>
      <trkpt lat="48.33345" lon="2.66783">
        <ele>72</ele>
        <time>2022-06-05T08:00:52.000Z</time>
      </trkpt>
      <trkpt lat="48.33349" lon="2.66771">
        <ele>72.4</ele>
        <time>2022-06-05T08:01:01.000Z</time>
      </trkpt>
      <trkpt lat="48.33354" lon="2.66759">
        <ele>72.7</ele>
        <time>2022-06-05T08:01:10.000Z</time>
      </trkpt>
      <trkpt lat="48.33356" lon="2.66758">
        <ele>73.2</ele>
        <time>2022-06-05T08:01:16.000Z</time>
      </trkpt>
      <trkpt lat="48.33357" lon="2.66758">
        <ele>73.3</ele>
        <time>2022-06-05T08:01:17.000Z</time>
      </trkpt>
      <trkpt lat="48.33357" lon="2.66758">
        <ele>73.4</ele>
        <time>2022-06-05T08:01:18.000Z</time>
      </trkpt>
      <trkpt lat="48.33357" lon="2.66757">
        <ele>73.5</ele>
        <time>2022-06-05T08:01:21.000Z</time>
      </trkpt>
      <trkpt lat="48.33356" lon="2.66752">
        <ele>74.2</ele>
        <time>2022-06-05T08:01:33.000Z</time>
      </trkpt>
      <trkpt lat="48.33356" lon="2.66751">
        <ele>74.2</ele>
        <time>2022-06-05T08:01:34.000Z</time>
      </trkpt>
      <trkpt lat="48.3336" lon="2.66749">
        <ele>74.2</ele>
        <time>2022-06-05T08:01:44.000Z</time>
      </trkpt>
      <trkpt lat="48.3336" lon="2.66749">
        <ele>74.2</ele>
        <time>2022-06-05T08:01:45.000Z</time>
      </trkpt>
      <trkpt lat="48.33366" lon="2.66738">
        <ele>73</ele>
        <time>2022-06-05T08:02:03.000Z</time>
      </trkpt>
      <trkpt lat="48.33372" lon="2.66727">
        <ele>72</ele>
        <time>2022-06-05T08:02:12.000Z</time>
      </trkpt>
      <trkpt lat="48.33375" lon="2.66713">
        <ele>71.7</ele>
        <time>2022-06-05T08:02:22.000Z</time>
      </trkpt>
      <trkpt lat="48.33372" lon="2.66712">
        <ele>71.3</ele>
        <time>2022-06-05T08:02:33.000Z</time>
      </trkpt>
      <trkpt lat="48.33372" lon="2.6671">
        <ele>70.9</ele>
        <time>2022-06-05T08:02:34.000Z</time>
      </trkpt>
      <trkpt lat="48.33368" lon="2.66697">
        <ele>70.9</ele>
        <time>2022-06-05T08:02:47.000Z</time>
      </trkpt>
      <trkpt lat="48.33364" lon="2.66683">
        <ele>70.6</ele>
        <time>2022-06-05T08:02:57.000Z</time>
      </trkpt>
      <trkpt lat="48.3336" lon="2.66669">
        <ele>69.9</ele>
        <time>2022-06-05T08:03:06.000Z</time>
      </trkpt>
      <trkpt lat="48.33354" lon="2.66657">
        <ele>69.5</ele>
        <time>2022-06-05T08:03:14.000Z</time>
      </trkpt>
      <trkpt lat="48.33352" lon="2.66644">
        <ele>69.7</ele>
        <time>2022-06-05T08:03:21.000Z</time>
      </trkpt>
      <trkpt lat="48.33349" lon="2.66629">
        <ele>69.4</ele>
        <time>2022-06-05T08:03:30.000Z</time>
      </trkpt>
      <trkpt lat="48.33348" lon="2.66614">
        <ele>70.4</ele>
        <time>2022-06-05T08:03:38.000Z</time>
      </trkpt>
      <trkpt lat="48.3335" lon="2.666">
        <ele>71.4</ele>
        <time>2022-06-05T08:03:52.000Z</time>
      </trkpt>
      <trkpt lat="48.33349" lon="2.66586">
        <ele>72.4</ele>
        <time>2022-06-05T08:04:03.000Z</time>
      </trkpt>
      <trkpt lat="48.33352" lon="2.66571">
        <ele>72.7</ele>
        <time>2022-06-05T08:04:10.000Z</time>
      </trkpt>
      <trkpt lat="48.33348" lon="2.66557">
        <ele>74.2</ele>
        <time>2022-06-05T08:04:17.000Z</time>
      </trkpt>
      <trkpt lat="48.33349" lon="2.66543">
        <ele>74.2</ele>
        <time>2022-06-05T08:04:25.000Z</time>
      </trkpt>
      <trkpt lat="48.3335" lon="2.66528">
        <ele>74.6</ele>
        <time>2022-06-05T08:04:33.000Z</time>
      </trkpt>
      <trkpt lat="48.33349" lon="2.66514">
        <ele>74.9</ele>
        <time>2022-06-05T08:04:42.000Z</time>
      </trkpt>
      <trkpt lat="48.3334" lon="2.66509">
        <ele>76.4</ele>
        <time>2022-06-05T08:04:50.000Z</time>
      </trkpt>
      <trkpt lat="48.3333" lon="2.66506">
        <ele>78.5</ele>
        <time>2022-06-05T08:05:06.000Z</time>
      </trkpt>
      <trkpt lat="48.3332" lon="2.66507">
        <ele>79.5</ele>
        <time>2022-06-05T08:05:11.000Z</time>
      </trkpt>
      <trkpt lat="48.3331" lon="2.66504">
        <ele>80.4</ele>
        <time>2022-06-05T08:05:19.000Z</time>
      </trkpt>
      <trkpt lat="48.333" lon="2.66504">
        <ele>81.7</ele>
        <time>2022-06-05T08:05:27.000Z</time>
      </trkpt>
      <trkpt lat="48.33291" lon="2.66501">
        <ele>81.7</ele>
        <time>2022-06-05T08:05:33.000Z</time>
      </trkpt>
      <trkpt lat="48.33282" lon="2.66499">
        <ele>81.7</ele>
        <time>2022-06-05T08:05:40.000Z</time>
      </trkpt>
      <trkpt lat="48.33279" lon="2.66498">
        <ele>81.8</ele>
        <time>2022-06-05T08:05:48.000Z</time>
      </trkpt>
      <trkpt lat="48.33279" lon="2.66499">
        <ele>81.8</ele>
        <time>2022-06-05T08:05:49.000Z</time>
      </trkpt>
      <trkpt lat="48.33271" lon="2.66507">
        <ele>81.5</ele>
        <time>2022-06-05T08:05:58.000Z</time>
      </trkpt>
      <trkpt lat="48.33261" lon="2.66511">
        <ele>81.3</ele>
        <time>2022-06-05T08:06:04.000Z</time>
      </trkpt>
      <trkpt lat="48.33251" lon="2.66511">
        <ele>81</ele>
        <time>2022-06-05T08:06:11.000Z</time>
      </trkpt>
      <trkpt lat="48.3324" lon="2.66513">
        <ele>80.7</ele>
        <time>2022-06-05T08:06:21.000Z</time>
      </trkpt>
      <trkpt lat="48.3323" lon="2.6651">
        <ele>81</ele>
        <time>2022-06-05T08:06:26.000Z</time>
      </trkpt>
      <trkpt lat="48.33221" lon="2.66512">
        <ele>81.2</ele>
        <time>2022-06-05T08:06:40.000Z</time>
      </trkpt>
      <trkpt lat="48.33214" lon="2.66512">
        <ele>80.8</ele>
        <time>2022-06-05T08:06:54.000Z</time>
      </trkpt>
      <trkpt lat="48.33213" lon="2.66512">
        <ele>80.8</ele>
        <time>2022-06-05T08:06:55.000Z</time>
      </trkpt>
      <trkpt lat="48.33206" lon="2.66519">
        <ele>80.5</ele>
        <time>2022-06-05T08:07:16.000Z</time>
      </trkpt>
      <trkpt lat="48.332" lon="2.66508">
        <ele>80.3</ele>
        <time>2022-06-05T08:07:22.000Z</time>
      </trkpt>
      <trkpt lat="48.332" lon="2.66508">
        <ele>80.2</ele>
        <time>2022-06-05T08:07:23.000Z</time>
      </trkpt>
      <trkpt lat="48.33199" lon="2.66507">
        <ele>80</ele>
        <time>2022-06-05T08:07:26.000Z</time>
      </trkpt>
      <trkpt lat="48.33198" lon="2.66506">
        <ele>79.9</ele>
        <time>2022-06-05T08:07:28.000Z</time>
      </trkpt>
      <trkpt lat="48.33198" lon="2.66505">
        <ele>79.4</ele>
        <time>2022-06-05T08:07:33.000Z</time>
      </trkpt>
      <trkpt lat="48.33197" lon="2.66504">
        <ele>79</ele>
        <time>2022-06-05T08:07:36.000Z</time>
      </trkpt>
      <trkpt lat="48.33197" lon="2.66504">
        <ele>78.9</ele>
        <time>2022-06-05T08:07:42.000Z</time>
      </trkpt>
      <trkpt lat="48.33197" lon="2.66504">
        <ele>78.8</ele>
        <time>2022-06-05T08:07:43.000Z</time>
      </trkpt>
      <trkpt lat="48.33196" lon="2.66503">
        <ele>78.7</ele>
        <time>2022-06-05T08:07:44.000Z</time>
      </trkpt>
      <trkpt lat="48.33196" lon="2.66503">
        <ele>78.6</ele>
        <time>2022-06-05T08:07:45.000Z</time>
      </trkpt>
      <trkpt lat="48.33196" lon="2.66503">
        <ele>78.7</ele>
        <time>2022-06-05T08:07:47.000Z</time>
      </trkpt>
      <trkpt lat="48.33195" lon="2.66502">
        <ele>78.8</ele>
        <time>2022-06-05T08:07:49.000Z</time>
      </trkpt>
      <trkpt lat="48.33195" lon="2.66502">
        <ele>78</ele>
        <time>2022-06-05T08:07:51.000Z</time>
      </trkpt>
      <trkpt lat="48.33194" lon="2.66502">
        <ele>76.8</ele>
        <time>2022-06-05T08:07:55.000Z</time>
      </trkpt>
      <trkpt lat="48.33193" lon="2.66502">
        <ele>76</ele>
        <time>2022-06-05T08:07:59.000Z</time>
      </trkpt>
      <trkpt lat="48.33193" lon="2.66502">
        <ele>75.6</ele>
        <time>2022-06-05T08:08:01.000Z</time>
      </trkpt>
      <trkpt lat="48.33193" lon="2.66502">
        <ele>71.4</ele>
        <time>2022-06-05T08:08:15.000Z</time>
      </trkpt>
      <trkpt lat="48.33193" lon="2.66502">
        <ele>71.3</ele>
        <time>2022-06-05T08:08:16.000Z</time>
      </trkpt>
      <trkpt lat="48.33193" lon="2.66503">
        <ele>70</ele>
        <time>2022-06-05T08:08:21.000Z</time>
      </trkpt>
      <trkpt lat="48.33192" lon="2.66504">
        <ele>67.7</ele>
        <time>2022-06-05T08:08:32.000Z</time>
      </trkpt>
      <trkpt lat="48.33192" lon="2.66504">
        <ele>67</ele>
        <time>2022-06-05T08:08:39.000Z</time>
      </trkpt>
      <trkpt lat="48.33191" lon="2.66504">
        <ele>65.9</ele>
        <time>2022-06-05T08:08:43.000Z</time>
      </trkpt>
      <trkpt lat="48.3319" lon="2.66504">
        <ele>65.1</ele>
        <time>2022-06-05T08:08:48.000Z</time>
      </trkpt>
      <trkpt lat="48.33189" lon="2.66504">
        <ele>65.3</ele>
        <time>2022-06-05T08:08:51.000Z</time>
      </trkpt>
      <trkpt lat="48.33189" lon="2.66503">
        <ele>65.1</ele>
        <time>2022-06-05T08:08:52.000Z</time>
      </trkpt>
      <trkpt lat="48.33187" lon="2.66503">
        <ele>63.9</ele>
        <time>2022-06-05T08:09:01.000Z</time>
      </trkpt>
      <trkpt lat="48.33187" lon="2.66503">
        <ele>63.8</ele>
        <time>2022-06-05T08:09:02.000Z</time>
      </trkpt>
      <trkpt lat="48.33181" lon="2.66514">
        <ele>62.7</ele>
        <time>2022-06-05T08:09:21.000Z</time>
      </trkpt>
      <trkpt lat="48.33178" lon="2.66527">
        <ele>64.2</ele>
        <time>2022-06-05T08:09:30.000Z</time>
      </trkpt>
      <trkpt lat="48.33172" lon="2.66538">
        <ele>65.8</ele>
        <time>2022-06-05T08:09:39.000Z</time>
      </trkpt>
      <trkpt lat="48.33165" lon="2.66549">
        <ele>67.2</ele>
        <time>2022-06-05T08:09:46.000Z</time>
      </trkpt>
      <trkpt lat="48.3316" lon="2.66562">
        <ele>68.9</ele>
        <time>2022-06-05T08:09:55.000Z</time>
      </trkpt>
      <trkpt lat="48.33152" lon="2.66571">
        <ele>69.9</ele>
        <time>2022-06-05T08:10:03.000Z</time>
      </trkpt>
      <trkpt lat="48.33145" lon="2.6658">
        <ele>71.3</ele>
        <time>2022-06-05T08:10:13.000Z</time>
      </trkpt>
      <trkpt lat="48.33138" lon="2.66591">
        <ele>72.2</ele>
        <time>2022-06-05T08:10:21.000Z</time>
      </trkpt>
      <trkpt lat="48.33132" lon="2.66602">
        <ele>74.4</ele>
        <time>2022-06-05T08:10:31.000Z</time>
      </trkpt>
      <trkpt lat="48.33124" lon="2.66612">
        <ele>74.7</ele>
        <time>2022-06-05T08:10:39.000Z</time>
      </trkpt>
      <trkpt lat="48.33124" lon="2.66612">
        <ele>74.7</ele>
        <time>2022-06-05T08:10:39.000Z</time>
      </trkpt>
      <trkpt lat="48.33116" lon="2.66627">
        <ele>76.4</ele>
        <time>2022-06-05T08:11:00.000Z</time>
      </trkpt>
      <trkpt lat="48.33108" lon="2.66637">
        <ele>76</ele>
        <time>2022-06-05T08:11:06.000Z</time>
      </trkpt>
      <trkpt lat="48.33099" lon="2.66636">
        <ele>76.2</ele>
        <time>2022-06-05T08:11:12.000Z</time>
      </trkpt>
      <trkpt lat="48.331" lon="2.66622">
        <ele>76.6</ele>
        <time>2022-06-05T08:11:27.000Z</time>
      </trkpt>
      <trkpt lat="48.33097" lon="2.66608">
        <ele>77.8</ele>
        <time>2022-06-05T08:11:38.000Z</time>
      </trkpt>
      <trkpt lat="48.33098" lon="2.66594">
        <ele>77.7</ele>
        <time>2022-06-05T08:11:44.000Z</time>
      </trkpt>
      <trkpt lat="48.33097" lon="2.6658">
        <ele>77.6</ele>
        <time>2022-06-05T08:11:52.000Z</time>
      </trkpt>
      <trkpt lat="48.33098" lon="2.66566">
        <ele>77.3</ele>
        <time>2022-06-05T08:11:59.000Z</time>
      </trkpt>
      <trkpt lat="48.33102" lon="2.66552">
        <ele>77.4</ele>
        <time>2022-06-05T08:12:08.000Z</time>
      </trkpt>
      <trkpt lat="48.33105" lon="2.6654">
        <ele>78.2</ele>
        <time>2022-06-05T08:12:17.000Z</time>
      </trkpt>
      <trkpt lat="48.33105" lon="2.66525">
        <ele>79.3</ele>
        <time>2022-06-05T08:12:24.000Z</time>
      </trkpt>
      <trkpt lat="48.33106" lon="2.66511">
        <ele>80.5</ele>
        <time>2022-06-05T08:12:33.000Z</time>
      </trkpt>
      <trkpt lat="48.33108" lon="2.66498">
        <ele>81.7</ele>
        <time>2022-06-05T08:12:44.000Z</time>
      </trkpt>
      <trkpt lat="48.3311" lon="2.66483">
        <ele>82.2</ele>
        <time>2022-06-05T08:12:51.000Z</time>
      </trkpt>
      <trkpt lat="48.33111" lon="2.66469">
        <ele>82.8</ele>
        <time>2022-06-05T08:12:57.000Z</time>
      </trkpt>
      <trkpt lat="48.33113" lon="2.66456">
        <ele>82.7</ele>
        <time>2022-06-05T08:13:03.000Z</time>
      </trkpt>
      <trkpt lat="48.33115" lon="2.66442">
        <ele>83.1</ele>
        <time>2022-06-05T08:13:12.000Z</time>
      </trkpt>
      <trkpt lat="48.33113" lon="2.66427">
        <ele>83.5</ele>
        <time>2022-06-05T08:13:25.000Z</time>
      </trkpt>
      <trkpt lat="48.33112" lon="2.66413">
        <ele>83.5</ele>
        <time>2022-06-05T08:13:31.000Z</time>
      </trkpt>
      <trkpt lat="48.33115" lon="2.66399">
        <ele>81.8</ele>
        <time>2022-06-05T08:13:47.000Z</time>
      </trkpt>
      <trkpt lat="48.33114" lon="2.66386">
        <ele>81.8</ele>
        <time>2022-06-05T08:13:56.000Z</time>
      </trkpt>
      <trkpt lat="48.33117" lon="2.66372">
        <ele>81.9</ele>
        <time>2022-06-05T08:14:04.000Z</time>
      </trkpt>
      <trkpt lat="48.33118" lon="2.66358">
        <ele>82.2</ele>
        <time>2022-06-05T08:14:12.000Z</time>
      </trkpt>
      <trkpt lat="48.3312" lon="2.66345">
        <ele>82.4</ele>
        <time>2022-06-05T08:14:22.000Z</time>
      </trkpt>
      <trkpt lat="48.33115" lon="2.66333">
        <ele>82.1</ele>
        <time>2022-06-05T08:14:37.000Z</time>
      </trkpt>
      <trkpt lat="48.33109" lon="2.66322">
        <ele>82.5</ele>
        <time>2022-06-05T08:14:48.000Z</time>
      </trkpt>
      <trkpt lat="48.33102" lon="2.66314">
        <ele>83.3</ele>
        <time>2022-06-05T08:15:01.000Z</time>
      </trkpt>
      <trkpt lat="48.33092" lon="2.66312">
        <ele>83.4</ele>
        <time>2022-06-05T08:15:08.000Z</time>
      </trkpt>
      <trkpt lat="48.33083" lon="2.66309">
        <ele>83.9</ele>
        <time>2022-06-05T08:15:13.000Z</time>
      </trkpt>
      <trkpt lat="48.33074" lon="2.66307">
        <ele>84.5</ele>
        <time>2022-06-05T08:15:23.000Z</time>
      </trkpt>
      <trkpt lat="48.33065" lon="2.66307">
        <ele>84.9</ele>
        <time>2022-06-05T08:15:34.000Z</time>
      </trkpt>
      <trkpt lat="48.33057" lon="2.66297">
        <ele>85.6</ele>
        <time>2022-06-05T08:15:44.000Z</time>
      </trkpt>
      <trkpt lat="48.33049" lon="2.6629">
        <ele>86.9</ele>
        <time>2022-06-05T08:15:58.000Z</time>
      </trkpt>
      <trkpt lat="48.33046" lon="2.66291">
        <ele>86.9</ele>
        <time>2022-06-05T08:16:01.000Z</time>
      </trkpt>
      <trkpt lat="48.33045" lon="2.66293">
        <ele>86.8</ele>
        <time>2022-06-05T08:16:02.000Z</time>
      </trkpt>
      <trkpt lat="48.33045" lon="2.66292">
        <ele>86.8</ele>
        <time>2022-06-05T08:16:04.000Z</time>
      </trkpt>
      <trkpt lat="48.33046" lon="2.66293">
        <ele>86.9</ele>
        <time>2022-06-05T08:16:05.000Z</time>
      </trkpt>
      <trkpt lat="48.33047" lon="2.66291">
        <ele>87.5</ele>
        <time>2022-06-05T08:16:10.000Z</time>
      </trkpt>
      <trkpt lat="48.33047" lon="2.6629">
        <ele>87.6</ele>
        <time>2022-06-05T08:16:11.000Z</time>
      </trkpt>
      <trkpt lat="48.33046" lon="2.66276">
        <ele>88.7</ele>
        <time>2022-06-05T08:16:23.000Z</time>
      </trkpt>
      <trkpt lat="48.33041" lon="2.66262">
        <ele>88.8</ele>
        <time>2022-06-05T08:16:36.000Z</time>
      </trkpt>
      <trkpt lat="48.33039" lon="2.66249">
        <ele>89.2</ele>
        <time>2022-06-05T08:16:45.000Z</time>
      </trkpt>
      <trkpt lat="48.33038" lon="2.66236">
        <ele>89</ele>
        <time>2022-06-05T08:16:51.000Z</time>
      </trkpt>
      <trkpt lat="48.33034" lon="2.66223">
        <ele>89.2</ele>
        <time>2022-06-05T08:16:59.000Z</time>
      </trkpt>
      <trkpt lat="48.33039" lon="2.66211">
        <ele>89.7</ele>
        <time>2022-06-05T08:17:05.000Z</time>
      </trkpt>
      <trkpt lat="48.33041" lon="2.66197">
        <ele>89.4</ele>
        <time>2022-06-05T08:17:11.000Z</time>
      </trkpt>
      <trkpt lat="48.33039" lon="2.66182">
        <ele>89.9</ele>
        <time>2022-06-05T08:17:17.000Z</time>
      </trkpt>
      <trkpt lat="48.3304" lon="2.66168">
        <ele>90.3</ele>
        <time>2022-06-05T08:17:29.000Z</time>
      </trkpt>
      <trkpt lat="48.33036" lon="2.66154">
        <ele>90.9</ele>
        <time>2022-06-05T08:17:38.000Z</time>
      </trkpt>
      <trkpt lat="48.33033" lon="2.66141">
        <ele>91.5</ele>
        <time>2022-06-05T08:17:48.000Z</time>
      </trkpt>
      <trkpt lat="48.33028" lon="2.66128">
        <ele>92.8</ele>
        <time>2022-06-05T08:17:58.000Z</time>
      </trkpt>
      <trkpt lat="48.33021" lon="2.6612">
        <ele>93.2</ele>
        <time>2022-06-05T08:18:05.000Z</time>
      </trkpt>
      <trkpt lat="48.33011" lon="2.66114">
        <ele>94.3</ele>
        <time>2022-06-05T08:18:15.000Z</time>
      </trkpt>
      <trkpt lat="48.33009" lon="2.661">
        <ele>94.1</ele>
        <time>2022-06-05T08:18:22.000Z</time>
      </trkpt>
      <trkpt lat="48.33" lon="2.66094">
        <ele>95.1</ele>
        <time>2022-06-05T08:18:35.000Z</time>
      </trkpt>
      <trkpt lat="48.32994" lon="2.66083">
        <ele>97</ele>
        <time>2022-06-05T08:18:55.000Z</time>
      </trkpt>
      <trkpt lat="48.32986" lon="2.66075">
        <ele>97.5</ele>
        <time>2022-06-05T08:19:06.000Z</time>
      </trkpt>
      <trkpt lat="48.3298" lon="2.66064">
        <ele>99.7</ele>
        <time>2022-06-05T08:19:19.000Z</time>
      </trkpt>
      <trkpt lat="48.3298" lon="2.66063">
        <ele>100</ele>
        <time>2022-06-05T08:19:21.000Z</time>
      </trkpt>
      <trkpt lat="48.32979" lon="2.66063">
        <ele>100.5</ele>
        <time>2022-06-05T08:19:23.000Z</time>
      </trkpt>
      <trkpt lat="48.32979" lon="2.66063">
        <ele>100.5</ele>
        <time>2022-06-05T08:19:24.000Z</time>
      </trkpt>
      <trkpt lat="48.32979" lon="2.66063">
        <ele>100.8</ele>
        <time>2022-06-05T08:19:28.000Z</time>
      </trkpt>
      <trkpt lat="48.32972" lon="2.66053">
        <ele>102.7</ele>
        <time>2022-06-05T08:19:43.000Z</time>
      </trkpt>
      <trkpt lat="48.32966" lon="2.6604">
        <ele>103.9</ele>
        <time>2022-06-05T08:19:51.000Z</time>
      </trkpt>
      <trkpt lat="48.32962" lon="2.66028">
        <ele>103.9</ele>
        <time>2022-06-05T08:20:00.000Z</time>
      </trkpt>
      <trkpt lat="48.32958" lon="2.66014">
        <ele>104.6</ele>
        <time>2022-06-05T08:20:13.000Z</time>
      </trkpt>
      <trkpt lat="48.32951" lon="2.66005">
        <ele>104.4</ele>
        <time>2022-06-05T08:20:22.000Z</time>
      </trkpt>
      <trkpt lat="48.32942" lon="2.66">
        <ele>104.6</ele>
        <time>2022-06-05T08:20:30.000Z</time>
      </trkpt>
      <trkpt lat="48.32933" lon="2.6599">
        <ele>105.2</ele>
        <time>2022-06-05T08:20:37.000Z</time>
      </trkpt>
      <trkpt lat="48.32925" lon="2.6598">
        <ele>105.8</ele>
        <time>2022-06-05T08:20:43.000Z</time>
      </trkpt>
      <trkpt lat="48.32919" lon="2.65968">
        <ele>106.3</ele>
        <time>2022-06-05T08:20:54.000Z</time>
      </trkpt>
      <trkpt lat="48.32913" lon="2.65956">
        <ele>107.3</ele>
        <time>2022-06-05T08:21:01.000Z</time>
      </trkpt>
      <trkpt lat="48.32908" lon="2.65943">
        <ele>106.9</ele>
        <time>2022-06-05T08:21:15.000Z</time>
      </trkpt>
      <trkpt lat="48.32898" lon="2.65936">
        <ele>106.4</ele>
        <time>2022-06-05T08:21:21.000Z</time>
      </trkpt>
      <trkpt lat="48.32891" lon="2.65925">
        <ele>103.9</ele>
        <time>2022-06-05T08:21:27.000Z</time>
      </trkpt>
      <trkpt lat="48.32882" lon="2.65918">
        <ele>104.9</ele>
        <time>2022-06-05T08:21:35.000Z</time>
      </trkpt>
      <trkpt lat="48.32874" lon="2.65909">
        <ele>104.9</ele>
        <time>2022-06-05T08:21:42.000Z</time>
      </trkpt>
      <trkpt lat="48.3287" lon="2.65896">
        <ele>104.7</ele>
        <time>2022-06-05T08:21:53.000Z</time>
      </trkpt>
      <trkpt lat="48.32864" lon="2.65884">
        <ele>104.3</ele>
        <time>2022-06-05T08:22:01.000Z</time>
      </trkpt>
      <trkpt lat="48.32855" lon="2.65874">
        <ele>104.1</ele>
        <time>2022-06-05T08:22:07.000Z</time>
      </trkpt>
      <trkpt lat="48.32849" lon="2.65863">
        <ele>105</ele>
        <time>2022-06-05T08:22:14.000Z</time>
      </trkpt>
      <trkpt lat="48.32842" lon="2.65853">
        <ele>105.3</ele>
        <time>2022-06-05T08:22:19.000Z</time>
      </trkpt>
      <trkpt lat="48.32836" lon="2.65842">
        <ele>106</ele>
        <time>2022-06-05T08:22:26.000Z</time>
      </trkpt>
      <trkpt lat="48.32831" lon="2.65831">
        <ele>107.2</ele>
        <time>2022-06-05T08:22:36.000Z</time>
      </trkpt>
      <trkpt lat="48.32824" lon="2.65822">
        <ele>107.6</ele>
        <time>2022-06-05T08:22:43.000Z</time>
      </trkpt>
      <trkpt lat="48.32817" lon="2.65812">
        <ele>106.9</ele>
        <time>2022-06-05T08:22:51.000Z</time>
      </trkpt>
      <trkpt lat="48.3281" lon="2.65803">
        <ele>105.7</ele>
        <time>2022-06-05T08:23:00.000Z</time>
      </trkpt>
      <trkpt lat="48.32805" lon="2.65791">
        <ele>105.4</ele>
        <time>2022-06-05T08:23:06.000Z</time>
      </trkpt>
      <trkpt lat="48.32797" lon="2.65782">
        <ele>104.8</ele>
        <time>2022-06-05T08:23:13.000Z</time>
      </trkpt>
      <trkpt lat="48.32787" lon="2.65774">
        <ele>104.4</ele>
        <time>2022-06-05T08:23:20.000Z</time>
      </trkpt>
      <trkpt lat="48.32779" lon="2.65768">
        <ele>103.8</ele>
        <time>2022-06-05T08:23:25.000Z</time>
      </trkpt>
      <trkpt lat="48.32777" lon="2.65767">
        <ele>103.7</ele>
        <time>2022-06-05T08:23:28.000Z</time>
      </trkpt>
      <trkpt lat="48.32775" lon="2.65766">
        <ele>103.6</ele>
        <time>2022-06-05T08:23:29.000Z</time>
      </trkpt>
      <trkpt lat="48.32769" lon="2.65755">
        <ele>103.1</ele>
        <time>2022-06-05T08:23:34.000Z</time>
      </trkpt>
      <trkpt lat="48.3276" lon="2.65746">
        <ele>103</ele>
        <time>2022-06-05T08:23:42.000Z</time>
      </trkpt>
      <trkpt lat="48.32753" lon="2.65738">
        <ele>102.7</ele>
        <time>2022-06-05T08:23:51.000Z</time>
      </trkpt>
      <trkpt lat="48.32746" lon="2.65728">
        <ele>103.7</ele>
        <time>2022-06-05T08:24:06.000Z</time>
      </trkpt>
      <trkpt lat="48.32738" lon="2.65718">
        <ele>104.8</ele>
        <time>2022-06-05T08:24:20.000Z</time>
      </trkpt>
      <trkpt lat="48.3273" lon="2.65709">
        <ele>105</ele>
        <time>2022-06-05T08:24:27.000Z</time>
      </trkpt>
      <trkpt lat="48.32722" lon="2.65703">
        <ele>104.8</ele>
        <time>2022-06-05T08:24:38.000Z</time>
      </trkpt>
      <trkpt lat="48.32714" lon="2.65693">
        <ele>103.1</ele>
        <time>2022-06-05T08:24:57.000Z</time>
      </trkpt>
      <trkpt lat="48.32708" lon="2.65684">
        <ele>102.6</ele>
        <time>2022-06-05T08:25:02.000Z</time>
      </trkpt>
      <trkpt lat="48.32699" lon="2.65676">
        <ele>100.8</ele>
        <time>2022-06-05T08:25:10.000Z</time>
      </trkpt>
      <trkpt lat="48.32691" lon="2.65669">
        <ele>97.7</ele>
        <time>2022-06-05T08:25:18.000Z</time>
      </trkpt>
      <trkpt lat="48.32686" lon="2.65657">
        <ele>95</ele>
        <time>2022-06-05T08:25:27.000Z</time>
      </trkpt>
      <trkpt lat="48.32679" lon="2.65648">
        <ele>92.5</ele>
        <time>2022-06-05T08:25:36.000Z</time>
      </trkpt>
      <trkpt lat="48.32672" lon="2.65639">
        <ele>91.4</ele>
        <time>2022-06-05T08:25:44.000Z</time>
      </trkpt>
      <trkpt lat="48.32666" lon="2.65628">
        <ele>91</ele>
        <time>2022-06-05T08:25:52.000Z</time>
      </trkpt>
      <trkpt lat="48.3266" lon="2.65618">
        <ele>90</ele>
        <time>2022-06-05T08:26:01.000Z</time>
      </trkpt>
      <trkpt lat="48.32653" lon="2.65609">
        <ele>89.4</ele>
        <time>2022-06-05T08:26:07.000Z</time>
      </trkpt>
      <trkpt lat="48.32645" lon="2.656">
        <ele>88.7</ele>
        <time>2022-06-05T08:26:15.000Z</time>
      </trkpt>
      <trkpt lat="48.32638" lon="2.65589">
        <ele>89.1</ele>
        <time>2022-06-05T08:26:24.000Z</time>
      </trkpt>
      <trkpt lat="48.32631" lon="2.65579">
        <ele>90.6</ele>
        <time>2022-06-05T08:26:38.000Z</time>
      </trkpt>
      <trkpt lat="48.32624" lon="2.65567">
        <ele>90</ele>
        <time>2022-06-05T08:26:45.000Z</time>
      </trkpt>
      <trkpt lat="48.32618" lon="2.65557">
        <ele>90.3</ele>
        <time>2022-06-05T08:26:53.000Z</time>
      </trkpt>
      <trkpt lat="48.32611" lon="2.65548">
        <ele>88.8</ele>
        <time>2022-06-05T08:27:03.000Z</time>
      </trkpt>
      <trkpt lat="48.32604" lon="2.65537">
        <ele>88</ele>
        <time>2022-06-05T08:27:10.000Z</time>
      </trkpt>
      <trkpt lat="48.32596" lon="2.6553">
        <ele>86.8</ele>
        <time>2022-06-05T08:27:26.000Z</time>
      </trkpt>
      <trkpt lat="48.32589" lon="2.6552">
        <ele>85.7</ele>
        <time>2022-06-05T08:27:36.000Z</time>
      </trkpt>
      <trkpt lat="48.32581" lon="2.65511">
        <ele>84.4</ele>
        <time>2022-06-05T08:27:49.000Z</time>
      </trkpt>
      <trkpt lat="48.32573" lon="2.65502">
        <ele>84.5</ele>
        <time>2022-06-05T08:28:03.000Z</time>
      </trkpt>
      <trkpt lat="48.32573" lon="2.655">
        <ele>84.2</ele>
        <time>2022-06-05T08:28:07.000Z</time>
      </trkpt>
      <trkpt lat="48.32574" lon="2.65501">
        <ele>84.2</ele>
        <time>2022-06-05T08:28:08.000Z</time>
      </trkpt>
      <trkpt lat="48.32567" lon="2.65491">
        <ele>83.1</ele>
        <time>2022-06-05T08:28:19.000Z</time>
      </trkpt>
      <trkpt lat="48.32568" lon="2.6549">
        <ele>82.8</ele>
        <time>2022-06-05T08:28:22.000Z</time>
      </trkpt>
      <trkpt lat="48.32568" lon="2.6549">
        <ele>82.9</ele>
        <time>2022-06-05T08:28:23.000Z</time>
      </trkpt>
      <trkpt lat="48.3257" lon="2.65491">
        <ele>81.6</ele>
        <time>2022-06-05T08:28:32.000Z</time>
      </trkpt>
      <trkpt lat="48.32571" lon="2.65492">
        <ele>81.3</ele>
        <time>2022-06-05T08:28:34.000Z</time>
      </trkpt>
      <trkpt lat="48.32574" lon="2.65501">
        <ele>76.3</ele>
        <time>2022-06-05T08:28:59.000Z</time>
      </trkpt>
      <trkpt lat="48.32573" lon="2.65501">
        <ele>75.1</ele>
        <time>2022-06-05T08:29:09.000Z</time>
      </trkpt>
      <trkpt lat="48.32573" lon="2.65501">
        <ele>75</ele>
        <time>2022-06-05T08:29:10.000Z</time>
      </trkpt>
      <trkpt lat="48.32573" lon="2.65501">
        <ele>74.4</ele>
        <time>2022-06-05T08:29:14.000Z</time>
      </trkpt>
      <trkpt lat="48.32573" lon="2.65501">
        <ele>74.4</ele>
        <time>2022-06-05T08:29:14.000Z</time>
      </trkpt>
      <trkpt lat="48.32574" lon="2.65501">
        <ele>72.8</ele>
        <time>2022-06-05T08:29:33.000Z</time>
      </trkpt>
      <trkpt lat="48.32574" lon="2.65501">
        <ele>72.7</ele>
        <time>2022-06-05T08:29:34.000Z</time>
      </trkpt>
      <trkpt lat="48.32574" lon="2.65501">
        <ele>72.2</ele>
        <time>2022-06-05T08:29:38.000Z</time>
      </trkpt>
      <trkpt lat="48.32574" lon="2.65501">
        <ele>72.5</ele>
        <time>2022-06-05T08:29:40.000Z</time>
      </trkpt>
      <trkpt lat="48.32574" lon="2.65502">
        <ele>72.3</ele>
        <time>2022-06-05T08:29:41.000Z</time>
      </trkpt>
      <trkpt lat="48.32566" lon="2.65495">
        <ele>68.6</ele>
        <time>2022-06-05T08:29:58.000Z</time>
      </trkpt>
      <trkpt lat="48.32561" lon="2.65482">
        <ele>68.6</ele>
        <time>2022-06-05T08:30:10.000Z</time>
      </trkpt>
      <trkpt lat="48.32555" lon="2.65471">
        <ele>68.6</ele>
        <time>2022-06-05T08:30:18.000Z</time>
      </trkpt>
      <trkpt lat="48.32555" lon="2.65471">
        <ele>68.6</ele>
        <time>2022-06-05T08:30:18.000Z</time>
      </trkpt>
      <trkpt lat="48.32549" lon="2.6546">
        <ele>68.2</ele>
        <time>2022-06-05T08:30:28.000Z</time>
      </trkpt>
      <trkpt lat="48.32543" lon="2.65449">
        <ele>68.3</ele>
        <time>2022-06-05T08:30:36.000Z</time>
      </trkpt>
      <trkpt lat="48.32537" lon="2.65438">
        <ele>69.3</ele>
        <time>2022-06-05T08:30:43.000Z</time>
      </trkpt>
      <trkpt lat="48.32527" lon="2.65428">
        <ele>70.4</ele>
        <time>2022-06-05T08:30:51.000Z</time>
      </trkpt>
      <trkpt lat="48.32521" lon="2.65415">
        <ele>71.2</ele>
        <time>2022-06-05T08:31:02.000Z</time>
      </trkpt>
      <trkpt lat="48.32516" lon="2.65403">
        <ele>71.3</ele>
        <time>2022-06-05T08:31:09.000Z</time>
      </trkpt>
      <trkpt lat="48.32509" lon="2.65393">
        <ele>72</ele>
        <time>2022-06-05T08:31:16.000Z</time>
      </trkpt>
      <trkpt lat="48.32503" lon="2.65384">
        <ele>71.9</ele>
        <time>2022-06-05T08:31:22.000Z</time>
      </trkpt>
      <trkpt lat="48.32496" lon="2.65375">
        <ele>68.7</ele>
        <time>2022-06-05T08:31:30.000Z</time>
      </trkpt>
      <trkpt lat="48.32489" lon="2.65364">
        <ele>76.7</ele>
        <time>2022-06-05T08:31:38.000Z</time>
      </trkpt>
      <trkpt lat="48.32482" lon="2.65354">
        <ele>77.6</ele>
        <time>2022-06-05T08:31:46.000Z</time>
      </trkpt>
      <trkpt lat="48.32475" lon="2.65345">
        <ele>79.2</ele>
        <time>2022-06-05T08:31:53.000Z</time>
      </trkpt>
      <trkpt lat="48.32469" lon="2.65335">
        <ele>80.8</ele>
        <time>2022-06-05T08:32:01.000Z</time>
      </trkpt>
      <trkpt lat="48.32462" lon="2.65325">
        <ele>82.4</ele>
        <time>2022-06-05T08:32:09.000Z</time>
      </trkpt>
      <trkpt lat="48.32454" lon="2.65316">
        <ele>84.7</ele>
        <time>2022-06-05T08:32:18.000Z</time>
      </trkpt>
      <trkpt lat="48.32446" lon="2.65307">
        <ele>86.8</ele>
        <time>2022-06-05T08:32:27.000Z</time>
      </trkpt>
      <trkpt lat="48.32438" lon="2.65297">
        <ele>88.8</ele>
        <time>2022-06-05T08:32:36.000Z</time>
      </trkpt>
      <trkpt lat="48.32432" lon="2.65287">
        <ele>91</ele>
        <time>2022-06-05T08:32:44.000Z</time>
      </trkpt>
      <trkpt lat="48.32425" lon="2.65278">
        <ele>93.2</ele>
        <time>2022-06-05T08:32:52.000Z</time>
      </trkpt>
      <trkpt lat="48.32418" lon="2.65268">
        <ele>95.3</ele>
        <time>2022-06-05T08:33:00.000Z</time>
      </trkpt>
      <trkpt lat="48.32411" lon="2.65259">
        <ele>97.2</ele>
        <time>2022-06-05T08:33:08.000Z</time>
      </trkpt>
      <trkpt lat="48.32403" lon="2.65249">
        <ele>99.3</ele>
        <time>2022-06-05T08:33:18.000Z</time>
      </trkpt>
      <trkpt lat="48.32397" lon="2.65239">
        <ele>98.4</ele>
        <time>2022-06-05T08:33:25.000Z</time>
      </trkpt>
      <trkpt lat="48.32391" lon="2.65229">
        <ele>99</ele>
        <time>2022-06-05T08:33:32.000Z</time>
      </trkpt>
      <trkpt lat="48.32384" lon="2.65218">
        <ele>99.8</ele>
        <time>2022-06-05T08:33:40.000Z</time>
      </trkpt>
      <trkpt lat="48.32376" lon="2.65209">
        <ele>99.8</ele>
        <time>2022-06-05T08:33:48.000Z</time>
      </trkpt>
      <trkpt lat="48.32369" lon="2.65201">
        <ele>100.5</ele>
        <time>2022-06-05T08:33:56.000Z</time>
      </trkpt>
      <trkpt lat="48.32362" lon="2.65193">
        <ele>100.4</ele>
        <time>2022-06-05T08:34:03.000Z</time>
      </trkpt>
      <trkpt lat="48.32354" lon="2.65185">
        <ele>101.6</ele>
        <time>2022-06-05T08:34:12.000Z</time>
      </trkpt>
      <trkpt lat="48.32346" lon="2.65175">
        <ele>102.3</ele>
        <time>2022-06-05T08:34:18.000Z</time>
      </trkpt>
      <trkpt lat="48.32339" lon="2.65166">
        <ele>101.2</ele>
        <time>2022-06-05T08:34:26.000Z</time>
      </trkpt>
      <trkpt lat="48.32336" lon="2.65165">
        <ele>101.4</ele>
        <time>2022-06-05T08:34:31.000Z</time>
      </trkpt>
      <trkpt lat="48.32336" lon="2.65165">
        <ele>101.4</ele>
        <time>2022-06-05T08:34:32.000Z</time>
      </trkpt>
      <trkpt lat="48.32336" lon="2.65165">
        <ele>101.4</ele>
        <time>2022-06-05T08:34:33.000Z</time>
      </trkpt>
      <trkpt lat="48.32337" lon="2.65165">
        <ele>101.4</ele>
        <time>2022-06-05T08:34:34.000Z</time>
      </trkpt>
      <trkpt lat="48.32337" lon="2.65165">
        <ele>101.3</ele>
        <time>2022-06-05T08:34:35.000Z</time>
      </trkpt>
      <trkpt lat="48.32337" lon="2.65165">
        <ele>101.4</ele>
        <time>2022-06-05T08:34:36.000Z</time>
      </trkpt>
      <trkpt lat="48.32338" lon="2.65167">
        <ele>99.2</ele>
        <time>2022-06-05T08:35:12.000Z</time>
      </trkpt>
      <trkpt lat="48.32338" lon="2.65166">
        <ele>99</ele>
        <time>2022-06-05T08:35:13.000Z</time>
      </trkpt>
      <trkpt lat="48.32335" lon="2.65153">
        <ele>97.6</ele>
        <time>2022-06-05T08:35:25.000Z</time>
      </trkpt>
      <trkpt lat="48.32329" lon="2.65142">
        <ele>96.5</ele>
        <time>2022-06-05T08:35:35.000Z</time>
      </trkpt>
      <trkpt lat="48.32321" lon="2.65133">
        <ele>95.4</ele>
        <time>2022-06-05T08:35:42.000Z</time>
      </trkpt>
      <trkpt lat="48.32314" lon="2.65123">
        <ele>94.6</ele>
        <time>2022-06-05T08:35:50.000Z</time>
      </trkpt>
      <trkpt lat="48.32306" lon="2.65114">
        <ele>93.8</ele>
        <time>2022-06-05T08:35:57.000Z</time>
      </trkpt>
      <trkpt lat="48.32299" lon="2.65104">
        <ele>92.7</ele>
        <time>2022-06-05T08:36:06.000Z</time>
      </trkpt>
      <trkpt lat="48.3229" lon="2.65097">
        <ele>91.4</ele>
        <time>2022-06-05T08:36:15.000Z</time>
      </trkpt>
      <trkpt lat="48.32282" lon="2.65088">
        <ele>90.4</ele>
        <time>2022-06-05T08:36:23.000Z</time>
      </trkpt>
      <trkpt lat="48.32275" lon="2.65079">
        <ele>89.7</ele>
        <time>2022-06-05T08:36:30.000Z</time>
      </trkpt>
      <trkpt lat="48.32268" lon="2.6507">
        <ele>88.9</ele>
        <time>2022-06-05T08:36:37.000Z</time>
      </trkpt>
      <trkpt lat="48.32262" lon="2.65059">
        <ele>88.1</ele>
        <time>2022-06-05T08:36:44.000Z</time>
      </trkpt>
      <trkpt lat="48.32254" lon="2.6505">
        <ele>87.4</ele>
        <time>2022-06-05T08:36:52.000Z</time>
      </trkpt>
      <trkpt lat="48.32246" lon="2.6504">
        <ele>87.3</ele>
        <time>2022-06-05T08:37:00.000Z</time>
      </trkpt>
      <trkpt lat="48.32239" lon="2.65032">
        <ele>86.7</ele>
        <time>2022-06-05T08:37:09.000Z</time>
      </trkpt>
      <trkpt lat="48.3223" lon="2.65023">
        <ele>86.3</ele>
        <time>2022-06-05T08:37:17.000Z</time>
      </trkpt>
      <trkpt lat="48.32221" lon="2.65018">
        <ele>86</ele>
        <time>2022-06-05T08:37:24.000Z</time>
      </trkpt>
      <trkpt lat="48.32216" lon="2.65005">
        <ele>85.5</ele>
        <time>2022-06-05T08:37:32.000Z</time>
      </trkpt>
      <trkpt lat="48.32209" lon="2.64994">
        <ele>85.5</ele>
        <time>2022-06-05T08:37:40.000Z</time>
      </trkpt>
      <trkpt lat="48.32204" lon="2.64982">
        <ele>85.2</ele>
        <time>2022-06-05T08:37:48.000Z</time>
      </trkpt>
      <trkpt lat="48.32197" lon="2.64972">
        <ele>84.7</ele>
        <time>2022-06-05T08:37:57.000Z</time>
      </trkpt>
      <trkpt lat="48.3219" lon="2.64961">
        <ele>84.5</ele>
        <time>2022-06-05T08:38:06.000Z</time>
      </trkpt>
      <trkpt lat="48.32183" lon="2.6495">
        <ele>84.2</ele>
        <time>2022-06-05T08:38:14.000Z</time>
      </trkpt>
      <trkpt lat="48.32178" lon="2.64938">
        <ele>83.9</ele>
        <time>2022-06-05T08:38:22.000Z</time>
      </trkpt>
      <trkpt lat="48.32172" lon="2.64927">
        <ele>83.5</ele>
        <time>2022-06-05T08:38:30.000Z</time>
      </trkpt>
      <trkpt lat="48.32165" lon="2.64917">
        <ele>83</ele>
        <time>2022-06-05T08:38:38.000Z</time>
      </trkpt>
      <trkpt lat="48.32157" lon="2.64907">
        <ele>82.5</ele>
        <time>2022-06-05T08:38:48.000Z</time>
      </trkpt>
      <trkpt lat="48.3215" lon="2.64897">
        <ele>82.4</ele>
        <time>2022-06-05T08:38:56.000Z</time>
      </trkpt>
      <trkpt lat="48.32143" lon="2.64889">
        <ele>82.1</ele>
        <time>2022-06-05T08:39:06.000Z</time>
      </trkpt>
      <trkpt lat="48.32136" lon="2.64878">
        <ele>81.7</ele>
        <time>2022-06-05T08:39:15.000Z</time>
      </trkpt>
      <trkpt lat="48.3213" lon="2.64867">
        <ele>81.2</ele>
        <time>2022-06-05T08:39:24.000Z</time>
      </trkpt>
      <trkpt lat="48.32125" lon="2.64855">
        <ele>81.2</ele>
        <time>2022-06-05T08:39:33.000Z</time>
      </trkpt>
      <trkpt lat="48.3212" lon="2.64843">
        <ele>81</ele>
        <time>2022-06-05T08:39:40.000Z</time>
      </trkpt>
      <trkpt lat="48.32116" lon="2.6483">
        <ele>81.1</ele>
        <time>2022-06-05T08:39:47.000Z</time>
      </trkpt>
      <trkpt lat="48.32117" lon="2.64833">
        <ele>79.2</ele>
        <time>2022-06-05T08:40:06.000Z</time>
      </trkpt>
      <trkpt lat="48.32118" lon="2.64834">
        <ele>77.1</ele>
        <time>2022-06-05T08:40:09.000Z</time>
      </trkpt>
      <trkpt lat="48.32109" lon="2.64828">
        <ele>78.8</ele>
        <time>2022-06-05T08:40:26.000Z</time>
      </trkpt>
      <trkpt lat="48.32109" lon="2.64825">
        <ele>78.9</ele>
        <time>2022-06-05T08:40:35.000Z</time>
      </trkpt>
      <trkpt lat="48.32109" lon="2.64824">
        <ele>78.8</ele>
        <time>2022-06-05T08:40:36.000Z</time>
      </trkpt>
      <trkpt lat="48.32108" lon="2.64825">
        <ele>78.3</ele>
        <time>2022-06-05T08:40:44.000Z</time>
      </trkpt>
      <trkpt lat="48.32109" lon="2.64825">
        <ele>78.5</ele>
        <time>2022-06-05T08:40:56.000Z</time>
      </trkpt>
      <trkpt lat="48.32109" lon="2.64825">
        <ele>78.6</ele>
        <time>2022-06-05T08:40:57.000Z</time>
      </trkpt>
      <trkpt lat="48.32108" lon="2.64825">
        <ele>76.5</ele>
        <time>2022-06-05T08:41:33.000Z</time>
      </trkpt>
      <trkpt lat="48.32103" lon="2.64813">
        <ele>75.6</ele>
        <time>2022-06-05T08:41:45.000Z</time>
      </trkpt>
      <trkpt lat="48.32096" lon="2.64802">
        <ele>75.9</ele>
        <time>2022-06-05T08:41:56.000Z</time>
      </trkpt>
      <trkpt lat="48.32088" lon="2.64795">
        <ele>75.5</ele>
        <time>2022-06-05T08:42:03.000Z</time>
      </trkpt>
      <trkpt lat="48.3208" lon="2.64787">
        <ele>76.3</ele>
        <time>2022-06-05T08:42:12.000Z</time>
      </trkpt>
      <trkpt lat="48.3207" lon="2.64785">
        <ele>76.5</ele>
        <time>2022-06-05T08:42:20.000Z</time>
      </trkpt>
      <trkpt lat="48.32061" lon="2.6478">
        <ele>76.7</ele>
        <time>2022-06-05T08:42:30.000Z</time>
      </trkpt>
      <trkpt lat="48.32054" lon="2.64781">
        <ele>77.4</ele>
        <time>2022-06-05T08:42:40.000Z</time>
      </trkpt>
      <trkpt lat="48.32054" lon="2.6478">
        <ele>77.7</ele>
        <time>2022-06-05T08:42:44.000Z</time>
      </trkpt>
      <trkpt lat="48.32047" lon="2.64772">
        <ele>77.8</ele>
        <time>2022-06-05T08:42:53.000Z</time>
      </trkpt>
      <trkpt lat="48.32038" lon="2.64769">
        <ele>78.6</ele>
        <time>2022-06-05T08:43:00.000Z</time>
      </trkpt>
      <trkpt lat="48.32029" lon="2.64767">
        <ele>79</ele>
        <time>2022-06-05T08:43:08.000Z</time>
      </trkpt>
      <trkpt lat="48.32019" lon="2.64767">
        <ele>79.9</ele>
        <time>2022-06-05T08:43:17.000Z</time>
      </trkpt>
      <trkpt lat="48.3201" lon="2.64768">
        <ele>80.6</ele>
        <time>2022-06-05T08:43:25.000Z</time>
      </trkpt>
      <trkpt lat="48.32001" lon="2.64768">
        <ele>82.2</ele>
        <time>2022-06-05T08:43:34.000Z</time>
      </trkpt>
      <trkpt lat="48.31991" lon="2.6477">
        <ele>83.1</ele>
        <time>2022-06-05T08:43:42.000Z</time>
      </trkpt>
      <trkpt lat="48.31981" lon="2.64773">
        <ele>84.5</ele>
        <time>2022-06-05T08:43:50.000Z</time>
      </trkpt>
      <trkpt lat="48.31971" lon="2.64772">
        <ele>85.9</ele>
        <time>2022-06-05T08:43:59.000Z</time>
      </trkpt>
      <trkpt lat="48.31966" lon="2.64773">
        <ele>86.8</ele>
        <time>2022-06-05T08:44:08.000Z</time>
      </trkpt>
      <trkpt lat="48.31966" lon="2.64772">
        <ele>87.2</ele>
        <time>2022-06-05T08:44:12.000Z</time>
      </trkpt>
      <trkpt lat="48.31966" lon="2.64772">
        <ele>87.2</ele>
        <time>2022-06-05T08:44:13.000Z</time>
      </trkpt>
      <trkpt lat="48.31965" lon="2.64772">
        <ele>87.4</ele>
        <time>2022-06-05T08:44:14.000Z</time>
      </trkpt>
      <trkpt lat="48.31964" lon="2.64773">
        <ele>87.9</ele>
        <time>2022-06-05T08:44:18.000Z</time>
      </trkpt>
      <trkpt lat="48.31964" lon="2.64772">
        <ele>88.4</ele>
        <time>2022-06-05T08:44:22.000Z</time>
      </trkpt>
      <trkpt lat="48.31955" lon="2.64775">
        <ele>88.7</ele>
        <time>2022-06-05T08:44:32.000Z</time>
      </trkpt>
      <trkpt lat="48.31945" lon="2.64777">
        <ele>89.9</ele>
        <time>2022-06-05T08:44:43.000Z</time>
      </trkpt>
      <trkpt lat="48.31936" lon="2.64776">
        <ele>90.6</ele>
        <time>2022-06-05T08:44:52.000Z</time>
      </trkpt>
      <trkpt lat="48.31926" lon="2.64778">
        <ele>91.5</ele>
        <time>2022-06-05T08:45:05.000Z</time>
      </trkpt>
      <trkpt lat="48.31917" lon="2.64775">
        <ele>92.1</ele>
        <time>2022-06-05T08:45:13.000Z</time>
      </trkpt>
      <trkpt lat="48.31908" lon="2.64774">
        <ele>92.8</ele>
        <time>2022-06-05T08:45:20.000Z</time>
      </trkpt>
      <trkpt lat="48.31898" lon="2.64772">
        <ele>93.8</ele>
        <time>2022-06-05T08:45:28.000Z</time>
      </trkpt>
      <trkpt lat="48.31889" lon="2.64769">
        <ele>94.4</ele>
        <time>2022-06-05T08:45:36.000Z</time>
      </trkpt>
      <trkpt lat="48.3188" lon="2.64765">
        <ele>95</ele>
        <time>2022-06-05T08:45:44.000Z</time>
      </trkpt>
      <trkpt lat="48.31871" lon="2.64764">
        <ele>95.8</ele>
        <time>2022-06-05T08:45:53.000Z</time>
      </trkpt>
      <trkpt lat="48.31862" lon="2.64761">
        <ele>96.6</ele>
        <time>2022-06-05T08:46:01.000Z</time>
      </trkpt>
      <trkpt lat="48.31852" lon="2.6476">
        <ele>97.2</ele>
        <time>2022-06-05T08:46:08.000Z</time>
      </trkpt>
      <trkpt lat="48.31844" lon="2.64758">
        <ele>98.3</ele>
        <time>2022-06-05T08:46:17.000Z</time>
      </trkpt>
      <trkpt lat="48.31845" lon="2.64757">
        <ele>98.5</ele>
        <time>2022-06-05T08:46:21.000Z</time>
      </trkpt>
      <trkpt lat="48.31835" lon="2.64755">
        <ele>97.5</ele>
        <time>2022-06-05T08:46:30.000Z</time>
      </trkpt>
      <trkpt lat="48.31835" lon="2.64754">
        <ele>97.9</ele>
        <time>2022-06-05T08:46:39.000Z</time>
      </trkpt>
      <trkpt lat="48.31835" lon="2.64754">
        <ele>97.8</ele>
        <time>2022-06-05T08:46:40.000Z</time>
      </trkpt>
      <trkpt lat="48.31835" lon="2.64754">
        <ele>97.6</ele>
        <time>2022-06-05T08:46:41.000Z</time>
      </trkpt>
      <trkpt lat="48.31835" lon="2.64755">
        <ele>97.5</ele>
        <time>2022-06-05T08:46:42.000Z</time>
      </trkpt>
      <trkpt lat="48.31826" lon="2.64755">
        <ele>96.9</ele>
        <time>2022-06-05T08:46:51.000Z</time>
      </trkpt>
      <trkpt lat="48.31816" lon="2.64754">
        <ele>96.7</ele>
        <time>2022-06-05T08:46:56.000Z</time>
      </trkpt>
      <trkpt lat="48.31807" lon="2.64756">
        <ele>96.6</ele>
        <time>2022-06-05T08:47:04.000Z</time>
      </trkpt>
      <trkpt lat="48.31797" lon="2.64754">
        <ele>96.3</ele>
        <time>2022-06-05T08:47:12.000Z</time>
      </trkpt>
      <trkpt lat="48.31788" lon="2.64752">
        <ele>95.4</ele>
        <time>2022-06-05T08:47:20.000Z</time>
      </trkpt>
      <trkpt lat="48.31778" lon="2.64753">
        <ele>95.7</ele>
        <time>2022-06-05T08:47:28.000Z</time>
      </trkpt>
      <trkpt lat="48.3177" lon="2.6476">
        <ele>95.6</ele>
        <time>2022-06-05T08:47:36.000Z</time>
      </trkpt>
      <trkpt lat="48.31761" lon="2.64766">
        <ele>95.9</ele>
        <time>2022-06-05T08:47:43.000Z</time>
      </trkpt>
      <trkpt lat="48.31755" lon="2.64777">
        <ele>96.2</ele>
        <time>2022-06-05T08:47:51.000Z</time>
      </trkpt>
      <trkpt lat="48.31749" lon="2.64787">
        <ele>96.4</ele>
        <time>2022-06-05T08:47:58.000Z</time>
      </trkpt>
      <trkpt lat="48.31742" lon="2.64796">
        <ele>96.7</ele>
        <time>2022-06-05T08:48:05.000Z</time>
      </trkpt>
      <trkpt lat="48.31732" lon="2.64791">
        <ele>97.7</ele>
        <time>2022-06-05T08:48:17.000Z</time>
      </trkpt>
      <trkpt lat="48.31724" lon="2.64783">
        <ele>98.3</ele>
        <time>2022-06-05T08:48:23.000Z</time>
      </trkpt>
      <trkpt lat="48.31723" lon="2.64798">
        <ele>99.6</ele>
        <time>2022-06-05T08:48:40.000Z</time>
      </trkpt>
      <trkpt lat="48.31719" lon="2.6481">
        <ele>100.1</ele>
        <time>2022-06-05T08:48:47.000Z</time>
      </trkpt>
      <trkpt lat="48.31716" lon="2.64825">
        <ele>100.4</ele>
        <time>2022-06-05T08:48:56.000Z</time>
      </trkpt>
      <trkpt lat="48.31716" lon="2.64828">
        <ele>100.6</ele>
        <time>2022-06-05T08:48:59.000Z</time>
      </trkpt>
      <trkpt lat="48.31716" lon="2.64828">
        <ele>100.5</ele>
        <time>2022-06-05T08:49:00.000Z</time>
      </trkpt>
      <trkpt lat="48.31714" lon="2.64842">
        <ele>100.8</ele>
        <time>2022-06-05T08:49:08.000Z</time>
      </trkpt>
      <trkpt lat="48.3171" lon="2.64856">
        <ele>101</ele>
        <time>2022-06-05T08:49:15.000Z</time>
      </trkpt>
      <trkpt lat="48.31707" lon="2.64869">
        <ele>101.1</ele>
        <time>2022-06-05T08:49:22.000Z</time>
      </trkpt>
      <trkpt lat="48.31702" lon="2.64879">
        <ele>101.4</ele>
        <time>2022-06-05T08:49:31.000Z</time>
      </trkpt>
      <trkpt lat="48.31702" lon="2.6488">
        <ele>101.6</ele>
        <time>2022-06-05T08:49:33.000Z</time>
      </trkpt>
      <trkpt lat="48.31696" lon="2.64892">
        <ele>101.4</ele>
        <time>2022-06-05T08:49:41.000Z</time>
      </trkpt>
      <trkpt lat="48.3169" lon="2.64901">
        <ele>101.8</ele>
        <time>2022-06-05T08:49:49.000Z</time>
      </trkpt>
      <trkpt lat="48.31686" lon="2.64914">
        <ele>101.9</ele>
        <time>2022-06-05T08:49:56.000Z</time>
      </trkpt>
      <trkpt lat="48.3168" lon="2.64925">
        <ele>101.7</ele>
        <time>2022-06-05T08:50:08.000Z</time>
      </trkpt>
      <trkpt lat="48.31674" lon="2.64936">
        <ele>100.8</ele>
        <time>2022-06-05T08:50:17.000Z</time>
      </trkpt>
      <trkpt lat="48.31667" lon="2.64945">
        <ele>100.6</ele>
        <time>2022-06-05T08:50:25.000Z</time>
      </trkpt>
      <trkpt lat="48.31661" lon="2.64957">
        <ele>100.4</ele>
        <time>2022-06-05T08:50:33.000Z</time>
      </trkpt>
      <trkpt lat="48.31653" lon="2.64965">
        <ele>100.6</ele>
        <time>2022-06-05T08:50:41.000Z</time>
      </trkpt>
      <trkpt lat="48.31645" lon="2.64974">
        <ele>100.7</ele>
        <time>2022-06-05T08:50:49.000Z</time>
      </trkpt>
      <trkpt lat="48.31638" lon="2.64982">
        <ele>100.8</ele>
        <time>2022-06-05T08:50:56.000Z</time>
      </trkpt>
      <trkpt lat="48.31632" lon="2.64992">
        <ele>100.8</ele>
        <time>2022-06-05T08:51:03.000Z</time>
      </trkpt>
      <trkpt lat="48.31624" lon="2.65">
        <ele>101</ele>
        <time>2022-06-05T08:51:11.000Z</time>
      </trkpt>
      <trkpt lat="48.31618" lon="2.6501">
        <ele>101.5</ele>
        <time>2022-06-05T08:51:18.000Z</time>
      </trkpt>
      <trkpt lat="48.31615" lon="2.65014">
        <ele>101.6</ele>
        <time>2022-06-05T08:51:25.000Z</time>
      </trkpt>
      <trkpt lat="48.31615" lon="2.65014">
        <ele>101.7</ele>
        <time>2022-06-05T08:51:33.000Z</time>
      </trkpt>
      <trkpt lat="48.31615" lon="2.65014">
        <ele>101.5</ele>
        <time>2022-06-05T08:51:34.000Z</time>
      </trkpt>
      <trkpt lat="48.31615" lon="2.65014">
        <ele>101.6</ele>
        <time>2022-06-05T08:51:38.000Z</time>
      </trkpt>
      <trkpt lat="48.31607" lon="2.65023">
        <ele>101.7</ele>
        <time>2022-06-05T08:51:46.000Z</time>
      </trkpt>
      <trkpt lat="48.31601" lon="2.65034">
        <ele>101.5</ele>
        <time>2022-06-05T08:51:54.000Z</time>
      </trkpt>
      <trkpt lat="48.31595" lon="2.65044">
        <ele>101.5</ele>
        <time>2022-06-05T08:52:01.000Z</time>
      </trkpt>
      <trkpt lat="48.31588" lon="2.65054">
        <ele>101.4</ele>
        <time>2022-06-05T08:52:08.000Z</time>
      </trkpt>
      <trkpt lat="48.31582" lon="2.65064">
        <ele>101.7</ele>
        <time>2022-06-05T08:52:15.000Z</time>
      </trkpt>
      <trkpt lat="48.31576" lon="2.65075">
        <ele>101.6</ele>
        <time>2022-06-05T08:52:22.000Z</time>
      </trkpt>
      <trkpt lat="48.3157" lon="2.65086">
        <ele>101.6</ele>
        <time>2022-06-05T08:52:29.000Z</time>
      </trkpt>
      <trkpt lat="48.31564" lon="2.65095">
        <ele>102</ele>
        <time>2022-06-05T08:52:39.000Z</time>
      </trkpt>
      <trkpt lat="48.31563" lon="2.65096">
        <ele>102</ele>
        <time>2022-06-05T08:52:40.000Z</time>
      </trkpt>
      <trkpt lat="48.31562" lon="2.65081">
        <ele>102.4</ele>
        <time>2022-06-05T08:52:52.000Z</time>
      </trkpt>
      <trkpt lat="48.31556" lon="2.65068">
        <ele>97.9</ele>
        <time>2022-06-05T08:53:00.000Z</time>
      </trkpt>
      <trkpt lat="48.31549" lon="2.65058">
        <ele>96.7</ele>
        <time>2022-06-05T08:53:08.000Z</time>
      </trkpt>
      <trkpt lat="48.31542" lon="2.65047">
        <ele>95.7</ele>
        <time>2022-06-05T08:53:15.000Z</time>
      </trkpt>
      <trkpt lat="48.31537" lon="2.65036">
        <ele>94.7</ele>
        <time>2022-06-05T08:53:23.000Z</time>
      </trkpt>
      <trkpt lat="48.31528" lon="2.65029">
        <ele>92.9</ele>
        <time>2022-06-05T08:53:37.000Z</time>
      </trkpt>
      <trkpt lat="48.3152" lon="2.65025">
        <ele>91.5</ele>
        <time>2022-06-05T08:53:47.000Z</time>
      </trkpt>
      <trkpt lat="48.3151" lon="2.65026">
        <ele>91.3</ele>
        <time>2022-06-05T08:53:58.000Z</time>
      </trkpt>
      <trkpt lat="48.315" lon="2.65026">
        <ele>91</ele>
        <time>2022-06-05T08:54:08.000Z</time>
      </trkpt>
      <trkpt lat="48.31491" lon="2.65023">
        <ele>91.1</ele>
        <time>2022-06-05T08:54:17.000Z</time>
      </trkpt>
      <trkpt lat="48.31483" lon="2.65017">
        <ele>90.6</ele>
        <time>2022-06-05T08:54:29.000Z</time>
      </trkpt>
      <trkpt lat="48.31478" lon="2.65006">
        <ele>87.8</ele>
        <time>2022-06-05T08:54:57.000Z</time>
      </trkpt>
      <trkpt lat="48.31478" lon="2.65006">
        <ele>87.7</ele>
        <time>2022-06-05T08:54:58.000Z</time>
      </trkpt>
      <trkpt lat="48.31479" lon="2.65007">
        <ele>86.6</ele>
        <time>2022-06-05T08:55:04.000Z</time>
      </trkpt>
      <trkpt lat="48.31479" lon="2.65008">
        <ele>86.5</ele>
        <time>2022-06-05T08:55:05.000Z</time>
      </trkpt>
      <trkpt lat="48.31479" lon="2.65006">
        <ele>80.9</ele>
        <time>2022-06-05T08:55:33.000Z</time>
      </trkpt>
      <trkpt lat="48.31479" lon="2.65006">
        <ele>80.8</ele>
        <time>2022-06-05T08:55:34.000Z</time>
      </trkpt>
      <trkpt lat="48.31481" lon="2.65008">
        <ele>77.1</ele>
        <time>2022-06-05T08:55:59.000Z</time>
      </trkpt>
      <trkpt lat="48.31482" lon="2.65007">
        <ele>76.9</ele>
        <time>2022-06-05T08:56:00.000Z</time>
      </trkpt>
      <trkpt lat="48.31473" lon="2.65009">
        <ele>69.3</ele>
        <time>2022-06-05T08:56:42.000Z</time>
      </trkpt>
      <trkpt lat="48.31473" lon="2.65009">
        <ele>68.8</ele>
        <time>2022-06-05T08:56:44.000Z</time>
      </trkpt>
      <trkpt lat="48.31473" lon="2.65009">
        <ele>68.7</ele>
        <time>2022-06-05T08:56:45.000Z</time>
      </trkpt>
      <trkpt lat="48.31469" lon="2.65013">
        <ele>66.2</ele>
        <time>2022-06-05T08:56:59.000Z</time>
      </trkpt>
      <trkpt lat="48.31468" lon="2.65013">
        <ele>66.1</ele>
        <time>2022-06-05T08:57:01.000Z</time>
      </trkpt>
      <trkpt lat="48.31477" lon="2.65017">
        <ele>64.5</ele>
        <time>2022-06-05T08:57:20.000Z</time>
      </trkpt>
      <trkpt lat="48.31486" lon="2.65021">
        <ele>62.9</ele>
        <time>2022-06-05T08:57:33.000Z</time>
      </trkpt>
      <trkpt lat="48.31495" lon="2.65022">
        <ele>61.7</ele>
        <time>2022-06-05T08:57:44.000Z</time>
      </trkpt>
      <trkpt lat="48.31505" lon="2.65025">
        <ele>61.1</ele>
        <time>2022-06-05T08:57:52.000Z</time>
      </trkpt>
      <trkpt lat="48.31514" lon="2.65022">
        <ele>61.5</ele>
        <time>2022-06-05T08:58:03.000Z</time>
      </trkpt>
      <trkpt lat="48.31523" lon="2.65025">
        <ele>61.8</ele>
        <time>2022-06-05T08:58:12.000Z</time>
      </trkpt>
      <trkpt lat="48.31532" lon="2.6503">
        <ele>61.9</ele>
        <time>2022-06-05T08:58:21.000Z</time>
      </trkpt>
      <trkpt lat="48.31538" lon="2.6504">
        <ele>62.1</ele>
        <time>2022-06-05T08:58:31.000Z</time>
      </trkpt>
      <trkpt lat="48.31545" lon="2.65049">
        <ele>62.4</ele>
        <time>2022-06-05T08:58:45.000Z</time>
      </trkpt>
      <trkpt lat="48.31553" lon="2.65056">
        <ele>63.1</ele>
        <time>2022-06-05T08:58:54.000Z</time>
      </trkpt>
      <trkpt lat="48.31555" lon="2.65071">
        <ele>62.9</ele>
        <time>2022-06-05T08:59:01.000Z</time>
      </trkpt>
      <trkpt lat="48.31558" lon="2.65084">
        <ele>62.9</ele>
        <time>2022-06-05T08:59:10.000Z</time>
      </trkpt>
      <trkpt lat="48.31551" lon="2.65095">
        <ele>63</ele>
        <time>2022-06-05T08:59:18.000Z</time>
      </trkpt>
      <trkpt lat="48.31544" lon="2.65105">
        <ele>63.1</ele>
        <time>2022-06-05T08:59:27.000Z</time>
      </trkpt>
      <trkpt lat="48.31538" lon="2.65115">
        <ele>62.2</ele>
        <time>2022-06-05T08:59:35.000Z</time>
      </trkpt>
      <trkpt lat="48.31531" lon="2.65124">
        <ele>61.4</ele>
        <time>2022-06-05T08:59:47.000Z</time>
      </trkpt>
      <trkpt lat="48.31525" lon="2.65134">
        <ele>60.8</ele>
        <time>2022-06-05T08:59:54.000Z</time>
      </trkpt>
      <trkpt lat="48.31518" lon="2.65145">
        <ele>59.9</ele>
        <time>2022-06-05T09:00:03.000Z</time>
      </trkpt>
      <trkpt lat="48.3151" lon="2.65152">
        <ele>59.4</ele>
        <time>2022-06-05T09:00:10.000Z</time>
      </trkpt>
      <trkpt lat="48.31501" lon="2.65158">
        <ele>58.7</ele>
        <time>2022-06-05T09:00:17.000Z</time>
      </trkpt>
      <trkpt lat="48.31491" lon="2.65163">
        <ele>58.5</ele>
        <time>2022-06-05T09:00:24.000Z</time>
      </trkpt>
      <trkpt lat="48.31483" lon="2.6517">
        <ele>58.6</ele>
        <time>2022-06-05T09:00:32.000Z</time>
      </trkpt>
      <trkpt lat="48.31475" lon="2.65178">
        <ele>58.5</ele>
        <time>2022-06-05T09:00:40.000Z</time>
      </trkpt>
      <trkpt lat="48.31466" lon="2.65184">
        <ele>58.2</ele>
        <time>2022-06-05T09:00:49.000Z</time>
      </trkpt>
      <trkpt lat="48.31461" lon="2.65184">
        <ele>58</ele>
        <time>2022-06-05T09:00:57.000Z</time>
      </trkpt>
      <trkpt lat="48.31461" lon="2.65184">
        <ele>58</ele>
        <time>2022-06-05T09:00:58.000Z</time>
      </trkpt>
      <trkpt lat="48.31461" lon="2.65183">
        <ele>57.8</ele>
        <time>2022-06-05T09:01:03.000Z</time>
      </trkpt>
      <trkpt lat="48.31461" lon="2.65183">
        <ele>57.7</ele>
        <time>2022-06-05T09:01:04.000Z</time>
      </trkpt>
      <trkpt lat="48.31459" lon="2.65197">
        <ele>56.8</ele>
        <time>2022-06-05T09:01:23.000Z</time>
      </trkpt>
      <trkpt lat="48.31452" lon="2.65206">
        <ele>57.1</ele>
        <time>2022-06-05T09:01:31.000Z</time>
      </trkpt>
      <trkpt lat="48.31443" lon="2.65213">
        <ele>57.1</ele>
        <time>2022-06-05T09:01:39.000Z</time>
      </trkpt>
      <trkpt lat="48.31433" lon="2.65215">
        <ele>57.7</ele>
        <time>2022-06-05T09:01:51.000Z</time>
      </trkpt>
      <trkpt lat="48.31426" lon="2.65207">
        <ele>56.7</ele>
        <time>2022-06-05T09:02:01.000Z</time>
      </trkpt>
      <trkpt lat="48.31424" lon="2.65209">
        <ele>52.7</ele>
        <time>2022-06-05T09:02:21.000Z</time>
      </trkpt>
      <trkpt lat="48.31424" lon="2.65208">
        <ele>53.5</ele>
        <time>2022-06-05T09:02:29.000Z</time>
      </trkpt>
      <trkpt lat="48.31424" lon="2.65208">
        <ele>59</ele>
        <time>2022-06-05T09:02:33.000Z</time>
      </trkpt>
      <trkpt lat="48.31423" lon="2.65209">
        <ele>59.1</ele>
        <time>2022-06-05T09:02:36.000Z</time>
      </trkpt>
      <trkpt lat="48.31423" lon="2.65209">
        <ele>59</ele>
        <time>2022-06-05T09:02:37.000Z</time>
      </trkpt>
      <trkpt lat="48.31423" lon="2.65209">
        <ele>59</ele>
        <time>2022-06-05T09:02:42.000Z</time>
      </trkpt>
      <trkpt lat="48.31423" lon="2.65208">
        <ele>59.4</ele>
        <time>2022-06-05T09:02:50.000Z</time>
      </trkpt>
      <trkpt lat="48.31424" lon="2.65209">
        <ele>59.4</ele>
        <time>2022-06-05T09:02:51.000Z</time>
      </trkpt>
      <trkpt lat="48.31416" lon="2.65216">
        <ele>59.4</ele>
        <time>2022-06-05T09:03:11.000Z</time>
      </trkpt>
      <trkpt lat="48.31414" lon="2.65217">
        <ele>59.7</ele>
        <time>2022-06-05T09:03:16.000Z</time>
      </trkpt>
      <trkpt lat="48.31414" lon="2.65217">
        <ele>59.8</ele>
        <time>2022-06-05T09:03:18.000Z</time>
      </trkpt>
      <trkpt lat="48.31405" lon="2.65215">
        <ele>60.7</ele>
        <time>2022-06-05T09:03:31.000Z</time>
      </trkpt>
      <trkpt lat="48.31396" lon="2.6521">
        <ele>62.1</ele>
        <time>2022-06-05T09:03:45.000Z</time>
      </trkpt>
      <trkpt lat="48.31387" lon="2.65204">
        <ele>63.8</ele>
        <time>2022-06-05T09:04:01.000Z</time>
      </trkpt>
      <trkpt lat="48.31378" lon="2.65199">
        <ele>65.6</ele>
        <time>2022-06-05T09:04:17.000Z</time>
      </trkpt>
      <trkpt lat="48.31369" lon="2.65194">
        <ele>67.1</ele>
        <time>2022-06-05T09:04:32.000Z</time>
      </trkpt>
      <trkpt lat="48.3136" lon="2.65192">
        <ele>69.1</ele>
        <time>2022-06-05T09:04:47.000Z</time>
      </trkpt>
      <trkpt lat="48.31351" lon="2.65187">
        <ele>70.3</ele>
        <time>2022-06-05T09:04:59.000Z</time>
      </trkpt>
      <trkpt lat="48.31344" lon="2.65178">
        <ele>71.9</ele>
        <time>2022-06-05T09:05:14.000Z</time>
      </trkpt>
      <trkpt lat="48.31334" lon="2.65176">
        <ele>72.8</ele>
        <time>2022-06-05T09:05:25.000Z</time>
      </trkpt>
      <trkpt lat="48.31326" lon="2.65168">
        <ele>75.2</ele>
        <time>2022-06-05T09:05:41.000Z</time>
      </trkpt>
      <trkpt lat="48.31319" lon="2.6516">
        <ele>77.8</ele>
        <time>2022-06-05T09:05:58.000Z</time>
      </trkpt>
      <trkpt lat="48.31313" lon="2.65149">
        <ele>79.5</ele>
        <time>2022-06-05T09:06:12.000Z</time>
      </trkpt>
      <trkpt lat="48.31307" lon="2.65139">
        <ele>81.1</ele>
        <time>2022-06-05T09:06:24.000Z</time>
      </trkpt>
      <trkpt lat="48.31304" lon="2.65126">
        <ele>82.9</ele>
        <time>2022-06-05T09:06:38.000Z</time>
      </trkpt>
      <trkpt lat="48.31303" lon="2.65112">
        <ele>84.3</ele>
        <time>2022-06-05T09:06:50.000Z</time>
      </trkpt>
      <trkpt lat="48.31301" lon="2.65098">
        <ele>86.1</ele>
        <time>2022-06-05T09:07:01.000Z</time>
      </trkpt>
      <trkpt lat="48.31301" lon="2.65085">
        <ele>87.5</ele>
        <time>2022-06-05T09:07:13.000Z</time>
      </trkpt>
      <trkpt lat="48.31302" lon="2.6507">
        <ele>89.6</ele>
        <time>2022-06-05T09:07:29.000Z</time>
      </trkpt>
      <trkpt lat="48.31299" lon="2.65057">
        <ele>90.4</ele>
        <time>2022-06-05T09:07:39.000Z</time>
      </trkpt>
      <trkpt lat="48.31297" lon="2.65042">
        <ele>92.2</ele>
        <time>2022-06-05T09:07:50.000Z</time>
      </trkpt>
      <trkpt lat="48.31298" lon="2.65028">
        <ele>93.6</ele>
        <time>2022-06-05T09:07:59.000Z</time>
      </trkpt>
      <trkpt lat="48.31299" lon="2.65014">
        <ele>95.2</ele>
        <time>2022-06-05T09:08:09.000Z</time>
      </trkpt>
      <trkpt lat="48.313" lon="2.65">
        <ele>96.8</ele>
        <time>2022-06-05T09:08:19.000Z</time>
      </trkpt>
      <trkpt lat="48.31304" lon="2.64988">
        <ele>98.3</ele>
        <time>2022-06-05T09:08:30.000Z</time>
      </trkpt>
      <trkpt lat="48.3131" lon="2.64977">
        <ele>100</ele>
        <time>2022-06-05T09:08:39.000Z</time>
      </trkpt>
      <trkpt lat="48.31316" lon="2.64971">
        <ele>101.7</ele>
        <time>2022-06-05T09:08:50.000Z</time>
      </trkpt>
      <trkpt lat="48.31316" lon="2.64971">
        <ele>101.9</ele>
        <time>2022-06-05T09:08:52.000Z</time>
      </trkpt>
      <trkpt lat="48.31325" lon="2.64964">
        <ele>102.8</ele>
        <time>2022-06-05T09:09:02.000Z</time>
      </trkpt>
      <trkpt lat="48.31327" lon="2.64965">
        <ele>103.1</ele>
        <time>2022-06-05T09:09:07.000Z</time>
      </trkpt>
      <trkpt lat="48.31327" lon="2.64964">
        <ele>103.4</ele>
        <time>2022-06-05T09:09:09.000Z</time>
      </trkpt>
      <trkpt lat="48.31326" lon="2.64963">
        <ele>103.8</ele>
        <time>2022-06-05T09:09:12.000Z</time>
      </trkpt>
      <trkpt lat="48.31325" lon="2.64964">
        <ele>103.9</ele>
        <time>2022-06-05T09:09:14.000Z</time>
      </trkpt>
      <trkpt lat="48.31322" lon="2.64964">
        <ele>104.7</ele>
        <time>2022-06-05T09:09:21.000Z</time>
      </trkpt>
      <trkpt lat="48.31322" lon="2.64965">
        <ele>104.7</ele>
        <time>2022-06-05T09:09:22.000Z</time>
      </trkpt>
      <trkpt lat="48.31324" lon="2.64967">
        <ele>105.2</ele>
        <time>2022-06-05T09:09:26.000Z</time>
      </trkpt>
      <trkpt lat="48.31324" lon="2.64967">
        <ele>105.9</ele>
        <time>2022-06-05T09:09:33.000Z</time>
      </trkpt>
      <trkpt lat="48.31325" lon="2.64967">
        <ele>106.2</ele>
        <time>2022-06-05T09:09:36.000Z</time>
      </trkpt>
      <trkpt lat="48.31325" lon="2.64967">
        <ele>106.6</ele>
        <time>2022-06-05T09:09:38.000Z</time>
      </trkpt>
      <trkpt lat="48.31325" lon="2.64967">
        <ele>106.7</ele>
        <time>2022-06-05T09:09:39.000Z</time>
      </trkpt>
      <trkpt lat="48.31326" lon="2.64966">
        <ele>106.7</ele>
        <time>2022-06-05T09:09:40.000Z</time>
      </trkpt>
      <trkpt lat="48.31328" lon="2.64952">
        <ele>107.5</ele>
        <time>2022-06-05T09:09:49.000Z</time>
      </trkpt>
      <trkpt lat="48.3133" lon="2.64938">
        <ele>109.6</ele>
        <time>2022-06-05T09:10:10.000Z</time>
      </trkpt>
      <trkpt lat="48.31328" lon="2.64923">
        <ele>110.2</ele>
        <time>2022-06-05T09:10:20.000Z</time>
      </trkpt>
      <trkpt lat="48.31327" lon="2.64909">
        <ele>111.1</ele>
        <time>2022-06-05T09:10:29.000Z</time>
      </trkpt>
      <trkpt lat="48.31326" lon="2.64895">
        <ele>111.8</ele>
        <time>2022-06-05T09:10:37.000Z</time>
      </trkpt>
      <trkpt lat="48.31323" lon="2.64882">
        <ele>112.9</ele>
        <time>2022-06-05T09:10:47.000Z</time>
      </trkpt>
      <trkpt lat="48.31319" lon="2.64868">
        <ele>113.9</ele>
        <time>2022-06-05T09:10:57.000Z</time>
      </trkpt>
      <trkpt lat="48.31316" lon="2.64855">
        <ele>115.1</ele>
        <time>2022-06-05T09:11:08.000Z</time>
      </trkpt>
      <trkpt lat="48.31317" lon="2.64842">
        <ele>112.6</ele>
        <time>2022-06-05T09:11:20.000Z</time>
      </trkpt>
      <trkpt lat="48.31317" lon="2.64841">
        <ele>111.9</ele>
        <time>2022-06-05T09:11:29.000Z</time>
      </trkpt>
      <trkpt lat="48.31312" lon="2.6483">
        <ele>110.8</ele>
        <time>2022-06-05T09:11:42.000Z</time>
      </trkpt>
      <trkpt lat="48.31318" lon="2.64823">
        <ele>107.5</ele>
        <time>2022-06-05T09:12:05.000Z</time>
      </trkpt>
      <trkpt lat="48.31319" lon="2.64823">
        <ele>107.3</ele>
        <time>2022-06-05T09:12:06.000Z</time>
      </trkpt>
      <trkpt lat="48.31308" lon="2.6483">
        <ele>104.3</ele>
        <time>2022-06-05T09:12:25.000Z</time>
      </trkpt>
      <trkpt lat="48.31305" lon="2.64816">
        <ele>97.7</ele>
        <time>2022-06-05T09:13:04.000Z</time>
      </trkpt>
      <trkpt lat="48.31303" lon="2.64801">
        <ele>96.9</ele>
        <time>2022-06-05T09:13:11.000Z</time>
      </trkpt>
      <trkpt lat="48.31303" lon="2.64797">
        <ele>95</ele>
        <time>2022-06-05T09:13:29.000Z</time>
      </trkpt>
      <trkpt lat="48.31302" lon="2.64797">
        <ele>95</ele>
        <time>2022-06-05T09:13:30.000Z</time>
      </trkpt>
      <trkpt lat="48.31295" lon="2.64799">
        <ele>94.1</ele>
        <time>2022-06-05T09:13:45.000Z</time>
      </trkpt>
      <trkpt lat="48.31295" lon="2.64798">
        <ele>93.9</ele>
        <time>2022-06-05T09:13:47.000Z</time>
      </trkpt>
      <trkpt lat="48.31294" lon="2.64795">
        <ele>92.8</ele>
        <time>2022-06-05T09:13:54.000Z</time>
      </trkpt>
      <trkpt lat="48.31295" lon="2.64796">
        <ele>92.8</ele>
        <time>2022-06-05T09:13:55.000Z</time>
      </trkpt>
      <trkpt lat="48.31293" lon="2.64797">
        <ele>91.6</ele>
        <time>2022-06-05T09:14:02.000Z</time>
      </trkpt>
      <trkpt lat="48.31293" lon="2.64797">
        <ele>91.5</ele>
        <time>2022-06-05T09:14:03.000Z</time>
      </trkpt>
      <trkpt lat="48.31293" lon="2.64795">
        <ele>90.4</ele>
        <time>2022-06-05T09:14:10.000Z</time>
      </trkpt>
      <trkpt lat="48.31293" lon="2.64796">
        <ele>90.4</ele>
        <time>2022-06-05T09:14:12.000Z</time>
      </trkpt>
      <trkpt lat="48.31294" lon="2.6481">
        <ele>88.9</ele>
        <time>2022-06-05T09:14:39.000Z</time>
      </trkpt>
      <trkpt lat="48.31302" lon="2.64818">
        <ele>89</ele>
        <time>2022-06-05T09:14:45.000Z</time>
      </trkpt>
      <trkpt lat="48.3131" lon="2.64825">
        <ele>88.5</ele>
        <time>2022-06-05T09:14:52.000Z</time>
      </trkpt>
      <trkpt lat="48.31316" lon="2.64836">
        <ele>88.7</ele>
        <time>2022-06-05T09:15:03.000Z</time>
      </trkpt>
      <trkpt lat="48.31324" lon="2.64842">
        <ele>87.2</ele>
        <time>2022-06-05T09:15:22.000Z</time>
      </trkpt>
      <trkpt lat="48.3133" lon="2.64832">
        <ele>87.3</ele>
        <time>2022-06-05T09:15:32.000Z</time>
      </trkpt>
      <trkpt lat="48.31339" lon="2.64829">
        <ele>88.2</ele>
        <time>2022-06-05T09:15:53.000Z</time>
      </trkpt>
      <trkpt lat="48.31347" lon="2.64822">
        <ele>88.9</ele>
        <time>2022-06-05T09:16:02.000Z</time>
      </trkpt>
      <trkpt lat="48.31356" lon="2.64813">
        <ele>89.1</ele>
        <time>2022-06-05T09:16:11.000Z</time>
      </trkpt>
      <trkpt lat="48.31365" lon="2.64808">
        <ele>88.4</ele>
        <time>2022-06-05T09:16:25.000Z</time>
      </trkpt>
      <trkpt lat="48.31372" lon="2.64798">
        <ele>87.4</ele>
        <time>2022-06-05T09:16:35.000Z</time>
      </trkpt>
      <trkpt lat="48.3138" lon="2.6479">
        <ele>86.9</ele>
        <time>2022-06-05T09:16:43.000Z</time>
      </trkpt>
      <trkpt lat="48.31384" lon="2.64777">
        <ele>87.3</ele>
        <time>2022-06-05T09:16:54.000Z</time>
      </trkpt>
      <trkpt lat="48.31383" lon="2.64763">
        <ele>87.7</ele>
        <time>2022-06-05T09:17:02.000Z</time>
      </trkpt>
      <trkpt lat="48.31382" lon="2.64749">
        <ele>88.5</ele>
        <time>2022-06-05T09:17:11.000Z</time>
      </trkpt>
      <trkpt lat="48.31378" lon="2.64736">
        <ele>89</ele>
        <time>2022-06-05T09:17:17.000Z</time>
      </trkpt>
      <trkpt lat="48.31379" lon="2.64722">
        <ele>89.9</ele>
        <time>2022-06-05T09:17:28.000Z</time>
      </trkpt>
      <trkpt lat="48.31379" lon="2.64707">
        <ele>90.7</ele>
        <time>2022-06-05T09:17:38.000Z</time>
      </trkpt>
      <trkpt lat="48.31378" lon="2.64693">
        <ele>91.5</ele>
        <time>2022-06-05T09:17:45.000Z</time>
      </trkpt>
      <trkpt lat="48.31373" lon="2.64681">
        <ele>91.7</ele>
        <time>2022-06-05T09:17:52.000Z</time>
      </trkpt>
      <trkpt lat="48.31366" lon="2.64671">
        <ele>91.3</ele>
        <time>2022-06-05T09:17:59.000Z</time>
      </trkpt>
      <trkpt lat="48.31366" lon="2.64656">
        <ele>88.6</ele>
        <time>2022-06-05T09:18:14.000Z</time>
      </trkpt>
      <trkpt lat="48.31374" lon="2.64649">
        <ele>87.8</ele>
        <time>2022-06-05T09:18:22.000Z</time>
      </trkpt>
      <trkpt lat="48.31383" lon="2.64642">
        <ele>87.4</ele>
        <time>2022-06-05T09:18:29.000Z</time>
      </trkpt>
      <trkpt lat="48.3139" lon="2.64632">
        <ele>86.9</ele>
        <time>2022-06-05T09:18:37.000Z</time>
      </trkpt>
      <trkpt lat="48.31395" lon="2.64618">
        <ele>87</ele>
        <time>2022-06-05T09:18:46.000Z</time>
      </trkpt>
      <trkpt lat="48.31397" lon="2.64603">
        <ele>87.9</ele>
        <time>2022-06-05T09:18:54.000Z</time>
      </trkpt>
      <trkpt lat="48.31396" lon="2.6459">
        <ele>88.1</ele>
        <time>2022-06-05T09:19:03.000Z</time>
      </trkpt>
      <trkpt lat="48.3139" lon="2.64579">
        <ele>88.8</ele>
        <time>2022-06-05T09:19:15.000Z</time>
      </trkpt>
      <trkpt lat="48.31384" lon="2.64567">
        <ele>88.8</ele>
        <time>2022-06-05T09:19:27.000Z</time>
      </trkpt>
      <trkpt lat="48.31383" lon="2.64552">
        <ele>88.2</ele>
        <time>2022-06-05T09:19:36.000Z</time>
      </trkpt>
      <trkpt lat="48.31379" lon="2.64539">
        <ele>87.2</ele>
        <time>2022-06-05T09:19:46.000Z</time>
      </trkpt>
      <trkpt lat="48.31377" lon="2.64526">
        <ele>86.2</ele>
        <time>2022-06-05T09:19:58.000Z</time>
      </trkpt>
      <trkpt lat="48.3138" lon="2.64511">
        <ele>86.5</ele>
        <time>2022-06-05T09:20:05.000Z</time>
      </trkpt>
      <trkpt lat="48.31382" lon="2.64497">
        <ele>86.8</ele>
        <time>2022-06-05T09:20:13.000Z</time>
      </trkpt>
      <trkpt lat="48.31376" lon="2.64486">
        <ele>87.1</ele>
        <time>2022-06-05T09:20:23.000Z</time>
      </trkpt>
      <trkpt lat="48.31373" lon="2.64472">
        <ele>88</ele>
        <time>2022-06-05T09:20:37.000Z</time>
      </trkpt>
      <trkpt lat="48.31373" lon="2.64472">
        <ele>88.2</ele>
        <time>2022-06-05T09:20:38.000Z</time>
      </trkpt>
      <trkpt lat="48.31373" lon="2.64471">
        <ele>88.3</ele>
        <time>2022-06-05T09:20:39.000Z</time>
      </trkpt>
      <trkpt lat="48.31368" lon="2.64456">
        <ele>86.7</ele>
        <time>2022-06-05T09:21:01.000Z</time>
      </trkpt>
      <trkpt lat="48.31361" lon="2.64447">
        <ele>87</ele>
        <time>2022-06-05T09:21:18.000Z</time>
      </trkpt>
      <trkpt lat="48.31355" lon="2.64435">
        <ele>85</ele>
        <time>2022-06-05T09:21:31.000Z</time>
      </trkpt>
      <trkpt lat="48.31356" lon="2.64433">
        <ele>86.4</ele>
        <time>2022-06-05T09:21:35.000Z</time>
      </trkpt>
      <trkpt lat="48.31356" lon="2.64433">
        <ele>86.4</ele>
        <time>2022-06-05T09:21:36.000Z</time>
      </trkpt>
      <trkpt lat="48.3135" lon="2.64419">
        <ele>86</ele>
        <time>2022-06-05T09:21:44.000Z</time>
      </trkpt>
      <trkpt lat="48.31343" lon="2.64407">
        <ele>86.5</ele>
        <time>2022-06-05T09:21:53.000Z</time>
      </trkpt>
      <trkpt lat="48.31343" lon="2.64406">
        <ele>86.5</ele>
        <time>2022-06-05T09:21:54.000Z</time>
      </trkpt>
      <trkpt lat="48.31343" lon="2.64407">
        <ele>86.6</ele>
        <time>2022-06-05T09:21:59.000Z</time>
      </trkpt>
      <trkpt lat="48.31344" lon="2.64404">
        <ele>87.1</ele>
        <time>2022-06-05T09:22:04.000Z</time>
      </trkpt>
      <trkpt lat="48.31344" lon="2.64403">
        <ele>87.5</ele>
        <time>2022-06-05T09:22:15.000Z</time>
      </trkpt>
      <trkpt lat="48.31344" lon="2.64403">
        <ele>87.3</ele>
        <time>2022-06-05T09:22:16.000Z</time>
      </trkpt>
      <trkpt lat="48.31344" lon="2.64403">
        <ele>87</ele>
        <time>2022-06-05T09:22:17.000Z</time>
      </trkpt>
      <trkpt lat="48.31343" lon="2.64403">
        <ele>86.9</ele>
        <time>2022-06-05T09:22:25.000Z</time>
      </trkpt>
      <trkpt lat="48.31343" lon="2.64403">
        <ele>86.8</ele>
        <time>2022-06-05T09:22:26.000Z</time>
      </trkpt>
      <trkpt lat="48.31342" lon="2.64403">
        <ele>87</ele>
        <time>2022-06-05T09:22:31.000Z</time>
      </trkpt>
      <trkpt lat="48.31342" lon="2.64403">
        <ele>85.7</ele>
        <time>2022-06-05T09:22:32.000Z</time>
      </trkpt>
      <trkpt lat="48.31342" lon="2.64403">
        <ele>84.6</ele>
        <time>2022-06-05T09:22:34.000Z</time>
      </trkpt>
      <trkpt lat="48.31342" lon="2.64403">
        <ele>86.7</ele>
        <time>2022-06-05T09:22:36.000Z</time>
      </trkpt>
      <trkpt lat="48.31342" lon="2.64415">
        <ele>87.7</ele>
        <time>2022-06-05T09:22:58.000Z</time>
      </trkpt>
      <trkpt lat="48.31342" lon="2.64415">
        <ele>87.7</ele>
        <time>2022-06-05T09:23:00.000Z</time>
      </trkpt>
      <trkpt lat="48.31342" lon="2.64415">
        <ele>87.8</ele>
        <time>2022-06-05T09:23:01.000Z</time>
      </trkpt>
      <trkpt lat="48.31342" lon="2.64415">
        <ele>87.9</ele>
        <time>2022-06-05T09:23:02.000Z</time>
      </trkpt>
      <trkpt lat="48.31342" lon="2.64415">
        <ele>87.9</ele>
        <time>2022-06-05T09:23:03.000Z</time>
      </trkpt>
      <trkpt lat="48.31342" lon="2.64416">
        <ele>87.9</ele>
        <time>2022-06-05T09:23:04.000Z</time>
      </trkpt>
      <trkpt lat="48.31342" lon="2.64415">
        <ele>87.9</ele>
        <time>2022-06-05T09:23:05.000Z</time>
      </trkpt>
      <trkpt lat="48.31341" lon="2.64416">
        <ele>87.3</ele>
        <time>2022-06-05T09:23:13.000Z</time>
      </trkpt>
      <trkpt lat="48.31341" lon="2.64414">
        <ele>87.6</ele>
        <time>2022-06-05T09:23:20.000Z</time>
      </trkpt>
      <trkpt lat="48.31341" lon="2.64414">
        <ele>87.9</ele>
        <time>2022-06-05T09:23:23.000Z</time>
      </trkpt>
      <trkpt lat="48.31341" lon="2.64413">
        <ele>87.9</ele>
        <time>2022-06-05T09:23:25.000Z</time>
      </trkpt>
      <trkpt lat="48.31341" lon="2.64413">
        <ele>88.1</ele>
        <time>2022-06-05T09:23:26.000Z</time>
      </trkpt>
      <trkpt lat="48.31342" lon="2.64411">
        <ele>88.2</ele>
        <time>2022-06-05T09:23:31.000Z</time>
      </trkpt>
      <trkpt lat="48.31342" lon="2.64412">
        <ele>88.2</ele>
        <time>2022-06-05T09:23:33.000Z</time>
      </trkpt>
      <trkpt lat="48.31342" lon="2.64412">
        <ele>88.1</ele>
        <time>2022-06-05T09:23:34.000Z</time>
      </trkpt>
      <trkpt lat="48.31342" lon="2.64412">
        <ele>88.1</ele>
        <time>2022-06-05T09:23:35.000Z</time>
      </trkpt>
      <trkpt lat="48.31342" lon="2.64412">
        <ele>88.1</ele>
        <time>2022-06-05T09:23:36.000Z</time>
      </trkpt>
      <trkpt lat="48.31342" lon="2.64412">
        <ele>88.2</ele>
        <time>2022-06-05T09:23:37.000Z</time>
      </trkpt>
      <trkpt lat="48.31342" lon="2.64413">
        <ele>88.6</ele>
        <time>2022-06-05T09:23:39.000Z</time>
      </trkpt>
      <trkpt lat="48.31343" lon="2.64413">
        <ele>88.5</ele>
        <time>2022-06-05T09:23:40.000Z</time>
      </trkpt>
      <trkpt lat="48.31344" lon="2.64415">
        <ele>88.4</ele>
        <time>2022-06-05T09:23:53.000Z</time>
      </trkpt>
      <trkpt lat="48.31344" lon="2.64415">
        <ele>88.4</ele>
        <time>2022-06-05T09:23:54.000Z</time>
      </trkpt>
      <trkpt lat="48.31343" lon="2.64415">
        <ele>88.4</ele>
        <time>2022-06-05T09:23:56.000Z</time>
      </trkpt>
      <trkpt lat="48.31343" lon="2.64415">
        <ele>88.5</ele>
        <time>2022-06-05T09:24:00.000Z</time>
      </trkpt>
      <trkpt lat="48.31343" lon="2.64412">
        <ele>88.8</ele>
        <time>2022-06-05T09:24:04.000Z</time>
      </trkpt>
      <trkpt lat="48.31343" lon="2.64412">
        <ele>88.7</ele>
        <time>2022-06-05T09:24:06.000Z</time>
      </trkpt>
      <trkpt lat="48.31342" lon="2.64412">
        <ele>88.8</ele>
        <time>2022-06-05T09:24:13.000Z</time>
      </trkpt>
      <trkpt lat="48.31342" lon="2.64412">
        <ele>88.8</ele>
        <time>2022-06-05T09:24:15.000Z</time>
      </trkpt>
      <trkpt lat="48.31342" lon="2.64413">
        <ele>88.7</ele>
        <time>2022-06-05T09:24:17.000Z</time>
      </trkpt>
      <trkpt lat="48.31342" lon="2.64413">
        <ele>88.8</ele>
        <time>2022-06-05T09:24:18.000Z</time>
      </trkpt>
      <trkpt lat="48.31342" lon="2.64413">
        <ele>88.9</ele>
        <time>2022-06-05T09:24:20.000Z</time>
      </trkpt>
      <trkpt lat="48.31342" lon="2.64412">
        <ele>88.6</ele>
        <time>2022-06-05T09:24:22.000Z</time>
      </trkpt>
      <trkpt lat="48.31343" lon="2.64412">
        <ele>89.3</ele>
        <time>2022-06-05T09:24:28.000Z</time>
      </trkpt>
      <trkpt lat="48.31343" lon="2.64412">
        <ele>89.5</ele>
        <time>2022-06-05T09:24:29.000Z</time>
      </trkpt>
      <trkpt lat="48.31343" lon="2.64412">
        <ele>89.4</ele>
        <time>2022-06-05T09:24:30.000Z</time>
      </trkpt>
      <trkpt lat="48.31344" lon="2.64413">
        <ele>89.3</ele>
        <time>2022-06-05T09:24:31.000Z</time>
      </trkpt>
      <trkpt lat="48.31345" lon="2.64416">
        <ele>89.6</ele>
        <time>2022-06-05T09:24:38.000Z</time>
      </trkpt>
      <trkpt lat="48.31346" lon="2.64415">
        <ele>89.6</ele>
        <time>2022-06-05T09:24:44.000Z</time>
      </trkpt>
      <trkpt lat="48.31345" lon="2.64414">
        <ele>89.4</ele>
        <time>2022-06-05T09:24:49.000Z</time>
      </trkpt>
      <trkpt lat="48.31345" lon="2.64414">
        <ele>90.5</ele>
        <time>2022-06-05T09:25:09.000Z</time>
      </trkpt>
      <trkpt lat="48.31344" lon="2.64412">
        <ele>90.6</ele>
        <time>2022-06-05T09:25:14.000Z</time>
      </trkpt>
      <trkpt lat="48.31344" lon="2.64412">
        <ele>90.7</ele>
        <time>2022-06-05T09:25:17.000Z</time>
      </trkpt>
      <trkpt lat="48.31344" lon="2.64412">
        <ele>90.7</ele>
        <time>2022-06-05T09:25:20.000Z</time>
      </trkpt>
      <trkpt lat="48.31343" lon="2.64412">
        <ele>90.7</ele>
        <time>2022-06-05T09:25:21.000Z</time>
      </trkpt>
      <trkpt lat="48.31341" lon="2.64409">
        <ele>90.9</ele>
        <time>2022-06-05T09:25:26.000Z</time>
      </trkpt>
      <trkpt lat="48.31341" lon="2.64409">
        <ele>91</ele>
        <time>2022-06-05T09:25:28.000Z</time>
      </trkpt>
      <trkpt lat="48.31339" lon="2.64412">
        <ele>90.9</ele>
        <time>2022-06-05T09:25:38.000Z</time>
      </trkpt>
      <trkpt lat="48.31339" lon="2.64413">
        <ele>91.2</ele>
        <time>2022-06-05T09:25:46.000Z</time>
      </trkpt>
      <trkpt lat="48.31339" lon="2.64413">
        <ele>91.2</ele>
        <time>2022-06-05T09:25:47.000Z</time>
      </trkpt>
      <trkpt lat="48.3134" lon="2.64413">
        <ele>91.3</ele>
        <time>2022-06-05T09:25:50.000Z</time>
      </trkpt>
      <trkpt lat="48.3134" lon="2.64413">
        <ele>91.4</ele>
        <time>2022-06-05T09:25:51.000Z</time>
      </trkpt>
      <trkpt lat="48.3134" lon="2.64413">
        <ele>91.4</ele>
        <time>2022-06-05T09:25:52.000Z</time>
      </trkpt>
      <trkpt lat="48.3134" lon="2.64413">
        <ele>91.4</ele>
        <time>2022-06-05T09:25:53.000Z</time>
      </trkpt>
      <trkpt lat="48.3134" lon="2.64413">
        <ele>91.3</ele>
        <time>2022-06-05T09:25:55.000Z</time>
      </trkpt>
      <trkpt lat="48.3134" lon="2.64413">
        <ele>91.4</ele>
        <time>2022-06-05T09:25:57.000Z</time>
      </trkpt>
      <trkpt lat="48.3134" lon="2.64413">
        <ele>91.6</ele>
        <time>2022-06-05T09:26:09.000Z</time>
      </trkpt>
      <trkpt lat="48.3134" lon="2.64414">
        <ele>91.6</ele>
        <time>2022-06-05T09:26:10.000Z</time>
      </trkpt>
      <trkpt lat="48.3134" lon="2.64414">
        <ele>92.1</ele>
        <time>2022-06-05T09:26:22.000Z</time>
      </trkpt>
      <trkpt lat="48.3134" lon="2.64414">
        <ele>92.2</ele>
        <time>2022-06-05T09:26:23.000Z</time>
      </trkpt>
      <trkpt lat="48.3134" lon="2.64414">
        <ele>92.3</ele>
        <time>2022-06-05T09:26:41.000Z</time>
      </trkpt>
      <trkpt lat="48.3134" lon="2.64414">
        <ele>92.3</ele>
        <time>2022-06-05T09:26:44.000Z</time>
      </trkpt>
      <trkpt lat="48.3134" lon="2.64414">
        <ele>92.8</ele>
        <time>2022-06-05T09:26:54.000Z</time>
      </trkpt>
      <trkpt lat="48.31341" lon="2.64414">
        <ele>92.3</ele>
        <time>2022-06-05T09:26:58.000Z</time>
      </trkpt>
      <trkpt lat="48.31341" lon="2.64414">
        <ele>92.4</ele>
        <time>2022-06-05T09:27:00.000Z</time>
      </trkpt>
      <trkpt lat="48.3134" lon="2.64416">
        <ele>92.5</ele>
        <time>2022-06-05T09:27:08.000Z</time>
      </trkpt>
      <trkpt lat="48.31341" lon="2.64416">
        <ele>92.5</ele>
        <time>2022-06-05T09:27:09.000Z</time>
      </trkpt>
      <trkpt lat="48.31341" lon="2.64416">
        <ele>92.9</ele>
        <time>2022-06-05T09:27:11.000Z</time>
      </trkpt>
      <trkpt lat="48.3134" lon="2.64416">
        <ele>92.9</ele>
        <time>2022-06-05T09:27:12.000Z</time>
      </trkpt>
      <trkpt lat="48.3134" lon="2.64414">
        <ele>92.8</ele>
        <time>2022-06-05T09:27:17.000Z</time>
      </trkpt>
      <trkpt lat="48.31341" lon="2.64413">
        <ele>92.8</ele>
        <time>2022-06-05T09:27:18.000Z</time>
      </trkpt>
      <trkpt lat="48.31341" lon="2.64413">
        <ele>92.7</ele>
        <time>2022-06-05T09:27:19.000Z</time>
      </trkpt>
      <trkpt lat="48.31341" lon="2.64413">
        <ele>92.7</ele>
        <time>2022-06-05T09:27:21.000Z</time>
      </trkpt>
      <trkpt lat="48.31341" lon="2.64409">
        <ele>91.7</ele>
        <time>2022-06-05T09:27:38.000Z</time>
      </trkpt>
      <trkpt lat="48.31342" lon="2.64409">
        <ele>91.7</ele>
        <time>2022-06-05T09:27:39.000Z</time>
      </trkpt>
      <trkpt lat="48.31338" lon="2.64396">
        <ele>90</ele>
        <time>2022-06-05T09:27:55.000Z</time>
      </trkpt>
      <trkpt lat="48.31347" lon="2.64389">
        <ele>87.6</ele>
        <time>2022-06-05T09:28:07.000Z</time>
      </trkpt>
      <trkpt lat="48.31357" lon="2.64389">
        <ele>86.6</ele>
        <time>2022-06-05T09:28:15.000Z</time>
      </trkpt>
      <trkpt lat="48.31367" lon="2.64392">
        <ele>85.7</ele>
        <time>2022-06-05T09:28:27.000Z</time>
      </trkpt>
      <trkpt lat="48.31376" lon="2.64391">
        <ele>85.8</ele>
        <time>2022-06-05T09:28:34.000Z</time>
      </trkpt>
      <trkpt lat="48.31386" lon="2.64394">
        <ele>86</ele>
        <time>2022-06-05T09:28:43.000Z</time>
      </trkpt>
      <trkpt lat="48.31395" lon="2.64394">
        <ele>86.5</ele>
        <time>2022-06-05T09:28:52.000Z</time>
      </trkpt>
      <trkpt lat="48.31405" lon="2.64391">
        <ele>87.2</ele>
        <time>2022-06-05T09:29:01.000Z</time>
      </trkpt>
      <trkpt lat="48.31409" lon="2.64388">
        <ele>87.9</ele>
        <time>2022-06-05T09:29:07.000Z</time>
      </trkpt>
      <trkpt lat="48.3141" lon="2.64387">
        <ele>87.9</ele>
        <time>2022-06-05T09:29:08.000Z</time>
      </trkpt>
      <trkpt lat="48.31419" lon="2.64391">
        <ele>86.5</ele>
        <time>2022-06-05T09:29:28.000Z</time>
      </trkpt>
      <trkpt lat="48.31428" lon="2.64396">
        <ele>86</ele>
        <time>2022-06-05T09:29:39.000Z</time>
      </trkpt>
      <trkpt lat="48.31438" lon="2.64395">
        <ele>85.6</ele>
        <time>2022-06-05T09:29:48.000Z</time>
      </trkpt>
      <trkpt lat="48.31447" lon="2.64405">
        <ele>85.8</ele>
        <time>2022-06-05T09:29:56.000Z</time>
      </trkpt>
      <trkpt lat="48.31457" lon="2.64404">
        <ele>84.7</ele>
        <time>2022-06-05T09:30:02.000Z</time>
      </trkpt>
      <trkpt lat="48.31466" lon="2.64407">
        <ele>85.9</ele>
        <time>2022-06-05T09:30:09.000Z</time>
      </trkpt>
      <trkpt lat="48.31475" lon="2.64406">
        <ele>85.5</ele>
        <time>2022-06-05T09:30:18.000Z</time>
      </trkpt>
      <trkpt lat="48.31482" lon="2.64396">
        <ele>85.3</ele>
        <time>2022-06-05T09:30:25.000Z</time>
      </trkpt>
      <trkpt lat="48.31486" lon="2.64384">
        <ele>85.2</ele>
        <time>2022-06-05T09:30:35.000Z</time>
      </trkpt>
      <trkpt lat="48.31489" lon="2.6437">
        <ele>85.4</ele>
        <time>2022-06-05T09:30:44.000Z</time>
      </trkpt>
      <trkpt lat="48.31496" lon="2.6436">
        <ele>85.3</ele>
        <time>2022-06-05T09:30:50.000Z</time>
      </trkpt>
      <trkpt lat="48.31502" lon="2.64351">
        <ele>86.1</ele>
        <time>2022-06-05T09:30:56.000Z</time>
      </trkpt>
      <trkpt lat="48.31498" lon="2.64344">
        <ele>87.7</ele>
        <time>2022-06-05T09:31:14.000Z</time>
      </trkpt>
      <trkpt lat="48.31498" lon="2.64344">
        <ele>88.5</ele>
        <time>2022-06-05T09:31:16.000Z</time>
      </trkpt>
      <trkpt lat="48.31498" lon="2.64344">
        <ele>88.6</ele>
        <time>2022-06-05T09:31:17.000Z</time>
      </trkpt>
      <trkpt lat="48.31498" lon="2.64345">
        <ele>88.4</ele>
        <time>2022-06-05T09:31:18.000Z</time>
      </trkpt>
      <trkpt lat="48.31498" lon="2.64346">
        <ele>88.6</ele>
        <time>2022-06-05T09:31:35.000Z</time>
      </trkpt>
      <trkpt lat="48.31498" lon="2.64346">
        <ele>87.4</ele>
        <time>2022-06-05T09:31:36.000Z</time>
      </trkpt>
      <trkpt lat="48.31498" lon="2.64347">
        <ele>86.9</ele>
        <time>2022-06-05T09:31:38.000Z</time>
      </trkpt>
      <trkpt lat="48.31497" lon="2.64347">
        <ele>87.5</ele>
        <time>2022-06-05T09:31:39.000Z</time>
      </trkpt>
      <trkpt lat="48.31494" lon="2.64334">
        <ele>91.7</ele>
        <time>2022-06-05T09:31:55.000Z</time>
      </trkpt>
      <trkpt lat="48.31502" lon="2.64343">
        <ele>92</ele>
        <time>2022-06-05T09:32:12.000Z</time>
      </trkpt>
      <trkpt lat="48.31511" lon="2.64343">
        <ele>92.7</ele>
        <time>2022-06-05T09:32:22.000Z</time>
      </trkpt>
      <trkpt lat="48.31516" lon="2.64331">
        <ele>92.7</ele>
        <time>2022-06-05T09:32:30.000Z</time>
      </trkpt>
      <trkpt lat="48.31524" lon="2.64322">
        <ele>92.8</ele>
        <time>2022-06-05T09:32:37.000Z</time>
      </trkpt>
      <trkpt lat="48.31531" lon="2.64313">
        <ele>93.3</ele>
        <time>2022-06-05T09:32:44.000Z</time>
      </trkpt>
      <trkpt lat="48.31537" lon="2.64302">
        <ele>93.4</ele>
        <time>2022-06-05T09:32:51.000Z</time>
      </trkpt>
      <trkpt lat="48.31543" lon="2.64289">
        <ele>93.6</ele>
        <time>2022-06-05T09:32:58.000Z</time>
      </trkpt>
      <trkpt lat="48.31541" lon="2.64275">
        <ele>94.1</ele>
        <time>2022-06-05T09:33:09.000Z</time>
      </trkpt>
      <trkpt lat="48.3154" lon="2.64272">
        <ele>94.5</ele>
        <time>2022-06-05T09:33:14.000Z</time>
      </trkpt>
      <trkpt lat="48.3154" lon="2.64271">
        <ele>94.8</ele>
        <time>2022-06-05T09:33:15.000Z</time>
      </trkpt>
      <trkpt lat="48.31534" lon="2.6426">
        <ele>94.8</ele>
        <time>2022-06-05T09:33:26.000Z</time>
      </trkpt>
      <trkpt lat="48.31527" lon="2.64249">
        <ele>95.8</ele>
        <time>2022-06-05T09:33:34.000Z</time>
      </trkpt>
      <trkpt lat="48.31521" lon="2.64238">
        <ele>96.3</ele>
        <time>2022-06-05T09:33:41.000Z</time>
      </trkpt>
      <trkpt lat="48.31515" lon="2.64228">
        <ele>96.9</ele>
        <time>2022-06-05T09:33:49.000Z</time>
      </trkpt>
      <trkpt lat="48.31513" lon="2.64226">
        <ele>97.4</ele>
        <time>2022-06-05T09:33:57.000Z</time>
      </trkpt>
      <trkpt lat="48.31513" lon="2.64226">
        <ele>97.8</ele>
        <time>2022-06-05T09:34:03.000Z</time>
      </trkpt>
      <trkpt lat="48.31509" lon="2.64213">
        <ele>98.2</ele>
        <time>2022-06-05T09:34:14.000Z</time>
      </trkpt>
      <trkpt lat="48.31505" lon="2.642">
        <ele>98.7</ele>
        <time>2022-06-05T09:34:23.000Z</time>
      </trkpt>
      <trkpt lat="48.31502" lon="2.64186">
        <ele>99.2</ele>
        <time>2022-06-05T09:34:32.000Z</time>
      </trkpt>
      <trkpt lat="48.31497" lon="2.64174">
        <ele>99.5</ele>
        <time>2022-06-05T09:34:42.000Z</time>
      </trkpt>
      <trkpt lat="48.3149" lon="2.64165">
        <ele>100</ele>
        <time>2022-06-05T09:34:51.000Z</time>
      </trkpt>
      <trkpt lat="48.31482" lon="2.64155">
        <ele>100.4</ele>
        <time>2022-06-05T09:35:01.000Z</time>
      </trkpt>
      <trkpt lat="48.31475" lon="2.64146">
        <ele>100.9</ele>
        <time>2022-06-05T09:35:10.000Z</time>
      </trkpt>
      <trkpt lat="48.31468" lon="2.64138">
        <ele>100.9</ele>
        <time>2022-06-05T09:35:19.000Z</time>
      </trkpt>
      <trkpt lat="48.3146" lon="2.64129">
        <ele>101.5</ele>
        <time>2022-06-05T09:35:27.000Z</time>
      </trkpt>
      <trkpt lat="48.31452" lon="2.64121">
        <ele>101.9</ele>
        <time>2022-06-05T09:35:36.000Z</time>
      </trkpt>
      <trkpt lat="48.31444" lon="2.64113">
        <ele>102.3</ele>
        <time>2022-06-05T09:35:44.000Z</time>
      </trkpt>
      <trkpt lat="48.31441" lon="2.6411">
        <ele>102.8</ele>
        <time>2022-06-05T09:35:51.000Z</time>
      </trkpt>
      <trkpt lat="48.31441" lon="2.6411">
        <ele>102.7</ele>
        <time>2022-06-05T09:35:52.000Z</time>
      </trkpt>
      <trkpt lat="48.31433" lon="2.64104">
        <ele>103.1</ele>
        <time>2022-06-05T09:36:02.000Z</time>
      </trkpt>
      <trkpt lat="48.31431" lon="2.64103">
        <ele>103.1</ele>
        <time>2022-06-05T09:36:06.000Z</time>
      </trkpt>
      <trkpt lat="48.31431" lon="2.64103">
        <ele>103.1</ele>
        <time>2022-06-05T09:36:07.000Z</time>
      </trkpt>
      <trkpt lat="48.31422" lon="2.64097">
        <ele>103.5</ele>
        <time>2022-06-05T09:36:18.000Z</time>
      </trkpt>
      <trkpt lat="48.31421" lon="2.64096">
        <ele>103.5</ele>
        <time>2022-06-05T09:36:21.000Z</time>
      </trkpt>
      <trkpt lat="48.31421" lon="2.64095">
        <ele>103.8</ele>
        <time>2022-06-05T09:36:28.000Z</time>
      </trkpt>
      <trkpt lat="48.31413" lon="2.64086">
        <ele>104.4</ele>
        <time>2022-06-05T09:36:36.000Z</time>
      </trkpt>
      <trkpt lat="48.31405" lon="2.64078">
        <ele>104.5</ele>
        <time>2022-06-05T09:36:44.000Z</time>
      </trkpt>
      <trkpt lat="48.31402" lon="2.6408">
        <ele>104.7</ele>
        <time>2022-06-05T09:36:54.000Z</time>
      </trkpt>
      <trkpt lat="48.31402" lon="2.6408">
        <ele>104.5</ele>
        <time>2022-06-05T09:36:58.000Z</time>
      </trkpt>
      <trkpt lat="48.31401" lon="2.64076">
        <ele>103.2</ele>
        <time>2022-06-05T09:37:05.000Z</time>
      </trkpt>
      <trkpt lat="48.31402" lon="2.64076">
        <ele>103.1</ele>
        <time>2022-06-05T09:37:06.000Z</time>
      </trkpt>
      <trkpt lat="48.31401" lon="2.64075">
        <ele>102.4</ele>
        <time>2022-06-05T09:37:11.000Z</time>
      </trkpt>
      <trkpt lat="48.31401" lon="2.64075">
        <ele>101.7</ele>
        <time>2022-06-05T09:37:13.000Z</time>
      </trkpt>
      <trkpt lat="48.31403" lon="2.64074">
        <ele>100.1</ele>
        <time>2022-06-05T09:37:33.000Z</time>
      </trkpt>
      <trkpt lat="48.31404" lon="2.64074">
        <ele>99.8</ele>
        <time>2022-06-05T09:37:41.000Z</time>
      </trkpt>
      <trkpt lat="48.31404" lon="2.64074">
        <ele>99.9</ele>
        <time>2022-06-05T09:37:42.000Z</time>
      </trkpt>
      <trkpt lat="48.31404" lon="2.64074">
        <ele>100.1</ele>
        <time>2022-06-05T09:37:48.000Z</time>
      </trkpt>
      <trkpt lat="48.31404" lon="2.64074">
        <ele>100</ele>
        <time>2022-06-05T09:37:49.000Z</time>
      </trkpt>
      <trkpt lat="48.31404" lon="2.64074">
        <ele>99.8</ele>
        <time>2022-06-05T09:37:57.000Z</time>
      </trkpt>
      <trkpt lat="48.31404" lon="2.64074">
        <ele>99.9</ele>
        <time>2022-06-05T09:37:58.000Z</time>
      </trkpt>
      <trkpt lat="48.31404" lon="2.64074">
        <ele>99.7</ele>
        <time>2022-06-05T09:38:05.000Z</time>
      </trkpt>
      <trkpt lat="48.31396" lon="2.64068">
        <ele>99.5</ele>
        <time>2022-06-05T09:38:24.000Z</time>
      </trkpt>
      <trkpt lat="48.31387" lon="2.64062">
        <ele>99.7</ele>
        <time>2022-06-05T09:38:33.000Z</time>
      </trkpt>
      <trkpt lat="48.31379" lon="2.64054">
        <ele>99.6</ele>
        <time>2022-06-05T09:38:41.000Z</time>
      </trkpt>
      <trkpt lat="48.31371" lon="2.64046">
        <ele>100.2</ele>
        <time>2022-06-05T09:38:49.000Z</time>
      </trkpt>
      <trkpt lat="48.31363" lon="2.6404">
        <ele>100.5</ele>
        <time>2022-06-05T09:38:58.000Z</time>
      </trkpt>
      <trkpt lat="48.31355" lon="2.64031">
        <ele>100.6</ele>
        <time>2022-06-05T09:39:06.000Z</time>
      </trkpt>
      <trkpt lat="48.31352" lon="2.64017">
        <ele>100.8</ele>
        <time>2022-06-05T09:39:14.000Z</time>
      </trkpt>
      <trkpt lat="48.31346" lon="2.64007">
        <ele>101.3</ele>
        <time>2022-06-05T09:39:22.000Z</time>
      </trkpt>
      <trkpt lat="48.31341" lon="2.63995">
        <ele>101.6</ele>
        <time>2022-06-05T09:39:30.000Z</time>
      </trkpt>
      <trkpt lat="48.31333" lon="2.63987">
        <ele>101.7</ele>
        <time>2022-06-05T09:39:37.000Z</time>
      </trkpt>
      <trkpt lat="48.31326" lon="2.63977">
        <ele>102.2</ele>
        <time>2022-06-05T09:39:45.000Z</time>
      </trkpt>
      <trkpt lat="48.31318" lon="2.6397">
        <ele>102.7</ele>
        <time>2022-06-05T09:39:54.000Z</time>
      </trkpt>
      <trkpt lat="48.3131" lon="2.63962">
        <ele>103</ele>
        <time>2022-06-05T09:40:04.000Z</time>
      </trkpt>
      <trkpt lat="48.31302" lon="2.63956">
        <ele>103.5</ele>
        <time>2022-06-05T09:40:12.000Z</time>
      </trkpt>
      <trkpt lat="48.31293" lon="2.63951">
        <ele>103.8</ele>
        <time>2022-06-05T09:40:23.000Z</time>
      </trkpt>
      <trkpt lat="48.31284" lon="2.63948">
        <ele>104.4</ele>
        <time>2022-06-05T09:40:32.000Z</time>
      </trkpt>
      <trkpt lat="48.31273" lon="2.63948">
        <ele>105.2</ele>
        <time>2022-06-05T09:40:49.000Z</time>
      </trkpt>
      <trkpt lat="48.31236" lon="2.63934">
        <ele>106.4</ele>
        <time>2022-06-05T09:41:14.000Z</time>
      </trkpt>
      <trkpt lat="48.31235" lon="2.6392">
        <ele>106.6</ele>
        <time>2022-06-05T09:41:20.000Z</time>
      </trkpt>
      <trkpt lat="48.31231" lon="2.63908">
        <ele>107.3</ele>
        <time>2022-06-05T09:41:30.000Z</time>
      </trkpt>
      <trkpt lat="48.31225" lon="2.63897">
        <ele>107.6</ele>
        <time>2022-06-05T09:41:38.000Z</time>
      </trkpt>
      <trkpt lat="48.31219" lon="2.63886">
        <ele>108</ele>
        <time>2022-06-05T09:41:47.000Z</time>
      </trkpt>
      <trkpt lat="48.31213" lon="2.63875">
        <ele>108.5</ele>
        <time>2022-06-05T09:41:55.000Z</time>
      </trkpt>
      <trkpt lat="48.31207" lon="2.63864">
        <ele>108.7</ele>
        <time>2022-06-05T09:42:03.000Z</time>
      </trkpt>
      <trkpt lat="48.31202" lon="2.63853">
        <ele>108.6</ele>
        <time>2022-06-05T09:42:11.000Z</time>
      </trkpt>
      <trkpt lat="48.31197" lon="2.63841">
        <ele>109.3</ele>
        <time>2022-06-05T09:42:19.000Z</time>
      </trkpt>
      <trkpt lat="48.31191" lon="2.63829">
        <ele>109.7</ele>
        <time>2022-06-05T09:42:27.000Z</time>
      </trkpt>
      <trkpt lat="48.31186" lon="2.63817">
        <ele>109.9</ele>
        <time>2022-06-05T09:42:35.000Z</time>
      </trkpt>
      <trkpt lat="48.31181" lon="2.63805">
        <ele>110.3</ele>
        <time>2022-06-05T09:42:43.000Z</time>
      </trkpt>
      <trkpt lat="48.31179" lon="2.63791">
        <ele>110.2</ele>
        <time>2022-06-05T09:42:52.000Z</time>
      </trkpt>
      <trkpt lat="48.31181" lon="2.63776">
        <ele>109.2</ele>
        <time>2022-06-05T09:43:04.000Z</time>
      </trkpt>
      <trkpt lat="48.31182" lon="2.63762">
        <ele>108.9</ele>
        <time>2022-06-05T09:43:11.000Z</time>
      </trkpt>
      <trkpt lat="48.31184" lon="2.63748">
        <ele>107.5</ele>
        <time>2022-06-05T09:43:20.000Z</time>
      </trkpt>
      <trkpt lat="48.31187" lon="2.63734">
        <ele>106.8</ele>
        <time>2022-06-05T09:43:33.000Z</time>
      </trkpt>
      <trkpt lat="48.31188" lon="2.6372">
        <ele>106.7</ele>
        <time>2022-06-05T09:43:41.000Z</time>
      </trkpt>
      <trkpt lat="48.31192" lon="2.63707">
        <ele>103.6</ele>
        <time>2022-06-05T09:43:49.000Z</time>
      </trkpt>
      <trkpt lat="48.31195" lon="2.63693">
        <ele>104.6</ele>
        <time>2022-06-05T09:43:57.000Z</time>
      </trkpt>
      <trkpt lat="48.31196" lon="2.63678">
        <ele>104.2</ele>
        <time>2022-06-05T09:44:07.000Z</time>
      </trkpt>
      <trkpt lat="48.312" lon="2.63666">
        <ele>104.8</ele>
        <time>2022-06-05T09:44:19.000Z</time>
      </trkpt>
      <trkpt lat="48.31202" lon="2.63652">
        <ele>105.1</ele>
        <time>2022-06-05T09:44:27.000Z</time>
      </trkpt>
      <trkpt lat="48.31203" lon="2.63638">
        <ele>105.4</ele>
        <time>2022-06-05T09:44:35.000Z</time>
      </trkpt>
      <trkpt lat="48.31204" lon="2.63623">
        <ele>105.7</ele>
        <time>2022-06-05T09:44:43.000Z</time>
      </trkpt>
      <trkpt lat="48.31205" lon="2.63609">
        <ele>106.2</ele>
        <time>2022-06-05T09:44:52.000Z</time>
      </trkpt>
      <trkpt lat="48.31208" lon="2.63596">
        <ele>106.8</ele>
        <time>2022-06-05T09:45:03.000Z</time>
      </trkpt>
      <trkpt lat="48.31208" lon="2.6358">
        <ele>107</ele>
        <time>2022-06-05T09:45:12.000Z</time>
      </trkpt>
      <trkpt lat="48.31208" lon="2.63567">
        <ele>107.3</ele>
        <time>2022-06-05T09:45:19.000Z</time>
      </trkpt>
      <trkpt lat="48.31208" lon="2.63553">
        <ele>107.5</ele>
        <time>2022-06-05T09:45:28.000Z</time>
      </trkpt>
      <trkpt lat="48.31205" lon="2.63543">
        <ele>107.6</ele>
        <time>2022-06-05T09:45:38.000Z</time>
      </trkpt>
      <trkpt lat="48.31205" lon="2.63542">
        <ele>108</ele>
        <time>2022-06-05T09:45:39.000Z</time>
      </trkpt>
      <trkpt lat="48.31206" lon="2.63529">
        <ele>106</ele>
        <time>2022-06-05T09:45:53.000Z</time>
      </trkpt>
      <trkpt lat="48.31203" lon="2.63516">
        <ele>104.8</ele>
        <time>2022-06-05T09:46:01.000Z</time>
      </trkpt>
      <trkpt lat="48.31203" lon="2.63502">
        <ele>103.9</ele>
        <time>2022-06-05T09:46:08.000Z</time>
      </trkpt>
      <trkpt lat="48.31204" lon="2.63487">
        <ele>103.4</ele>
        <time>2022-06-05T09:46:19.000Z</time>
      </trkpt>
      <trkpt lat="48.31208" lon="2.63474">
        <ele>102.8</ele>
        <time>2022-06-05T09:46:28.000Z</time>
      </trkpt>
      <trkpt lat="48.3121" lon="2.63459">
        <ele>102.4</ele>
        <time>2022-06-05T09:46:33.000Z</time>
      </trkpt>
      <trkpt lat="48.31206" lon="2.63447">
        <ele>101.2</ele>
        <time>2022-06-05T09:46:39.000Z</time>
      </trkpt>
      <trkpt lat="48.31205" lon="2.63433">
        <ele>99.9</ele>
        <time>2022-06-05T09:46:48.000Z</time>
      </trkpt>
      <trkpt lat="48.312" lon="2.63417">
        <ele>98.8</ele>
        <time>2022-06-05T09:46:55.000Z</time>
      </trkpt>
      <trkpt lat="48.31198" lon="2.63403">
        <ele>98.3</ele>
        <time>2022-06-05T09:47:00.000Z</time>
      </trkpt>
      <trkpt lat="48.31198" lon="2.63389">
        <ele>97.1</ele>
        <time>2022-06-05T09:47:06.000Z</time>
      </trkpt>
      <trkpt lat="48.312" lon="2.63376">
        <ele>96.9</ele>
        <time>2022-06-05T09:47:12.000Z</time>
      </trkpt>
      <trkpt lat="48.31204" lon="2.63363">
        <ele>96.3</ele>
        <time>2022-06-05T09:47:28.000Z</time>
      </trkpt>
      <trkpt lat="48.31207" lon="2.63349">
        <ele>96.4</ele>
        <time>2022-06-05T09:47:37.000Z</time>
      </trkpt>
      <trkpt lat="48.31213" lon="2.63336">
        <ele>96</ele>
        <time>2022-06-05T09:47:43.000Z</time>
      </trkpt>
      <trkpt lat="48.31217" lon="2.63324">
        <ele>95.8</ele>
        <time>2022-06-05T09:47:50.000Z</time>
      </trkpt>
      <trkpt lat="48.31214" lon="2.63311">
        <ele>95.7</ele>
        <time>2022-06-05T09:47:57.000Z</time>
      </trkpt>
      <trkpt lat="48.31214" lon="2.63295">
        <ele>95.2</ele>
        <time>2022-06-05T09:48:05.000Z</time>
      </trkpt>
      <trkpt lat="48.31217" lon="2.63281">
        <ele>95.3</ele>
        <time>2022-06-05T09:48:12.000Z</time>
      </trkpt>
      <trkpt lat="48.31213" lon="2.63268">
        <ele>94.7</ele>
        <time>2022-06-05T09:48:20.000Z</time>
      </trkpt>
      <trkpt lat="48.3122" lon="2.63258">
        <ele>94.7</ele>
        <time>2022-06-05T09:48:25.000Z</time>
      </trkpt>
      <trkpt lat="48.31229" lon="2.63256">
        <ele>94.7</ele>
        <time>2022-06-05T09:48:34.000Z</time>
      </trkpt>
      <trkpt lat="48.31237" lon="2.63248">
        <ele>94.1</ele>
        <time>2022-06-05T09:48:41.000Z</time>
      </trkpt>
      <trkpt lat="48.31235" lon="2.63231">
        <ele>93.8</ele>
        <time>2022-06-05T09:48:49.000Z</time>
      </trkpt>
      <trkpt lat="48.31226" lon="2.6322">
        <ele>93.7</ele>
        <time>2022-06-05T09:48:52.000Z</time>
      </trkpt>
      <trkpt lat="48.31224" lon="2.63206">
        <ele>93.5</ele>
        <time>2022-06-05T09:48:57.000Z</time>
      </trkpt>
      <trkpt lat="48.31218" lon="2.63193">
        <ele>93.1</ele>
        <time>2022-06-05T09:49:05.000Z</time>
      </trkpt>
      <trkpt lat="48.3122" lon="2.63179">
        <ele>92.9</ele>
        <time>2022-06-05T09:49:13.000Z</time>
      </trkpt>
      <trkpt lat="48.31229" lon="2.63172">
        <ele>92.6</ele>
        <time>2022-06-05T09:49:19.000Z</time>
      </trkpt>
      <trkpt lat="48.31233" lon="2.63159">
        <ele>92.4</ele>
        <time>2022-06-05T09:49:30.000Z</time>
      </trkpt>
      <trkpt lat="48.31231" lon="2.63145">
        <ele>91.5</ele>
        <time>2022-06-05T09:49:44.000Z</time>
      </trkpt>
      <trkpt lat="48.31231" lon="2.6313">
        <ele>91.3</ele>
        <time>2022-06-05T09:49:50.000Z</time>
      </trkpt>
      <trkpt lat="48.3123" lon="2.63113">
        <ele>91</ele>
        <time>2022-06-05T09:49:55.000Z</time>
      </trkpt>
      <trkpt lat="48.31234" lon="2.63098">
        <ele>91.3</ele>
        <time>2022-06-05T09:50:00.000Z</time>
      </trkpt>
      <trkpt lat="48.31243" lon="2.63092">
        <ele>91</ele>
        <time>2022-06-05T09:50:08.000Z</time>
      </trkpt>
      <trkpt lat="48.31248" lon="2.6308">
        <ele>90.5</ele>
        <time>2022-06-05T09:50:15.000Z</time>
      </trkpt>
      <trkpt lat="48.3125" lon="2.63065">
        <ele>90.4</ele>
        <time>2022-06-05T09:50:22.000Z</time>
      </trkpt>
      <trkpt lat="48.31251" lon="2.63052">
        <ele>89.9</ele>
        <time>2022-06-05T09:50:30.000Z</time>
      </trkpt>
      <trkpt lat="48.31246" lon="2.6304">
        <ele>89.1</ele>
        <time>2022-06-05T09:50:43.000Z</time>
      </trkpt>
      <trkpt lat="48.31246" lon="2.63024">
        <ele>88.8</ele>
        <time>2022-06-05T09:50:47.000Z</time>
      </trkpt>
      <trkpt lat="48.3124" lon="2.63013">
        <ele>88.8</ele>
        <time>2022-06-05T09:50:54.000Z</time>
      </trkpt>
      <trkpt lat="48.31237" lon="2.62999">
        <ele>87.9</ele>
        <time>2022-06-05T09:51:05.000Z</time>
      </trkpt>
      <trkpt lat="48.31235" lon="2.62985">
        <ele>87.2</ele>
        <time>2022-06-05T09:51:15.000Z</time>
      </trkpt>
      <trkpt lat="48.31239" lon="2.62972">
        <ele>86.5</ele>
        <time>2022-06-05T09:51:22.000Z</time>
      </trkpt>
      <trkpt lat="48.31239" lon="2.6295">
        <ele>86</ele>
        <time>2022-06-05T09:51:31.000Z</time>
      </trkpt>
      <trkpt lat="48.31228" lon="2.62932">
        <ele>86</ele>
        <time>2022-06-05T09:51:32.000Z</time>
      </trkpt>
      <trkpt lat="48.31238" lon="2.62934">
        <ele>86</ele>
        <time>2022-06-05T09:51:36.000Z</time>
      </trkpt>
      <trkpt lat="48.31251" lon="2.62944">
        <ele>86</ele>
        <time>2022-06-05T09:51:37.000Z</time>
      </trkpt>
      <trkpt lat="48.31264" lon="2.62955">
        <ele>85.9</ele>
        <time>2022-06-05T09:51:38.000Z</time>
      </trkpt>
      <trkpt lat="48.31275" lon="2.62961">
        <ele>85.8</ele>
        <time>2022-06-05T09:51:40.000Z</time>
      </trkpt>
      <trkpt lat="48.31286" lon="2.62963">
        <ele>85.2</ele>
        <time>2022-06-05T09:51:48.000Z</time>
      </trkpt>
      <trkpt lat="48.31281" lon="2.62951">
        <ele>85.1</ele>
        <time>2022-06-05T09:51:49.000Z</time>
      </trkpt>
      <trkpt lat="48.31291" lon="2.62951">
        <ele>84.7</ele>
        <time>2022-06-05T09:51:53.000Z</time>
      </trkpt>
      <trkpt lat="48.31281" lon="2.62934">
        <ele>84.8</ele>
        <time>2022-06-05T09:51:56.000Z</time>
      </trkpt>
      <trkpt lat="48.31274" lon="2.62922">
        <ele>84.6</ele>
        <time>2022-06-05T09:51:59.000Z</time>
      </trkpt>
      <trkpt lat="48.31269" lon="2.62911">
        <ele>84.3</ele>
        <time>2022-06-05T09:52:02.000Z</time>
      </trkpt>
      <trkpt lat="48.31275" lon="2.62901">
        <ele>83.2</ele>
        <time>2022-06-05T09:52:13.000Z</time>
      </trkpt>
      <trkpt lat="48.31277" lon="2.62886">
        <ele>82.6</ele>
        <time>2022-06-05T09:52:20.000Z</time>
      </trkpt>
      <trkpt lat="48.31273" lon="2.62873">
        <ele>81.9</ele>
        <time>2022-06-05T09:52:26.000Z</time>
      </trkpt>
      <trkpt lat="48.31267" lon="2.62862">
        <ele>81.8</ele>
        <time>2022-06-05T09:52:32.000Z</time>
      </trkpt>
      <trkpt lat="48.31263" lon="2.62848">
        <ele>81.1</ele>
        <time>2022-06-05T09:52:40.000Z</time>
      </trkpt>
      <trkpt lat="48.31271" lon="2.6284">
        <ele>80</ele>
        <time>2022-06-05T09:52:52.000Z</time>
      </trkpt>
      <trkpt lat="48.31273" lon="2.62825">
        <ele>79.6</ele>
        <time>2022-06-05T09:52:59.000Z</time>
      </trkpt>
      <trkpt lat="48.31267" lon="2.62814">
        <ele>78.8</ele>
        <time>2022-06-05T09:53:10.000Z</time>
      </trkpt>
      <trkpt lat="48.31263" lon="2.62801">
        <ele>78.5</ele>
        <time>2022-06-05T09:53:16.000Z</time>
      </trkpt>
      <trkpt lat="48.3126" lon="2.62785">
        <ele>78.2</ele>
        <time>2022-06-05T09:53:21.000Z</time>
      </trkpt>
      <trkpt lat="48.31258" lon="2.62771">
        <ele>77.8</ele>
        <time>2022-06-05T09:53:26.000Z</time>
      </trkpt>
      <trkpt lat="48.31254" lon="2.62758">
        <ele>77.7</ele>
        <time>2022-06-05T09:53:31.000Z</time>
      </trkpt>
      <trkpt lat="48.31254" lon="2.62742">
        <ele>77.5</ele>
        <time>2022-06-05T09:53:36.000Z</time>
      </trkpt>
      <trkpt lat="48.31249" lon="2.6273">
        <ele>77.3</ele>
        <time>2022-06-05T09:53:43.000Z</time>
      </trkpt>
      <trkpt lat="48.31246" lon="2.62716">
        <ele>76.7</ele>
        <time>2022-06-05T09:53:50.000Z</time>
      </trkpt>
      <trkpt lat="48.31242" lon="2.62703">
        <ele>77</ele>
        <time>2022-06-05T09:53:56.000Z</time>
      </trkpt>
      <trkpt lat="48.31249" lon="2.62691">
        <ele>76.3</ele>
        <time>2022-06-05T09:54:10.000Z</time>
      </trkpt>
      <trkpt lat="48.31247" lon="2.62677">
        <ele>75.9</ele>
        <time>2022-06-05T09:54:15.000Z</time>
      </trkpt>
      <trkpt lat="48.31246" lon="2.62662">
        <ele>75.8</ele>
        <time>2022-06-05T09:54:25.000Z</time>
      </trkpt>
      <trkpt lat="48.31245" lon="2.62648">
        <ele>75.2</ele>
        <time>2022-06-05T09:54:33.000Z</time>
      </trkpt>
      <trkpt lat="48.31241" lon="2.62636">
        <ele>75</ele>
        <time>2022-06-05T09:54:39.000Z</time>
      </trkpt>
      <trkpt lat="48.31239" lon="2.62621">
        <ele>74.4</ele>
        <time>2022-06-05T09:54:51.000Z</time>
      </trkpt>
      <trkpt lat="48.31237" lon="2.62606">
        <ele>73.6</ele>
        <time>2022-06-05T09:55:00.000Z</time>
      </trkpt>
      <trkpt lat="48.31235" lon="2.62591">
        <ele>73.7</ele>
        <time>2022-06-05T09:55:10.000Z</time>
      </trkpt>
      <trkpt lat="48.31235" lon="2.62591">
        <ele>73.8</ele>
        <time>2022-06-05T09:55:13.000Z</time>
      </trkpt>
      <trkpt lat="48.31235" lon="2.62591">
        <ele>73.8</ele>
        <time>2022-06-05T09:55:14.000Z</time>
      </trkpt>
      <trkpt lat="48.31232" lon="2.62577">
        <ele>73.5</ele>
        <time>2022-06-05T09:55:23.000Z</time>
      </trkpt>
      <trkpt lat="48.31226" lon="2.62566">
        <ele>73.3</ele>
        <time>2022-06-05T09:55:33.000Z</time>
      </trkpt>
      <trkpt lat="48.31222" lon="2.62554">
        <ele>73.5</ele>
        <time>2022-06-05T09:55:40.000Z</time>
      </trkpt>
      <trkpt lat="48.31222" lon="2.62542">
        <ele>73.6</ele>
        <time>2022-06-05T09:55:53.000Z</time>
      </trkpt>
      <trkpt lat="48.31221" lon="2.62542">
        <ele>73.4</ele>
        <time>2022-06-05T09:55:54.000Z</time>
      </trkpt>
      <trkpt lat="48.31222" lon="2.62543">
        <ele>73.5</ele>
        <time>2022-06-05T09:55:57.000Z</time>
      </trkpt>
      <trkpt lat="48.31221" lon="2.62543">
        <ele>73.2</ele>
        <time>2022-06-05T09:56:05.000Z</time>
      </trkpt>
      <trkpt lat="48.31221" lon="2.62544">
        <ele>72.9</ele>
        <time>2022-06-05T09:56:09.000Z</time>
      </trkpt>
      <trkpt lat="48.31221" lon="2.62544">
        <ele>73.1</ele>
        <time>2022-06-05T09:56:11.000Z</time>
      </trkpt>
      <trkpt lat="48.31215" lon="2.62532">
        <ele>73.7</ele>
        <time>2022-06-05T09:56:26.000Z</time>
      </trkpt>
      <trkpt lat="48.31209" lon="2.6252">
        <ele>73.8</ele>
        <time>2022-06-05T09:56:37.000Z</time>
      </trkpt>
      <trkpt lat="48.31202" lon="2.6251">
        <ele>74.2</ele>
        <time>2022-06-05T09:56:47.000Z</time>
      </trkpt>
      <trkpt lat="48.31193" lon="2.62508">
        <ele>74.7</ele>
        <time>2022-06-05T09:56:55.000Z</time>
      </trkpt>
      <trkpt lat="48.31184" lon="2.62505">
        <ele>74.8</ele>
        <time>2022-06-05T09:57:03.000Z</time>
      </trkpt>
      <trkpt lat="48.31174" lon="2.62502">
        <ele>75.2</ele>
        <time>2022-06-05T09:57:11.000Z</time>
      </trkpt>
      <trkpt lat="48.31165" lon="2.62501">
        <ele>75.8</ele>
        <time>2022-06-05T09:57:19.000Z</time>
      </trkpt>
      <trkpt lat="48.31156" lon="2.62497">
        <ele>75.8</ele>
        <time>2022-06-05T09:57:27.000Z</time>
      </trkpt>
      <trkpt lat="48.31154" lon="2.62495">
        <ele>75.8</ele>
        <time>2022-06-05T09:57:32.000Z</time>
      </trkpt>
      <trkpt lat="48.31153" lon="2.62494">
        <ele>75.9</ele>
        <time>2022-06-05T09:57:33.000Z</time>
      </trkpt>
      <trkpt lat="48.31144" lon="2.62493">
        <ele>74</ele>
        <time>2022-06-05T09:57:46.000Z</time>
      </trkpt>
      <trkpt lat="48.31142" lon="2.62496">
        <ele>74.9</ele>
        <time>2022-06-05T09:57:54.000Z</time>
      </trkpt>
      <trkpt lat="48.31142" lon="2.62496">
        <ele>74.8</ele>
        <time>2022-06-05T09:57:57.000Z</time>
      </trkpt>
      <trkpt lat="48.31142" lon="2.62496">
        <ele>75.1</ele>
        <time>2022-06-05T09:57:58.000Z</time>
      </trkpt>
      <trkpt lat="48.31142" lon="2.62495">
        <ele>75.4</ele>
        <time>2022-06-05T09:58:00.000Z</time>
      </trkpt>
      <trkpt lat="48.31143" lon="2.62495">
        <ele>76</ele>
        <time>2022-06-05T09:58:02.000Z</time>
      </trkpt>
      <trkpt lat="48.31142" lon="2.62495">
        <ele>76.4</ele>
        <time>2022-06-05T09:58:03.000Z</time>
      </trkpt>
      <trkpt lat="48.31133" lon="2.62495">
        <ele>76.8</ele>
        <time>2022-06-05T09:58:16.000Z</time>
      </trkpt>
      <trkpt lat="48.31123" lon="2.62497">
        <ele>77</ele>
        <time>2022-06-05T09:58:24.000Z</time>
      </trkpt>
      <trkpt lat="48.31114" lon="2.62496">
        <ele>76.9</ele>
        <time>2022-06-05T09:58:33.000Z</time>
      </trkpt>
      <trkpt lat="48.31106" lon="2.62497">
        <ele>77.6</ele>
        <time>2022-06-05T09:58:40.000Z</time>
      </trkpt>
      <trkpt lat="48.31107" lon="2.62496">
        <ele>77.5</ele>
        <time>2022-06-05T09:58:41.000Z</time>
      </trkpt>
      <trkpt lat="48.31106" lon="2.62495">
        <ele>77.6</ele>
        <time>2022-06-05T09:58:44.000Z</time>
      </trkpt>
      <trkpt lat="48.31106" lon="2.62495">
        <ele>77.4</ele>
        <time>2022-06-05T09:58:46.000Z</time>
      </trkpt>
      <trkpt lat="48.31103" lon="2.62491">
        <ele>77.1</ele>
        <time>2022-06-05T09:58:54.000Z</time>
      </trkpt>
      <trkpt lat="48.31102" lon="2.62491">
        <ele>77.2</ele>
        <time>2022-06-05T09:58:55.000Z</time>
      </trkpt>
      <trkpt lat="48.31102" lon="2.6249">
        <ele>77</ele>
        <time>2022-06-05T09:58:58.000Z</time>
      </trkpt>
      <trkpt lat="48.31101" lon="2.6249">
        <ele>77</ele>
        <time>2022-06-05T09:58:59.000Z</time>
      </trkpt>
      <trkpt lat="48.31092" lon="2.62489">
        <ele>76.7</ele>
        <time>2022-06-05T09:59:05.000Z</time>
      </trkpt>
      <trkpt lat="48.31084" lon="2.62493">
        <ele>76.6</ele>
        <time>2022-06-05T09:59:14.000Z</time>
      </trkpt>
      <trkpt lat="48.31084" lon="2.62493">
        <ele>76.7</ele>
        <time>2022-06-05T09:59:19.000Z</time>
      </trkpt>
      <trkpt lat="48.31085" lon="2.62492">
        <ele>71.5</ele>
        <time>2022-06-05T09:59:23.000Z</time>
      </trkpt>
      <trkpt lat="48.31085" lon="2.62492">
        <ele>72.1</ele>
        <time>2022-06-05T09:59:25.000Z</time>
      </trkpt>
      <trkpt lat="48.31085" lon="2.62492">
        <ele>72.8</ele>
        <time>2022-06-05T09:59:26.000Z</time>
      </trkpt>
      <trkpt lat="48.31085" lon="2.62492">
        <ele>73.8</ele>
        <time>2022-06-05T09:59:41.000Z</time>
      </trkpt>
      <trkpt lat="48.31078" lon="2.62489">
        <ele>76.7</ele>
        <time>2022-06-05T09:59:56.000Z</time>
      </trkpt>
      <trkpt lat="48.31077" lon="2.62488">
        <ele>76.3</ele>
        <time>2022-06-05T09:59:58.000Z</time>
      </trkpt>
      <trkpt lat="48.31077" lon="2.62488">
        <ele>76.1</ele>
        <time>2022-06-05T09:59:59.000Z</time>
      </trkpt>
      <trkpt lat="48.31078" lon="2.62487">
        <ele>75.8</ele>
        <time>2022-06-05T10:00:00.000Z</time>
      </trkpt>
      <trkpt lat="48.31068" lon="2.62485">
        <ele>74.2</ele>
        <time>2022-06-05T10:00:11.000Z</time>
      </trkpt>
      <trkpt lat="48.31058" lon="2.6248">
        <ele>74.4</ele>
        <time>2022-06-05T10:00:18.000Z</time>
      </trkpt>
      <trkpt lat="48.31051" lon="2.62467">
        <ele>74.2</ele>
        <time>2022-06-05T10:00:42.000Z</time>
      </trkpt>
      <trkpt lat="48.31044" lon="2.62457">
        <ele>74.6</ele>
        <time>2022-06-05T10:00:46.000Z</time>
      </trkpt>
      <trkpt lat="48.31036" lon="2.6245">
        <ele>75.2</ele>
        <time>2022-06-05T10:00:52.000Z</time>
      </trkpt>
      <trkpt lat="48.31027" lon="2.62443">
        <ele>75.9</ele>
        <time>2022-06-05T10:01:00.000Z</time>
      </trkpt>
      <trkpt lat="48.31017" lon="2.6244">
        <ele>76.5</ele>
        <time>2022-06-05T10:01:07.000Z</time>
      </trkpt>
      <trkpt lat="48.31009" lon="2.62433">
        <ele>79</ele>
        <time>2022-06-05T10:01:20.000Z</time>
      </trkpt>
      <trkpt lat="48.31002" lon="2.62425">
        <ele>79.7</ele>
        <time>2022-06-05T10:01:29.000Z</time>
      </trkpt>
      <trkpt lat="48.30994" lon="2.62414">
        <ele>79.6</ele>
        <time>2022-06-05T10:01:38.000Z</time>
      </trkpt>
      <trkpt lat="48.30987" lon="2.62406">
        <ele>79.8</ele>
        <time>2022-06-05T10:01:47.000Z</time>
      </trkpt>
      <trkpt lat="48.30977" lon="2.62399">
        <ele>79</ele>
        <time>2022-06-05T10:01:55.000Z</time>
      </trkpt>
      <trkpt lat="48.30968" lon="2.62395">
        <ele>78.9</ele>
        <time>2022-06-05T10:02:07.000Z</time>
      </trkpt>
      <trkpt lat="48.30968" lon="2.62395">
        <ele>78.7</ele>
        <time>2022-06-05T10:02:08.000Z</time>
      </trkpt>
      <trkpt lat="48.30967" lon="2.62395">
        <ele>78.6</ele>
        <time>2022-06-05T10:02:09.000Z</time>
      </trkpt>
      <trkpt lat="48.30957" lon="2.62399">
        <ele>78</ele>
        <time>2022-06-05T10:02:22.000Z</time>
      </trkpt>
      <trkpt lat="48.30947" lon="2.62404">
        <ele>78.1</ele>
        <time>2022-06-05T10:02:28.000Z</time>
      </trkpt>
      <trkpt lat="48.30936" lon="2.6241">
        <ele>77.8</ele>
        <time>2022-06-05T10:02:34.000Z</time>
      </trkpt>
      <trkpt lat="48.30928" lon="2.62415">
        <ele>77.9</ele>
        <time>2022-06-05T10:02:41.000Z</time>
      </trkpt>
      <trkpt lat="48.30918" lon="2.62411">
        <ele>77.7</ele>
        <time>2022-06-05T10:02:52.000Z</time>
      </trkpt>
      <trkpt lat="48.30909" lon="2.62405">
        <ele>78.7</ele>
        <time>2022-06-05T10:03:01.000Z</time>
      </trkpt>
      <trkpt lat="48.309" lon="2.62404">
        <ele>79.6</ele>
        <time>2022-06-05T10:03:09.000Z</time>
      </trkpt>
      <trkpt lat="48.30892" lon="2.62396">
        <ele>80.4</ele>
        <time>2022-06-05T10:03:14.000Z</time>
      </trkpt>
      <trkpt lat="48.30886" lon="2.62384">
        <ele>81.3</ele>
        <time>2022-06-05T10:03:24.000Z</time>
      </trkpt>
      <trkpt lat="48.30877" lon="2.62379">
        <ele>81.6</ele>
        <time>2022-06-05T10:03:35.000Z</time>
      </trkpt>
      <trkpt lat="48.30868" lon="2.62373">
        <ele>81.3</ele>
        <time>2022-06-05T10:03:42.000Z</time>
      </trkpt>
      <trkpt lat="48.30859" lon="2.62367">
        <ele>81.5</ele>
        <time>2022-06-05T10:03:51.000Z</time>
      </trkpt>
      <trkpt lat="48.30852" lon="2.62358">
        <ele>81.7</ele>
        <time>2022-06-05T10:04:04.000Z</time>
      </trkpt>
      <trkpt lat="48.3085" lon="2.62344">
        <ele>81.8</ele>
        <time>2022-06-05T10:04:14.000Z</time>
      </trkpt>
      <trkpt lat="48.30848" lon="2.6233">
        <ele>82.2</ele>
        <time>2022-06-05T10:04:24.000Z</time>
      </trkpt>
      <trkpt lat="48.30842" lon="2.62319">
        <ele>82.5</ele>
        <time>2022-06-05T10:04:35.000Z</time>
      </trkpt>
      <trkpt lat="48.30834" lon="2.62311">
        <ele>82.9</ele>
        <time>2022-06-05T10:04:45.000Z</time>
      </trkpt>
      <trkpt lat="48.30831" lon="2.62296">
        <ele>82.8</ele>
        <time>2022-06-05T10:04:55.000Z</time>
      </trkpt>
      <trkpt lat="48.30826" lon="2.6228">
        <ele>82.9</ele>
        <time>2022-06-05T10:05:01.000Z</time>
      </trkpt>
      <trkpt lat="48.3082" lon="2.62269">
        <ele>82.9</ele>
        <time>2022-06-05T10:05:11.000Z</time>
      </trkpt>
      <trkpt lat="48.30816" lon="2.62256">
        <ele>81.8</ele>
        <time>2022-06-05T10:05:19.000Z</time>
      </trkpt>
      <trkpt lat="48.30812" lon="2.62243">
        <ele>80.8</ele>
        <time>2022-06-05T10:05:28.000Z</time>
      </trkpt>
      <trkpt lat="48.30809" lon="2.62229">
        <ele>80.3</ele>
        <time>2022-06-05T10:05:36.000Z</time>
      </trkpt>
      <trkpt lat="48.30806" lon="2.62214">
        <ele>79.4</ele>
        <time>2022-06-05T10:05:44.000Z</time>
      </trkpt>
      <trkpt lat="48.30801" lon="2.62202">
        <ele>78.9</ele>
        <time>2022-06-05T10:05:50.000Z</time>
      </trkpt>
      <trkpt lat="48.30798" lon="2.62187">
        <ele>79.1</ele>
        <time>2022-06-05T10:06:00.000Z</time>
      </trkpt>
      <trkpt lat="48.30799" lon="2.62172">
        <ele>79.3</ele>
        <time>2022-06-05T10:06:07.000Z</time>
      </trkpt>
      <trkpt lat="48.30796" lon="2.62158">
        <ele>79.4</ele>
        <time>2022-06-05T10:06:14.000Z</time>
      </trkpt>
      <trkpt lat="48.30792" lon="2.62145">
        <ele>79.8</ele>
        <time>2022-06-05T10:06:19.000Z</time>
      </trkpt>
      <trkpt lat="48.30783" lon="2.62138">
        <ele>80.3</ele>
        <time>2022-06-05T10:06:25.000Z</time>
      </trkpt>
      <trkpt lat="48.30775" lon="2.62131">
        <ele>78.7</ele>
        <time>2022-06-05T10:06:36.000Z</time>
      </trkpt>
      <trkpt lat="48.30771" lon="2.62117">
        <ele>78.4</ele>
        <time>2022-06-05T10:06:46.000Z</time>
      </trkpt>
      <trkpt lat="48.30766" lon="2.62106">
        <ele>78.2</ele>
        <time>2022-06-05T10:06:54.000Z</time>
      </trkpt>
      <trkpt lat="48.30757" lon="2.621">
        <ele>77.8</ele>
        <time>2022-06-05T10:07:00.000Z</time>
      </trkpt>
      <trkpt lat="48.30748" lon="2.62094">
        <ele>77.8</ele>
        <time>2022-06-05T10:07:04.000Z</time>
      </trkpt>
      <trkpt lat="48.3074" lon="2.62088">
        <ele>78.1</ele>
        <time>2022-06-05T10:07:14.000Z</time>
      </trkpt>
      <trkpt lat="48.30738" lon="2.62073">
        <ele>79.4</ele>
        <time>2022-06-05T10:07:24.000Z</time>
      </trkpt>
      <trkpt lat="48.30736" lon="2.62058">
        <ele>79.9</ele>
        <time>2022-06-05T10:07:30.000Z</time>
      </trkpt>
      <trkpt lat="48.3073" lon="2.62047">
        <ele>80.7</ele>
        <time>2022-06-05T10:07:38.000Z</time>
      </trkpt>
      <trkpt lat="48.30726" lon="2.62033">
        <ele>80.9</ele>
        <time>2022-06-05T10:07:44.000Z</time>
      </trkpt>
      <trkpt lat="48.30724" lon="2.62018">
        <ele>79.5</ele>
        <time>2022-06-05T10:07:52.000Z</time>
      </trkpt>
      <trkpt lat="48.30716" lon="2.62008">
        <ele>80.3</ele>
        <time>2022-06-05T10:07:59.000Z</time>
      </trkpt>
      <trkpt lat="48.30712" lon="2.61996">
        <ele>78.8</ele>
        <time>2022-06-05T10:08:12.000Z</time>
      </trkpt>
      <trkpt lat="48.30712" lon="2.61982">
        <ele>77.7</ele>
        <time>2022-06-05T10:08:22.000Z</time>
      </trkpt>
      <trkpt lat="48.30705" lon="2.61972">
        <ele>77.6</ele>
        <time>2022-06-05T10:08:27.000Z</time>
      </trkpt>
      <trkpt lat="48.30698" lon="2.6196">
        <ele>77.5</ele>
        <time>2022-06-05T10:08:33.000Z</time>
      </trkpt>
      <trkpt lat="48.3069" lon="2.61951">
        <ele>77.8</ele>
        <time>2022-06-05T10:08:38.000Z</time>
      </trkpt>
      <trkpt lat="48.30683" lon="2.6194">
        <ele>77.5</ele>
        <time>2022-06-05T10:08:45.000Z</time>
      </trkpt>
      <trkpt lat="48.30677" lon="2.6193">
        <ele>76.3</ele>
        <time>2022-06-05T10:08:56.000Z</time>
      </trkpt>
      <trkpt lat="48.30668" lon="2.61925">
        <ele>75.6</ele>
        <time>2022-06-05T10:09:04.000Z</time>
      </trkpt>
      <trkpt lat="48.30658" lon="2.61922">
        <ele>75</ele>
        <time>2022-06-05T10:09:11.000Z</time>
      </trkpt>
      <trkpt lat="48.30654" lon="2.61909">
        <ele>75</ele>
        <time>2022-06-05T10:09:14.000Z</time>
      </trkpt>
      <trkpt lat="48.30648" lon="2.61897">
        <ele>74.7</ele>
        <time>2022-06-05T10:09:18.000Z</time>
      </trkpt>
      <trkpt lat="48.30647" lon="2.6188">
        <ele>74.9</ele>
        <time>2022-06-05T10:09:23.000Z</time>
      </trkpt>
      <trkpt lat="48.30642" lon="2.61867">
        <ele>74.9</ele>
        <time>2022-06-05T10:09:32.000Z</time>
      </trkpt>
      <trkpt lat="48.30634" lon="2.6186">
        <ele>75.9</ele>
        <time>2022-06-05T10:09:40.000Z</time>
      </trkpt>
      <trkpt lat="48.30628" lon="2.61846">
        <ele>76.1</ele>
        <time>2022-06-05T10:09:50.000Z</time>
      </trkpt>
      <trkpt lat="48.30625" lon="2.61831">
        <ele>76.6</ele>
        <time>2022-06-05T10:09:55.000Z</time>
      </trkpt>
      <trkpt lat="48.30627" lon="2.61816">
        <ele>77.2</ele>
        <time>2022-06-05T10:10:00.000Z</time>
      </trkpt>
      <trkpt lat="48.30621" lon="2.61801">
        <ele>76.3</ele>
        <time>2022-06-05T10:10:11.000Z</time>
      </trkpt>
      <trkpt lat="48.30622" lon="2.61787">
        <ele>76.4</ele>
        <time>2022-06-05T10:10:20.000Z</time>
      </trkpt>
      <trkpt lat="48.30616" lon="2.61774">
        <ele>75.8</ele>
        <time>2022-06-05T10:10:26.000Z</time>
      </trkpt>
      <trkpt lat="48.30609" lon="2.61763">
        <ele>74.2</ele>
        <time>2022-06-05T10:10:36.000Z</time>
      </trkpt>
      <trkpt lat="48.30602" lon="2.61753">
        <ele>73.8</ele>
        <time>2022-06-05T10:10:43.000Z</time>
      </trkpt>
      <trkpt lat="48.30595" lon="2.61742">
        <ele>73.2</ele>
        <time>2022-06-05T10:10:50.000Z</time>
      </trkpt>
      <trkpt lat="48.30591" lon="2.61729">
        <ele>73.1</ele>
        <time>2022-06-05T10:11:01.000Z</time>
      </trkpt>
      <trkpt lat="48.30585" lon="2.61719">
        <ele>72.5</ele>
        <time>2022-06-05T10:11:12.000Z</time>
      </trkpt>
      <trkpt lat="48.30579" lon="2.61709">
        <ele>72.1</ele>
        <time>2022-06-05T10:11:19.000Z</time>
      </trkpt>
      <trkpt lat="48.30572" lon="2.61699">
        <ele>72</ele>
        <time>2022-06-05T10:11:24.000Z</time>
      </trkpt>
      <trkpt lat="48.30562" lon="2.61698">
        <ele>71</ele>
        <time>2022-06-05T10:11:33.000Z</time>
      </trkpt>
      <trkpt lat="48.30554" lon="2.61689">
        <ele>71.2</ele>
        <time>2022-06-05T10:11:42.000Z</time>
      </trkpt>
      <trkpt lat="48.30552" lon="2.61675">
        <ele>70.7</ele>
        <time>2022-06-05T10:11:50.000Z</time>
      </trkpt>
      <trkpt lat="48.30553" lon="2.6166">
        <ele>70.7</ele>
        <time>2022-06-05T10:12:02.000Z</time>
      </trkpt>
      <trkpt lat="48.30559" lon="2.6165">
        <ele>71</ele>
        <time>2022-06-05T10:12:13.000Z</time>
      </trkpt>
      <trkpt lat="48.30556" lon="2.61636">
        <ele>71.5</ele>
        <time>2022-06-05T10:12:19.000Z</time>
      </trkpt>
      <trkpt lat="48.30555" lon="2.6162">
        <ele>72.3</ele>
        <time>2022-06-05T10:12:27.000Z</time>
      </trkpt>
      <trkpt lat="48.30553" lon="2.61606">
        <ele>72.5</ele>
        <time>2022-06-05T10:12:32.000Z</time>
      </trkpt>
      <trkpt lat="48.3055" lon="2.61593">
        <ele>72.7</ele>
        <time>2022-06-05T10:12:36.000Z</time>
      </trkpt>
      <trkpt lat="48.30541" lon="2.61579">
        <ele>73.4</ele>
        <time>2022-06-05T10:12:42.000Z</time>
      </trkpt>
      <trkpt lat="48.30534" lon="2.6155">
        <ele>74.7</ele>
        <time>2022-06-05T10:13:00.000Z</time>
      </trkpt>
      <trkpt lat="48.30525" lon="2.61551">
        <ele>75.5</ele>
        <time>2022-06-05T10:13:07.000Z</time>
      </trkpt>
      <trkpt lat="48.30517" lon="2.61542">
        <ele>75.7</ele>
        <time>2022-06-05T10:13:10.000Z</time>
      </trkpt>
      <trkpt lat="48.30506" lon="2.61539">
        <ele>76.2</ele>
        <time>2022-06-05T10:13:15.000Z</time>
      </trkpt>
      <trkpt lat="48.30517" lon="2.61529">
        <ele>76.6</ele>
        <time>2022-06-05T10:13:22.000Z</time>
      </trkpt>
      <trkpt lat="48.30518" lon="2.61512">
        <ele>77.1</ele>
        <time>2022-06-05T10:13:29.000Z</time>
      </trkpt>
      <trkpt lat="48.30518" lon="2.61498">
        <ele>77.5</ele>
        <time>2022-06-05T10:13:32.000Z</time>
      </trkpt>
      <trkpt lat="48.30523" lon="2.61487">
        <ele>77.6</ele>
        <time>2022-06-05T10:13:37.000Z</time>
      </trkpt>
      <trkpt lat="48.30529" lon="2.61475">
        <ele>78</ele>
        <time>2022-06-05T10:13:42.000Z</time>
      </trkpt>
      <trkpt lat="48.30539" lon="2.6147">
        <ele>78.5</ele>
        <time>2022-06-05T10:13:47.000Z</time>
      </trkpt>
      <trkpt lat="48.30548" lon="2.61468">
        <ele>78.8</ele>
        <time>2022-06-05T10:13:50.000Z</time>
      </trkpt>
      <trkpt lat="48.30544" lon="2.61452">
        <ele>79.1</ele>
        <time>2022-06-05T10:13:55.000Z</time>
      </trkpt>
      <trkpt lat="48.30537" lon="2.61443">
        <ele>77.8</ele>
        <time>2022-06-05T10:13:59.000Z</time>
      </trkpt>
      <trkpt lat="48.30543" lon="2.61432">
        <ele>79.2</ele>
        <time>2022-06-05T10:14:03.000Z</time>
      </trkpt>
      <trkpt lat="48.30552" lon="2.61428">
        <ele>78.5</ele>
        <time>2022-06-05T10:14:08.000Z</time>
      </trkpt>
      <trkpt lat="48.30557" lon="2.61417">
        <ele>75.8</ele>
        <time>2022-06-05T10:14:36.000Z</time>
      </trkpt>
      <trkpt lat="48.30547" lon="2.61408">
        <ele>76.1</ele>
        <time>2022-06-05T10:14:42.000Z</time>
      </trkpt>
      <trkpt lat="48.30544" lon="2.61392">
        <ele>76.6</ele>
        <time>2022-06-05T10:14:46.000Z</time>
      </trkpt>
      <trkpt lat="48.3055" lon="2.6138">
        <ele>77.2</ele>
        <time>2022-06-05T10:14:52.000Z</time>
      </trkpt>
      <trkpt lat="48.3056" lon="2.61379">
        <ele>77.7</ele>
        <time>2022-06-05T10:14:57.000Z</time>
      </trkpt>
      <trkpt lat="48.30561" lon="2.61364">
        <ele>77.2</ele>
        <time>2022-06-05T10:15:04.000Z</time>
      </trkpt>
      <trkpt lat="48.30559" lon="2.6135">
        <ele>77.4</ele>
        <time>2022-06-05T10:15:11.000Z</time>
      </trkpt>
      <trkpt lat="48.30558" lon="2.61339">
        <ele>77.2</ele>
        <time>2022-06-05T10:15:18.000Z</time>
      </trkpt>
      <trkpt lat="48.30559" lon="2.6134">
        <ele>77.1</ele>
        <time>2022-06-05T10:15:19.000Z</time>
      </trkpt>
      <trkpt lat="48.30568" lon="2.61343">
        <ele>74.2</ele>
        <time>2022-06-05T10:15:39.000Z</time>
      </trkpt>
      <trkpt lat="48.30567" lon="2.61346">
        <ele>74.5</ele>
        <time>2022-06-05T10:15:51.000Z</time>
      </trkpt>
      <trkpt lat="48.30568" lon="2.61348">
        <ele>74.3</ele>
        <time>2022-06-05T10:15:52.000Z</time>
      </trkpt>
      <trkpt lat="48.30566" lon="2.61347">
        <ele>74</ele>
        <time>2022-06-05T10:15:56.000Z</time>
      </trkpt>
      <trkpt lat="48.30566" lon="2.61346">
        <ele>74.2</ele>
        <time>2022-06-05T10:16:00.000Z</time>
      </trkpt>
      <trkpt lat="48.30566" lon="2.61346">
        <ele>74.3</ele>
        <time>2022-06-05T10:16:01.000Z</time>
      </trkpt>
      <trkpt lat="48.30566" lon="2.61346">
        <ele>74.2</ele>
        <time>2022-06-05T10:16:03.000Z</time>
      </trkpt>
      <trkpt lat="48.30565" lon="2.61345">
        <ele>74.1</ele>
        <time>2022-06-05T10:16:08.000Z</time>
      </trkpt>
      <trkpt lat="48.30566" lon="2.61345">
        <ele>74.2</ele>
        <time>2022-06-05T10:16:09.000Z</time>
      </trkpt>
      <trkpt lat="48.30566" lon="2.61345">
        <ele>74.1</ele>
        <time>2022-06-05T10:16:11.000Z</time>
      </trkpt>
      <trkpt lat="48.30566" lon="2.61345">
        <ele>73.9</ele>
        <time>2022-06-05T10:16:13.000Z</time>
      </trkpt>
      <trkpt lat="48.30566" lon="2.61345">
        <ele>74.1</ele>
        <time>2022-06-05T10:16:14.000Z</time>
      </trkpt>
      <trkpt lat="48.30566" lon="2.61345">
        <ele>74.2</ele>
        <time>2022-06-05T10:16:16.000Z</time>
      </trkpt>
      <trkpt lat="48.30566" lon="2.61345">
        <ele>74.3</ele>
        <time>2022-06-05T10:16:17.000Z</time>
      </trkpt>
      <trkpt lat="48.30566" lon="2.61345">
        <ele>74.3</ele>
        <time>2022-06-05T10:16:18.000Z</time>
      </trkpt>
      <trkpt lat="48.30566" lon="2.61345">
        <ele>74.5</ele>
        <time>2022-06-05T10:16:19.000Z</time>
      </trkpt>
      <trkpt lat="48.30566" lon="2.61346">
        <ele>74.6</ele>
        <time>2022-06-05T10:16:20.000Z</time>
      </trkpt>
      <trkpt lat="48.30566" lon="2.61346">
        <ele>74.7</ele>
        <time>2022-06-05T10:16:22.000Z</time>
      </trkpt>
      <trkpt lat="48.30566" lon="2.61346">
        <ele>74.9</ele>
        <time>2022-06-05T10:16:33.000Z</time>
      </trkpt>
      <trkpt lat="48.30566" lon="2.61347">
        <ele>74.8</ele>
        <time>2022-06-05T10:16:36.000Z</time>
      </trkpt>
      <trkpt lat="48.30566" lon="2.61347">
        <ele>75</ele>
        <time>2022-06-05T10:16:38.000Z</time>
      </trkpt>
      <trkpt lat="48.30566" lon="2.61348">
        <ele>74.9</ele>
        <time>2022-06-05T10:16:40.000Z</time>
      </trkpt>
      <trkpt lat="48.30566" lon="2.61349">
        <ele>75</ele>
        <time>2022-06-05T10:16:41.000Z</time>
      </trkpt>
      <trkpt lat="48.30566" lon="2.61349">
        <ele>75.1</ele>
        <time>2022-06-05T10:16:42.000Z</time>
      </trkpt>
      <trkpt lat="48.30566" lon="2.6135">
        <ele>74.9</ele>
        <time>2022-06-05T10:16:45.000Z</time>
      </trkpt>
      <trkpt lat="48.30566" lon="2.6135">
        <ele>74.8</ele>
        <time>2022-06-05T10:16:46.000Z</time>
      </trkpt>
      <trkpt lat="48.30565" lon="2.6135">
        <ele>75.1</ele>
        <time>2022-06-05T10:16:48.000Z</time>
      </trkpt>
      <trkpt lat="48.30563" lon="2.61351">
        <ele>75.2</ele>
        <time>2022-06-05T10:16:54.000Z</time>
      </trkpt>
      <trkpt lat="48.30563" lon="2.6135">
        <ele>75</ele>
        <time>2022-06-05T10:16:59.000Z</time>
      </trkpt>
      <trkpt lat="48.30563" lon="2.6135">
        <ele>75.2</ele>
        <time>2022-06-05T10:17:01.000Z</time>
      </trkpt>
      <trkpt lat="48.30563" lon="2.6135">
        <ele>75.2</ele>
        <time>2022-06-05T10:17:03.000Z</time>
      </trkpt>
      <trkpt lat="48.30562" lon="2.6135">
        <ele>75.2</ele>
        <time>2022-06-05T10:17:05.000Z</time>
      </trkpt>
      <trkpt lat="48.30562" lon="2.6135">
        <ele>75.1</ele>
        <time>2022-06-05T10:17:06.000Z</time>
      </trkpt>
      <trkpt lat="48.30562" lon="2.6135">
        <ele>75</ele>
        <time>2022-06-05T10:17:07.000Z</time>
      </trkpt>
      <trkpt lat="48.30562" lon="2.6135">
        <ele>75</ele>
        <time>2022-06-05T10:17:09.000Z</time>
      </trkpt>
      <trkpt lat="48.30562" lon="2.6135">
        <ele>75.1</ele>
        <time>2022-06-05T10:17:10.000Z</time>
      </trkpt>
      <trkpt lat="48.30562" lon="2.6135">
        <ele>75.4</ele>
        <time>2022-06-05T10:17:31.000Z</time>
      </trkpt>
      <trkpt lat="48.30562" lon="2.6135">
        <ele>75.4</ele>
        <time>2022-06-05T10:17:32.000Z</time>
      </trkpt>
      <trkpt lat="48.30562" lon="2.6135">
        <ele>75.1</ele>
        <time>2022-06-05T10:17:38.000Z</time>
      </trkpt>
      <trkpt lat="48.30562" lon="2.6135">
        <ele>75.1</ele>
        <time>2022-06-05T10:17:39.000Z</time>
      </trkpt>
      <trkpt lat="48.30562" lon="2.6135">
        <ele>75.1</ele>
        <time>2022-06-05T10:17:41.000Z</time>
      </trkpt>
      <trkpt lat="48.30561" lon="2.61349">
        <ele>75.3</ele>
        <time>2022-06-05T10:17:46.000Z</time>
      </trkpt>
      <trkpt lat="48.30561" lon="2.61349">
        <ele>75.4</ele>
        <time>2022-06-05T10:17:50.000Z</time>
      </trkpt>
      <trkpt lat="48.30561" lon="2.6135">
        <ele>75.2</ele>
        <time>2022-06-05T10:17:52.000Z</time>
      </trkpt>
      <trkpt lat="48.30561" lon="2.61349">
        <ele>75.6</ele>
        <time>2022-06-05T10:17:57.000Z</time>
      </trkpt>
      <trkpt lat="48.30561" lon="2.61348">
        <ele>75.5</ele>
        <time>2022-06-05T10:18:01.000Z</time>
      </trkpt>
      <trkpt lat="48.30561" lon="2.61348">
        <ele>75.5</ele>
        <time>2022-06-05T10:18:02.000Z</time>
      </trkpt>
      <trkpt lat="48.30552" lon="2.61345">
        <ele>76.1</ele>
        <time>2022-06-05T10:18:16.000Z</time>
      </trkpt>
      <trkpt lat="48.30542" lon="2.6134">
        <ele>75.8</ele>
        <time>2022-06-05T10:18:22.000Z</time>
      </trkpt>
      <trkpt lat="48.30534" lon="2.61334">
        <ele>75.8</ele>
        <time>2022-06-05T10:18:29.000Z</time>
      </trkpt>
      <trkpt lat="48.30524" lon="2.61329">
        <ele>75.8</ele>
        <time>2022-06-05T10:18:35.000Z</time>
      </trkpt>
      <trkpt lat="48.30515" lon="2.61325">
        <ele>75.8</ele>
        <time>2022-06-05T10:18:43.000Z</time>
      </trkpt>
      <trkpt lat="48.30507" lon="2.61316">
        <ele>74.1</ele>
        <time>2022-06-05T10:18:51.000Z</time>
      </trkpt>
      <trkpt lat="48.30499" lon="2.61308">
        <ele>74.1</ele>
        <time>2022-06-05T10:19:00.000Z</time>
      </trkpt>
      <trkpt lat="48.30489" lon="2.61304">
        <ele>73.4</ele>
        <time>2022-06-05T10:19:08.000Z</time>
      </trkpt>
      <trkpt lat="48.3048" lon="2.61304">
        <ele>73.1</ele>
        <time>2022-06-05T10:19:17.000Z</time>
      </trkpt>
      <trkpt lat="48.30471" lon="2.61306">
        <ele>72.6</ele>
        <time>2022-06-05T10:19:31.000Z</time>
      </trkpt>
      <trkpt lat="48.30462" lon="2.61308">
        <ele>71.6</ele>
        <time>2022-06-05T10:19:41.000Z</time>
      </trkpt>
      <trkpt lat="48.30451" lon="2.61303">
        <ele>72.6</ele>
        <time>2022-06-05T10:19:48.000Z</time>
      </trkpt>
      <trkpt lat="48.30443" lon="2.61294">
        <ele>72.6</ele>
        <time>2022-06-05T10:19:54.000Z</time>
      </trkpt>
      <trkpt lat="48.30436" lon="2.61285">
        <ele>72.4</ele>
        <time>2022-06-05T10:19:59.000Z</time>
      </trkpt>
      <trkpt lat="48.30428" lon="2.61278">
        <ele>72.4</ele>
        <time>2022-06-05T10:20:06.000Z</time>
      </trkpt>
      <trkpt lat="48.30421" lon="2.61267">
        <ele>72.6</ele>
        <time>2022-06-05T10:20:15.000Z</time>
      </trkpt>
      <trkpt lat="48.30412" lon="2.61259">
        <ele>73.3</ele>
        <time>2022-06-05T10:20:26.000Z</time>
      </trkpt>
      <trkpt lat="48.30405" lon="2.61251">
        <ele>73.8</ele>
        <time>2022-06-05T10:20:32.000Z</time>
      </trkpt>
      <trkpt lat="48.30397" lon="2.61244">
        <ele>73.6</ele>
        <time>2022-06-05T10:20:41.000Z</time>
      </trkpt>
      <trkpt lat="48.30388" lon="2.61242">
        <ele>73.5</ele>
        <time>2022-06-05T10:20:48.000Z</time>
      </trkpt>
      <trkpt lat="48.30382" lon="2.61231">
        <ele>72.8</ele>
        <time>2022-06-05T10:20:57.000Z</time>
      </trkpt>
      <trkpt lat="48.30375" lon="2.6122">
        <ele>72.5</ele>
        <time>2022-06-05T10:21:06.000Z</time>
      </trkpt>
      <trkpt lat="48.30372" lon="2.61206">
        <ele>72.4</ele>
        <time>2022-06-05T10:21:19.000Z</time>
      </trkpt>
      <trkpt lat="48.3037" lon="2.61191">
        <ele>72.7</ele>
        <time>2022-06-05T10:21:27.000Z</time>
      </trkpt>
      <trkpt lat="48.30376" lon="2.61179">
        <ele>72.3</ele>
        <time>2022-06-05T10:21:48.000Z</time>
      </trkpt>
      <trkpt lat="48.30377" lon="2.61176">
        <ele>72.7</ele>
        <time>2022-06-05T10:21:55.000Z</time>
      </trkpt>
      <trkpt lat="48.30377" lon="2.61176">
        <ele>72.8</ele>
        <time>2022-06-05T10:21:56.000Z</time>
      </trkpt>
      <trkpt lat="48.30376" lon="2.61174">
        <ele>72.9</ele>
        <time>2022-06-05T10:21:58.000Z</time>
      </trkpt>
      <trkpt lat="48.30376" lon="2.61174">
        <ele>73.2</ele>
        <time>2022-06-05T10:22:00.000Z</time>
      </trkpt>
      <trkpt lat="48.30376" lon="2.61174">
        <ele>73.4</ele>
        <time>2022-06-05T10:22:01.000Z</time>
      </trkpt>
      <trkpt lat="48.30376" lon="2.61174">
        <ele>73.5</ele>
        <time>2022-06-05T10:22:02.000Z</time>
      </trkpt>
      <trkpt lat="48.30376" lon="2.61174">
        <ele>73.6</ele>
        <time>2022-06-05T10:22:03.000Z</time>
      </trkpt>
      <trkpt lat="48.30377" lon="2.61174">
        <ele>73.8</ele>
        <time>2022-06-05T10:22:08.000Z</time>
      </trkpt>
      <trkpt lat="48.30377" lon="2.61174">
        <ele>73.8</ele>
        <time>2022-06-05T10:22:09.000Z</time>
      </trkpt>
      <trkpt lat="48.30377" lon="2.61174">
        <ele>74.8</ele>
        <time>2022-06-05T10:22:16.000Z</time>
      </trkpt>
      <trkpt lat="48.30377" lon="2.61174">
        <ele>74.3</ele>
        <time>2022-06-05T10:22:17.000Z</time>
      </trkpt>
      <trkpt lat="48.30377" lon="2.61175">
        <ele>73.3</ele>
        <time>2022-06-05T10:22:18.000Z</time>
      </trkpt>
      <trkpt lat="48.30373" lon="2.61174">
        <ele>74.6</ele>
        <time>2022-06-05T10:22:25.000Z</time>
      </trkpt>
      <trkpt lat="48.30373" lon="2.61174">
        <ele>75.1</ele>
        <time>2022-06-05T10:22:50.000Z</time>
      </trkpt>
      <trkpt lat="48.30374" lon="2.61173">
        <ele>71.2</ele>
        <time>2022-06-05T10:22:54.000Z</time>
      </trkpt>
      <trkpt lat="48.30373" lon="2.61173">
        <ele>73.7</ele>
        <time>2022-06-05T10:22:59.000Z</time>
      </trkpt>
      <trkpt lat="48.30372" lon="2.61171">
        <ele>74.5</ele>
        <time>2022-06-05T10:25:28.000Z</time>
      </trkpt>
      <trkpt lat="48.30371" lon="2.61157">
        <ele>76.4</ele>
        <time>2022-06-05T10:25:42.000Z</time>
      </trkpt>
      <trkpt lat="48.30374" lon="2.61144">
        <ele>77.8</ele>
        <time>2022-06-05T10:25:54.000Z</time>
      </trkpt>
      <trkpt lat="48.30376" lon="2.61131">
        <ele>80.8</ele>
        <time>2022-06-05T10:26:19.000Z</time>
      </trkpt>
      <trkpt lat="48.30384" lon="2.61123">
        <ele>82.2</ele>
        <time>2022-06-05T10:26:30.000Z</time>
      </trkpt>
      <trkpt lat="48.30393" lon="2.61118">
        <ele>83.1</ele>
        <time>2022-06-05T10:26:38.000Z</time>
      </trkpt>
      <trkpt lat="48.30396" lon="2.61105">
        <ele>83.9</ele>
        <time>2022-06-05T10:26:46.000Z</time>
      </trkpt>
      <trkpt lat="48.30404" lon="2.61098">
        <ele>84.6</ele>
        <time>2022-06-05T10:26:50.000Z</time>
      </trkpt>
      <trkpt lat="48.30398" lon="2.61087">
        <ele>85.6</ele>
        <time>2022-06-05T10:26:58.000Z</time>
      </trkpt>
      <trkpt lat="48.30389" lon="2.61082">
        <ele>86.7</ele>
        <time>2022-06-05T10:27:08.000Z</time>
      </trkpt>
      <trkpt lat="48.3038" lon="2.61081">
        <ele>87.4</ele>
        <time>2022-06-05T10:27:15.000Z</time>
      </trkpt>
      <trkpt lat="48.30375" lon="2.61069">
        <ele>87.8</ele>
        <time>2022-06-05T10:27:24.000Z</time>
      </trkpt>
      <trkpt lat="48.30379" lon="2.61055">
        <ele>88.2</ele>
        <time>2022-06-05T10:27:31.000Z</time>
      </trkpt>
      <trkpt lat="48.30374" lon="2.61043">
        <ele>89.3</ele>
        <time>2022-06-05T10:27:39.000Z</time>
      </trkpt>
      <trkpt lat="48.30374" lon="2.61043">
        <ele>89.5</ele>
        <time>2022-06-05T10:27:40.000Z</time>
      </trkpt>
      <trkpt lat="48.30374" lon="2.61043">
        <ele>89.5</ele>
        <time>2022-06-05T10:27:41.000Z</time>
      </trkpt>
      <trkpt lat="48.3037" lon="2.6103">
        <ele>90.3</ele>
        <time>2022-06-05T10:27:52.000Z</time>
      </trkpt>
      <trkpt lat="48.30372" lon="2.61016">
        <ele>90.8</ele>
        <time>2022-06-05T10:28:02.000Z</time>
      </trkpt>
      <trkpt lat="48.30363" lon="2.6101">
        <ele>91.6</ele>
        <time>2022-06-05T10:28:08.000Z</time>
      </trkpt>
      <trkpt lat="48.30359" lon="2.60998">
        <ele>93.2</ele>
        <time>2022-06-05T10:28:18.000Z</time>
      </trkpt>
      <trkpt lat="48.30351" lon="2.60992">
        <ele>94.2</ele>
        <time>2022-06-05T10:28:27.000Z</time>
      </trkpt>
      <trkpt lat="48.30342" lon="2.6099">
        <ele>94.3</ele>
        <time>2022-06-05T10:28:34.000Z</time>
      </trkpt>
      <trkpt lat="48.30332" lon="2.60991">
        <ele>94.8</ele>
        <time>2022-06-05T10:28:40.000Z</time>
      </trkpt>
      <trkpt lat="48.30324" lon="2.60985">
        <ele>95.2</ele>
        <time>2022-06-05T10:28:48.000Z</time>
      </trkpt>
      <trkpt lat="48.30323" lon="2.60986">
        <ele>96.8</ele>
        <time>2022-06-05T10:29:25.000Z</time>
      </trkpt>
      <trkpt lat="48.30313" lon="2.60978">
        <ele>96.7</ele>
        <time>2022-06-05T10:29:30.000Z</time>
      </trkpt>
      <trkpt lat="48.30308" lon="2.60965">
        <ele>97.5</ele>
        <time>2022-06-05T10:29:38.000Z</time>
      </trkpt>
      <trkpt lat="48.30306" lon="2.60957">
        <ele>97.6</ele>
        <time>2022-06-05T10:29:43.000Z</time>
      </trkpt>
      <trkpt lat="48.30305" lon="2.60958">
        <ele>97.8</ele>
        <time>2022-06-05T10:29:44.000Z</time>
      </trkpt>
      <trkpt lat="48.30295" lon="2.60953">
        <ele>98.8</ele>
        <time>2022-06-05T10:29:51.000Z</time>
      </trkpt>
      <trkpt lat="48.30292" lon="2.60947">
        <ele>99.7</ele>
        <time>2022-06-05T10:29:59.000Z</time>
      </trkpt>
      <trkpt lat="48.30292" lon="2.60947">
        <ele>100</ele>
        <time>2022-06-05T10:30:00.000Z</time>
      </trkpt>
      <trkpt lat="48.30294" lon="2.60934">
        <ele>102.2</ele>
        <time>2022-06-05T10:30:15.000Z</time>
      </trkpt>
      <trkpt lat="48.30298" lon="2.60922">
        <ele>104.9</ele>
        <time>2022-06-05T10:30:45.000Z</time>
      </trkpt>
      <trkpt lat="48.30298" lon="2.60921">
        <ele>105.1</ele>
        <time>2022-06-05T10:30:46.000Z</time>
      </trkpt>
      <trkpt lat="48.30302" lon="2.60908">
        <ele>105.2</ele>
        <time>2022-06-05T10:30:59.000Z</time>
      </trkpt>
      <trkpt lat="48.30297" lon="2.60897">
        <ele>106.9</ele>
        <time>2022-06-05T10:31:21.000Z</time>
      </trkpt>
      <trkpt lat="48.3029" lon="2.60886">
        <ele>108</ele>
        <time>2022-06-05T10:31:34.000Z</time>
      </trkpt>
      <trkpt lat="48.30289" lon="2.60871">
        <ele>109.7</ele>
        <time>2022-06-05T10:31:52.000Z</time>
      </trkpt>
      <trkpt lat="48.30283" lon="2.6086">
        <ele>110.2</ele>
        <time>2022-06-05T10:32:01.000Z</time>
      </trkpt>
      <trkpt lat="48.30279" lon="2.60846">
        <ele>110.9</ele>
        <time>2022-06-05T10:32:10.000Z</time>
      </trkpt>
      <trkpt lat="48.30279" lon="2.60846">
        <ele>111.3</ele>
        <time>2022-06-05T10:32:11.000Z</time>
      </trkpt>
      <trkpt lat="48.30279" lon="2.60844">
        <ele>111.5</ele>
        <time>2022-06-05T10:32:12.000Z</time>
      </trkpt>
      <trkpt lat="48.30278" lon="2.6085">
        <ele>114.1</ele>
        <time>2022-06-05T10:33:11.000Z</time>
      </trkpt>
      <trkpt lat="48.30278" lon="2.60851">
        <ele>114</ele>
        <time>2022-06-05T10:33:12.000Z</time>
      </trkpt>
      <trkpt lat="48.30278" lon="2.60856">
        <ele>113.7</ele>
        <time>2022-06-05T10:33:33.000Z</time>
      </trkpt>
      <trkpt lat="48.30277" lon="2.60856">
        <ele>113.8</ele>
        <time>2022-06-05T10:33:34.000Z</time>
      </trkpt>
      <trkpt lat="48.30277" lon="2.6087">
        <ele>114.4</ele>
        <time>2022-06-05T10:33:50.000Z</time>
      </trkpt>
      <trkpt lat="48.30278" lon="2.6087">
        <ele>114.3</ele>
        <time>2022-06-05T10:33:54.000Z</time>
      </trkpt>
      <trkpt lat="48.30278" lon="2.6087">
        <ele>114.3</ele>
        <time>2022-06-05T10:33:55.000Z</time>
      </trkpt>
      <trkpt lat="48.30279" lon="2.60871">
        <ele>113.6</ele>
        <time>2022-06-05T10:33:59.000Z</time>
      </trkpt>
      <trkpt lat="48.30279" lon="2.6087">
        <ele>113.4</ele>
        <time>2022-06-05T10:34:00.000Z</time>
      </trkpt>
      <trkpt lat="48.30281" lon="2.60863">
        <ele>107.3</ele>
        <time>2022-06-05T10:34:35.000Z</time>
      </trkpt>
      <trkpt lat="48.30281" lon="2.60863">
        <ele>107.9</ele>
        <time>2022-06-05T10:34:37.000Z</time>
      </trkpt>
      <trkpt lat="48.30281" lon="2.60864">
        <ele>113.4</ele>
        <time>2022-06-05T10:34:42.000Z</time>
      </trkpt>
      <trkpt lat="48.30281" lon="2.60864">
        <ele>112.9</ele>
        <time>2022-06-05T10:34:47.000Z</time>
      </trkpt>
      <trkpt lat="48.30281" lon="2.60864">
        <ele>112.9</ele>
        <time>2022-06-05T10:34:48.000Z</time>
      </trkpt>
      <trkpt lat="48.30281" lon="2.60864">
        <ele>113</ele>
        <time>2022-06-05T10:34:55.000Z</time>
      </trkpt>
      <trkpt lat="48.30281" lon="2.60864">
        <ele>113</ele>
        <time>2022-06-05T10:34:56.000Z</time>
      </trkpt>
      <trkpt lat="48.30281" lon="2.60864">
        <ele>113</ele>
        <time>2022-06-05T10:34:57.000Z</time>
      </trkpt>
      <trkpt lat="48.30281" lon="2.60865">
        <ele>112.6</ele>
        <time>2022-06-05T10:35:02.000Z</time>
      </trkpt>
      <trkpt lat="48.30282" lon="2.60865">
        <ele>112.5</ele>
        <time>2022-06-05T10:35:03.000Z</time>
      </trkpt>
      <trkpt lat="48.30282" lon="2.60865">
        <ele>112.6</ele>
        <time>2022-06-05T10:35:04.000Z</time>
      </trkpt>
      <trkpt lat="48.30282" lon="2.60866">
        <ele>112.7</ele>
        <time>2022-06-05T10:35:05.000Z</time>
      </trkpt>
      <trkpt lat="48.30283" lon="2.60867">
        <ele>113.4</ele>
        <time>2022-06-05T10:35:10.000Z</time>
      </trkpt>
      <trkpt lat="48.30283" lon="2.60867">
        <ele>113.4</ele>
        <time>2022-06-05T10:35:13.000Z</time>
      </trkpt>
      <trkpt lat="48.30283" lon="2.60867">
        <ele>113.9</ele>
        <time>2022-06-05T10:35:15.000Z</time>
      </trkpt>
      <trkpt lat="48.30283" lon="2.60867">
        <ele>114.5</ele>
        <time>2022-06-05T10:36:52.000Z</time>
      </trkpt>
      <trkpt lat="48.30283" lon="2.60867">
        <ele>114.5</ele>
        <time>2022-06-05T10:36:53.000Z</time>
      </trkpt>
      <trkpt lat="48.30283" lon="2.60868">
        <ele>114.3</ele>
        <time>2022-06-05T10:37:25.000Z</time>
      </trkpt>
      <trkpt lat="48.30283" lon="2.60868">
        <ele>114.2</ele>
        <time>2022-06-05T10:37:26.000Z</time>
      </trkpt>
      <trkpt lat="48.30283" lon="2.60868">
        <ele>115.1</ele>
        <time>2022-06-05T10:37:43.000Z</time>
      </trkpt>
      <trkpt lat="48.30283" lon="2.60868">
        <ele>115</ele>
        <time>2022-06-05T10:37:44.000Z</time>
      </trkpt>
      <trkpt lat="48.30283" lon="2.60868">
        <ele>115.1</ele>
        <time>2022-06-05T10:38:11.000Z</time>
      </trkpt>
      <trkpt lat="48.30283" lon="2.60868">
        <ele>115.1</ele>
        <time>2022-06-05T10:38:12.000Z</time>
      </trkpt>
      <trkpt lat="48.30282" lon="2.60868">
        <ele>114.9</ele>
        <time>2022-06-05T10:38:50.000Z</time>
      </trkpt>
      <trkpt lat="48.30282" lon="2.60868">
        <ele>114.8</ele>
        <time>2022-06-05T10:38:51.000Z</time>
      </trkpt>
      <trkpt lat="48.30282" lon="2.60868">
        <ele>113.5</ele>
        <time>2022-06-05T10:39:38.000Z</time>
      </trkpt>
      <trkpt lat="48.30282" lon="2.60868">
        <ele>113.6</ele>
        <time>2022-06-05T10:39:39.000Z</time>
      </trkpt>
      <trkpt lat="48.30282" lon="2.60868">
        <ele>112.9</ele>
        <time>2022-06-05T10:39:50.000Z</time>
      </trkpt>
      <trkpt lat="48.30282" lon="2.60868">
        <ele>113</ele>
        <time>2022-06-05T10:39:51.000Z</time>
      </trkpt>
      <trkpt lat="48.30282" lon="2.60869">
        <ele>112.1</ele>
        <time>2022-06-05T10:40:19.000Z</time>
      </trkpt>
      <trkpt lat="48.30282" lon="2.60869">
        <ele>112</ele>
        <time>2022-06-05T10:40:20.000Z</time>
      </trkpt>
      <trkpt lat="48.30282" lon="2.60869">
        <ele>111.5</ele>
        <time>2022-06-05T10:40:46.000Z</time>
      </trkpt>
      <trkpt lat="48.30282" lon="2.60869">
        <ele>111.4</ele>
        <time>2022-06-05T10:40:47.000Z</time>
      </trkpt>
      <trkpt lat="48.30282" lon="2.60869">
        <ele>110.5</ele>
        <time>2022-06-05T10:41:34.000Z</time>
      </trkpt>
      <trkpt lat="48.30282" lon="2.60869">
        <ele>110.4</ele>
        <time>2022-06-05T10:41:35.000Z</time>
      </trkpt>
      <trkpt lat="48.30282" lon="2.60869">
        <ele>108.5</ele>
        <time>2022-06-05T10:43:02.000Z</time>
      </trkpt>
      <trkpt lat="48.30282" lon="2.60869">
        <ele>108.5</ele>
        <time>2022-06-05T10:43:03.000Z</time>
      </trkpt>
      <trkpt lat="48.30282" lon="2.60869">
        <ele>105.1</ele>
        <time>2022-06-05T10:44:53.000Z</time>
      </trkpt>
      <trkpt lat="48.30282" lon="2.60869">
        <ele>105.1</ele>
        <time>2022-06-05T10:44:54.000Z</time>
      </trkpt>
      <trkpt lat="48.30282" lon="2.60869">
        <ele>103.4</ele>
        <time>2022-06-05T10:46:26.000Z</time>
      </trkpt>
      <trkpt lat="48.30282" lon="2.60869">
        <ele>103.4</ele>
        <time>2022-06-05T10:46:27.000Z</time>
      </trkpt>
      <trkpt lat="48.30282" lon="2.60869">
        <ele>103.6</ele>
        <time>2022-06-05T10:47:21.000Z</time>
      </trkpt>
      <trkpt lat="48.30282" lon="2.60869">
        <ele>103.6</ele>
        <time>2022-06-05T10:47:22.000Z</time>
      </trkpt>
      <trkpt lat="48.30281" lon="2.60869">
        <ele>106.6</ele>
        <time>2022-06-05T10:49:01.000Z</time>
      </trkpt>
      <trkpt lat="48.30281" lon="2.60869">
        <ele>106.3</ele>
        <time>2022-06-05T10:49:02.000Z</time>
      </trkpt>
      <trkpt lat="48.30282" lon="2.60869">
        <ele>106.2</ele>
        <time>2022-06-05T10:49:03.000Z</time>
      </trkpt>
      <trkpt lat="48.30282" lon="2.60869">
        <ele>106.2</ele>
        <time>2022-06-05T10:49:04.000Z</time>
      </trkpt>
      <trkpt lat="48.30281" lon="2.60869">
        <ele>108.8</ele>
        <time>2022-06-05T10:51:20.000Z</time>
      </trkpt>
      <trkpt lat="48.30281" lon="2.60869">
        <ele>108.9</ele>
        <time>2022-06-05T10:51:21.000Z</time>
      </trkpt>
      <trkpt lat="48.30282" lon="2.6087">
        <ele>107.7</ele>
        <time>2022-06-05T10:52:16.000Z</time>
      </trkpt>
      <trkpt lat="48.30282" lon="2.6087">
        <ele>107.7</ele>
        <time>2022-06-05T10:52:17.000Z</time>
      </trkpt>
      <trkpt lat="48.30281" lon="2.6087">
        <ele>107.2</ele>
        <time>2022-06-05T10:52:52.000Z</time>
      </trkpt>
      <trkpt lat="48.30281" lon="2.6087">
        <ele>107.3</ele>
        <time>2022-06-05T10:52:53.000Z</time>
      </trkpt>
      <trkpt lat="48.30282" lon="2.6087">
        <ele>106.8</ele>
        <time>2022-06-05T10:53:14.000Z</time>
      </trkpt>
      <trkpt lat="48.30282" lon="2.6087">
        <ele>106.8</ele>
        <time>2022-06-05T10:53:15.000Z</time>
      </trkpt>
      <trkpt lat="48.30281" lon="2.6087">
        <ele>104</ele>
        <time>2022-06-05T10:55:18.000Z</time>
      </trkpt>
      <trkpt lat="48.30281" lon="2.6087">
        <ele>103.9</ele>
        <time>2022-06-05T10:55:19.000Z</time>
      </trkpt>
      <trkpt lat="48.30281" lon="2.60869">
        <ele>102</ele>
        <time>2022-06-05T10:57:47.000Z</time>
      </trkpt>
      <trkpt lat="48.30281" lon="2.60869">
        <ele>102.1</ele>
        <time>2022-06-05T10:57:48.000Z</time>
      </trkpt>
      <trkpt lat="48.30281" lon="2.60869">
        <ele>101.8</ele>
        <time>2022-06-05T11:01:35.000Z</time>
      </trkpt>
      <trkpt lat="48.30281" lon="2.60869">
        <ele>101.7</ele>
        <time>2022-06-05T11:01:36.000Z</time>
      </trkpt>
      <trkpt lat="48.30281" lon="2.60869">
        <ele>100.7</ele>
        <time>2022-06-05T11:02:09.000Z</time>
      </trkpt>
      <trkpt lat="48.30281" lon="2.60869">
        <ele>100.8</ele>
        <time>2022-06-05T11:02:10.000Z</time>
      </trkpt>
      <trkpt lat="48.30281" lon="2.60869">
        <ele>100.2</ele>
        <time>2022-06-05T11:02:21.000Z</time>
      </trkpt>
      <trkpt lat="48.30281" lon="2.60869">
        <ele>100.2</ele>
        <time>2022-06-05T11:02:22.000Z</time>
      </trkpt>
      <trkpt lat="48.30282" lon="2.60869">
        <ele>95.4</ele>
        <time>2022-06-05T11:03:59.000Z</time>
      </trkpt>
      <trkpt lat="48.30282" lon="2.60869">
        <ele>95.3</ele>
        <time>2022-06-05T11:04:00.000Z</time>
      </trkpt>
      <trkpt lat="48.30281" lon="2.60868">
        <ele>91.5</ele>
        <time>2022-06-05T11:05:17.000Z</time>
      </trkpt>
      <trkpt lat="48.30281" lon="2.60868">
        <ele>91.5</ele>
        <time>2022-06-05T11:05:18.000Z</time>
      </trkpt>
      <trkpt lat="48.30282" lon="2.60868">
        <ele>90.1</ele>
        <time>2022-06-05T11:06:41.000Z</time>
      </trkpt>
      <trkpt lat="48.30282" lon="2.60868">
        <ele>90.2</ele>
        <time>2022-06-05T11:06:42.000Z</time>
      </trkpt>
      <trkpt lat="48.30282" lon="2.60868">
        <ele>91.7</ele>
        <time>2022-06-05T11:07:19.000Z</time>
      </trkpt>
      <trkpt lat="48.30282" lon="2.60868">
        <ele>92</ele>
        <time>2022-06-05T11:07:20.000Z</time>
      </trkpt>
      <trkpt lat="48.30282" lon="2.60868">
        <ele>95.4</ele>
        <time>2022-06-05T11:08:07.000Z</time>
      </trkpt>
      <trkpt lat="48.30282" lon="2.60868">
        <ele>95.6</ele>
        <time>2022-06-05T11:08:08.000Z</time>
      </trkpt>
      <trkpt lat="48.30282" lon="2.60868">
        <ele>97.6</ele>
        <time>2022-06-05T11:08:26.000Z</time>
      </trkpt>
      <trkpt lat="48.30282" lon="2.60868">
        <ele>97.7</ele>
        <time>2022-06-05T11:08:27.000Z</time>
      </trkpt>
      <trkpt lat="48.30282" lon="2.60868">
        <ele>101.2</ele>
        <time>2022-06-05T11:10:22.000Z</time>
      </trkpt>
      <trkpt lat="48.30281" lon="2.60868">
        <ele>101.3</ele>
        <time>2022-06-05T11:10:25.000Z</time>
      </trkpt>
      <trkpt lat="48.30281" lon="2.60868">
        <ele>101.5</ele>
        <time>2022-06-05T11:10:27.000Z</time>
      </trkpt>
      <trkpt lat="48.30281" lon="2.60868">
        <ele>101.5</ele>
        <time>2022-06-05T11:10:28.000Z</time>
      </trkpt>
      <trkpt lat="48.30281" lon="2.60868">
        <ele>101.5</ele>
        <time>2022-06-05T11:10:30.000Z</time>
      </trkpt>
      <trkpt lat="48.30281" lon="2.60868">
        <ele>101.3</ele>
        <time>2022-06-05T11:10:32.000Z</time>
      </trkpt>
      <trkpt lat="48.30281" lon="2.60868">
        <ele>101</ele>
        <time>2022-06-05T11:10:40.000Z</time>
      </trkpt>
      <trkpt lat="48.30281" lon="2.60869">
        <ele>101</ele>
        <time>2022-06-05T11:10:46.000Z</time>
      </trkpt>
      <trkpt lat="48.30281" lon="2.60868">
        <ele>100.5</ele>
        <time>2022-06-05T11:10:55.000Z</time>
      </trkpt>
      <trkpt lat="48.30282" lon="2.60866">
        <ele>100.2</ele>
        <time>2022-06-05T11:11:01.000Z</time>
      </trkpt>
      <trkpt lat="48.30282" lon="2.60866">
        <ele>99.6</ele>
        <time>2022-06-05T11:11:15.000Z</time>
      </trkpt>
      <trkpt lat="48.30282" lon="2.60866">
        <ele>99.4</ele>
        <time>2022-06-05T11:11:16.000Z</time>
      </trkpt>
      <trkpt lat="48.30281" lon="2.60865">
        <ele>99.1</ele>
        <time>2022-06-05T11:11:28.000Z</time>
      </trkpt>
      <trkpt lat="48.30281" lon="2.60865">
        <ele>99.1</ele>
        <time>2022-06-05T11:11:29.000Z</time>
      </trkpt>
      <trkpt lat="48.30281" lon="2.60865">
        <ele>97.4</ele>
        <time>2022-06-05T11:11:51.000Z</time>
      </trkpt>
      <trkpt lat="48.30281" lon="2.60865">
        <ele>94.1</ele>
        <time>2022-06-05T11:11:53.000Z</time>
      </trkpt>
      <trkpt lat="48.30281" lon="2.60865">
        <ele>93</ele>
        <time>2022-06-05T11:11:54.000Z</time>
      </trkpt>
      <trkpt lat="48.30281" lon="2.60865">
        <ele>92.1</ele>
        <time>2022-06-05T11:11:56.000Z</time>
      </trkpt>
      <trkpt lat="48.30281" lon="2.60864">
        <ele>92.8</ele>
        <time>2022-06-05T11:11:57.000Z</time>
      </trkpt>
      <trkpt lat="48.30281" lon="2.60864">
        <ele>92.8</ele>
        <time>2022-06-05T11:11:58.000Z</time>
      </trkpt>
      <trkpt lat="48.30281" lon="2.60864">
        <ele>89.8</ele>
        <time>2022-06-05T11:12:11.000Z</time>
      </trkpt>
      <trkpt lat="48.30281" lon="2.60865">
        <ele>89.3</ele>
        <time>2022-06-05T11:12:17.000Z</time>
      </trkpt>
      <trkpt lat="48.30282" lon="2.60865">
        <ele>87</ele>
        <time>2022-06-05T11:12:26.000Z</time>
      </trkpt>
      <trkpt lat="48.30282" lon="2.60865">
        <ele>86.8</ele>
        <time>2022-06-05T11:12:27.000Z</time>
      </trkpt>
      <trkpt lat="48.30281" lon="2.60865">
        <ele>86</ele>
        <time>2022-06-05T11:12:28.000Z</time>
      </trkpt>
      <trkpt lat="48.30281" lon="2.60865">
        <ele>86</ele>
        <time>2022-06-05T11:12:32.000Z</time>
      </trkpt>
      <trkpt lat="48.30281" lon="2.60865">
        <ele>85.7</ele>
        <time>2022-06-05T11:12:34.000Z</time>
      </trkpt>
      <trkpt lat="48.30281" lon="2.60865">
        <ele>85.6</ele>
        <time>2022-06-05T11:12:35.000Z</time>
      </trkpt>
      <trkpt lat="48.30281" lon="2.60866">
        <ele>85.5</ele>
        <time>2022-06-05T11:12:36.000Z</time>
      </trkpt>
      <trkpt lat="48.30281" lon="2.60866">
        <ele>83.3</ele>
        <time>2022-06-05T11:12:38.000Z</time>
      </trkpt>
      <trkpt lat="48.30281" lon="2.60865">
        <ele>84.8</ele>
        <time>2022-06-05T11:12:42.000Z</time>
      </trkpt>
      <trkpt lat="48.30282" lon="2.60864">
        <ele>83.5</ele>
        <time>2022-06-05T11:12:47.000Z</time>
      </trkpt>
      <trkpt lat="48.30282" lon="2.60864">
        <ele>83.4</ele>
        <time>2022-06-05T11:12:49.000Z</time>
      </trkpt>
      <trkpt lat="48.30282" lon="2.60864">
        <ele>87.6</ele>
        <time>2022-06-05T11:12:51.000Z</time>
      </trkpt>
      <trkpt lat="48.30282" lon="2.60863">
        <ele>87.7</ele>
        <time>2022-06-05T11:12:52.000Z</time>
      </trkpt>
      <trkpt lat="48.30283" lon="2.60859">
        <ele>87.7</ele>
        <time>2022-06-05T11:12:58.000Z</time>
      </trkpt>
      <trkpt lat="48.30283" lon="2.60859">
        <ele>87.6</ele>
        <time>2022-06-05T11:13:00.000Z</time>
      </trkpt>
      <trkpt lat="48.30284" lon="2.60845">
        <ele>87.8</ele>
        <time>2022-06-05T11:13:13.000Z</time>
      </trkpt>
      <trkpt lat="48.30285" lon="2.60837">
        <ele>87.8</ele>
        <time>2022-06-05T11:13:30.000Z</time>
      </trkpt>
      <trkpt lat="48.30285" lon="2.60837">
        <ele>87.7</ele>
        <time>2022-06-05T11:13:31.000Z</time>
      </trkpt>
      <trkpt lat="48.30286" lon="2.60834">
        <ele>87.8</ele>
        <time>2022-06-05T11:13:44.000Z</time>
      </trkpt>
      <trkpt lat="48.30287" lon="2.60834">
        <ele>87.9</ele>
        <time>2022-06-05T11:13:55.000Z</time>
      </trkpt>
      <trkpt lat="48.30287" lon="2.60835">
        <ele>88.1</ele>
        <time>2022-06-05T11:14:00.000Z</time>
      </trkpt>
      <trkpt lat="48.30288" lon="2.60835">
        <ele>87.7</ele>
        <time>2022-06-05T11:14:14.000Z</time>
      </trkpt>
      <trkpt lat="48.30288" lon="2.60835">
        <ele>87.8</ele>
        <time>2022-06-05T11:14:16.000Z</time>
      </trkpt>
      <trkpt lat="48.30288" lon="2.60835">
        <ele>88</ele>
        <time>2022-06-05T11:14:19.000Z</time>
      </trkpt>
      <trkpt lat="48.30288" lon="2.60835">
        <ele>87.9</ele>
        <time>2022-06-05T11:14:20.000Z</time>
      </trkpt>
      <trkpt lat="48.30288" lon="2.60835">
        <ele>88.5</ele>
        <time>2022-06-05T11:14:31.000Z</time>
      </trkpt>
      <trkpt lat="48.30288" lon="2.60835">
        <ele>88.5</ele>
        <time>2022-06-05T11:14:32.000Z</time>
      </trkpt>
      <trkpt lat="48.30289" lon="2.60835">
        <ele>88.6</ele>
        <time>2022-06-05T11:14:35.000Z</time>
      </trkpt>
      <trkpt lat="48.30295" lon="2.60829">
        <ele>89.8</ele>
        <time>2022-06-05T11:14:57.000Z</time>
      </trkpt>
      <trkpt lat="48.30295" lon="2.60829">
        <ele>89.9</ele>
        <time>2022-06-05T11:14:58.000Z</time>
      </trkpt>
      <trkpt lat="48.30293" lon="2.60832">
        <ele>90.4</ele>
        <time>2022-06-05T11:15:07.000Z</time>
      </trkpt>
      <trkpt lat="48.30293" lon="2.60832">
        <ele>90.5</ele>
        <time>2022-06-05T11:15:10.000Z</time>
      </trkpt>
      <trkpt lat="48.30293" lon="2.60833">
        <ele>90.8</ele>
        <time>2022-06-05T11:15:11.000Z</time>
      </trkpt>
      <trkpt lat="48.30293" lon="2.60833">
        <ele>90.9</ele>
        <time>2022-06-05T11:15:12.000Z</time>
      </trkpt>
      <trkpt lat="48.30298" lon="2.60822">
        <ele>91.5</ele>
        <time>2022-06-05T11:15:33.000Z</time>
      </trkpt>
      <trkpt lat="48.30302" lon="2.60834">
        <ele>92.9</ele>
        <time>2022-06-05T11:15:49.000Z</time>
      </trkpt>
      <trkpt lat="48.30312" lon="2.60836">
        <ele>93.3</ele>
        <time>2022-06-05T11:16:04.000Z</time>
      </trkpt>
      <trkpt lat="48.3032" lon="2.60845">
        <ele>92.6</ele>
        <time>2022-06-05T11:16:14.000Z</time>
      </trkpt>
      <trkpt lat="48.30325" lon="2.60856">
        <ele>91.9</ele>
        <time>2022-06-05T11:16:34.000Z</time>
      </trkpt>
      <trkpt lat="48.30325" lon="2.60856">
        <ele>90.7</ele>
        <time>2022-06-05T11:16:45.000Z</time>
      </trkpt>
      <trkpt lat="48.30326" lon="2.60854">
        <ele>90.2</ele>
        <time>2022-06-05T11:16:52.000Z</time>
      </trkpt>
      <trkpt lat="48.30326" lon="2.60855">
        <ele>90.3</ele>
        <time>2022-06-05T11:16:53.000Z</time>
      </trkpt>
      <trkpt lat="48.30328" lon="2.60862">
        <ele>89.4</ele>
        <time>2022-06-05T11:17:05.000Z</time>
      </trkpt>
      <trkpt lat="48.30328" lon="2.60862">
        <ele>89.4</ele>
        <time>2022-06-05T11:17:06.000Z</time>
      </trkpt>
      <trkpt lat="48.30332" lon="2.60871">
        <ele>88.9</ele>
        <time>2022-06-05T11:17:14.000Z</time>
      </trkpt>
      <trkpt lat="48.30331" lon="2.60871">
        <ele>89</ele>
        <time>2022-06-05T11:17:15.000Z</time>
      </trkpt>
      <trkpt lat="48.30331" lon="2.60871">
        <ele>88.9</ele>
        <time>2022-06-05T11:17:16.000Z</time>
      </trkpt>
      <trkpt lat="48.30331" lon="2.60871">
        <ele>88.6</ele>
        <time>2022-06-05T11:17:24.000Z</time>
      </trkpt>
      <trkpt lat="48.30331" lon="2.6087">
        <ele>88.1</ele>
        <time>2022-06-05T11:17:27.000Z</time>
      </trkpt>
      <trkpt lat="48.30331" lon="2.6087">
        <ele>87.8</ele>
        <time>2022-06-05T11:17:29.000Z</time>
      </trkpt>
      <trkpt lat="48.30331" lon="2.60869">
        <ele>88</ele>
        <time>2022-06-05T11:17:32.000Z</time>
      </trkpt>
      <trkpt lat="48.3033" lon="2.60869">
        <ele>87.3</ele>
        <time>2022-06-05T11:17:41.000Z</time>
      </trkpt>
      <trkpt lat="48.3033" lon="2.60869">
        <ele>87</ele>
        <time>2022-06-05T11:17:43.000Z</time>
      </trkpt>
      <trkpt lat="48.3033" lon="2.60869">
        <ele>86.9</ele>
        <time>2022-06-05T11:17:45.000Z</time>
      </trkpt>
      <trkpt lat="48.3033" lon="2.60869">
        <ele>86.8</ele>
        <time>2022-06-05T11:17:46.000Z</time>
      </trkpt>
      <trkpt lat="48.3033" lon="2.6087">
        <ele>86.6</ele>
        <time>2022-06-05T11:17:47.000Z</time>
      </trkpt>
      <trkpt lat="48.3033" lon="2.60869">
        <ele>86.3</ele>
        <time>2022-06-05T11:17:49.000Z</time>
      </trkpt>
      <trkpt lat="48.3033" lon="2.6087">
        <ele>86.2</ele>
        <time>2022-06-05T11:17:50.000Z</time>
      </trkpt>
      <trkpt lat="48.30334" lon="2.60866">
        <ele>84.4</ele>
        <time>2022-06-05T11:18:04.000Z</time>
      </trkpt>
      <trkpt lat="48.30334" lon="2.60864">
        <ele>83.8</ele>
        <time>2022-06-05T11:18:08.000Z</time>
      </trkpt>
      <trkpt lat="48.30343" lon="2.60864">
        <ele>82.7</ele>
        <time>2022-06-05T11:18:19.000Z</time>
      </trkpt>
      <trkpt lat="48.30353" lon="2.60868">
        <ele>82.3</ele>
        <time>2022-06-05T11:18:26.000Z</time>
      </trkpt>
      <trkpt lat="48.30361" lon="2.60875">
        <ele>81.5</ele>
        <time>2022-06-05T11:18:32.000Z</time>
      </trkpt>
      <trkpt lat="48.30371" lon="2.60876">
        <ele>81.2</ele>
        <time>2022-06-05T11:18:38.000Z</time>
      </trkpt>
      <trkpt lat="48.3038" lon="2.60872">
        <ele>80.4</ele>
        <time>2022-06-05T11:18:49.000Z</time>
      </trkpt>
      <trkpt lat="48.30389" lon="2.60869">
        <ele>79.8</ele>
        <time>2022-06-05T11:18:58.000Z</time>
      </trkpt>
      <trkpt lat="48.30397" lon="2.60875">
        <ele>79.2</ele>
        <time>2022-06-05T11:19:11.000Z</time>
      </trkpt>
      <trkpt lat="48.30402" lon="2.60873">
        <ele>79</ele>
        <time>2022-06-05T11:19:20.000Z</time>
      </trkpt>
      <trkpt lat="48.30402" lon="2.60872">
        <ele>78.9</ele>
        <time>2022-06-05T11:19:21.000Z</time>
      </trkpt>
      <trkpt lat="48.30411" lon="2.60878">
        <ele>78.4</ele>
        <time>2022-06-05T11:19:43.000Z</time>
      </trkpt>
      <trkpt lat="48.30413" lon="2.60877">
        <ele>78</ele>
        <time>2022-06-05T11:19:51.000Z</time>
      </trkpt>
      <trkpt lat="48.30413" lon="2.60878">
        <ele>78</ele>
        <time>2022-06-05T11:19:54.000Z</time>
      </trkpt>
      <trkpt lat="48.30413" lon="2.60879">
        <ele>77.9</ele>
        <time>2022-06-05T11:19:57.000Z</time>
      </trkpt>
      <trkpt lat="48.30414" lon="2.60878">
        <ele>77.8</ele>
        <time>2022-06-05T11:19:58.000Z</time>
      </trkpt>
      <trkpt lat="48.30414" lon="2.60878">
        <ele>77.8</ele>
        <time>2022-06-05T11:19:59.000Z</time>
      </trkpt>
      <trkpt lat="48.30414" lon="2.60878">
        <ele>77.8</ele>
        <time>2022-06-05T11:20:00.000Z</time>
      </trkpt>
      <trkpt lat="48.30414" lon="2.60878">
        <ele>77.8</ele>
        <time>2022-06-05T11:20:01.000Z</time>
      </trkpt>
      <trkpt lat="48.30414" lon="2.60878">
        <ele>77.8</ele>
        <time>2022-06-05T11:20:04.000Z</time>
      </trkpt>
      <trkpt lat="48.30418" lon="2.60865">
        <ele>77.1</ele>
        <time>2022-06-05T11:20:18.000Z</time>
      </trkpt>
      <trkpt lat="48.30426" lon="2.60858">
        <ele>76.8</ele>
        <time>2022-06-05T11:20:27.000Z</time>
      </trkpt>
      <trkpt lat="48.30435" lon="2.60853">
        <ele>76.5</ele>
        <time>2022-06-05T11:20:34.000Z</time>
      </trkpt>
      <trkpt lat="48.30438" lon="2.6084">
        <ele>75.8</ele>
        <time>2022-06-05T11:20:43.000Z</time>
      </trkpt>
      <trkpt lat="48.30438" lon="2.60826">
        <ele>74.8</ele>
        <time>2022-06-05T11:21:04.000Z</time>
      </trkpt>
      <trkpt lat="48.30438" lon="2.60812">
        <ele>74</ele>
        <time>2022-06-05T11:21:18.000Z</time>
      </trkpt>
      <trkpt lat="48.30437" lon="2.60811">
        <ele>73.7</ele>
        <time>2022-06-05T11:21:22.000Z</time>
      </trkpt>
      <trkpt lat="48.30437" lon="2.60811">
        <ele>73.5</ele>
        <time>2022-06-05T11:21:24.000Z</time>
      </trkpt>
      <trkpt lat="48.30439" lon="2.60797">
        <ele>73.3</ele>
        <time>2022-06-05T11:21:32.000Z</time>
      </trkpt>
      <trkpt lat="48.30446" lon="2.60787">
        <ele>70.4</ele>
        <time>2022-06-05T11:21:43.000Z</time>
      </trkpt>
      <trkpt lat="48.30452" lon="2.60776">
        <ele>69.7</ele>
        <time>2022-06-05T11:21:57.000Z</time>
      </trkpt>
      <trkpt lat="48.30459" lon="2.60768">
        <ele>69.4</ele>
        <time>2022-06-05T11:22:07.000Z</time>
      </trkpt>
      <trkpt lat="48.30468" lon="2.60768">
        <ele>69.5</ele>
        <time>2022-06-05T11:22:11.000Z</time>
      </trkpt>
      <trkpt lat="48.30475" lon="2.60758">
        <ele>70.5</ele>
        <time>2022-06-05T11:22:19.000Z</time>
      </trkpt>
      <trkpt lat="48.30483" lon="2.60752">
        <ele>71.3</ele>
        <time>2022-06-05T11:22:28.000Z</time>
      </trkpt>
      <trkpt lat="48.30489" lon="2.60741">
        <ele>72</ele>
        <time>2022-06-05T11:22:40.000Z</time>
      </trkpt>
      <trkpt lat="48.30486" lon="2.6074">
        <ele>72.5</ele>
        <time>2022-06-05T11:22:47.000Z</time>
      </trkpt>
      <trkpt lat="48.30486" lon="2.60741">
        <ele>72.3</ele>
        <time>2022-06-05T11:22:48.000Z</time>
      </trkpt>
      <trkpt lat="48.3049" lon="2.60746">
        <ele>72.2</ele>
        <time>2022-06-05T11:22:51.000Z</time>
      </trkpt>
      <trkpt lat="48.30489" lon="2.60744">
        <ele>72.3</ele>
        <time>2022-06-05T11:22:52.000Z</time>
      </trkpt>
      <trkpt lat="48.30488" lon="2.60731">
        <ele>72.6</ele>
        <time>2022-06-05T11:23:00.000Z</time>
      </trkpt>
      <trkpt lat="48.30487" lon="2.60717">
        <ele>74.1</ele>
        <time>2022-06-05T11:23:09.000Z</time>
      </trkpt>
      <trkpt lat="48.30484" lon="2.60703">
        <ele>75.3</ele>
        <time>2022-06-05T11:23:20.000Z</time>
      </trkpt>
      <trkpt lat="48.30478" lon="2.60692">
        <ele>76.7</ele>
        <time>2022-06-05T11:23:31.000Z</time>
      </trkpt>
      <trkpt lat="48.30485" lon="2.60682">
        <ele>78.1</ele>
        <time>2022-06-05T11:23:45.000Z</time>
      </trkpt>
      <trkpt lat="48.30478" lon="2.60671">
        <ele>78.6</ele>
        <time>2022-06-05T11:23:52.000Z</time>
      </trkpt>
      <trkpt lat="48.3047" lon="2.60662">
        <ele>79.4</ele>
        <time>2022-06-05T11:24:01.000Z</time>
      </trkpt>
      <trkpt lat="48.30468" lon="2.60649">
        <ele>80.1</ele>
        <time>2022-06-05T11:24:09.000Z</time>
      </trkpt>
      <trkpt lat="48.30466" lon="2.60634">
        <ele>80.6</ele>
        <time>2022-06-05T11:24:18.000Z</time>
      </trkpt>
      <trkpt lat="48.30461" lon="2.60623">
        <ele>81.1</ele>
        <time>2022-06-05T11:24:27.000Z</time>
      </trkpt>
      <trkpt lat="48.30454" lon="2.60612">
        <ele>81.7</ele>
        <time>2022-06-05T11:24:35.000Z</time>
      </trkpt>
      <trkpt lat="48.30444" lon="2.60608">
        <ele>82.1</ele>
        <time>2022-06-05T11:24:44.000Z</time>
      </trkpt>
      <trkpt lat="48.30435" lon="2.60602">
        <ele>82.4</ele>
        <time>2022-06-05T11:24:51.000Z</time>
      </trkpt>
      <trkpt lat="48.30426" lon="2.60599">
        <ele>82.4</ele>
        <time>2022-06-05T11:24:58.000Z</time>
      </trkpt>
      <trkpt lat="48.30418" lon="2.60592">
        <ele>82.2</ele>
        <time>2022-06-05T11:25:06.000Z</time>
      </trkpt>
      <trkpt lat="48.30411" lon="2.60583">
        <ele>82.6</ele>
        <time>2022-06-05T11:25:22.000Z</time>
      </trkpt>
      <trkpt lat="48.30408" lon="2.60588">
        <ele>82.3</ele>
        <time>2022-06-05T11:25:27.000Z</time>
      </trkpt>
      <trkpt lat="48.30408" lon="2.60588">
        <ele>81</ele>
        <time>2022-06-05T11:25:31.000Z</time>
      </trkpt>
      <trkpt lat="48.30408" lon="2.60588">
        <ele>79.7</ele>
        <time>2022-06-05T11:25:32.000Z</time>
      </trkpt>
      <trkpt lat="48.30408" lon="2.60589">
        <ele>79.9</ele>
        <time>2022-06-05T11:25:41.000Z</time>
      </trkpt>
      <trkpt lat="48.30408" lon="2.60589">
        <ele>79.4</ele>
        <time>2022-06-05T11:25:42.000Z</time>
      </trkpt>
      <trkpt lat="48.30408" lon="2.60588">
        <ele>77.7</ele>
        <time>2022-06-05T11:25:44.000Z</time>
      </trkpt>
      <trkpt lat="48.30408" lon="2.60587">
        <ele>77.4</ele>
        <time>2022-06-05T11:25:46.000Z</time>
      </trkpt>
      <trkpt lat="48.30408" lon="2.60587">
        <ele>78.3</ele>
        <time>2022-06-05T11:25:51.000Z</time>
      </trkpt>
      <trkpt lat="48.30409" lon="2.60587">
        <ele>77.5</ele>
        <time>2022-06-05T11:25:53.000Z</time>
      </trkpt>
      <trkpt lat="48.30409" lon="2.60587">
        <ele>75.4</ele>
        <time>2022-06-05T11:25:57.000Z</time>
      </trkpt>
      <trkpt lat="48.30411" lon="2.60587">
        <ele>77.3</ele>
        <time>2022-06-05T11:26:04.000Z</time>
      </trkpt>
      <trkpt lat="48.30411" lon="2.60587">
        <ele>77.1</ele>
        <time>2022-06-05T11:26:15.000Z</time>
      </trkpt>
      <trkpt lat="48.30411" lon="2.60588">
        <ele>77</ele>
        <time>2022-06-05T11:26:16.000Z</time>
      </trkpt>
      <trkpt lat="48.30411" lon="2.60588">
        <ele>77.2</ele>
        <time>2022-06-05T11:26:19.000Z</time>
      </trkpt>
      <trkpt lat="48.30411" lon="2.60592">
        <ele>77.2</ele>
        <time>2022-06-05T11:26:38.000Z</time>
      </trkpt>
      <trkpt lat="48.30411" lon="2.60591">
        <ele>77.2</ele>
        <time>2022-06-05T11:26:39.000Z</time>
      </trkpt>
      <trkpt lat="48.30409" lon="2.60576">
        <ele>78.3</ele>
        <time>2022-06-05T11:26:49.000Z</time>
      </trkpt>
      <trkpt lat="48.30408" lon="2.60561">
        <ele>79.3</ele>
        <time>2022-06-05T11:26:59.000Z</time>
      </trkpt>
      <trkpt lat="48.30407" lon="2.60547">
        <ele>80</ele>
        <time>2022-06-05T11:27:08.000Z</time>
      </trkpt>
      <trkpt lat="48.30402" lon="2.60534">
        <ele>80.8</ele>
        <time>2022-06-05T11:27:16.000Z</time>
      </trkpt>
      <trkpt lat="48.30398" lon="2.60521">
        <ele>82</ele>
        <time>2022-06-05T11:27:26.000Z</time>
      </trkpt>
      <trkpt lat="48.304" lon="2.60505">
        <ele>83.1</ele>
        <time>2022-06-05T11:27:34.000Z</time>
      </trkpt>
      <trkpt lat="48.30396" lon="2.60492">
        <ele>83.9</ele>
        <time>2022-06-05T11:27:43.000Z</time>
      </trkpt>
      <trkpt lat="48.30391" lon="2.60481">
        <ele>85</ele>
        <time>2022-06-05T11:27:54.000Z</time>
      </trkpt>
      <trkpt lat="48.30381" lon="2.60479">
        <ele>86.2</ele>
        <time>2022-06-05T11:28:05.000Z</time>
      </trkpt>
      <trkpt lat="48.30375" lon="2.60469">
        <ele>87.3</ele>
        <time>2022-06-05T11:28:18.000Z</time>
      </trkpt>
      <trkpt lat="48.30372" lon="2.60454">
        <ele>88.1</ele>
        <time>2022-06-05T11:28:27.000Z</time>
      </trkpt>
      <trkpt lat="48.30369" lon="2.6044">
        <ele>88.3</ele>
        <time>2022-06-05T11:28:37.000Z</time>
      </trkpt>
      <trkpt lat="48.30365" lon="2.60427">
        <ele>88.6</ele>
        <time>2022-06-05T11:28:44.000Z</time>
      </trkpt>
      <trkpt lat="48.30361" lon="2.60415">
        <ele>87.8</ele>
        <time>2022-06-05T11:28:52.000Z</time>
      </trkpt>
      <trkpt lat="48.30356" lon="2.60405">
        <ele>85.8</ele>
        <time>2022-06-05T11:29:03.000Z</time>
      </trkpt>
      <trkpt lat="48.30356" lon="2.60405">
        <ele>85.9</ele>
        <time>2022-06-05T11:29:06.000Z</time>
      </trkpt>
      <trkpt lat="48.30356" lon="2.60405">
        <ele>85.8</ele>
        <time>2022-06-05T11:29:07.000Z</time>
      </trkpt>
      <trkpt lat="48.30356" lon="2.60405">
        <ele>86.4</ele>
        <time>2022-06-05T11:29:08.000Z</time>
      </trkpt>
      <trkpt lat="48.30355" lon="2.60397">
        <ele>87.3</ele>
        <time>2022-06-05T11:29:16.000Z</time>
      </trkpt>
      <trkpt lat="48.30354" lon="2.60397">
        <ele>87.3</ele>
        <time>2022-06-05T11:29:17.000Z</time>
      </trkpt>
      <trkpt lat="48.30354" lon="2.60397">
        <ele>87.7</ele>
        <time>2022-06-05T11:29:18.000Z</time>
      </trkpt>
      <trkpt lat="48.30354" lon="2.60397">
        <ele>87.6</ele>
        <time>2022-06-05T11:29:19.000Z</time>
      </trkpt>
      <trkpt lat="48.30354" lon="2.60395">
        <ele>87.9</ele>
        <time>2022-06-05T11:29:23.000Z</time>
      </trkpt>
      <trkpt lat="48.30354" lon="2.60394">
        <ele>86.5</ele>
        <time>2022-06-05T11:29:37.000Z</time>
      </trkpt>
      <trkpt lat="48.30346" lon="2.60385">
        <ele>89.3</ele>
        <time>2022-06-05T11:29:51.000Z</time>
      </trkpt>
      <trkpt lat="48.30342" lon="2.60373">
        <ele>88.5</ele>
        <time>2022-06-05T11:30:00.000Z</time>
      </trkpt>
      <trkpt lat="48.30344" lon="2.60359">
        <ele>87.7</ele>
        <time>2022-06-05T11:30:06.000Z</time>
      </trkpt>
      <trkpt lat="48.30345" lon="2.60345">
        <ele>88.5</ele>
        <time>2022-06-05T11:30:13.000Z</time>
      </trkpt>
      <trkpt lat="48.30339" lon="2.60334">
        <ele>89.1</ele>
        <time>2022-06-05T11:30:20.000Z</time>
      </trkpt>
      <trkpt lat="48.3033" lon="2.6033">
        <ele>90.5</ele>
        <time>2022-06-05T11:30:31.000Z</time>
      </trkpt>
      <trkpt lat="48.30321" lon="2.60325">
        <ele>90.6</ele>
        <time>2022-06-05T11:30:38.000Z</time>
      </trkpt>
      <trkpt lat="48.30312" lon="2.6032">
        <ele>90.9</ele>
        <time>2022-06-05T11:30:46.000Z</time>
      </trkpt>
      <trkpt lat="48.30307" lon="2.60313">
        <ele>90.5</ele>
        <time>2022-06-05T11:30:58.000Z</time>
      </trkpt>
      <trkpt lat="48.30307" lon="2.60313">
        <ele>90.4</ele>
        <time>2022-06-05T11:31:03.000Z</time>
      </trkpt>
      <trkpt lat="48.30307" lon="2.60313">
        <ele>90.2</ele>
        <time>2022-06-05T11:31:04.000Z</time>
      </trkpt>
      <trkpt lat="48.30306" lon="2.60313">
        <ele>89.7</ele>
        <time>2022-06-05T11:31:16.000Z</time>
      </trkpt>
      <trkpt lat="48.30306" lon="2.60313">
        <ele>89.6</ele>
        <time>2022-06-05T11:31:17.000Z</time>
      </trkpt>
      <trkpt lat="48.30306" lon="2.60313">
        <ele>89.5</ele>
        <time>2022-06-05T11:31:23.000Z</time>
      </trkpt>
      <trkpt lat="48.30306" lon="2.60314">
        <ele>89.5</ele>
        <time>2022-06-05T11:31:25.000Z</time>
      </trkpt>
      <trkpt lat="48.30306" lon="2.60314">
        <ele>89.5</ele>
        <time>2022-06-05T11:31:26.000Z</time>
      </trkpt>
      <trkpt lat="48.30306" lon="2.60314">
        <ele>89.4</ele>
        <time>2022-06-05T11:31:28.000Z</time>
      </trkpt>
      <trkpt lat="48.30306" lon="2.60314">
        <ele>89.3</ele>
        <time>2022-06-05T11:31:29.000Z</time>
      </trkpt>
      <trkpt lat="48.30306" lon="2.60314">
        <ele>89.3</ele>
        <time>2022-06-05T11:31:30.000Z</time>
      </trkpt>
      <trkpt lat="48.30306" lon="2.60314">
        <ele>89</ele>
        <time>2022-06-05T11:31:37.000Z</time>
      </trkpt>
      <trkpt lat="48.30306" lon="2.60314">
        <ele>88.9</ele>
        <time>2022-06-05T11:31:38.000Z</time>
      </trkpt>
      <trkpt lat="48.30306" lon="2.60313">
        <ele>88.8</ele>
        <time>2022-06-05T11:31:45.000Z</time>
      </trkpt>
      <trkpt lat="48.30308" lon="2.60314">
        <ele>88.8</ele>
        <time>2022-06-05T11:31:51.000Z</time>
      </trkpt>
      <trkpt lat="48.30308" lon="2.60314">
        <ele>88.8</ele>
        <time>2022-06-05T11:31:52.000Z</time>
      </trkpt>
      <trkpt lat="48.30309" lon="2.60314">
        <ele>88.8</ele>
        <time>2022-06-05T11:31:54.000Z</time>
      </trkpt>
      <trkpt lat="48.30309" lon="2.60314">
        <ele>88.9</ele>
        <time>2022-06-05T11:32:03.000Z</time>
      </trkpt>
      <trkpt lat="48.30309" lon="2.60314">
        <ele>89.2</ele>
        <time>2022-06-05T11:32:05.000Z</time>
      </trkpt>
      <trkpt lat="48.30309" lon="2.60314">
        <ele>89.2</ele>
        <time>2022-06-05T11:32:07.000Z</time>
      </trkpt>
      <trkpt lat="48.30309" lon="2.60314">
        <ele>89.1</ele>
        <time>2022-06-05T11:32:08.000Z</time>
      </trkpt>
      <trkpt lat="48.30309" lon="2.60314">
        <ele>88.9</ele>
        <time>2022-06-05T11:32:09.000Z</time>
      </trkpt>
      <trkpt lat="48.3031" lon="2.60313">
        <ele>88.9</ele>
        <time>2022-06-05T11:32:15.000Z</time>
      </trkpt>
      <trkpt lat="48.3031" lon="2.60314">
        <ele>89</ele>
        <time>2022-06-05T11:32:19.000Z</time>
      </trkpt>
      <trkpt lat="48.30309" lon="2.60314">
        <ele>89</ele>
        <time>2022-06-05T11:32:23.000Z</time>
      </trkpt>
      <trkpt lat="48.30309" lon="2.60314">
        <ele>88.7</ele>
        <time>2022-06-05T11:32:31.000Z</time>
      </trkpt>
      <trkpt lat="48.30309" lon="2.60314">
        <ele>88.7</ele>
        <time>2022-06-05T11:32:32.000Z</time>
      </trkpt>
      <trkpt lat="48.30309" lon="2.60314">
        <ele>88.9</ele>
        <time>2022-06-05T11:32:36.000Z</time>
      </trkpt>
      <trkpt lat="48.30309" lon="2.60314">
        <ele>88.8</ele>
        <time>2022-06-05T11:32:37.000Z</time>
      </trkpt>
      <trkpt lat="48.30309" lon="2.60314">
        <ele>88.4</ele>
        <time>2022-06-05T11:32:42.000Z</time>
      </trkpt>
      <trkpt lat="48.30309" lon="2.60314">
        <ele>88.7</ele>
        <time>2022-06-05T11:32:44.000Z</time>
      </trkpt>
      <trkpt lat="48.30309" lon="2.60313">
        <ele>88.8</ele>
        <time>2022-06-05T11:32:45.000Z</time>
      </trkpt>
      <trkpt lat="48.30309" lon="2.60313">
        <ele>88.6</ele>
        <time>2022-06-05T11:32:47.000Z</time>
      </trkpt>
      <trkpt lat="48.30309" lon="2.60313">
        <ele>87.9</ele>
        <time>2022-06-05T11:33:07.000Z</time>
      </trkpt>
      <trkpt lat="48.30309" lon="2.60313">
        <ele>87.6</ele>
        <time>2022-06-05T11:33:09.000Z</time>
      </trkpt>
      <trkpt lat="48.30309" lon="2.60313">
        <ele>87.3</ele>
        <time>2022-06-05T11:33:20.000Z</time>
      </trkpt>
      <trkpt lat="48.30309" lon="2.60313">
        <ele>87.7</ele>
        <time>2022-06-05T11:33:22.000Z</time>
      </trkpt>
      <trkpt lat="48.30309" lon="2.60313">
        <ele>87.9</ele>
        <time>2022-06-05T11:33:25.000Z</time>
      </trkpt>
      <trkpt lat="48.30312" lon="2.60316">
        <ele>87.8</ele>
        <time>2022-06-05T11:33:32.000Z</time>
      </trkpt>
      <trkpt lat="48.30313" lon="2.60316">
        <ele>87.8</ele>
        <time>2022-06-05T11:33:34.000Z</time>
      </trkpt>
      <trkpt lat="48.30315" lon="2.60317">
        <ele>87.7</ele>
        <time>2022-06-05T11:33:40.000Z</time>
      </trkpt>
      <trkpt lat="48.30316" lon="2.60317">
        <ele>87.7</ele>
        <time>2022-06-05T11:33:41.000Z</time>
      </trkpt>
      <trkpt lat="48.30316" lon="2.60317">
        <ele>87.7</ele>
        <time>2022-06-05T11:33:42.000Z</time>
      </trkpt>
      <trkpt lat="48.30315" lon="2.60317">
        <ele>87.6</ele>
        <time>2022-06-05T11:33:43.000Z</time>
      </trkpt>
      <trkpt lat="48.30315" lon="2.60317">
        <ele>87.7</ele>
        <time>2022-06-05T11:33:44.000Z</time>
      </trkpt>
      <trkpt lat="48.30316" lon="2.60317">
        <ele>87.7</ele>
        <time>2022-06-05T11:33:45.000Z</time>
      </trkpt>
      <trkpt lat="48.30325" lon="2.6032">
        <ele>87.9</ele>
        <time>2022-06-05T11:33:55.000Z</time>
      </trkpt>
      <trkpt lat="48.30334" lon="2.60325">
        <ele>87.7</ele>
        <time>2022-06-05T11:34:04.000Z</time>
      </trkpt>
      <trkpt lat="48.30343" lon="2.6033">
        <ele>87.9</ele>
        <time>2022-06-05T11:34:12.000Z</time>
      </trkpt>
      <trkpt lat="48.30353" lon="2.60335">
        <ele>88.4</ele>
        <time>2022-06-05T11:34:24.000Z</time>
      </trkpt>
      <trkpt lat="48.30362" lon="2.60333">
        <ele>88.3</ele>
        <time>2022-06-05T11:34:31.000Z</time>
      </trkpt>
      <trkpt lat="48.30372" lon="2.60334">
        <ele>87.7</ele>
        <time>2022-06-05T11:34:40.000Z</time>
      </trkpt>
      <trkpt lat="48.30379" lon="2.60325">
        <ele>87.3</ele>
        <time>2022-06-05T11:34:55.000Z</time>
      </trkpt>
      <trkpt lat="48.30383" lon="2.60311">
        <ele>87.8</ele>
        <time>2022-06-05T11:35:04.000Z</time>
      </trkpt>
      <trkpt lat="48.30391" lon="2.60302">
        <ele>88.2</ele>
        <time>2022-06-05T11:35:13.000Z</time>
      </trkpt>
      <trkpt lat="48.304" lon="2.603">
        <ele>88.3</ele>
        <time>2022-06-05T11:35:19.000Z</time>
      </trkpt>
      <trkpt lat="48.30409" lon="2.60294">
        <ele>88</ele>
        <time>2022-06-05T11:35:28.000Z</time>
      </trkpt>
      <trkpt lat="48.30415" lon="2.60298">
        <ele>87.9</ele>
        <time>2022-06-05T11:35:41.000Z</time>
      </trkpt>
      <trkpt lat="48.30415" lon="2.60298">
        <ele>88.4</ele>
        <time>2022-06-05T11:35:43.000Z</time>
      </trkpt>
      <trkpt lat="48.30415" lon="2.60299">
        <ele>88.3</ele>
        <time>2022-06-05T11:35:45.000Z</time>
      </trkpt>
      <trkpt lat="48.30415" lon="2.60298">
        <ele>87.9</ele>
        <time>2022-06-05T11:35:46.000Z</time>
      </trkpt>
      <trkpt lat="48.30417" lon="2.60294">
        <ele>87.6</ele>
        <time>2022-06-05T11:35:51.000Z</time>
      </trkpt>
      <trkpt lat="48.30417" lon="2.60294">
        <ele>87.4</ele>
        <time>2022-06-05T11:35:52.000Z</time>
      </trkpt>
      <trkpt lat="48.30417" lon="2.60294">
        <ele>87.5</ele>
        <time>2022-06-05T11:35:54.000Z</time>
      </trkpt>
      <trkpt lat="48.30417" lon="2.60294">
        <ele>86.5</ele>
        <time>2022-06-05T11:36:08.000Z</time>
      </trkpt>
      <trkpt lat="48.30426" lon="2.60296">
        <ele>86.4</ele>
        <time>2022-06-05T11:36:17.000Z</time>
      </trkpt>
      <trkpt lat="48.30434" lon="2.60299">
        <ele>86.6</ele>
        <time>2022-06-05T11:36:23.000Z</time>
      </trkpt>
      <trkpt lat="48.30443" lon="2.60303">
        <ele>85.7</ele>
        <time>2022-06-05T11:36:37.000Z</time>
      </trkpt>
      <trkpt lat="48.30453" lon="2.60305">
        <ele>85.3</ele>
        <time>2022-06-05T11:36:47.000Z</time>
      </trkpt>
      <trkpt lat="48.30454" lon="2.60307">
        <ele>85.3</ele>
        <time>2022-06-05T11:36:51.000Z</time>
      </trkpt>
      <trkpt lat="48.30454" lon="2.60307">
        <ele>85.2</ele>
        <time>2022-06-05T11:36:52.000Z</time>
      </trkpt>
      <trkpt lat="48.30464" lon="2.6031">
        <ele>84.1</ele>
        <time>2022-06-05T11:37:04.000Z</time>
      </trkpt>
      <trkpt lat="48.30473" lon="2.60308">
        <ele>83.2</ele>
        <time>2022-06-05T11:37:16.000Z</time>
      </trkpt>
      <trkpt lat="48.30476" lon="2.60302">
        <ele>82.1</ele>
        <time>2022-06-05T11:37:26.000Z</time>
      </trkpt>
      <trkpt lat="48.30476" lon="2.60302">
        <ele>82.2</ele>
        <time>2022-06-05T11:37:27.000Z</time>
      </trkpt>
      <trkpt lat="48.30476" lon="2.60301">
        <ele>81.5</ele>
        <time>2022-06-05T11:37:32.000Z</time>
      </trkpt>
      <trkpt lat="48.30476" lon="2.60301">
        <ele>81.5</ele>
        <time>2022-06-05T11:37:33.000Z</time>
      </trkpt>
      <trkpt lat="48.30477" lon="2.60301">
        <ele>80</ele>
        <time>2022-06-05T11:37:47.000Z</time>
      </trkpt>
      <trkpt lat="48.30477" lon="2.60301">
        <ele>79.2</ele>
        <time>2022-06-05T11:37:48.000Z</time>
      </trkpt>
      <trkpt lat="48.30477" lon="2.60296">
        <ele>78.2</ele>
        <time>2022-06-05T11:38:01.000Z</time>
      </trkpt>
      <trkpt lat="48.30477" lon="2.60295">
        <ele>78.1</ele>
        <time>2022-06-05T11:38:02.000Z</time>
      </trkpt>
      <trkpt lat="48.30468" lon="2.60303">
        <ele>79.5</ele>
        <time>2022-06-05T11:38:20.000Z</time>
      </trkpt>
      <trkpt lat="48.30478" lon="2.60303">
        <ele>77.6</ele>
        <time>2022-06-05T11:38:39.000Z</time>
      </trkpt>
      <trkpt lat="48.30473" lon="2.6029">
        <ele>75.9</ele>
        <time>2022-06-05T11:38:55.000Z</time>
      </trkpt>
      <trkpt lat="48.30471" lon="2.60276">
        <ele>74.4</ele>
        <time>2022-06-05T11:39:04.000Z</time>
      </trkpt>
      <trkpt lat="48.30465" lon="2.60265">
        <ele>74.3</ele>
        <time>2022-06-05T11:39:09.000Z</time>
      </trkpt>
      <trkpt lat="48.30465" lon="2.60265">
        <ele>74.3</ele>
        <time>2022-06-05T11:39:10.000Z</time>
      </trkpt>
      <trkpt lat="48.30464" lon="2.60264">
        <ele>74.2</ele>
        <time>2022-06-05T11:39:11.000Z</time>
      </trkpt>
      <trkpt lat="48.30456" lon="2.60254">
        <ele>73.3</ele>
        <time>2022-06-05T11:39:20.000Z</time>
      </trkpt>
      <trkpt lat="48.30465" lon="2.60249">
        <ele>71.9</ele>
        <time>2022-06-05T11:39:30.000Z</time>
      </trkpt>
      <trkpt lat="48.30477" lon="2.60251">
        <ele>71.1</ele>
        <time>2022-06-05T11:39:36.000Z</time>
      </trkpt>
      <trkpt lat="48.30475" lon="2.60235">
        <ele>70.6</ele>
        <time>2022-06-05T11:39:52.000Z</time>
      </trkpt>
      <trkpt lat="48.30482" lon="2.60222">
        <ele>69.6</ele>
        <time>2022-06-05T11:40:03.000Z</time>
      </trkpt>
      <trkpt lat="48.30471" lon="2.60202">
        <ele>70.2</ele>
        <time>2022-06-05T11:40:07.000Z</time>
      </trkpt>
      <trkpt lat="48.30464" lon="2.60193">
        <ele>70.2</ele>
        <time>2022-06-05T11:40:12.000Z</time>
      </trkpt>
      <trkpt lat="48.30464" lon="2.60194">
        <ele>70.1</ele>
        <time>2022-06-05T11:40:13.000Z</time>
      </trkpt>
      <trkpt lat="48.30464" lon="2.60193">
        <ele>70</ele>
        <time>2022-06-05T11:40:16.000Z</time>
      </trkpt>
      <trkpt lat="48.30464" lon="2.60193">
        <ele>70.1</ele>
        <time>2022-06-05T11:40:17.000Z</time>
      </trkpt>
      <trkpt lat="48.30464" lon="2.60194">
        <ele>69.9</ele>
        <time>2022-06-05T11:40:18.000Z</time>
      </trkpt>
      <trkpt lat="48.30464" lon="2.60194">
        <ele>69.8</ele>
        <time>2022-06-05T11:40:19.000Z</time>
      </trkpt>
      <trkpt lat="48.30464" lon="2.60194">
        <ele>69.7</ele>
        <time>2022-06-05T11:40:20.000Z</time>
      </trkpt>
      <trkpt lat="48.30463" lon="2.60194">
        <ele>69.7</ele>
        <time>2022-06-05T11:40:22.000Z</time>
      </trkpt>
      <trkpt lat="48.30463" lon="2.60193">
        <ele>70</ele>
        <time>2022-06-05T11:40:24.000Z</time>
      </trkpt>
      <trkpt lat="48.30453" lon="2.60195">
        <ele>69.5</ele>
        <time>2022-06-05T11:40:39.000Z</time>
      </trkpt>
      <trkpt lat="48.30445" lon="2.60188">
        <ele>68.9</ele>
        <time>2022-06-05T11:40:54.000Z</time>
      </trkpt>
      <trkpt lat="48.30443" lon="2.60174">
        <ele>68.2</ele>
        <time>2022-06-05T11:41:03.000Z</time>
      </trkpt>
      <trkpt lat="48.30443" lon="2.60174">
        <ele>68.2</ele>
        <time>2022-06-05T11:41:04.000Z</time>
      </trkpt>
      <trkpt lat="48.30443" lon="2.60173">
        <ele>68.2</ele>
        <time>2022-06-05T11:41:05.000Z</time>
      </trkpt>
      <trkpt lat="48.30434" lon="2.60166">
        <ele>66.6</ele>
        <time>2022-06-05T11:41:20.000Z</time>
      </trkpt>
      <trkpt lat="48.30429" lon="2.60165">
        <ele>65.8</ele>
        <time>2022-06-05T11:41:31.000Z</time>
      </trkpt>
      <trkpt lat="48.30429" lon="2.60164">
        <ele>65.7</ele>
        <time>2022-06-05T11:41:32.000Z</time>
      </trkpt>
      <trkpt lat="48.3042" lon="2.60159">
        <ele>64.8</ele>
        <time>2022-06-05T11:41:45.000Z</time>
      </trkpt>
      <trkpt lat="48.30411" lon="2.60152">
        <ele>63.6</ele>
        <time>2022-06-05T11:41:56.000Z</time>
      </trkpt>
      <trkpt lat="48.30404" lon="2.60144">
        <ele>62.2</ele>
        <time>2022-06-05T11:42:08.000Z</time>
      </trkpt>
      <trkpt lat="48.30397" lon="2.60135">
        <ele>61.4</ele>
        <time>2022-06-05T11:42:17.000Z</time>
      </trkpt>
      <trkpt lat="48.30388" lon="2.60127">
        <ele>60.5</ele>
        <time>2022-06-05T11:42:26.000Z</time>
      </trkpt>
      <trkpt lat="48.30379" lon="2.60124">
        <ele>59.7</ele>
        <time>2022-06-05T11:42:33.000Z</time>
      </trkpt>
      <trkpt lat="48.3037" lon="2.60124">
        <ele>59.4</ele>
        <time>2022-06-05T11:42:43.000Z</time>
      </trkpt>
      <trkpt lat="48.30361" lon="2.60123">
        <ele>58.7</ele>
        <time>2022-06-05T11:42:52.000Z</time>
      </trkpt>
      <trkpt lat="48.30351" lon="2.60122">
        <ele>57.6</ele>
        <time>2022-06-05T11:43:02.000Z</time>
      </trkpt>
      <trkpt lat="48.30342" lon="2.60123">
        <ele>55.8</ele>
        <time>2022-06-05T11:43:10.000Z</time>
      </trkpt>
      <trkpt lat="48.30333" lon="2.60127">
        <ele>55.3</ele>
        <time>2022-06-05T11:43:19.000Z</time>
      </trkpt>
      <trkpt lat="48.30324" lon="2.60124">
        <ele>54.4</ele>
        <time>2022-06-05T11:43:28.000Z</time>
      </trkpt>
      <trkpt lat="48.3032" lon="2.60126">
        <ele>49.7</ele>
        <time>2022-06-05T11:43:38.000Z</time>
      </trkpt>
      <trkpt lat="48.3032" lon="2.60126">
        <ele>48.5</ele>
        <time>2022-06-05T11:43:40.000Z</time>
      </trkpt>
      <trkpt lat="48.30321" lon="2.60126">
        <ele>50.6</ele>
        <time>2022-06-05T11:43:44.000Z</time>
      </trkpt>
      <trkpt lat="48.30322" lon="2.60126">
        <ele>50.5</ele>
        <time>2022-06-05T11:43:45.000Z</time>
      </trkpt>
      <trkpt lat="48.30322" lon="2.60126">
        <ele>50.3</ele>
        <time>2022-06-05T11:43:46.000Z</time>
      </trkpt>
      <trkpt lat="48.30321" lon="2.60126">
        <ele>49.9</ele>
        <time>2022-06-05T11:43:49.000Z</time>
      </trkpt>
      <trkpt lat="48.30321" lon="2.60126">
        <ele>49.8</ele>
        <time>2022-06-05T11:43:50.000Z</time>
      </trkpt>
      <trkpt lat="48.30322" lon="2.60126">
        <ele>51.4</ele>
        <time>2022-06-05T11:43:58.000Z</time>
      </trkpt>
      <trkpt lat="48.30322" lon="2.60124">
        <ele>51.4</ele>
        <time>2022-06-05T11:44:01.000Z</time>
      </trkpt>
      <trkpt lat="48.30322" lon="2.60124">
        <ele>51.3</ele>
        <time>2022-06-05T11:44:04.000Z</time>
      </trkpt>
      <trkpt lat="48.30313" lon="2.60127">
        <ele>51.2</ele>
        <time>2022-06-05T11:44:19.000Z</time>
      </trkpt>
      <trkpt lat="48.30308" lon="2.60133">
        <ele>51.2</ele>
        <time>2022-06-05T11:44:27.000Z</time>
      </trkpt>
      <trkpt lat="48.30307" lon="2.60132">
        <ele>51.3</ele>
        <time>2022-06-05T11:44:28.000Z</time>
      </trkpt>
      <trkpt lat="48.30298" lon="2.60138">
        <ele>51.6</ele>
        <time>2022-06-05T11:44:41.000Z</time>
      </trkpt>
      <trkpt lat="48.30295" lon="2.60124">
        <ele>50.7</ele>
        <time>2022-06-05T11:45:02.000Z</time>
      </trkpt>
      <trkpt lat="48.3029" lon="2.60113">
        <ele>50.4</ele>
        <time>2022-06-05T11:45:09.000Z</time>
      </trkpt>
      <trkpt lat="48.30284" lon="2.60101">
        <ele>50.4</ele>
        <time>2022-06-05T11:45:17.000Z</time>
      </trkpt>
      <trkpt lat="48.30279" lon="2.6009">
        <ele>50.3</ele>
        <time>2022-06-05T11:45:26.000Z</time>
      </trkpt>
      <trkpt lat="48.30285" lon="2.60079">
        <ele>50</ele>
        <time>2022-06-05T11:45:34.000Z</time>
      </trkpt>
      <trkpt lat="48.30286" lon="2.60065">
        <ele>50.2</ele>
        <time>2022-06-05T11:45:42.000Z</time>
      </trkpt>
      <trkpt lat="48.30289" lon="2.60052">
        <ele>50.1</ele>
        <time>2022-06-05T11:45:47.000Z</time>
      </trkpt>
      <trkpt lat="48.30296" lon="2.60041">
        <ele>50.5</ele>
        <time>2022-06-05T11:45:54.000Z</time>
      </trkpt>
      <trkpt lat="48.30303" lon="2.60032">
        <ele>50.6</ele>
        <time>2022-06-05T11:46:02.000Z</time>
      </trkpt>
      <trkpt lat="48.30305" lon="2.60018">
        <ele>50.8</ele>
        <time>2022-06-05T11:46:12.000Z</time>
      </trkpt>
      <trkpt lat="48.30309" lon="2.60005">
        <ele>50.7</ele>
        <time>2022-06-05T11:46:20.000Z</time>
      </trkpt>
      <trkpt lat="48.30309" lon="2.59991">
        <ele>50.8</ele>
        <time>2022-06-05T11:46:29.000Z</time>
      </trkpt>
      <trkpt lat="48.30315" lon="2.59978">
        <ele>51</ele>
        <time>2022-06-05T11:46:40.000Z</time>
      </trkpt>
      <trkpt lat="48.30318" lon="2.59964">
        <ele>51.3</ele>
        <time>2022-06-05T11:46:48.000Z</time>
      </trkpt>
      <trkpt lat="48.30322" lon="2.59951">
        <ele>51.4</ele>
        <time>2022-06-05T11:46:55.000Z</time>
      </trkpt>
      <trkpt lat="48.30327" lon="2.59938">
        <ele>51.8</ele>
        <time>2022-06-05T11:47:04.000Z</time>
      </trkpt>
      <trkpt lat="48.30331" lon="2.59926">
        <ele>50.9</ele>
        <time>2022-06-05T11:47:12.000Z</time>
      </trkpt>
      <trkpt lat="48.30334" lon="2.59921">
        <ele>52</ele>
        <time>2022-06-05T11:47:22.000Z</time>
      </trkpt>
      <trkpt lat="48.30335" lon="2.59921">
        <ele>52</ele>
        <time>2022-06-05T11:47:23.000Z</time>
      </trkpt>
      <trkpt lat="48.30334" lon="2.59926">
        <ele>52.7</ele>
        <time>2022-06-05T11:47:35.000Z</time>
      </trkpt>
      <trkpt lat="48.30334" lon="2.59927">
        <ele>53</ele>
        <time>2022-06-05T11:47:37.000Z</time>
      </trkpt>
      <trkpt lat="48.30334" lon="2.59927">
        <ele>52.7</ele>
        <time>2022-06-05T11:47:40.000Z</time>
      </trkpt>
      <trkpt lat="48.30334" lon="2.59927">
        <ele>52.7</ele>
        <time>2022-06-05T11:47:41.000Z</time>
      </trkpt>
      <trkpt lat="48.30334" lon="2.59926">
        <ele>53</ele>
        <time>2022-06-05T11:48:08.000Z</time>
      </trkpt>
      <trkpt lat="48.30334" lon="2.59926">
        <ele>53.1</ele>
        <time>2022-06-05T11:48:09.000Z</time>
      </trkpt>
      <trkpt lat="48.30334" lon="2.59919">
        <ele>53</ele>
        <time>2022-06-05T11:48:16.000Z</time>
      </trkpt>
      <trkpt lat="48.30334" lon="2.59919">
        <ele>52.9</ele>
        <time>2022-06-05T11:48:17.000Z</time>
      </trkpt>
      <trkpt lat="48.30334" lon="2.59919">
        <ele>52.8</ele>
        <time>2022-06-05T11:48:18.000Z</time>
      </trkpt>
      <trkpt lat="48.30334" lon="2.59919">
        <ele>53</ele>
        <time>2022-06-05T11:48:24.000Z</time>
      </trkpt>
      <trkpt lat="48.30334" lon="2.59918">
        <ele>51</ele>
        <time>2022-06-05T11:48:26.000Z</time>
      </trkpt>
      <trkpt lat="48.30334" lon="2.59917">
        <ele>52.9</ele>
        <time>2022-06-05T11:48:32.000Z</time>
      </trkpt>
      <trkpt lat="48.30335" lon="2.59903">
        <ele>52.2</ele>
        <time>2022-06-05T11:48:45.000Z</time>
      </trkpt>
      <trkpt lat="48.30335" lon="2.59901">
        <ele>52.5</ele>
        <time>2022-06-05T11:48:49.000Z</time>
      </trkpt>
      <trkpt lat="48.30335" lon="2.59902">
        <ele>52.6</ele>
        <time>2022-06-05T11:48:50.000Z</time>
      </trkpt>
      <trkpt lat="48.30337" lon="2.59907">
        <ele>53.5</ele>
        <time>2022-06-05T11:49:15.000Z</time>
      </trkpt>
      <trkpt lat="48.30337" lon="2.59907">
        <ele>53.4</ele>
        <time>2022-06-05T11:49:16.000Z</time>
      </trkpt>
      <trkpt lat="48.30337" lon="2.59909">
        <ele>53.8</ele>
        <time>2022-06-05T11:49:48.000Z</time>
      </trkpt>
      <trkpt lat="48.30337" lon="2.5991">
        <ele>54</ele>
        <time>2022-06-05T11:49:49.000Z</time>
      </trkpt>
      <trkpt lat="48.30345" lon="2.59901">
        <ele>54.3</ele>
        <time>2022-06-05T11:49:59.000Z</time>
      </trkpt>
      <trkpt lat="48.3035" lon="2.59889">
        <ele>54.4</ele>
        <time>2022-06-05T11:50:09.000Z</time>
      </trkpt>
      <trkpt lat="48.30355" lon="2.59877">
        <ele>55.1</ele>
        <time>2022-06-05T11:50:19.000Z</time>
      </trkpt>
      <trkpt lat="48.3036" lon="2.59865">
        <ele>55.5</ele>
        <time>2022-06-05T11:50:33.000Z</time>
      </trkpt>
      <trkpt lat="48.30367" lon="2.59855">
        <ele>55.1</ele>
        <time>2022-06-05T11:50:42.000Z</time>
      </trkpt>
      <trkpt lat="48.30374" lon="2.59845">
        <ele>56.5</ele>
        <time>2022-06-05T11:50:51.000Z</time>
      </trkpt>
      <trkpt lat="48.30379" lon="2.59834">
        <ele>56.5</ele>
        <time>2022-06-05T11:51:00.000Z</time>
      </trkpt>
      <trkpt lat="48.30385" lon="2.59822">
        <ele>56.2</ele>
        <time>2022-06-05T11:51:08.000Z</time>
      </trkpt>
      <trkpt lat="48.3039" lon="2.59811">
        <ele>56.8</ele>
        <time>2022-06-05T11:51:17.000Z</time>
      </trkpt>
      <trkpt lat="48.30396" lon="2.59801">
        <ele>58</ele>
        <time>2022-06-05T11:51:25.000Z</time>
      </trkpt>
      <trkpt lat="48.30403" lon="2.59791">
        <ele>59.2</ele>
        <time>2022-06-05T11:51:34.000Z</time>
      </trkpt>
      <trkpt lat="48.30409" lon="2.59779">
        <ele>59.4</ele>
        <time>2022-06-05T11:51:44.000Z</time>
      </trkpt>
      <trkpt lat="48.30415" lon="2.59767">
        <ele>60.2</ele>
        <time>2022-06-05T11:51:56.000Z</time>
      </trkpt>
      <trkpt lat="48.30419" lon="2.59754">
        <ele>60.8</ele>
        <time>2022-06-05T11:52:06.000Z</time>
      </trkpt>
      <trkpt lat="48.30418" lon="2.5974">
        <ele>61</ele>
        <time>2022-06-05T11:52:13.000Z</time>
      </trkpt>
      <trkpt lat="48.30421" lon="2.59726">
        <ele>60.7</ele>
        <time>2022-06-05T11:52:23.000Z</time>
      </trkpt>
      <trkpt lat="48.30414" lon="2.59715">
        <ele>62.3</ele>
        <time>2022-06-05T11:52:29.000Z</time>
      </trkpt>
      <trkpt lat="48.30414" lon="2.59715">
        <ele>56.8</ele>
        <time>2022-06-05T11:52:32.000Z</time>
      </trkpt>
      <trkpt lat="48.30414" lon="2.59715">
        <ele>58.2</ele>
        <time>2022-06-05T11:52:34.000Z</time>
      </trkpt>
      <trkpt lat="48.30414" lon="2.59715">
        <ele>58.1</ele>
        <time>2022-06-05T11:52:35.000Z</time>
      </trkpt>
      <trkpt lat="48.30414" lon="2.59715">
        <ele>60</ele>
        <time>2022-06-05T11:52:36.000Z</time>
      </trkpt>
      <trkpt lat="48.30414" lon="2.59715">
        <ele>62.3</ele>
        <time>2022-06-05T11:52:37.000Z</time>
      </trkpt>
      <trkpt lat="48.30414" lon="2.59715">
        <ele>62.7</ele>
        <time>2022-06-05T11:52:37.000Z</time>
      </trkpt>
      <trkpt lat="48.30406" lon="2.59702">
        <ele>79.2</ele>
        <time>2022-06-05T11:54:53.000Z</time>
      </trkpt>
      <trkpt lat="48.30399" lon="2.59712">
        <ele>79.2</ele>
        <time>2022-06-05T11:55:08.000Z</time>
      </trkpt>
      <trkpt lat="48.30392" lon="2.59721">
        <ele>80.6</ele>
        <time>2022-06-05T11:55:20.000Z</time>
      </trkpt>
      <trkpt lat="48.30385" lon="2.59731">
        <ele>82</ele>
        <time>2022-06-05T11:55:27.000Z</time>
      </trkpt>
      <trkpt lat="48.30376" lon="2.59736">
        <ele>82.8</ele>
        <time>2022-06-05T11:55:33.000Z</time>
      </trkpt>
      <trkpt lat="48.30367" lon="2.59742">
        <ele>83.5</ele>
        <time>2022-06-05T11:55:38.000Z</time>
      </trkpt>
      <trkpt lat="48.30362" lon="2.59744">
        <ele>83.6</ele>
        <time>2022-06-05T11:55:44.000Z</time>
      </trkpt>
      <trkpt lat="48.30361" lon="2.59745">
        <ele>83.6</ele>
        <time>2022-06-05T11:55:45.000Z</time>
      </trkpt>
      <trkpt lat="48.30352" lon="2.59751">
        <ele>83.6</ele>
        <time>2022-06-05T11:55:51.000Z</time>
      </trkpt>
      <trkpt lat="48.30346" lon="2.59763">
        <ele>83.5</ele>
        <time>2022-06-05T11:56:00.000Z</time>
      </trkpt>
      <trkpt lat="48.30337" lon="2.59763">
        <ele>83.6</ele>
        <time>2022-06-05T11:56:09.000Z</time>
      </trkpt>
      <trkpt lat="48.30328" lon="2.59768">
        <ele>82.9</ele>
        <time>2022-06-05T11:56:21.000Z</time>
      </trkpt>
      <trkpt lat="48.30318" lon="2.59771">
        <ele>82.3</ele>
        <time>2022-06-05T11:56:28.000Z</time>
      </trkpt>
      <trkpt lat="48.30309" lon="2.59774">
        <ele>81.7</ele>
        <time>2022-06-05T11:56:36.000Z</time>
      </trkpt>
      <trkpt lat="48.303" lon="2.59775">
        <ele>82.2</ele>
        <time>2022-06-05T11:56:46.000Z</time>
      </trkpt>
      <trkpt lat="48.30288" lon="2.59777">
        <ele>82.6</ele>
        <time>2022-06-05T11:56:53.000Z</time>
      </trkpt>
      <trkpt lat="48.30278" lon="2.59776">
        <ele>81.8</ele>
        <time>2022-06-05T11:56:58.000Z</time>
      </trkpt>
      <trkpt lat="48.30268" lon="2.59775">
        <ele>80.7</ele>
        <time>2022-06-05T11:57:05.000Z</time>
      </trkpt>
      <trkpt lat="48.30259" lon="2.59775">
        <ele>79.8</ele>
        <time>2022-06-05T11:57:13.000Z</time>
      </trkpt>
      <trkpt lat="48.30249" lon="2.59775">
        <ele>79</ele>
        <time>2022-06-05T11:57:21.000Z</time>
      </trkpt>
      <trkpt lat="48.30246" lon="2.59761">
        <ele>78.8</ele>
        <time>2022-06-05T11:57:33.000Z</time>
      </trkpt>
      <trkpt lat="48.30249" lon="2.59748">
        <ele>78</ele>
        <time>2022-06-05T11:57:39.000Z</time>
      </trkpt>
      <trkpt lat="48.30244" lon="2.59736">
        <ele>77.6</ele>
        <time>2022-06-05T11:57:47.000Z</time>
      </trkpt>
      <trkpt lat="48.30237" lon="2.59727">
        <ele>76.4</ele>
        <time>2022-06-05T11:57:54.000Z</time>
      </trkpt>
      <trkpt lat="48.3023" lon="2.59718">
        <ele>75.3</ele>
        <time>2022-06-05T11:58:03.000Z</time>
      </trkpt>
      <trkpt lat="48.30224" lon="2.59707">
        <ele>74.8</ele>
        <time>2022-06-05T11:58:08.000Z</time>
      </trkpt>
      <trkpt lat="48.30217" lon="2.59697">
        <ele>74.1</ele>
        <time>2022-06-05T11:58:17.000Z</time>
      </trkpt>
      <trkpt lat="48.30209" lon="2.59687">
        <ele>73.3</ele>
        <time>2022-06-05T11:58:25.000Z</time>
      </trkpt>
      <trkpt lat="48.30204" lon="2.59676">
        <ele>72.5</ele>
        <time>2022-06-05T11:58:31.000Z</time>
      </trkpt>
      <trkpt lat="48.30198" lon="2.59665">
        <ele>72</ele>
        <time>2022-06-05T11:58:39.000Z</time>
      </trkpt>
      <trkpt lat="48.30191" lon="2.59653">
        <ele>71.2</ele>
        <time>2022-06-05T11:58:49.000Z</time>
      </trkpt>
      <trkpt lat="48.30185" lon="2.59641">
        <ele>70.4</ele>
        <time>2022-06-05T11:58:59.000Z</time>
      </trkpt>
      <trkpt lat="48.3018" lon="2.5963">
        <ele>70.4</ele>
        <time>2022-06-05T11:59:10.000Z</time>
      </trkpt>
      <trkpt lat="48.30177" lon="2.59624">
        <ele>72.1</ele>
        <time>2022-06-05T11:59:22.000Z</time>
      </trkpt>
      <trkpt lat="48.30177" lon="2.59624">
        <ele>72.4</ele>
        <time>2022-06-05T11:59:23.000Z</time>
      </trkpt>
      <trkpt lat="48.30168" lon="2.59618">
        <ele>71.9</ele>
        <time>2022-06-05T11:59:43.000Z</time>
      </trkpt>
      <trkpt lat="48.30161" lon="2.59608">
        <ele>70.3</ele>
        <time>2022-06-05T11:59:58.000Z</time>
      </trkpt>
      <trkpt lat="48.30152" lon="2.59608">
        <ele>71</ele>
        <time>2022-06-05T12:00:26.000Z</time>
      </trkpt>
      <trkpt lat="48.30142" lon="2.59612">
        <ele>70.9</ele>
        <time>2022-06-05T12:00:38.000Z</time>
      </trkpt>
      <trkpt lat="48.30134" lon="2.59619">
        <ele>71.7</ele>
        <time>2022-06-05T12:00:47.000Z</time>
      </trkpt>
      <trkpt lat="48.30124" lon="2.59616">
        <ele>71</ele>
        <time>2022-06-05T12:00:54.000Z</time>
      </trkpt>
      <trkpt lat="48.30115" lon="2.59612">
        <ele>69.9</ele>
        <time>2022-06-05T12:01:01.000Z</time>
      </trkpt>
      <trkpt lat="48.30107" lon="2.59621">
        <ele>69.1</ele>
        <time>2022-06-05T12:01:09.000Z</time>
      </trkpt>
      <trkpt lat="48.30099" lon="2.5963">
        <ele>68.6</ele>
        <time>2022-06-05T12:01:18.000Z</time>
      </trkpt>
      <trkpt lat="48.3009" lon="2.59633">
        <ele>73.3</ele>
        <time>2022-06-05T12:01:28.000Z</time>
      </trkpt>
      <trkpt lat="48.3008" lon="2.59631">
        <ele>73.4</ele>
        <time>2022-06-05T12:01:40.000Z</time>
      </trkpt>
      <trkpt lat="48.30071" lon="2.59625">
        <ele>73.6</ele>
        <time>2022-06-05T12:01:48.000Z</time>
      </trkpt>
      <trkpt lat="48.30063" lon="2.59621">
        <ele>74.2</ele>
        <time>2022-06-05T12:01:56.000Z</time>
      </trkpt>
      <trkpt lat="48.30053" lon="2.59624">
        <ele>74.7</ele>
        <time>2022-06-05T12:02:07.000Z</time>
      </trkpt>
      <trkpt lat="48.30043" lon="2.59621">
        <ele>74.3</ele>
        <time>2022-06-05T12:02:14.000Z</time>
      </trkpt>
      <trkpt lat="48.30034" lon="2.59621">
        <ele>74.4</ele>
        <time>2022-06-05T12:02:24.000Z</time>
      </trkpt>
      <trkpt lat="48.30025" lon="2.59621">
        <ele>74.9</ele>
        <time>2022-06-05T12:02:29.000Z</time>
      </trkpt>
      <trkpt lat="48.30016" lon="2.59613">
        <ele>75</ele>
        <time>2022-06-05T12:02:35.000Z</time>
      </trkpt>
      <trkpt lat="48.30008" lon="2.59607">
        <ele>75.6</ele>
        <time>2022-06-05T12:02:41.000Z</time>
      </trkpt>
      <trkpt lat="48.29999" lon="2.59602">
        <ele>75.6</ele>
        <time>2022-06-05T12:02:49.000Z</time>
      </trkpt>
      <trkpt lat="48.29992" lon="2.59592">
        <ele>73.5</ele>
        <time>2022-06-05T12:02:57.000Z</time>
      </trkpt>
      <trkpt lat="48.29989" lon="2.59578">
        <ele>74.6</ele>
        <time>2022-06-05T12:03:08.000Z</time>
      </trkpt>
      <trkpt lat="48.2999" lon="2.59564">
        <ele>74.2</ele>
        <time>2022-06-05T12:03:15.000Z</time>
      </trkpt>
      <trkpt lat="48.29985" lon="2.59553">
        <ele>73.6</ele>
        <time>2022-06-05T12:03:21.000Z</time>
      </trkpt>
      <trkpt lat="48.29981" lon="2.5954">
        <ele>71.6</ele>
        <time>2022-06-05T12:03:28.000Z</time>
      </trkpt>
      <trkpt lat="48.29973" lon="2.59532">
        <ele>72.4</ele>
        <time>2022-06-05T12:03:37.000Z</time>
      </trkpt>
      <trkpt lat="48.29965" lon="2.59525">
        <ele>71.4</ele>
        <time>2022-06-05T12:03:47.000Z</time>
      </trkpt>
      <trkpt lat="48.29956" lon="2.59527">
        <ele>69.9</ele>
        <time>2022-06-05T12:03:56.000Z</time>
      </trkpt>
      <trkpt lat="48.29947" lon="2.59535">
        <ele>70.5</ele>
        <time>2022-06-05T12:04:07.000Z</time>
      </trkpt>
      <trkpt lat="48.29941" lon="2.59546">
        <ele>70</ele>
        <time>2022-06-05T12:04:15.000Z</time>
      </trkpt>
      <trkpt lat="48.29934" lon="2.59557">
        <ele>70.8</ele>
        <time>2022-06-05T12:04:24.000Z</time>
      </trkpt>
      <trkpt lat="48.29929" lon="2.59568">
        <ele>71.4</ele>
        <time>2022-06-05T12:04:31.000Z</time>
      </trkpt>
      <trkpt lat="48.2992" lon="2.59576">
        <ele>72.1</ele>
        <time>2022-06-05T12:04:40.000Z</time>
      </trkpt>
      <trkpt lat="48.29913" lon="2.59586">
        <ele>72.2</ele>
        <time>2022-06-05T12:04:47.000Z</time>
      </trkpt>
      <trkpt lat="48.29905" lon="2.59595">
        <ele>72.9</ele>
        <time>2022-06-05T12:04:54.000Z</time>
      </trkpt>
      <trkpt lat="48.29899" lon="2.59604">
        <ele>73.2</ele>
        <time>2022-06-05T12:05:07.000Z</time>
      </trkpt>
      <trkpt lat="48.29889" lon="2.59611">
        <ele>73.3</ele>
        <time>2022-06-05T12:05:15.000Z</time>
      </trkpt>
      <trkpt lat="48.29881" lon="2.59619">
        <ele>73</ele>
        <time>2022-06-05T12:05:20.000Z</time>
      </trkpt>
      <trkpt lat="48.29873" lon="2.59628">
        <ele>72.8</ele>
        <time>2022-06-05T12:05:25.000Z</time>
      </trkpt>
      <trkpt lat="48.29863" lon="2.59631">
        <ele>70.5</ele>
        <time>2022-06-05T12:05:30.000Z</time>
      </trkpt>
      <trkpt lat="48.29855" lon="2.59638">
        <ele>69.7</ele>
        <time>2022-06-05T12:05:38.000Z</time>
      </trkpt>
      <trkpt lat="48.29847" lon="2.59648">
        <ele>68</ele>
        <time>2022-06-05T12:05:48.000Z</time>
      </trkpt>
      <trkpt lat="48.29838" lon="2.59656">
        <ele>67.3</ele>
        <time>2022-06-05T12:05:58.000Z</time>
      </trkpt>
      <trkpt lat="48.29848" lon="2.59664">
        <ele>66.3</ele>
        <time>2022-06-05T12:06:29.000Z</time>
      </trkpt>
      <trkpt lat="48.29848" lon="2.5965">
        <ele>66.2</ele>
        <time>2022-06-05T12:06:49.000Z</time>
      </trkpt>
      <trkpt lat="48.2984" lon="2.59643">
        <ele>66.6</ele>
        <time>2022-06-05T12:06:53.000Z</time>
      </trkpt>
      <trkpt lat="48.29832" lon="2.59633">
        <ele>67.2</ele>
        <time>2022-06-05T12:06:58.000Z</time>
      </trkpt>
      <trkpt lat="48.29829" lon="2.59618">
        <ele>67.5</ele>
        <time>2022-06-05T12:07:06.000Z</time>
      </trkpt>
      <trkpt lat="48.29827" lon="2.59605">
        <ele>67.8</ele>
        <time>2022-06-05T12:07:11.000Z</time>
      </trkpt>
      <trkpt lat="48.29823" lon="2.5959">
        <ele>68.1</ele>
        <time>2022-06-05T12:07:17.000Z</time>
      </trkpt>
      <trkpt lat="48.29818" lon="2.59577">
        <ele>68.2</ele>
        <time>2022-06-05T12:07:24.000Z</time>
      </trkpt>
      <trkpt lat="48.29819" lon="2.59563">
        <ele>68.7</ele>
        <time>2022-06-05T12:07:33.000Z</time>
      </trkpt>
      <trkpt lat="48.29818" lon="2.59556">
        <ele>68.6</ele>
        <time>2022-06-05T12:07:39.000Z</time>
      </trkpt>
      <trkpt lat="48.29818" lon="2.59555">
        <ele>68.8</ele>
        <time>2022-06-05T12:07:40.000Z</time>
      </trkpt>
      <trkpt lat="48.29813" lon="2.59543">
        <ele>68.4</ele>
        <time>2022-06-05T12:07:48.000Z</time>
      </trkpt>
      <trkpt lat="48.29809" lon="2.59529">
        <ele>67.9</ele>
        <time>2022-06-05T12:07:54.000Z</time>
      </trkpt>
      <trkpt lat="48.29805" lon="2.59514">
        <ele>67.4</ele>
        <time>2022-06-05T12:08:03.000Z</time>
      </trkpt>
      <trkpt lat="48.29802" lon="2.59499">
        <ele>67.2</ele>
        <time>2022-06-05T12:08:17.000Z</time>
      </trkpt>
      <trkpt lat="48.29797" lon="2.59485">
        <ele>67.6</ele>
        <time>2022-06-05T12:08:23.000Z</time>
      </trkpt>
      <trkpt lat="48.29795" lon="2.59472">
        <ele>68.3</ele>
        <time>2022-06-05T12:08:29.000Z</time>
      </trkpt>
      <trkpt lat="48.29792" lon="2.59456">
        <ele>69</ele>
        <time>2022-06-05T12:08:37.000Z</time>
      </trkpt>
      <trkpt lat="48.29787" lon="2.59445">
        <ele>68.2</ele>
        <time>2022-06-05T12:08:41.000Z</time>
      </trkpt>
      <trkpt lat="48.29778" lon="2.59449">
        <ele>67.4</ele>
        <time>2022-06-05T12:08:49.000Z</time>
      </trkpt>
      <trkpt lat="48.29779" lon="2.59463">
        <ele>66.6</ele>
        <time>2022-06-05T12:09:01.000Z</time>
      </trkpt>
      <trkpt lat="48.29774" lon="2.59474">
        <ele>66.5</ele>
        <time>2022-06-05T12:09:09.000Z</time>
      </trkpt>
      <trkpt lat="48.29768" lon="2.59484">
        <ele>66.6</ele>
        <time>2022-06-05T12:09:17.000Z</time>
      </trkpt>
      <trkpt lat="48.29761" lon="2.59494">
        <ele>66.8</ele>
        <time>2022-06-05T12:09:22.000Z</time>
      </trkpt>
      <trkpt lat="48.29751" lon="2.59497">
        <ele>67.4</ele>
        <time>2022-06-05T12:09:30.000Z</time>
      </trkpt>
      <trkpt lat="48.29742" lon="2.595">
        <ele>67.7</ele>
        <time>2022-06-05T12:09:36.000Z</time>
      </trkpt>
      <trkpt lat="48.29733" lon="2.59501">
        <ele>67.9</ele>
        <time>2022-06-05T12:09:40.000Z</time>
      </trkpt>
      <trkpt lat="48.29724" lon="2.59506">
        <ele>67.7</ele>
        <time>2022-06-05T12:09:45.000Z</time>
      </trkpt>
      <trkpt lat="48.29715" lon="2.59502">
        <ele>67.2</ele>
        <time>2022-06-05T12:09:51.000Z</time>
      </trkpt>
      <trkpt lat="48.29706" lon="2.59508">
        <ele>66.5</ele>
        <time>2022-06-05T12:10:01.000Z</time>
      </trkpt>
      <trkpt lat="48.29698" lon="2.59517">
        <ele>65.6</ele>
        <time>2022-06-05T12:10:12.000Z</time>
      </trkpt>
      <trkpt lat="48.2969" lon="2.59524">
        <ele>65.6</ele>
        <time>2022-06-05T12:10:19.000Z</time>
      </trkpt>
      <trkpt lat="48.29682" lon="2.59517">
        <ele>64.8</ele>
        <time>2022-06-05T12:10:30.000Z</time>
      </trkpt>
      <trkpt lat="48.29681" lon="2.59503">
        <ele>65.4</ele>
        <time>2022-06-05T12:10:39.000Z</time>
      </trkpt>
      <trkpt lat="48.29681" lon="2.59489">
        <ele>66.1</ele>
        <time>2022-06-05T12:10:56.000Z</time>
      </trkpt>
      <trkpt lat="48.29674" lon="2.5948">
        <ele>66.6</ele>
        <time>2022-06-05T12:11:02.000Z</time>
      </trkpt>
      <trkpt lat="48.29667" lon="2.59471">
        <ele>66.2</ele>
        <time>2022-06-05T12:11:10.000Z</time>
      </trkpt>
      <trkpt lat="48.29662" lon="2.59458">
        <ele>66.4</ele>
        <time>2022-06-05T12:11:16.000Z</time>
      </trkpt>
      <trkpt lat="48.29654" lon="2.59451">
        <ele>66.4</ele>
        <time>2022-06-05T12:11:24.000Z</time>
      </trkpt>
      <trkpt lat="48.29645" lon="2.59446">
        <ele>66.4</ele>
        <time>2022-06-05T12:11:32.000Z</time>
      </trkpt>
      <trkpt lat="48.29637" lon="2.59438">
        <ele>66.8</ele>
        <time>2022-06-05T12:11:41.000Z</time>
      </trkpt>
      <trkpt lat="48.29632" lon="2.59427">
        <ele>67.6</ele>
        <time>2022-06-05T12:11:48.000Z</time>
      </trkpt>
      <trkpt lat="48.29629" lon="2.59429">
        <ele>67.8</ele>
        <time>2022-06-05T12:15:53.000Z</time>
      </trkpt>
      <trkpt lat="48.29628" lon="2.59414">
        <ele>67.9</ele>
        <time>2022-06-05T12:16:02.000Z</time>
      </trkpt>
      <trkpt lat="48.29628" lon="2.594">
        <ele>68.6</ele>
        <time>2022-06-05T12:16:08.000Z</time>
      </trkpt>
      <trkpt lat="48.2963" lon="2.59386">
        <ele>68.9</ele>
        <time>2022-06-05T12:16:15.000Z</time>
      </trkpt>
      <trkpt lat="48.29634" lon="2.59373">
        <ele>69.3</ele>
        <time>2022-06-05T12:16:21.000Z</time>
      </trkpt>
      <trkpt lat="48.29634" lon="2.59358">
        <ele>70</ele>
        <time>2022-06-05T12:16:29.000Z</time>
      </trkpt>
      <trkpt lat="48.2963" lon="2.59346">
        <ele>70.1</ele>
        <time>2022-06-05T12:16:35.000Z</time>
      </trkpt>
      <trkpt lat="48.29627" lon="2.59333">
        <ele>69.7</ele>
        <time>2022-06-05T12:16:42.000Z</time>
      </trkpt>
      <trkpt lat="48.29626" lon="2.59319">
        <ele>69.4</ele>
        <time>2022-06-05T12:16:48.000Z</time>
      </trkpt>
      <trkpt lat="48.29623" lon="2.59305">
        <ele>69.6</ele>
        <time>2022-06-05T12:16:54.000Z</time>
      </trkpt>
      <trkpt lat="48.2962" lon="2.593">
        <ele>72.7</ele>
        <time>2022-06-05T12:17:13.000Z</time>
      </trkpt>
      <trkpt lat="48.2962" lon="2.593">
        <ele>72.8</ele>
        <time>2022-06-05T12:17:14.000Z</time>
      </trkpt>
      <trkpt lat="48.29626" lon="2.59305">
        <ele>72.5</ele>
        <time>2022-06-05T12:17:40.000Z</time>
      </trkpt>
      <trkpt lat="48.29625" lon="2.59305">
        <ele>72.2</ele>
        <time>2022-06-05T12:17:41.000Z</time>
      </trkpt>
      <trkpt lat="48.29616" lon="2.59298">
        <ele>72.1</ele>
        <time>2022-06-05T12:17:48.000Z</time>
      </trkpt>
      <trkpt lat="48.29607" lon="2.59294">
        <ele>72.6</ele>
        <time>2022-06-05T12:17:56.000Z</time>
      </trkpt>
      <trkpt lat="48.29602" lon="2.59283">
        <ele>71.6</ele>
        <time>2022-06-05T12:18:09.000Z</time>
      </trkpt>
      <trkpt lat="48.29595" lon="2.59283">
        <ele>71.8</ele>
        <time>2022-06-05T12:18:19.000Z</time>
      </trkpt>
      <trkpt lat="48.29595" lon="2.59283">
        <ele>72.7</ele>
        <time>2022-06-05T12:18:24.000Z</time>
      </trkpt>
      <trkpt lat="48.29585" lon="2.59288">
        <ele>73.4</ele>
        <time>2022-06-05T12:18:37.000Z</time>
      </trkpt>
      <trkpt lat="48.29576" lon="2.59288">
        <ele>74.4</ele>
        <time>2022-06-05T12:18:52.000Z</time>
      </trkpt>
      <trkpt lat="48.29568" lon="2.59295">
        <ele>74.6</ele>
        <time>2022-06-05T12:19:02.000Z</time>
      </trkpt>
      <trkpt lat="48.2956" lon="2.59304">
        <ele>76.6</ele>
        <time>2022-06-05T12:19:14.000Z</time>
      </trkpt>
      <trkpt lat="48.29551" lon="2.59305">
        <ele>78.3</ele>
        <time>2022-06-05T12:19:20.000Z</time>
      </trkpt>
      <trkpt lat="48.29542" lon="2.59305">
        <ele>79.8</ele>
        <time>2022-06-05T12:19:25.000Z</time>
      </trkpt>
      <trkpt lat="48.29531" lon="2.59304">
        <ele>82</ele>
        <time>2022-06-05T12:19:36.000Z</time>
      </trkpt>
      <trkpt lat="48.29522" lon="2.59304">
        <ele>83.7</ele>
        <time>2022-06-05T12:19:46.000Z</time>
      </trkpt>
      <trkpt lat="48.29513" lon="2.59305">
        <ele>85.7</ele>
        <time>2022-06-05T12:19:54.000Z</time>
      </trkpt>
      <trkpt lat="48.29505" lon="2.59314">
        <ele>87.4</ele>
        <time>2022-06-05T12:20:04.000Z</time>
      </trkpt>
      <trkpt lat="48.29507" lon="2.59329">
        <ele>88.7</ele>
        <time>2022-06-05T12:20:13.000Z</time>
      </trkpt>
      <trkpt lat="48.29509" lon="2.59343">
        <ele>89.8</ele>
        <time>2022-06-05T12:20:20.000Z</time>
      </trkpt>
      <trkpt lat="48.29511" lon="2.59357">
        <ele>90.2</ele>
        <time>2022-06-05T12:20:28.000Z</time>
      </trkpt>
      <trkpt lat="48.29517" lon="2.59369">
        <ele>91</ele>
        <time>2022-06-05T12:20:38.000Z</time>
      </trkpt>
      <trkpt lat="48.29522" lon="2.5938">
        <ele>91.6</ele>
        <time>2022-06-05T12:20:47.000Z</time>
      </trkpt>
      <trkpt lat="48.2953" lon="2.59389">
        <ele>93.9</ele>
        <time>2022-06-05T12:21:01.000Z</time>
      </trkpt>
      <trkpt lat="48.29536" lon="2.59396">
        <ele>94</ele>
        <time>2022-06-05T12:21:10.000Z</time>
      </trkpt>
      <trkpt lat="48.29537" lon="2.59396">
        <ele>93.8</ele>
        <time>2022-06-05T12:21:12.000Z</time>
      </trkpt>
      <trkpt lat="48.29538" lon="2.59396">
        <ele>93.8</ele>
        <time>2022-06-05T12:21:18.000Z</time>
      </trkpt>
      <trkpt lat="48.29538" lon="2.59396">
        <ele>93.7</ele>
        <time>2022-06-05T12:21:20.000Z</time>
      </trkpt>
      <trkpt lat="48.29532" lon="2.59408">
        <ele>94.5</ele>
        <time>2022-06-05T12:22:00.000Z</time>
      </trkpt>
      <trkpt lat="48.29537" lon="2.59402">
        <ele>93.2</ele>
        <time>2022-06-05T12:22:18.000Z</time>
      </trkpt>
      <trkpt lat="48.29538" lon="2.59402">
        <ele>93.1</ele>
        <time>2022-06-05T12:22:19.000Z</time>
      </trkpt>
      <trkpt lat="48.29544" lon="2.59412">
        <ele>93.5</ele>
        <time>2022-06-05T12:22:33.000Z</time>
      </trkpt>
      <trkpt lat="48.29546" lon="2.59426">
        <ele>92.8</ele>
        <time>2022-06-05T12:22:45.000Z</time>
      </trkpt>
      <trkpt lat="48.29543" lon="2.59439">
        <ele>92.6</ele>
        <time>2022-06-05T12:22:53.000Z</time>
      </trkpt>
      <trkpt lat="48.2954" lon="2.59453">
        <ele>91.7</ele>
        <time>2022-06-05T12:23:05.000Z</time>
      </trkpt>
      <trkpt lat="48.29537" lon="2.59465">
        <ele>92</ele>
        <time>2022-06-05T12:23:14.000Z</time>
      </trkpt>
      <trkpt lat="48.29533" lon="2.59479">
        <ele>91.7</ele>
        <time>2022-06-05T12:23:22.000Z</time>
      </trkpt>
      <trkpt lat="48.29525" lon="2.59488">
        <ele>91</ele>
        <time>2022-06-05T12:23:30.000Z</time>
      </trkpt>
      <trkpt lat="48.29515" lon="2.59491">
        <ele>90.2</ele>
        <time>2022-06-05T12:23:37.000Z</time>
      </trkpt>
      <trkpt lat="48.29506" lon="2.59491">
        <ele>89.9</ele>
        <time>2022-06-05T12:23:45.000Z</time>
      </trkpt>
      <trkpt lat="48.29497" lon="2.59499">
        <ele>89.5</ele>
        <time>2022-06-05T12:23:54.000Z</time>
      </trkpt>
      <trkpt lat="48.29488" lon="2.59501">
        <ele>88.7</ele>
        <time>2022-06-05T12:24:14.000Z</time>
      </trkpt>
      <trkpt lat="48.29486" lon="2.59507">
        <ele>87.3</ele>
        <time>2022-06-05T12:24:28.000Z</time>
      </trkpt>
      <trkpt lat="48.29486" lon="2.59507">
        <ele>86.3</ele>
        <time>2022-06-05T12:24:32.000Z</time>
      </trkpt>
      <trkpt lat="48.29486" lon="2.5951">
        <ele>85.3</ele>
        <time>2022-06-05T12:24:36.000Z</time>
      </trkpt>
      <trkpt lat="48.29486" lon="2.59509">
        <ele>81.6</ele>
        <time>2022-06-05T12:24:37.000Z</time>
      </trkpt>
      <trkpt lat="48.29489" lon="2.59508">
        <ele>89.6</ele>
        <time>2022-06-05T12:24:44.000Z</time>
      </trkpt>
      <trkpt lat="48.2949" lon="2.59508">
        <ele>89</ele>
        <time>2022-06-05T12:24:46.000Z</time>
      </trkpt>
      <trkpt lat="48.2949" lon="2.59508">
        <ele>89</ele>
        <time>2022-06-05T12:24:47.000Z</time>
      </trkpt>
      <trkpt lat="48.29489" lon="2.59508">
        <ele>88.3</ele>
        <time>2022-06-05T12:25:01.000Z</time>
      </trkpt>
      <trkpt lat="48.29488" lon="2.59508">
        <ele>88.2</ele>
        <time>2022-06-05T12:25:04.000Z</time>
      </trkpt>
      <trkpt lat="48.29488" lon="2.59509">
        <ele>88.2</ele>
        <time>2022-06-05T12:25:06.000Z</time>
      </trkpt>
      <trkpt lat="48.29489" lon="2.59523">
        <ele>87.6</ele>
        <time>2022-06-05T12:25:23.000Z</time>
      </trkpt>
      <trkpt lat="48.2949" lon="2.59537">
        <ele>85.6</ele>
        <time>2022-06-05T12:25:36.000Z</time>
      </trkpt>
      <trkpt lat="48.29493" lon="2.5955">
        <ele>84.4</ele>
        <time>2022-06-05T12:25:46.000Z</time>
      </trkpt>
      <trkpt lat="48.29493" lon="2.59556">
        <ele>83.5</ele>
        <time>2022-06-05T12:25:54.000Z</time>
      </trkpt>
      <trkpt lat="48.29492" lon="2.59556">
        <ele>83.4</ele>
        <time>2022-06-05T12:25:55.000Z</time>
      </trkpt>
      <trkpt lat="48.2949" lon="2.59558">
        <ele>82.6</ele>
        <time>2022-06-05T12:26:02.000Z</time>
      </trkpt>
      <trkpt lat="48.2949" lon="2.59558">
        <ele>82.4</ele>
        <time>2022-06-05T12:26:03.000Z</time>
      </trkpt>
      <trkpt lat="48.2949" lon="2.59558">
        <ele>82.1</ele>
        <time>2022-06-05T12:26:05.000Z</time>
      </trkpt>
      <trkpt lat="48.29491" lon="2.59558">
        <ele>81</ele>
        <time>2022-06-05T12:26:14.000Z</time>
      </trkpt>
      <trkpt lat="48.29492" lon="2.59561">
        <ele>80.5</ele>
        <time>2022-06-05T12:26:20.000Z</time>
      </trkpt>
      <trkpt lat="48.29491" lon="2.59562">
        <ele>79.8</ele>
        <time>2022-06-05T12:26:31.000Z</time>
      </trkpt>
      <trkpt lat="48.29491" lon="2.59562">
        <ele>79.8</ele>
        <time>2022-06-05T12:26:32.000Z</time>
      </trkpt>
      <trkpt lat="48.29491" lon="2.59563">
        <ele>78.9</ele>
        <time>2022-06-05T12:26:44.000Z</time>
      </trkpt>
      <trkpt lat="48.29491" lon="2.59574">
        <ele>77.3</ele>
        <time>2022-06-05T12:26:58.000Z</time>
      </trkpt>
      <trkpt lat="48.29491" lon="2.59574">
        <ele>76.9</ele>
        <time>2022-06-05T12:27:08.000Z</time>
      </trkpt>
      <trkpt lat="48.29491" lon="2.59574">
        <ele>76.6</ele>
        <time>2022-06-05T12:27:09.000Z</time>
      </trkpt>
      <trkpt lat="48.29491" lon="2.59573">
        <ele>76</ele>
        <time>2022-06-05T12:27:18.000Z</time>
      </trkpt>
      <trkpt lat="48.29491" lon="2.59573">
        <ele>75.9</ele>
        <time>2022-06-05T12:27:19.000Z</time>
      </trkpt>
      <trkpt lat="48.29491" lon="2.59573">
        <ele>75.3</ele>
        <time>2022-06-05T12:27:34.000Z</time>
      </trkpt>
      <trkpt lat="48.29488" lon="2.59586">
        <ele>73.5</ele>
        <time>2022-06-05T12:27:51.000Z</time>
      </trkpt>
      <trkpt lat="48.2949" lon="2.59594">
        <ele>72.9</ele>
        <time>2022-06-05T12:27:58.000Z</time>
      </trkpt>
      <trkpt lat="48.2949" lon="2.59594">
        <ele>72.5</ele>
        <time>2022-06-05T12:28:02.000Z</time>
      </trkpt>
      <trkpt lat="48.29483" lon="2.59604">
        <ele>71.4</ele>
        <time>2022-06-05T12:28:19.000Z</time>
      </trkpt>
      <trkpt lat="48.29484" lon="2.59618">
        <ele>70.4</ele>
        <time>2022-06-05T12:28:33.000Z</time>
      </trkpt>
      <trkpt lat="48.29486" lon="2.59627">
        <ele>69.5</ele>
        <time>2022-06-05T12:28:45.000Z</time>
      </trkpt>
      <trkpt lat="48.29486" lon="2.59627">
        <ele>69.7</ele>
        <time>2022-06-05T12:28:53.000Z</time>
      </trkpt>
      <trkpt lat="48.29485" lon="2.59627">
        <ele>69.7</ele>
        <time>2022-06-05T12:28:55.000Z</time>
      </trkpt>
      <trkpt lat="48.29485" lon="2.59628">
        <ele>69.5</ele>
        <time>2022-06-05T12:28:59.000Z</time>
      </trkpt>
      <trkpt lat="48.29487" lon="2.59643">
        <ele>68.9</ele>
        <time>2022-06-05T12:29:09.000Z</time>
      </trkpt>
      <trkpt lat="48.29485" lon="2.59657">
        <ele>68.3</ele>
        <time>2022-06-05T12:29:18.000Z</time>
      </trkpt>
      <trkpt lat="48.29477" lon="2.59666">
        <ele>68.2</ele>
        <time>2022-06-05T12:29:25.000Z</time>
      </trkpt>
      <trkpt lat="48.29469" lon="2.59673">
        <ele>68.3</ele>
        <time>2022-06-05T12:29:33.000Z</time>
      </trkpt>
      <trkpt lat="48.2946" lon="2.59677">
        <ele>65.7</ele>
        <time>2022-06-05T12:29:46.000Z</time>
      </trkpt>
      <trkpt lat="48.2946" lon="2.59677">
        <ele>64.2</ele>
        <time>2022-06-05T12:29:54.000Z</time>
      </trkpt>
      <trkpt lat="48.2946" lon="2.59677">
        <ele>64.1</ele>
        <time>2022-06-05T12:29:55.000Z</time>
      </trkpt>
      <trkpt lat="48.2946" lon="2.59676">
        <ele>63.5</ele>
        <time>2022-06-05T12:30:02.000Z</time>
      </trkpt>
      <trkpt lat="48.2946" lon="2.59676">
        <ele>63.3</ele>
        <time>2022-06-05T12:30:03.000Z</time>
      </trkpt>
      <trkpt lat="48.2946" lon="2.59676">
        <ele>62.4</ele>
        <time>2022-06-05T12:30:11.000Z</time>
      </trkpt>
      <trkpt lat="48.2946" lon="2.59676">
        <ele>62.4</ele>
        <time>2022-06-05T12:30:12.000Z</time>
      </trkpt>
      <trkpt lat="48.29459" lon="2.59676">
        <ele>61.9</ele>
        <time>2022-06-05T12:30:18.000Z</time>
      </trkpt>
      <trkpt lat="48.29459" lon="2.59676">
        <ele>62</ele>
        <time>2022-06-05T12:30:20.000Z</time>
      </trkpt>
      <trkpt lat="48.29458" lon="2.59676">
        <ele>62.6</ele>
        <time>2022-06-05T12:30:25.000Z</time>
      </trkpt>
      <trkpt lat="48.29449" lon="2.59679">
        <ele>62.2</ele>
        <time>2022-06-05T12:30:37.000Z</time>
      </trkpt>
      <trkpt lat="48.29441" lon="2.59673">
        <ele>61.9</ele>
        <time>2022-06-05T12:30:50.000Z</time>
      </trkpt>
      <trkpt lat="48.29434" lon="2.59662">
        <ele>63.8</ele>
        <time>2022-06-05T12:30:59.000Z</time>
      </trkpt>
      <trkpt lat="48.29434" lon="2.59661">
        <ele>63.9</ele>
        <time>2022-06-05T12:31:02.000Z</time>
      </trkpt>
      <trkpt lat="48.29434" lon="2.59661">
        <ele>63.9</ele>
        <time>2022-06-05T12:31:03.000Z</time>
      </trkpt>
      <trkpt lat="48.29426" lon="2.5965">
        <ele>65.2</ele>
        <time>2022-06-05T12:31:11.000Z</time>
      </trkpt>
      <trkpt lat="48.2942" lon="2.5964">
        <ele>65.9</ele>
        <time>2022-06-05T12:31:19.000Z</time>
      </trkpt>
      <trkpt lat="48.29416" lon="2.59627">
        <ele>67.5</ele>
        <time>2022-06-05T12:31:29.000Z</time>
      </trkpt>
      <trkpt lat="48.29409" lon="2.59618">
        <ele>68.4</ele>
        <time>2022-06-05T12:31:40.000Z</time>
      </trkpt>
      <trkpt lat="48.29405" lon="2.59605">
        <ele>68.1</ele>
        <time>2022-06-05T12:31:49.000Z</time>
      </trkpt>
      <trkpt lat="48.29399" lon="2.59595">
        <ele>68.1</ele>
        <time>2022-06-05T12:31:58.000Z</time>
      </trkpt>
      <trkpt lat="48.29394" lon="2.59582">
        <ele>68.2</ele>
        <time>2022-06-05T12:32:07.000Z</time>
      </trkpt>
      <trkpt lat="48.29391" lon="2.59569">
        <ele>68.7</ele>
        <time>2022-06-05T12:32:17.000Z</time>
      </trkpt>
      <trkpt lat="48.29389" lon="2.59556">
        <ele>69.6</ele>
        <time>2022-06-05T12:32:27.000Z</time>
      </trkpt>
      <trkpt lat="48.29384" lon="2.59541">
        <ele>70.2</ele>
        <time>2022-06-05T12:32:35.000Z</time>
      </trkpt>
      <trkpt lat="48.29383" lon="2.59528">
        <ele>70.8</ele>
        <time>2022-06-05T12:32:40.000Z</time>
      </trkpt>
      <trkpt lat="48.29376" lon="2.59518">
        <ele>72.2</ele>
        <time>2022-06-05T12:32:49.000Z</time>
      </trkpt>
      <trkpt lat="48.29372" lon="2.59506">
        <ele>72.6</ele>
        <time>2022-06-05T12:32:58.000Z</time>
      </trkpt>
      <trkpt lat="48.29374" lon="2.59493">
        <ele>73.3</ele>
        <time>2022-06-05T12:33:13.000Z</time>
      </trkpt>
      <trkpt lat="48.29368" lon="2.59481">
        <ele>73.5</ele>
        <time>2022-06-05T12:33:25.000Z</time>
      </trkpt>
      <trkpt lat="48.29369" lon="2.59467">
        <ele>74.5</ele>
        <time>2022-06-05T12:33:34.000Z</time>
      </trkpt>
      <trkpt lat="48.29368" lon="2.59452">
        <ele>75.7</ele>
        <time>2022-06-05T12:34:09.000Z</time>
      </trkpt>
      <trkpt lat="48.29366" lon="2.59438">
        <ele>76.9</ele>
        <time>2022-06-05T12:34:16.000Z</time>
      </trkpt>
      <trkpt lat="48.29367" lon="2.59422">
        <ele>76.6</ele>
        <time>2022-06-05T12:34:22.000Z</time>
      </trkpt>
      <trkpt lat="48.29364" lon="2.59409">
        <ele>76.1</ele>
        <time>2022-06-05T12:34:30.000Z</time>
      </trkpt>
      <trkpt lat="48.29359" lon="2.59396">
        <ele>76.3</ele>
        <time>2022-06-05T12:34:39.000Z</time>
      </trkpt>
      <trkpt lat="48.29353" lon="2.59386">
        <ele>75.2</ele>
        <time>2022-06-05T12:34:48.000Z</time>
      </trkpt>
      <trkpt lat="48.29353" lon="2.59372">
        <ele>74.8</ele>
        <time>2022-06-05T12:35:00.000Z</time>
      </trkpt>
      <trkpt lat="48.29353" lon="2.59359">
        <ele>74.3</ele>
        <time>2022-06-05T12:35:11.000Z</time>
      </trkpt>
      <trkpt lat="48.29347" lon="2.59346">
        <ele>74</ele>
        <time>2022-06-05T12:35:21.000Z</time>
      </trkpt>
      <trkpt lat="48.29347" lon="2.59332">
        <ele>73.2</ele>
        <time>2022-06-05T12:35:28.000Z</time>
      </trkpt>
      <trkpt lat="48.2935" lon="2.59319">
        <ele>72.8</ele>
        <time>2022-06-05T12:35:35.000Z</time>
      </trkpt>
      <trkpt lat="48.29355" lon="2.59306">
        <ele>72.7</ele>
        <time>2022-06-05T12:35:45.000Z</time>
      </trkpt>
      <trkpt lat="48.29358" lon="2.59293">
        <ele>71.8</ele>
        <time>2022-06-05T12:35:55.000Z</time>
      </trkpt>
      <trkpt lat="48.29362" lon="2.5928">
        <ele>72.1</ele>
        <time>2022-06-05T12:36:05.000Z</time>
      </trkpt>
      <trkpt lat="48.29367" lon="2.59269">
        <ele>72.2</ele>
        <time>2022-06-05T12:36:14.000Z</time>
      </trkpt>
      <trkpt lat="48.29363" lon="2.59255">
        <ele>72.6</ele>
        <time>2022-06-05T12:36:21.000Z</time>
      </trkpt>
      <trkpt lat="48.29363" lon="2.5924">
        <ele>72.4</ele>
        <time>2022-06-05T12:36:32.000Z</time>
      </trkpt>
      <trkpt lat="48.29357" lon="2.5923">
        <ele>71.9</ele>
        <time>2022-06-05T12:36:38.000Z</time>
      </trkpt>
      <trkpt lat="48.2936" lon="2.59216">
        <ele>73.1</ele>
        <time>2022-06-05T12:36:47.000Z</time>
      </trkpt>
      <trkpt lat="48.29355" lon="2.59204">
        <ele>73.4</ele>
        <time>2022-06-05T12:36:57.000Z</time>
      </trkpt>
      <trkpt lat="48.29352" lon="2.59191">
        <ele>73</ele>
        <time>2022-06-05T12:37:05.000Z</time>
      </trkpt>
      <trkpt lat="48.29348" lon="2.59179">
        <ele>72.7</ele>
        <time>2022-06-05T12:37:13.000Z</time>
      </trkpt>
      <trkpt lat="48.29344" lon="2.59167">
        <ele>71.5</ele>
        <time>2022-06-05T12:37:22.000Z</time>
      </trkpt>
      <trkpt lat="48.29342" lon="2.59152">
        <ele>71</ele>
        <time>2022-06-05T12:37:34.000Z</time>
      </trkpt>
      <trkpt lat="48.29336" lon="2.59142">
        <ele>70.6</ele>
        <time>2022-06-05T12:37:44.000Z</time>
      </trkpt>
      <trkpt lat="48.29328" lon="2.59133">
        <ele>70.2</ele>
        <time>2022-06-05T12:37:52.000Z</time>
      </trkpt>
      <trkpt lat="48.29323" lon="2.59121">
        <ele>69.3</ele>
        <time>2022-06-05T12:38:00.000Z</time>
      </trkpt>
      <trkpt lat="48.29317" lon="2.59107">
        <ele>69.3</ele>
        <time>2022-06-05T12:38:07.000Z</time>
      </trkpt>
      <trkpt lat="48.29312" lon="2.59096">
        <ele>69</ele>
        <time>2022-06-05T12:38:13.000Z</time>
      </trkpt>
      <trkpt lat="48.29304" lon="2.59088">
        <ele>68.8</ele>
        <time>2022-06-05T12:38:25.000Z</time>
      </trkpt>
      <trkpt lat="48.29295" lon="2.59083">
        <ele>69.1</ele>
        <time>2022-06-05T12:38:34.000Z</time>
      </trkpt>
      <trkpt lat="48.29286" lon="2.5908">
        <ele>69.2</ele>
        <time>2022-06-05T12:38:45.000Z</time>
      </trkpt>
      <trkpt lat="48.29278" lon="2.5907">
        <ele>69.2</ele>
        <time>2022-06-05T12:38:53.000Z</time>
      </trkpt>
      <trkpt lat="48.2927" lon="2.59063">
        <ele>70</ele>
        <time>2022-06-05T12:39:10.000Z</time>
      </trkpt>
      <trkpt lat="48.29261" lon="2.59053">
        <ele>70.5</ele>
        <time>2022-06-05T12:39:16.000Z</time>
      </trkpt>
      <trkpt lat="48.29252" lon="2.59049">
        <ele>70.2</ele>
        <time>2022-06-05T12:39:21.000Z</time>
      </trkpt>
      <trkpt lat="48.29246" lon="2.59038">
        <ele>70.2</ele>
        <time>2022-06-05T12:39:30.000Z</time>
      </trkpt>
      <trkpt lat="48.29238" lon="2.59028">
        <ele>70.3</ele>
        <time>2022-06-05T12:39:40.000Z</time>
      </trkpt>
      <trkpt lat="48.29231" lon="2.5902">
        <ele>71.2</ele>
        <time>2022-06-05T12:39:51.000Z</time>
      </trkpt>
      <trkpt lat="48.29222" lon="2.59013">
        <ele>72.8</ele>
        <time>2022-06-05T12:40:00.000Z</time>
      </trkpt>
      <trkpt lat="48.29215" lon="2.59003">
        <ele>73.2</ele>
        <time>2022-06-05T12:40:10.000Z</time>
      </trkpt>
      <trkpt lat="48.29212" lon="2.58988">
        <ele>74.1</ele>
        <time>2022-06-05T12:40:18.000Z</time>
      </trkpt>
      <trkpt lat="48.29206" lon="2.58977">
        <ele>74.1</ele>
        <time>2022-06-05T12:40:24.000Z</time>
      </trkpt>
      <trkpt lat="48.29203" lon="2.58961">
        <ele>74.5</ele>
        <time>2022-06-05T12:40:32.000Z</time>
      </trkpt>
      <trkpt lat="48.29196" lon="2.58949">
        <ele>75.2</ele>
        <time>2022-06-05T12:40:39.000Z</time>
      </trkpt>
      <trkpt lat="48.2919" lon="2.58938">
        <ele>75</ele>
        <time>2022-06-05T12:40:49.000Z</time>
      </trkpt>
      <trkpt lat="48.29186" lon="2.58925">
        <ele>75.4</ele>
        <time>2022-06-05T12:41:03.000Z</time>
      </trkpt>
      <trkpt lat="48.29184" lon="2.58921">
        <ele>75.7</ele>
        <time>2022-06-05T12:41:10.000Z</time>
      </trkpt>
      <trkpt lat="48.29183" lon="2.58922">
        <ele>75.8</ele>
        <time>2022-06-05T12:41:11.000Z</time>
      </trkpt>
      <trkpt lat="48.2918" lon="2.58907">
        <ele>76.5</ele>
        <time>2022-06-05T12:41:21.000Z</time>
      </trkpt>
      <trkpt lat="48.29173" lon="2.58897">
        <ele>76.9</ele>
        <time>2022-06-05T12:41:30.000Z</time>
      </trkpt>
      <trkpt lat="48.29167" lon="2.58886">
        <ele>77.5</ele>
        <time>2022-06-05T12:41:40.000Z</time>
      </trkpt>
      <trkpt lat="48.29169" lon="2.58873">
        <ele>77.7</ele>
        <time>2022-06-05T12:41:47.000Z</time>
      </trkpt>
      <trkpt lat="48.29168" lon="2.58859">
        <ele>78</ele>
        <time>2022-06-05T12:42:00.000Z</time>
      </trkpt>
      <trkpt lat="48.29159" lon="2.58858">
        <ele>79.1</ele>
        <time>2022-06-05T12:42:14.000Z</time>
      </trkpt>
      <trkpt lat="48.29153" lon="2.58847">
        <ele>79.7</ele>
        <time>2022-06-05T12:42:26.000Z</time>
      </trkpt>
      <trkpt lat="48.29148" lon="2.58835">
        <ele>80.5</ele>
        <time>2022-06-05T12:42:34.000Z</time>
      </trkpt>
      <trkpt lat="48.29144" lon="2.58823">
        <ele>81.8</ele>
        <time>2022-06-05T12:42:46.000Z</time>
      </trkpt>
      <trkpt lat="48.29137" lon="2.58813">
        <ele>84.2</ele>
        <time>2022-06-05T12:42:57.000Z</time>
      </trkpt>
      <trkpt lat="48.29128" lon="2.58806">
        <ele>85.5</ele>
        <time>2022-06-05T12:43:06.000Z</time>
      </trkpt>
      <trkpt lat="48.29123" lon="2.58794">
        <ele>87.1</ele>
        <time>2022-06-05T12:43:21.000Z</time>
      </trkpt>
      <trkpt lat="48.29123" lon="2.5879">
        <ele>87.7</ele>
        <time>2022-06-05T12:43:30.000Z</time>
      </trkpt>
      <trkpt lat="48.29123" lon="2.5879">
        <ele>87.9</ele>
        <time>2022-06-05T12:43:34.000Z</time>
      </trkpt>
      <trkpt lat="48.29123" lon="2.58792">
        <ele>87.8</ele>
        <time>2022-06-05T12:43:39.000Z</time>
      </trkpt>
      <trkpt lat="48.29122" lon="2.58792">
        <ele>87.3</ele>
        <time>2022-06-05T12:43:45.000Z</time>
      </trkpt>
      <trkpt lat="48.29122" lon="2.58791">
        <ele>87.4</ele>
        <time>2022-06-05T12:43:48.000Z</time>
      </trkpt>
      <trkpt lat="48.29122" lon="2.58792">
        <ele>87.9</ele>
        <time>2022-06-05T12:44:19.000Z</time>
      </trkpt>
      <trkpt lat="48.29122" lon="2.58792">
        <ele>87.9</ele>
        <time>2022-06-05T12:44:20.000Z</time>
      </trkpt>
      <trkpt lat="48.29122" lon="2.58792">
        <ele>87.1</ele>
        <time>2022-06-05T12:44:21.000Z</time>
      </trkpt>
      <trkpt lat="48.29122" lon="2.58792">
        <ele>85.9</ele>
        <time>2022-06-05T12:44:22.000Z</time>
      </trkpt>
      <trkpt lat="48.29123" lon="2.58791">
        <ele>86.3</ele>
        <time>2022-06-05T12:44:24.000Z</time>
      </trkpt>
      <trkpt lat="48.29131" lon="2.58787">
        <ele>91.6</ele>
        <time>2022-06-05T12:44:42.000Z</time>
      </trkpt>
      <trkpt lat="48.2913" lon="2.58783">
        <ele>92.2</ele>
        <time>2022-06-05T12:44:53.000Z</time>
      </trkpt>
      <trkpt lat="48.2913" lon="2.58784">
        <ele>92.3</ele>
        <time>2022-06-05T12:44:54.000Z</time>
      </trkpt>
      <trkpt lat="48.29132" lon="2.5878">
        <ele>94</ele>
        <time>2022-06-05T12:45:12.000Z</time>
      </trkpt>
      <trkpt lat="48.29131" lon="2.5878">
        <ele>93.9</ele>
        <time>2022-06-05T12:45:13.000Z</time>
      </trkpt>
      <trkpt lat="48.2913" lon="2.58781">
        <ele>94.7</ele>
        <time>2022-06-05T12:45:21.000Z</time>
      </trkpt>
      <trkpt lat="48.2913" lon="2.58781">
        <ele>94.8</ele>
        <time>2022-06-05T12:45:22.000Z</time>
      </trkpt>
      <trkpt lat="48.2913" lon="2.58781">
        <ele>94.8</ele>
        <time>2022-06-05T12:45:24.000Z</time>
      </trkpt>
      <trkpt lat="48.29131" lon="2.58781">
        <ele>95.2</ele>
        <time>2022-06-05T12:45:27.000Z</time>
      </trkpt>
      <trkpt lat="48.29131" lon="2.58781">
        <ele>95.3</ele>
        <time>2022-06-05T12:45:30.000Z</time>
      </trkpt>
      <trkpt lat="48.29131" lon="2.58781">
        <ele>95.6</ele>
        <time>2022-06-05T12:45:36.000Z</time>
      </trkpt>
      <trkpt lat="48.29123" lon="2.58775">
        <ele>96</ele>
        <time>2022-06-05T12:45:48.000Z</time>
      </trkpt>
      <trkpt lat="48.29123" lon="2.58773">
        <ele>96.5</ele>
        <time>2022-06-05T12:45:51.000Z</time>
      </trkpt>
      <trkpt lat="48.29122" lon="2.58773">
        <ele>96.4</ele>
        <time>2022-06-05T12:45:53.000Z</time>
      </trkpt>
      <trkpt lat="48.29122" lon="2.58773">
        <ele>97</ele>
        <time>2022-06-05T12:45:56.000Z</time>
      </trkpt>
      <trkpt lat="48.29122" lon="2.58772">
        <ele>97.7</ele>
        <time>2022-06-05T12:45:58.000Z</time>
      </trkpt>
      <trkpt lat="48.29122" lon="2.58771">
        <ele>97.9</ele>
        <time>2022-06-05T12:46:03.000Z</time>
      </trkpt>
      <trkpt lat="48.29122" lon="2.58771">
        <ele>98.1</ele>
        <time>2022-06-05T12:46:04.000Z</time>
      </trkpt>
      <trkpt lat="48.29124" lon="2.58771">
        <ele>99</ele>
        <time>2022-06-05T12:46:12.000Z</time>
      </trkpt>
      <trkpt lat="48.29124" lon="2.58771">
        <ele>99.5</ele>
        <time>2022-06-05T12:46:14.000Z</time>
      </trkpt>
      <trkpt lat="48.29127" lon="2.58767">
        <ele>100.2</ele>
        <time>2022-06-05T12:46:23.000Z</time>
      </trkpt>
      <trkpt lat="48.29127" lon="2.58767">
        <ele>100.6</ele>
        <time>2022-06-05T12:46:27.000Z</time>
      </trkpt>
      <trkpt lat="48.29131" lon="2.58754">
        <ele>102.3</ele>
        <time>2022-06-05T12:46:47.000Z</time>
      </trkpt>
      <trkpt lat="48.29129" lon="2.5875">
        <ele>103.2</ele>
        <time>2022-06-05T12:46:54.000Z</time>
      </trkpt>
      <trkpt lat="48.29129" lon="2.5875">
        <ele>103.3</ele>
        <time>2022-06-05T12:46:56.000Z</time>
      </trkpt>
      <trkpt lat="48.29128" lon="2.58749">
        <ele>103.1</ele>
        <time>2022-06-05T12:47:02.000Z</time>
      </trkpt>
      <trkpt lat="48.29128" lon="2.58749">
        <ele>103</ele>
        <time>2022-06-05T12:47:05.000Z</time>
      </trkpt>
      <trkpt lat="48.29128" lon="2.58748">
        <ele>102.8</ele>
        <time>2022-06-05T12:47:07.000Z</time>
      </trkpt>
      <trkpt lat="48.29128" lon="2.58749">
        <ele>103.9</ele>
        <time>2022-06-05T12:47:28.000Z</time>
      </trkpt>
      <trkpt lat="48.29128" lon="2.58748">
        <ele>103.8</ele>
        <time>2022-06-05T12:47:29.000Z</time>
      </trkpt>
      <trkpt lat="48.29128" lon="2.58748">
        <ele>103.9</ele>
        <time>2022-06-05T12:47:30.000Z</time>
      </trkpt>
      <trkpt lat="48.29122" lon="2.58737">
        <ele>104.1</ele>
        <time>2022-06-05T12:47:40.000Z</time>
      </trkpt>
      <trkpt lat="48.29118" lon="2.58724">
        <ele>104.8</ele>
        <time>2022-06-05T12:47:50.000Z</time>
      </trkpt>
      <trkpt lat="48.29109" lon="2.58716">
        <ele>105.4</ele>
        <time>2022-06-05T12:48:04.000Z</time>
      </trkpt>
      <trkpt lat="48.291" lon="2.58715">
        <ele>106.1</ele>
        <time>2022-06-05T12:48:15.000Z</time>
      </trkpt>
      <trkpt lat="48.2909" lon="2.58715">
        <ele>106.2</ele>
        <time>2022-06-05T12:48:28.000Z</time>
      </trkpt>
      <trkpt lat="48.29082" lon="2.5872">
        <ele>106.1</ele>
        <time>2022-06-05T12:48:35.000Z</time>
      </trkpt>
      <trkpt lat="48.29073" lon="2.58727">
        <ele>105.7</ele>
        <time>2022-06-05T12:48:45.000Z</time>
      </trkpt>
      <trkpt lat="48.29064" lon="2.58732">
        <ele>105.8</ele>
        <time>2022-06-05T12:48:52.000Z</time>
      </trkpt>
      <trkpt lat="48.29054" lon="2.58735">
        <ele>105.7</ele>
        <time>2022-06-05T12:48:57.000Z</time>
      </trkpt>
      <trkpt lat="48.29045" lon="2.58737">
        <ele>105.1</ele>
        <time>2022-06-05T12:49:07.000Z</time>
      </trkpt>
      <trkpt lat="48.29036" lon="2.58737">
        <ele>104.5</ele>
        <time>2022-06-05T12:49:15.000Z</time>
      </trkpt>
      <trkpt lat="48.29026" lon="2.58731">
        <ele>105.2</ele>
        <time>2022-06-05T12:49:25.000Z</time>
      </trkpt>
      <trkpt lat="48.29017" lon="2.5873">
        <ele>106.1</ele>
        <time>2022-06-05T12:49:35.000Z</time>
      </trkpt>
      <trkpt lat="48.29013" lon="2.5873">
        <ele>106.6</ele>
        <time>2022-06-05T12:49:43.000Z</time>
      </trkpt>
      <trkpt lat="48.29014" lon="2.58729">
        <ele>107</ele>
        <time>2022-06-05T12:49:45.000Z</time>
      </trkpt>
      <trkpt lat="48.29014" lon="2.58729">
        <ele>107.1</ele>
        <time>2022-06-05T12:49:46.000Z</time>
      </trkpt>
      <trkpt lat="48.29014" lon="2.58729">
        <ele>107.6</ele>
        <time>2022-06-05T12:49:53.000Z</time>
      </trkpt>
      <trkpt lat="48.29014" lon="2.58729">
        <ele>107.7</ele>
        <time>2022-06-05T12:49:55.000Z</time>
      </trkpt>
      <trkpt lat="48.29014" lon="2.58729">
        <ele>107.6</ele>
        <time>2022-06-05T12:49:56.000Z</time>
      </trkpt>
      <trkpt lat="48.29014" lon="2.58729">
        <ele>107.5</ele>
        <time>2022-06-05T12:49:57.000Z</time>
      </trkpt>
      <trkpt lat="48.29014" lon="2.58728">
        <ele>107.8</ele>
        <time>2022-06-05T12:50:01.000Z</time>
      </trkpt>
      <trkpt lat="48.29007" lon="2.58735">
        <ele>107.5</ele>
        <time>2022-06-05T12:50:13.000Z</time>
      </trkpt>
      <trkpt lat="48.29001" lon="2.58747">
        <ele>107.4</ele>
        <time>2022-06-05T12:50:21.000Z</time>
      </trkpt>
      <trkpt lat="48.28998" lon="2.5876">
        <ele>107.4</ele>
        <time>2022-06-05T12:50:29.000Z</time>
      </trkpt>
      <trkpt lat="48.28994" lon="2.58774">
        <ele>107.7</ele>
        <time>2022-06-05T12:50:37.000Z</time>
      </trkpt>
      <trkpt lat="48.28989" lon="2.58786">
        <ele>108</ele>
        <time>2022-06-05T12:50:45.000Z</time>
      </trkpt>
      <trkpt lat="48.28984" lon="2.58798">
        <ele>108.1</ele>
        <time>2022-06-05T12:50:53.000Z</time>
      </trkpt>
      <trkpt lat="48.28979" lon="2.58811">
        <ele>108.2</ele>
        <time>2022-06-05T12:51:01.000Z</time>
      </trkpt>
      <trkpt lat="48.28975" lon="2.58825">
        <ele>108.4</ele>
        <time>2022-06-05T12:51:09.000Z</time>
      </trkpt>
      <trkpt lat="48.28968" lon="2.58836">
        <ele>108.6</ele>
        <time>2022-06-05T12:51:17.000Z</time>
      </trkpt>
      <trkpt lat="48.28965" lon="2.5884">
        <ele>108.4</ele>
        <time>2022-06-05T12:51:24.000Z</time>
      </trkpt>
      <trkpt lat="48.28965" lon="2.5884">
        <ele>108.4</ele>
        <time>2022-06-05T12:51:38.000Z</time>
      </trkpt>
      <trkpt lat="48.28965" lon="2.5884">
        <ele>108.5</ele>
        <time>2022-06-05T12:51:40.000Z</time>
      </trkpt>
      <trkpt lat="48.28965" lon="2.5884">
        <ele>108.4</ele>
        <time>2022-06-05T12:51:46.000Z</time>
      </trkpt>
      <trkpt lat="48.28965" lon="2.5884">
        <ele>108.5</ele>
        <time>2022-06-05T12:51:48.000Z</time>
      </trkpt>
      <trkpt lat="48.28965" lon="2.58841">
        <ele>108.5</ele>
        <time>2022-06-05T12:51:49.000Z</time>
      </trkpt>
      <trkpt lat="48.28963" lon="2.58841">
        <ele>108.1</ele>
        <time>2022-06-05T12:51:54.000Z</time>
      </trkpt>
      <trkpt lat="48.28962" lon="2.5884">
        <ele>107.6</ele>
        <time>2022-06-05T12:51:57.000Z</time>
      </trkpt>
      <trkpt lat="48.28962" lon="2.5884">
        <ele>107.4</ele>
        <time>2022-06-05T12:51:58.000Z</time>
      </trkpt>
      <trkpt lat="48.28962" lon="2.5884">
        <ele>108</ele>
        <time>2022-06-05T12:52:19.000Z</time>
      </trkpt>
      <trkpt lat="48.28962" lon="2.5884">
        <ele>107.9</ele>
        <time>2022-06-05T12:52:21.000Z</time>
      </trkpt>
      <trkpt lat="48.28962" lon="2.5884">
        <ele>107.9</ele>
        <time>2022-06-05T12:52:22.000Z</time>
      </trkpt>
      <trkpt lat="48.28962" lon="2.5884">
        <ele>108</ele>
        <time>2022-06-05T12:52:23.000Z</time>
      </trkpt>
      <trkpt lat="48.28962" lon="2.5884">
        <ele>108</ele>
        <time>2022-06-05T12:52:24.000Z</time>
      </trkpt>
      <trkpt lat="48.28963" lon="2.58841">
        <ele>107.8</ele>
        <time>2022-06-05T12:52:30.000Z</time>
      </trkpt>
      <trkpt lat="48.28963" lon="2.58841">
        <ele>107.6</ele>
        <time>2022-06-05T12:52:35.000Z</time>
      </trkpt>
      <trkpt lat="48.28963" lon="2.58841">
        <ele>107.6</ele>
        <time>2022-06-05T12:52:36.000Z</time>
      </trkpt>
      <trkpt lat="48.28963" lon="2.58841">
        <ele>107.8</ele>
        <time>2022-06-05T12:52:43.000Z</time>
      </trkpt>
      <trkpt lat="48.28961" lon="2.5884">
        <ele>107.8</ele>
        <time>2022-06-05T12:52:48.000Z</time>
      </trkpt>
      <trkpt lat="48.2896" lon="2.5884">
        <ele>107.5</ele>
        <time>2022-06-05T12:52:52.000Z</time>
      </trkpt>
      <trkpt lat="48.28958" lon="2.58837">
        <ele>107.2</ele>
        <time>2022-06-05T12:52:58.000Z</time>
      </trkpt>
      <trkpt lat="48.28958" lon="2.58837">
        <ele>107.7</ele>
        <time>2022-06-05T12:53:01.000Z</time>
      </trkpt>
      <trkpt lat="48.28956" lon="2.58838">
        <ele>107.3</ele>
        <time>2022-06-05T12:53:07.000Z</time>
      </trkpt>
      <trkpt lat="48.28956" lon="2.58837">
        <ele>107.2</ele>
        <time>2022-06-05T12:53:08.000Z</time>
      </trkpt>
      <trkpt lat="48.28956" lon="2.58837">
        <ele>107</ele>
        <time>2022-06-05T12:53:10.000Z</time>
      </trkpt>
      <trkpt lat="48.28956" lon="2.58837">
        <ele>107</ele>
        <time>2022-06-05T12:53:25.000Z</time>
      </trkpt>
      <trkpt lat="48.28955" lon="2.58837">
        <ele>106.7</ele>
        <time>2022-06-05T12:53:31.000Z</time>
      </trkpt>
      <trkpt lat="48.28955" lon="2.58837">
        <ele>106.7</ele>
        <time>2022-06-05T12:53:32.000Z</time>
      </trkpt>
      <trkpt lat="48.28955" lon="2.58837">
        <ele>106.7</ele>
        <time>2022-06-05T12:53:33.000Z</time>
      </trkpt>
      <trkpt lat="48.28955" lon="2.58837">
        <ele>105.5</ele>
        <time>2022-06-05T12:53:49.000Z</time>
      </trkpt>
      <trkpt lat="48.28955" lon="2.58837">
        <ele>105.4</ele>
        <time>2022-06-05T12:53:50.000Z</time>
      </trkpt>
      <trkpt lat="48.28955" lon="2.58836">
        <ele>105.3</ele>
        <time>2022-06-05T12:53:52.000Z</time>
      </trkpt>
      <trkpt lat="48.28955" lon="2.58836">
        <ele>105.4</ele>
        <time>2022-06-05T12:53:53.000Z</time>
      </trkpt>
      <trkpt lat="48.28955" lon="2.58836">
        <ele>105.5</ele>
        <time>2022-06-05T12:53:54.000Z</time>
      </trkpt>
      <trkpt lat="48.28946" lon="2.58832">
        <ele>105.5</ele>
        <time>2022-06-05T12:54:07.000Z</time>
      </trkpt>
      <trkpt lat="48.28937" lon="2.58828">
        <ele>105.5</ele>
        <time>2022-06-05T12:54:17.000Z</time>
      </trkpt>
      <trkpt lat="48.28928" lon="2.58823">
        <ele>105.8</ele>
        <time>2022-06-05T12:54:28.000Z</time>
      </trkpt>
      <trkpt lat="48.28919" lon="2.58816">
        <ele>106.3</ele>
        <time>2022-06-05T12:54:40.000Z</time>
      </trkpt>
      <trkpt lat="48.2891" lon="2.58809">
        <ele>106.3</ele>
        <time>2022-06-05T12:54:49.000Z</time>
      </trkpt>
      <trkpt lat="48.28901" lon="2.58806">
        <ele>106.8</ele>
        <time>2022-06-05T12:54:58.000Z</time>
      </trkpt>
      <trkpt lat="48.289" lon="2.5882">
        <ele>107.4</ele>
        <time>2022-06-05T12:55:10.000Z</time>
      </trkpt>
      <trkpt lat="48.28899" lon="2.58835">
        <ele>108.2</ele>
        <time>2022-06-05T12:55:19.000Z</time>
      </trkpt>
      <trkpt lat="48.28899" lon="2.58849">
        <ele>108.8</ele>
        <time>2022-06-05T12:55:28.000Z</time>
      </trkpt>
      <trkpt lat="48.289" lon="2.58864">
        <ele>109</ele>
        <time>2022-06-05T12:55:37.000Z</time>
      </trkpt>
      <trkpt lat="48.28903" lon="2.58878">
        <ele>109</ele>
        <time>2022-06-05T12:55:45.000Z</time>
      </trkpt>
      <trkpt lat="48.28905" lon="2.58892">
        <ele>108.6</ele>
        <time>2022-06-05T12:55:54.000Z</time>
      </trkpt>
      <trkpt lat="48.28904" lon="2.58899">
        <ele>108.8</ele>
        <time>2022-06-05T12:56:05.000Z</time>
      </trkpt>
      <trkpt lat="48.28904" lon="2.58899">
        <ele>108.8</ele>
        <time>2022-06-05T12:56:09.000Z</time>
      </trkpt>
      <trkpt lat="48.28903" lon="2.58899">
        <ele>109</ele>
        <time>2022-06-05T12:56:11.000Z</time>
      </trkpt>
      <trkpt lat="48.28903" lon="2.58899">
        <ele>108.9</ele>
        <time>2022-06-05T12:56:13.000Z</time>
      </trkpt>
      <trkpt lat="48.28903" lon="2.58914">
        <ele>109.2</ele>
        <time>2022-06-05T12:56:32.000Z</time>
      </trkpt>
      <trkpt lat="48.28904" lon="2.58928">
        <ele>108.6</ele>
        <time>2022-06-05T12:56:42.000Z</time>
      </trkpt>
      <trkpt lat="48.28908" lon="2.58941">
        <ele>108.4</ele>
        <time>2022-06-05T12:56:52.000Z</time>
      </trkpt>
      <trkpt lat="48.28911" lon="2.58954">
        <ele>108.2</ele>
        <time>2022-06-05T12:57:01.000Z</time>
      </trkpt>
      <trkpt lat="48.28915" lon="2.58967">
        <ele>107.7</ele>
        <time>2022-06-05T12:57:09.000Z</time>
      </trkpt>
      <trkpt lat="48.2892" lon="2.5898">
        <ele>107.1</ele>
        <time>2022-06-05T12:57:17.000Z</time>
      </trkpt>
      <trkpt lat="48.28924" lon="2.58993">
        <ele>107</ele>
        <time>2022-06-05T12:57:26.000Z</time>
      </trkpt>
      <trkpt lat="48.28928" lon="2.59006">
        <ele>106.9</ele>
        <time>2022-06-05T12:57:35.000Z</time>
      </trkpt>
      <trkpt lat="48.28936" lon="2.59015">
        <ele>106.8</ele>
        <time>2022-06-05T12:57:43.000Z</time>
      </trkpt>
      <trkpt lat="48.28944" lon="2.59022">
        <ele>106.7</ele>
        <time>2022-06-05T12:57:52.000Z</time>
      </trkpt>
      <trkpt lat="48.28953" lon="2.59027">
        <ele>106.6</ele>
        <time>2022-06-05T12:58:00.000Z</time>
      </trkpt>
      <trkpt lat="48.28961" lon="2.59034">
        <ele>106.4</ele>
        <time>2022-06-05T12:58:07.000Z</time>
      </trkpt>
      <trkpt lat="48.28969" lon="2.59042">
        <ele>105.6</ele>
        <time>2022-06-05T12:58:15.000Z</time>
      </trkpt>
      <trkpt lat="48.28974" lon="2.59053">
        <ele>105.4</ele>
        <time>2022-06-05T12:58:22.000Z</time>
      </trkpt>
      <trkpt lat="48.28976" lon="2.59067">
        <ele>105.2</ele>
        <time>2022-06-05T12:58:29.000Z</time>
      </trkpt>
      <trkpt lat="48.28975" lon="2.5908">
        <ele>105</ele>
        <time>2022-06-05T12:58:36.000Z</time>
      </trkpt>
      <trkpt lat="48.28972" lon="2.59094">
        <ele>105.1</ele>
        <time>2022-06-05T12:58:44.000Z</time>
      </trkpt>
      <trkpt lat="48.28969" lon="2.59101">
        <ele>105.1</ele>
        <time>2022-06-05T12:58:51.000Z</time>
      </trkpt>
      <trkpt lat="48.28969" lon="2.59103">
        <ele>105.4</ele>
        <time>2022-06-05T12:58:53.000Z</time>
      </trkpt>
      <trkpt lat="48.28962" lon="2.59114">
        <ele>105.3</ele>
        <time>2022-06-05T12:59:02.000Z</time>
      </trkpt>
      <trkpt lat="48.28958" lon="2.59126">
        <ele>105.5</ele>
        <time>2022-06-05T12:59:08.000Z</time>
      </trkpt>
      <trkpt lat="48.28956" lon="2.5914">
        <ele>105.5</ele>
        <time>2022-06-05T12:59:16.000Z</time>
      </trkpt>
      <trkpt lat="48.28958" lon="2.59154">
        <ele>104.9</ele>
        <time>2022-06-05T12:59:24.000Z</time>
      </trkpt>
      <trkpt lat="48.28955" lon="2.59167">
        <ele>104.5</ele>
        <time>2022-06-05T12:59:31.000Z</time>
      </trkpt>
      <trkpt lat="48.28953" lon="2.59181">
        <ele>104.2</ele>
        <time>2022-06-05T12:59:39.000Z</time>
      </trkpt>
      <trkpt lat="48.28949" lon="2.59195">
        <ele>103.8</ele>
        <time>2022-06-05T12:59:46.000Z</time>
      </trkpt>
      <trkpt lat="48.28945" lon="2.59208">
        <ele>103.4</ele>
        <time>2022-06-05T12:59:53.000Z</time>
      </trkpt>
      <trkpt lat="48.28938" lon="2.59217">
        <ele>103.3</ele>
        <time>2022-06-05T13:00:01.000Z</time>
      </trkpt>
      <trkpt lat="48.28932" lon="2.59229">
        <ele>103.7</ele>
        <time>2022-06-05T13:00:10.000Z</time>
      </trkpt>
      <trkpt lat="48.28924" lon="2.59239">
        <ele>103.8</ele>
        <time>2022-06-05T13:00:18.000Z</time>
      </trkpt>
      <trkpt lat="48.28918" lon="2.59249">
        <ele>103.8</ele>
        <time>2022-06-05T13:00:27.000Z</time>
      </trkpt>
      <trkpt lat="48.28915" lon="2.59264">
        <ele>103.2</ele>
        <time>2022-06-05T13:00:34.000Z</time>
      </trkpt>
      <trkpt lat="48.28914" lon="2.59278">
        <ele>102.7</ele>
        <time>2022-06-05T13:00:42.000Z</time>
      </trkpt>
      <trkpt lat="48.28911" lon="2.59291">
        <ele>102.1</ele>
        <time>2022-06-05T13:00:50.000Z</time>
      </trkpt>
      <trkpt lat="48.28908" lon="2.59305">
        <ele>101.5</ele>
        <time>2022-06-05T13:00:57.000Z</time>
      </trkpt>
      <trkpt lat="48.28904" lon="2.59317">
        <ele>100.9</ele>
        <time>2022-06-05T13:01:03.000Z</time>
      </trkpt>
      <trkpt lat="48.28895" lon="2.59326">
        <ele>99.3</ele>
        <time>2022-06-05T13:01:18.000Z</time>
      </trkpt>
      <trkpt lat="48.28891" lon="2.59326">
        <ele>99.1</ele>
        <time>2022-06-05T13:01:25.000Z</time>
      </trkpt>
      <trkpt lat="48.28891" lon="2.59325">
        <ele>99.3</ele>
        <time>2022-06-05T13:01:38.000Z</time>
      </trkpt>
      <trkpt lat="48.28891" lon="2.59324">
        <ele>99.6</ele>
        <time>2022-06-05T13:01:40.000Z</time>
      </trkpt>
      <trkpt lat="48.28891" lon="2.59324">
        <ele>99.4</ele>
        <time>2022-06-05T13:02:01.000Z</time>
      </trkpt>
      <trkpt lat="48.28891" lon="2.59324">
        <ele>99.5</ele>
        <time>2022-06-05T13:02:02.000Z</time>
      </trkpt>
      <trkpt lat="48.28891" lon="2.59323">
        <ele>99.1</ele>
        <time>2022-06-05T13:02:06.000Z</time>
      </trkpt>
      <trkpt lat="48.28891" lon="2.59322">
        <ele>99.1</ele>
        <time>2022-06-05T13:02:08.000Z</time>
      </trkpt>
      <trkpt lat="48.28891" lon="2.59322">
        <ele>99.3</ele>
        <time>2022-06-05T13:02:23.000Z</time>
      </trkpt>
      <trkpt lat="48.2889" lon="2.59322">
        <ele>99</ele>
        <time>2022-06-05T13:04:28.000Z</time>
      </trkpt>
      <trkpt lat="48.2889" lon="2.5932">
        <ele>99.1</ele>
        <time>2022-06-05T13:04:29.000Z</time>
      </trkpt>
      <trkpt lat="48.2889" lon="2.59319">
        <ele>98.8</ele>
        <time>2022-06-05T13:04:33.000Z</time>
      </trkpt>
      <trkpt lat="48.28891" lon="2.59318">
        <ele>98.8</ele>
        <time>2022-06-05T13:04:34.000Z</time>
      </trkpt>
      <trkpt lat="48.28891" lon="2.59316">
        <ele>99.1</ele>
        <time>2022-06-05T13:04:38.000Z</time>
      </trkpt>
      <trkpt lat="48.28891" lon="2.59316">
        <ele>99.1</ele>
        <time>2022-06-05T13:04:39.000Z</time>
      </trkpt>
      <trkpt lat="48.28891" lon="2.59316">
        <ele>99.1</ele>
        <time>2022-06-05T13:04:40.000Z</time>
      </trkpt>
      <trkpt lat="48.2889" lon="2.59316">
        <ele>99.5</ele>
        <time>2022-06-05T13:04:45.000Z</time>
      </trkpt>
      <trkpt lat="48.2889" lon="2.59316">
        <ele>99.2</ele>
        <time>2022-06-05T13:04:47.000Z</time>
      </trkpt>
      <trkpt lat="48.2889" lon="2.59315">
        <ele>99.3</ele>
        <time>2022-06-05T13:04:49.000Z</time>
      </trkpt>
      <trkpt lat="48.2889" lon="2.59315">
        <ele>99.4</ele>
        <time>2022-06-05T13:04:50.000Z</time>
      </trkpt>
      <trkpt lat="48.28889" lon="2.59313">
        <ele>100</ele>
        <time>2022-06-05T13:06:20.000Z</time>
      </trkpt>
      <trkpt lat="48.28889" lon="2.59313">
        <ele>100.1</ele>
        <time>2022-06-05T13:06:21.000Z</time>
      </trkpt>
      <trkpt lat="48.28889" lon="2.59313">
        <ele>100.1</ele>
        <time>2022-06-05T13:06:22.000Z</time>
      </trkpt>
      <trkpt lat="48.28889" lon="2.59312">
        <ele>100</ele>
        <time>2022-06-05T13:06:29.000Z</time>
      </trkpt>
      <trkpt lat="48.28889" lon="2.5931">
        <ele>100</ele>
        <time>2022-06-05T13:06:37.000Z</time>
      </trkpt>
      <trkpt lat="48.28889" lon="2.5931">
        <ele>100.2</ele>
        <time>2022-06-05T13:06:45.000Z</time>
      </trkpt>
      <trkpt lat="48.28894" lon="2.59306">
        <ele>100.5</ele>
        <time>2022-06-05T13:07:00.000Z</time>
      </trkpt>
      <trkpt lat="48.28894" lon="2.59306">
        <ele>100.3</ele>
        <time>2022-06-05T13:07:02.000Z</time>
      </trkpt>
      <trkpt lat="48.28895" lon="2.59292">
        <ele>101</ele>
        <time>2022-06-05T13:07:16.000Z</time>
      </trkpt>
      <trkpt lat="48.28899" lon="2.59279">
        <ele>102.5</ele>
        <time>2022-06-05T13:07:32.000Z</time>
      </trkpt>
      <trkpt lat="48.28903" lon="2.59266">
        <ele>103.5</ele>
        <time>2022-06-05T13:07:44.000Z</time>
      </trkpt>
      <trkpt lat="48.28904" lon="2.59252">
        <ele>103.7</ele>
        <time>2022-06-05T13:07:54.000Z</time>
      </trkpt>
      <trkpt lat="48.28908" lon="2.59239">
        <ele>104.9</ele>
        <time>2022-06-05T13:08:03.000Z</time>
      </trkpt>
      <trkpt lat="48.28911" lon="2.59236">
        <ele>105</ele>
        <time>2022-06-05T13:08:10.000Z</time>
      </trkpt>
      <trkpt lat="48.28912" lon="2.59237">
        <ele>106</ele>
        <time>2022-06-05T13:08:33.000Z</time>
      </trkpt>
      <trkpt lat="48.28918" lon="2.59226">
        <ele>106.5</ele>
        <time>2022-06-05T13:08:50.000Z</time>
      </trkpt>
      <trkpt lat="48.28919" lon="2.59223">
        <ele>106.4</ele>
        <time>2022-06-05T13:08:55.000Z</time>
      </trkpt>
      <trkpt lat="48.28919" lon="2.59223">
        <ele>106.6</ele>
        <time>2022-06-05T13:08:56.000Z</time>
      </trkpt>
      <trkpt lat="48.28922" lon="2.59216">
        <ele>106.8</ele>
        <time>2022-06-05T13:09:07.000Z</time>
      </trkpt>
      <trkpt lat="48.28923" lon="2.59216">
        <ele>106.8</ele>
        <time>2022-06-05T13:09:14.000Z</time>
      </trkpt>
      <trkpt lat="48.28923" lon="2.59216">
        <ele>107</ele>
        <time>2022-06-05T13:09:18.000Z</time>
      </trkpt>
      <trkpt lat="48.28923" lon="2.59215">
        <ele>107.1</ele>
        <time>2022-06-05T13:09:19.000Z</time>
      </trkpt>
      <trkpt lat="48.28923" lon="2.59215">
        <ele>107</ele>
        <time>2022-06-05T13:09:20.000Z</time>
      </trkpt>
      <trkpt lat="48.28923" lon="2.59215">
        <ele>107.1</ele>
        <time>2022-06-05T13:09:23.000Z</time>
      </trkpt>
      <trkpt lat="48.28923" lon="2.59214">
        <ele>107.2</ele>
        <time>2022-06-05T13:09:30.000Z</time>
      </trkpt>
      <trkpt lat="48.28923" lon="2.59215">
        <ele>107.2</ele>
        <time>2022-06-05T13:09:34.000Z</time>
      </trkpt>
      <trkpt lat="48.28923" lon="2.59214">
        <ele>107.5</ele>
        <time>2022-06-05T13:09:37.000Z</time>
      </trkpt>
      <trkpt lat="48.28923" lon="2.59214">
        <ele>107.4</ele>
        <time>2022-06-05T13:09:39.000Z</time>
      </trkpt>
      <trkpt lat="48.28923" lon="2.59214">
        <ele>107.3</ele>
        <time>2022-06-05T13:09:44.000Z</time>
      </trkpt>
      <trkpt lat="48.28924" lon="2.59215">
        <ele>107.4</ele>
        <time>2022-06-05T13:09:50.000Z</time>
      </trkpt>
      <trkpt lat="48.28924" lon="2.59215">
        <ele>107.5</ele>
        <time>2022-06-05T13:09:51.000Z</time>
      </trkpt>
      <trkpt lat="48.28924" lon="2.59215">
        <ele>107.6</ele>
        <time>2022-06-05T13:09:53.000Z</time>
      </trkpt>
      <trkpt lat="48.28924" lon="2.59215">
        <ele>107.4</ele>
        <time>2022-06-05T13:09:56.000Z</time>
      </trkpt>
      <trkpt lat="48.28924" lon="2.59216">
        <ele>107.3</ele>
        <time>2022-06-05T13:10:06.000Z</time>
      </trkpt>
      <trkpt lat="48.28923" lon="2.59216">
        <ele>107.4</ele>
        <time>2022-06-05T13:10:08.000Z</time>
      </trkpt>
      <trkpt lat="48.28923" lon="2.59216">
        <ele>107.7</ele>
        <time>2022-06-05T13:10:12.000Z</time>
      </trkpt>
      <trkpt lat="48.28923" lon="2.59216">
        <ele>107.7</ele>
        <time>2022-06-05T13:10:13.000Z</time>
      </trkpt>
      <trkpt lat="48.28923" lon="2.59216">
        <ele>107.6</ele>
        <time>2022-06-05T13:10:14.000Z</time>
      </trkpt>
      <trkpt lat="48.28923" lon="2.59216">
        <ele>107.6</ele>
        <time>2022-06-05T13:10:16.000Z</time>
      </trkpt>
      <trkpt lat="48.28922" lon="2.59216">
        <ele>107.5</ele>
        <time>2022-06-05T13:10:39.000Z</time>
      </trkpt>
      <trkpt lat="48.28923" lon="2.59216">
        <ele>107.4</ele>
        <time>2022-06-05T13:10:41.000Z</time>
      </trkpt>
      <trkpt lat="48.28923" lon="2.59215">
        <ele>107.6</ele>
        <time>2022-06-05T13:10:46.000Z</time>
      </trkpt>
      <trkpt lat="48.28923" lon="2.59215">
        <ele>107.4</ele>
        <time>2022-06-05T13:10:49.000Z</time>
      </trkpt>
      <trkpt lat="48.28923" lon="2.59215">
        <ele>107.4</ele>
        <time>2022-06-05T13:10:53.000Z</time>
      </trkpt>
      <trkpt lat="48.28931" lon="2.59205">
        <ele>106.8</ele>
        <time>2022-06-05T13:11:09.000Z</time>
      </trkpt>
      <trkpt lat="48.28936" lon="2.59193">
        <ele>106.2</ele>
        <time>2022-06-05T13:11:15.000Z</time>
      </trkpt>
      <trkpt lat="48.28939" lon="2.5918">
        <ele>105.9</ele>
        <time>2022-06-05T13:11:23.000Z</time>
      </trkpt>
      <trkpt lat="48.28942" lon="2.59166">
        <ele>105.8</ele>
        <time>2022-06-05T13:11:33.000Z</time>
      </trkpt>
      <trkpt lat="48.28943" lon="2.59152">
        <ele>106.1</ele>
        <time>2022-06-05T13:11:44.000Z</time>
      </trkpt>
      <trkpt lat="48.28943" lon="2.59138">
        <ele>107.1</ele>
        <time>2022-06-05T13:12:02.000Z</time>
      </trkpt>
      <trkpt lat="48.28946" lon="2.59123">
        <ele>108</ele>
        <time>2022-06-05T13:12:11.000Z</time>
      </trkpt>
      <trkpt lat="48.28948" lon="2.5911">
        <ele>108.4</ele>
        <time>2022-06-05T13:12:19.000Z</time>
      </trkpt>
      <trkpt lat="48.28956" lon="2.59101">
        <ele>108.9</ele>
        <time>2022-06-05T13:12:25.000Z</time>
      </trkpt>
      <trkpt lat="48.28964" lon="2.59092">
        <ele>109.1</ele>
        <time>2022-06-05T13:12:33.000Z</time>
      </trkpt>
      <trkpt lat="48.28967" lon="2.59078">
        <ele>109</ele>
        <time>2022-06-05T13:12:42.000Z</time>
      </trkpt>
      <trkpt lat="48.28968" lon="2.59064">
        <ele>108.3</ele>
        <time>2022-06-05T13:12:51.000Z</time>
      </trkpt>
      <trkpt lat="48.28966" lon="2.59051">
        <ele>108.4</ele>
        <time>2022-06-05T13:12:59.000Z</time>
      </trkpt>
      <trkpt lat="48.2896" lon="2.5904">
        <ele>108.5</ele>
        <time>2022-06-05T13:13:08.000Z</time>
      </trkpt>
      <trkpt lat="48.28952" lon="2.59031">
        <ele>109.6</ele>
        <time>2022-06-05T13:13:19.000Z</time>
      </trkpt>
      <trkpt lat="48.28944" lon="2.59025">
        <ele>110.9</ele>
        <time>2022-06-05T13:13:27.000Z</time>
      </trkpt>
      <trkpt lat="48.28935" lon="2.5902">
        <ele>111</ele>
        <time>2022-06-05T13:13:35.000Z</time>
      </trkpt>
      <trkpt lat="48.28927" lon="2.59012">
        <ele>111.7</ele>
        <time>2022-06-05T13:13:43.000Z</time>
      </trkpt>
      <trkpt lat="48.28921" lon="2.59001">
        <ele>112.7</ele>
        <time>2022-06-05T13:13:51.000Z</time>
      </trkpt>
      <trkpt lat="48.28916" lon="2.58988">
        <ele>113.2</ele>
        <time>2022-06-05T13:13:59.000Z</time>
      </trkpt>
      <trkpt lat="48.2891" lon="2.58975">
        <ele>113.2</ele>
        <time>2022-06-05T13:14:07.000Z</time>
      </trkpt>
      <trkpt lat="48.28906" lon="2.58961">
        <ele>113.9</ele>
        <time>2022-06-05T13:14:15.000Z</time>
      </trkpt>
      <trkpt lat="48.28902" lon="2.58947">
        <ele>114.3</ele>
        <time>2022-06-05T13:14:22.000Z</time>
      </trkpt>
      <trkpt lat="48.28899" lon="2.58934">
        <ele>114.8</ele>
        <time>2022-06-05T13:14:29.000Z</time>
      </trkpt>
      <trkpt lat="48.28899" lon="2.58921">
        <ele>115.2</ele>
        <time>2022-06-05T13:14:37.000Z</time>
      </trkpt>
      <trkpt lat="48.28901" lon="2.58907">
        <ele>116.1</ele>
        <time>2022-06-05T13:14:45.000Z</time>
      </trkpt>
      <trkpt lat="48.28896" lon="2.58894">
        <ele>116.7</ele>
        <time>2022-06-05T13:14:53.000Z</time>
      </trkpt>
      <trkpt lat="48.28887" lon="2.58893">
        <ele>116.7</ele>
        <time>2022-06-05T13:15:02.000Z</time>
      </trkpt>
      <trkpt lat="48.28878" lon="2.58891">
        <ele>116.1</ele>
        <time>2022-06-05T13:15:10.000Z</time>
      </trkpt>
      <trkpt lat="48.28869" lon="2.58891">
        <ele>115.2</ele>
        <time>2022-06-05T13:15:19.000Z</time>
      </trkpt>
      <trkpt lat="48.28859" lon="2.58894">
        <ele>113.7</ele>
        <time>2022-06-05T13:15:29.000Z</time>
      </trkpt>
      <trkpt lat="48.2885" lon="2.58896">
        <ele>111.7</ele>
        <time>2022-06-05T13:15:39.000Z</time>
      </trkpt>
      <trkpt lat="48.2884" lon="2.58895">
        <ele>110.6</ele>
        <time>2022-06-05T13:15:47.000Z</time>
      </trkpt>
      <trkpt lat="48.2883" lon="2.58892">
        <ele>109.2</ele>
        <time>2022-06-05T13:15:55.000Z</time>
      </trkpt>
      <trkpt lat="48.2882" lon="2.58892">
        <ele>108.2</ele>
        <time>2022-06-05T13:16:03.000Z</time>
      </trkpt>
      <trkpt lat="48.28815" lon="2.58897">
        <ele>106.5</ele>
        <time>2022-06-05T13:16:13.000Z</time>
      </trkpt>
      <trkpt lat="48.28815" lon="2.58898">
        <ele>106.4</ele>
        <time>2022-06-05T13:16:14.000Z</time>
      </trkpt>
      <trkpt lat="48.28807" lon="2.58906">
        <ele>104.7</ele>
        <time>2022-06-05T13:16:25.000Z</time>
      </trkpt>
      <trkpt lat="48.28799" lon="2.58913">
        <ele>103.8</ele>
        <time>2022-06-05T13:16:33.000Z</time>
      </trkpt>
      <trkpt lat="48.28791" lon="2.58922">
        <ele>102.5</ele>
        <time>2022-06-05T13:16:42.000Z</time>
      </trkpt>
      <trkpt lat="48.28784" lon="2.58931">
        <ele>101.3</ele>
        <time>2022-06-05T13:16:50.000Z</time>
      </trkpt>
      <trkpt lat="48.28777" lon="2.58938">
        <ele>100.4</ele>
        <time>2022-06-05T13:16:57.000Z</time>
      </trkpt>
      <trkpt lat="48.28769" lon="2.58949">
        <ele>99.7</ele>
        <time>2022-06-05T13:17:05.000Z</time>
      </trkpt>
      <trkpt lat="48.28761" lon="2.58958">
        <ele>99.3</ele>
        <time>2022-06-05T13:17:11.000Z</time>
      </trkpt>
      <trkpt lat="48.28753" lon="2.58966">
        <ele>99</ele>
        <time>2022-06-05T13:17:19.000Z</time>
      </trkpt>
      <trkpt lat="48.28744" lon="2.58974">
        <ele>98.6</ele>
        <time>2022-06-05T13:17:28.000Z</time>
      </trkpt>
      <trkpt lat="48.28735" lon="2.58981">
        <ele>98.2</ele>
        <time>2022-06-05T13:17:35.000Z</time>
      </trkpt>
      <trkpt lat="48.2873" lon="2.58986">
        <ele>97.8</ele>
        <time>2022-06-05T13:17:45.000Z</time>
      </trkpt>
      <trkpt lat="48.28729" lon="2.58987">
        <ele>97.8</ele>
        <time>2022-06-05T13:17:46.000Z</time>
      </trkpt>
      <trkpt lat="48.28721" lon="2.58994">
        <ele>97.1</ele>
        <time>2022-06-05T13:17:54.000Z</time>
      </trkpt>
      <trkpt lat="48.28723" lon="2.5899">
        <ele>95.8</ele>
        <time>2022-06-05T13:18:15.000Z</time>
      </trkpt>
      <trkpt lat="48.28723" lon="2.5899">
        <ele>95</ele>
        <time>2022-06-05T13:18:31.000Z</time>
      </trkpt>
      <trkpt lat="48.28717" lon="2.58994">
        <ele>92.5</ele>
        <time>2022-06-05T13:18:52.000Z</time>
      </trkpt>
      <trkpt lat="48.28717" lon="2.58995">
        <ele>92.1</ele>
        <time>2022-06-05T13:19:23.000Z</time>
      </trkpt>
      <trkpt lat="48.28717" lon="2.58995">
        <ele>92</ele>
        <time>2022-06-05T13:19:24.000Z</time>
      </trkpt>
      <trkpt lat="48.28717" lon="2.58995">
        <ele>91.9</ele>
        <time>2022-06-05T13:19:32.000Z</time>
      </trkpt>
      <trkpt lat="48.28717" lon="2.58995">
        <ele>92</ele>
        <time>2022-06-05T13:19:33.000Z</time>
      </trkpt>
      <trkpt lat="48.28717" lon="2.58995">
        <ele>92</ele>
        <time>2022-06-05T13:19:36.000Z</time>
      </trkpt>
      <trkpt lat="48.28717" lon="2.58995">
        <ele>91.7</ele>
        <time>2022-06-05T13:19:37.000Z</time>
      </trkpt>
      <trkpt lat="48.28717" lon="2.58995">
        <ele>91.5</ele>
        <time>2022-06-05T13:19:41.000Z</time>
      </trkpt>
      <trkpt lat="48.28718" lon="2.58994">
        <ele>91.6</ele>
        <time>2022-06-05T13:19:46.000Z</time>
      </trkpt>
      <trkpt lat="48.28718" lon="2.58994">
        <ele>91.9</ele>
        <time>2022-06-05T13:19:47.000Z</time>
      </trkpt>
      <trkpt lat="48.28716" lon="2.59008">
        <ele>92.9</ele>
        <time>2022-06-05T13:19:55.000Z</time>
      </trkpt>
      <trkpt lat="48.28712" lon="2.5902">
        <ele>92.8</ele>
        <time>2022-06-05T13:20:00.000Z</time>
      </trkpt>
      <trkpt lat="48.28707" lon="2.59033">
        <ele>92</ele>
        <time>2022-06-05T13:20:08.000Z</time>
      </trkpt>
      <trkpt lat="48.28702" lon="2.59046">
        <ele>91.3</ele>
        <time>2022-06-05T13:20:16.000Z</time>
      </trkpt>
      <trkpt lat="48.28699" lon="2.5906">
        <ele>90.8</ele>
        <time>2022-06-05T13:20:23.000Z</time>
      </trkpt>
      <trkpt lat="48.28699" lon="2.5906">
        <ele>90.4</ele>
        <time>2022-06-05T13:20:26.000Z</time>
      </trkpt>
      <trkpt lat="48.28698" lon="2.59061">
        <ele>90.3</ele>
        <time>2022-06-05T13:20:27.000Z</time>
      </trkpt>
      <trkpt lat="48.28694" lon="2.59073">
        <ele>89.4</ele>
        <time>2022-06-05T13:20:33.000Z</time>
      </trkpt>
      <trkpt lat="48.28694" lon="2.59072">
        <ele>89.1</ele>
        <time>2022-06-05T13:20:35.000Z</time>
      </trkpt>
      <trkpt lat="48.28694" lon="2.59073">
        <ele>89</ele>
        <time>2022-06-05T13:20:36.000Z</time>
      </trkpt>
      <trkpt lat="48.2869" lon="2.59087">
        <ele>88.2</ele>
        <time>2022-06-05T13:20:42.000Z</time>
      </trkpt>
      <trkpt lat="48.28685" lon="2.59101">
        <ele>87.1</ele>
        <time>2022-06-05T13:20:48.000Z</time>
      </trkpt>
      <trkpt lat="48.28682" lon="2.59114">
        <ele>85.9</ele>
        <time>2022-06-05T13:20:54.000Z</time>
      </trkpt>
      <trkpt lat="48.28677" lon="2.59126">
        <ele>84.7</ele>
        <time>2022-06-05T13:21:00.000Z</time>
      </trkpt>
      <trkpt lat="48.28673" lon="2.59139">
        <ele>83.8</ele>
        <time>2022-06-05T13:21:07.000Z</time>
      </trkpt>
      <trkpt lat="48.2867" lon="2.59146">
        <ele>83.1</ele>
        <time>2022-06-05T13:21:13.000Z</time>
      </trkpt>
      <trkpt lat="48.28669" lon="2.59146">
        <ele>83.1</ele>
        <time>2022-06-05T13:21:14.000Z</time>
      </trkpt>
      <trkpt lat="48.28665" lon="2.59159">
        <ele>82.6</ele>
        <time>2022-06-05T13:21:20.000Z</time>
      </trkpt>
      <trkpt lat="48.28659" lon="2.59171">
        <ele>81.8</ele>
        <time>2022-06-05T13:21:26.000Z</time>
      </trkpt>
      <trkpt lat="48.28654" lon="2.59182">
        <ele>81.5</ele>
        <time>2022-06-05T13:21:32.000Z</time>
      </trkpt>
      <trkpt lat="48.28649" lon="2.59195">
        <ele>81.1</ele>
        <time>2022-06-05T13:21:38.000Z</time>
      </trkpt>
      <trkpt lat="48.28644" lon="2.59207">
        <ele>80.6</ele>
        <time>2022-06-05T13:21:44.000Z</time>
      </trkpt>
      <trkpt lat="48.28638" lon="2.5922">
        <ele>80.3</ele>
        <time>2022-06-05T13:21:51.000Z</time>
      </trkpt>
      <trkpt lat="48.28633" lon="2.59232">
        <ele>79.6</ele>
        <time>2022-06-05T13:22:02.000Z</time>
      </trkpt>
      <trkpt lat="48.28628" lon="2.59244">
        <ele>79.5</ele>
        <time>2022-06-05T13:22:08.000Z</time>
      </trkpt>
      <trkpt lat="48.28623" lon="2.59258">
        <ele>79.4</ele>
        <time>2022-06-05T13:22:15.000Z</time>
      </trkpt>
      <trkpt lat="48.28619" lon="2.5927">
        <ele>79.1</ele>
        <time>2022-06-05T13:22:21.000Z</time>
      </trkpt>
      <trkpt lat="48.28617" lon="2.59275">
        <ele>78.5</ele>
        <time>2022-06-05T13:22:28.000Z</time>
      </trkpt>
      <trkpt lat="48.28617" lon="2.59275">
        <ele>78.4</ele>
        <time>2022-06-05T13:22:30.000Z</time>
      </trkpt>
      <trkpt lat="48.28614" lon="2.59288">
        <ele>78.5</ele>
        <time>2022-06-05T13:22:37.000Z</time>
      </trkpt>
      <trkpt lat="48.28609" lon="2.59301">
        <ele>78</ele>
        <time>2022-06-05T13:22:44.000Z</time>
      </trkpt>
      <trkpt lat="48.28603" lon="2.59312">
        <ele>77.8</ele>
        <time>2022-06-05T13:22:53.000Z</time>
      </trkpt>
      <trkpt lat="48.28599" lon="2.59326">
        <ele>77.6</ele>
        <time>2022-06-05T13:23:01.000Z</time>
      </trkpt>
      <trkpt lat="48.28593" lon="2.59338">
        <ele>76.8</ele>
        <time>2022-06-05T13:23:09.000Z</time>
      </trkpt>
      <trkpt lat="48.28587" lon="2.5935">
        <ele>76.1</ele>
        <time>2022-06-05T13:23:17.000Z</time>
      </trkpt>
      <trkpt lat="48.28581" lon="2.59362">
        <ele>75.8</ele>
        <time>2022-06-05T13:23:25.000Z</time>
      </trkpt>
      <trkpt lat="48.28574" lon="2.59372">
        <ele>75.6</ele>
        <time>2022-06-05T13:23:33.000Z</time>
      </trkpt>
      <trkpt lat="48.28567" lon="2.59382">
        <ele>75.1</ele>
        <time>2022-06-05T13:23:42.000Z</time>
      </trkpt>
      <trkpt lat="48.2856" lon="2.59393">
        <ele>74.9</ele>
        <time>2022-06-05T13:23:51.000Z</time>
      </trkpt>
      <trkpt lat="48.28553" lon="2.59403">
        <ele>75</ele>
        <time>2022-06-05T13:23:59.000Z</time>
      </trkpt>
      <trkpt lat="48.28548" lon="2.59416">
        <ele>74.8</ele>
        <time>2022-06-05T13:24:07.000Z</time>
      </trkpt>
      <trkpt lat="48.28542" lon="2.59427">
        <ele>75</ele>
        <time>2022-06-05T13:24:15.000Z</time>
      </trkpt>
      <trkpt lat="48.28538" lon="2.5944">
        <ele>74.7</ele>
        <time>2022-06-05T13:24:23.000Z</time>
      </trkpt>
      <trkpt lat="48.28534" lon="2.59454">
        <ele>74.8</ele>
        <time>2022-06-05T13:24:31.000Z</time>
      </trkpt>
      <trkpt lat="48.28529" lon="2.59466">
        <ele>75.1</ele>
        <time>2022-06-05T13:24:38.000Z</time>
      </trkpt>
      <trkpt lat="48.28523" lon="2.59478">
        <ele>75</ele>
        <time>2022-06-05T13:24:46.000Z</time>
      </trkpt>
      <trkpt lat="48.28518" lon="2.5949">
        <ele>75</ele>
        <time>2022-06-05T13:24:53.000Z</time>
      </trkpt>
      <trkpt lat="48.28513" lon="2.59501">
        <ele>75</ele>
        <time>2022-06-05T13:25:00.000Z</time>
      </trkpt>
      <trkpt lat="48.28507" lon="2.59514">
        <ele>75</ele>
        <time>2022-06-05T13:25:08.000Z</time>
      </trkpt>
      <trkpt lat="48.28502" lon="2.59526">
        <ele>75.6</ele>
        <time>2022-06-05T13:25:16.000Z</time>
      </trkpt>
      <trkpt lat="48.28498" lon="2.59538">
        <ele>75.4</ele>
        <time>2022-06-05T13:25:25.000Z</time>
      </trkpt>
      <trkpt lat="48.28494" lon="2.59551">
        <ele>74.8</ele>
        <time>2022-06-05T13:25:33.000Z</time>
      </trkpt>
      <trkpt lat="48.28488" lon="2.59562">
        <ele>75.4</ele>
        <time>2022-06-05T13:25:41.000Z</time>
      </trkpt>
      <trkpt lat="48.28485" lon="2.59569">
        <ele>75.6</ele>
        <time>2022-06-05T13:25:49.000Z</time>
      </trkpt>
      <trkpt lat="48.28485" lon="2.59569">
        <ele>76.2</ele>
        <time>2022-06-05T13:26:00.000Z</time>
      </trkpt>
      <trkpt lat="48.28486" lon="2.5957">
        <ele>76.5</ele>
        <time>2022-06-05T13:26:03.000Z</time>
      </trkpt>
      <trkpt lat="48.28486" lon="2.5957">
        <ele>76.6</ele>
        <time>2022-06-05T13:26:54.000Z</time>
      </trkpt>
      <trkpt lat="48.28486" lon="2.59572">
        <ele>76.7</ele>
        <time>2022-06-05T13:26:58.000Z</time>
      </trkpt>
      <trkpt lat="48.28486" lon="2.59572">
        <ele>76.6</ele>
        <time>2022-06-05T13:27:11.000Z</time>
      </trkpt>
      <trkpt lat="48.28486" lon="2.59572">
        <ele>76.8</ele>
        <time>2022-06-05T13:27:12.000Z</time>
      </trkpt>
      <trkpt lat="48.28487" lon="2.59572">
        <ele>77.3</ele>
        <time>2022-06-05T13:27:24.000Z</time>
      </trkpt>
      <trkpt lat="48.28488" lon="2.59586">
        <ele>77.8</ele>
        <time>2022-06-05T13:27:34.000Z</time>
      </trkpt>
      <trkpt lat="48.2849" lon="2.596">
        <ele>77.4</ele>
        <time>2022-06-05T13:27:42.000Z</time>
      </trkpt>
      <trkpt lat="48.28489" lon="2.59613">
        <ele>77.3</ele>
        <time>2022-06-05T13:27:51.000Z</time>
      </trkpt>
      <trkpt lat="48.28489" lon="2.59614">
        <ele>77.1</ele>
        <time>2022-06-05T13:27:54.000Z</time>
      </trkpt>
      <trkpt lat="48.28489" lon="2.59614">
        <ele>77.1</ele>
        <time>2022-06-05T13:28:01.000Z</time>
      </trkpt>
      <trkpt lat="48.28489" lon="2.59615">
        <ele>77.4</ele>
        <time>2022-06-05T13:28:03.000Z</time>
      </trkpt>
      <trkpt lat="48.28489" lon="2.59616">
        <ele>76.9</ele>
        <time>2022-06-05T13:28:11.000Z</time>
      </trkpt>
      <trkpt lat="48.28487" lon="2.59621">
        <ele>76.7</ele>
        <time>2022-06-05T13:28:18.000Z</time>
      </trkpt>
      <trkpt lat="48.28487" lon="2.59621">
        <ele>76.7</ele>
        <time>2022-06-05T13:28:26.000Z</time>
      </trkpt>
      <trkpt lat="48.28485" lon="2.59623">
        <ele>76.3</ele>
        <time>2022-06-05T13:28:32.000Z</time>
      </trkpt>
      <trkpt lat="48.28485" lon="2.59623">
        <ele>75.9</ele>
        <time>2022-06-05T13:28:56.000Z</time>
      </trkpt>
      <trkpt lat="48.28475" lon="2.59625">
        <ele>75.7</ele>
        <time>2022-06-05T13:29:05.000Z</time>
      </trkpt>
      <trkpt lat="48.28465" lon="2.59625">
        <ele>76.1</ele>
        <time>2022-06-05T13:29:12.000Z</time>
      </trkpt>
      <trkpt lat="48.28455" lon="2.59627">
        <ele>76.4</ele>
        <time>2022-06-05T13:29:23.000Z</time>
      </trkpt>
      <trkpt lat="48.28445" lon="2.59627">
        <ele>77</ele>
        <time>2022-06-05T13:29:35.000Z</time>
      </trkpt>
      <trkpt lat="48.28436" lon="2.59625">
        <ele>77.2</ele>
        <time>2022-06-05T13:29:40.000Z</time>
      </trkpt>
      <trkpt lat="48.28427" lon="2.59624">
        <ele>78.3</ele>
        <time>2022-06-05T13:29:53.000Z</time>
      </trkpt>
      <trkpt lat="48.28427" lon="2.59624">
        <ele>78.1</ele>
        <time>2022-06-05T13:29:55.000Z</time>
      </trkpt>
      <trkpt lat="48.28423" lon="2.5962">
        <ele>78.4</ele>
        <time>2022-06-05T13:30:04.000Z</time>
      </trkpt>
      <trkpt lat="48.28423" lon="2.59621">
        <ele>78.4</ele>
        <time>2022-06-05T13:30:05.000Z</time>
      </trkpt>
      <trkpt lat="48.28417" lon="2.59613">
        <ele>80.1</ele>
        <time>2022-06-05T13:30:22.000Z</time>
      </trkpt>
      <trkpt lat="48.28417" lon="2.59613">
        <ele>80.2</ele>
        <time>2022-06-05T13:30:23.000Z</time>
      </trkpt>
      <trkpt lat="48.28416" lon="2.59613">
        <ele>80.7</ele>
        <time>2022-06-05T13:30:26.000Z</time>
      </trkpt>
      <trkpt lat="48.28416" lon="2.59613">
        <ele>80.9</ele>
        <time>2022-06-05T13:30:27.000Z</time>
      </trkpt>
      <trkpt lat="48.28418" lon="2.59618">
        <ele>82.3</ele>
        <time>2022-06-05T13:30:41.000Z</time>
      </trkpt>
      <trkpt lat="48.28418" lon="2.59618">
        <ele>83</ele>
        <time>2022-06-05T13:30:48.000Z</time>
      </trkpt>
      <trkpt lat="48.28418" lon="2.59618">
        <ele>83.1</ele>
        <time>2022-06-05T13:30:49.000Z</time>
      </trkpt>
      <trkpt lat="48.28418" lon="2.59618">
        <ele>83.3</ele>
        <time>2022-06-05T13:30:58.000Z</time>
      </trkpt>
      <trkpt lat="48.28418" lon="2.59618">
        <ele>83.8</ele>
        <time>2022-06-05T13:31:01.000Z</time>
      </trkpt>
      <trkpt lat="48.28419" lon="2.59618">
        <ele>83.9</ele>
        <time>2022-06-05T13:31:03.000Z</time>
      </trkpt>
      <trkpt lat="48.28419" lon="2.59618">
        <ele>83.5</ele>
        <time>2022-06-05T13:31:05.000Z</time>
      </trkpt>
      <trkpt lat="48.28419" lon="2.59617">
        <ele>83.5</ele>
        <time>2022-06-05T13:31:06.000Z</time>
      </trkpt>
      <trkpt lat="48.2841" lon="2.59615">
        <ele>83.3</ele>
        <time>2022-06-05T13:31:16.000Z</time>
      </trkpt>
      <trkpt lat="48.28407" lon="2.59615">
        <ele>83.9</ele>
        <time>2022-06-05T13:31:28.000Z</time>
      </trkpt>
      <trkpt lat="48.28408" lon="2.59614">
        <ele>84</ele>
        <time>2022-06-05T13:31:29.000Z</time>
      </trkpt>
      <trkpt lat="48.28408" lon="2.59614">
        <ele>84.1</ele>
        <time>2022-06-05T13:31:30.000Z</time>
      </trkpt>
      <trkpt lat="48.28408" lon="2.59614">
        <ele>84.3</ele>
        <time>2022-06-05T13:31:33.000Z</time>
      </trkpt>
      <trkpt lat="48.28408" lon="2.59616">
        <ele>84.4</ele>
        <time>2022-06-05T13:31:39.000Z</time>
      </trkpt>
      <trkpt lat="48.28409" lon="2.59615">
        <ele>84.5</ele>
        <time>2022-06-05T13:31:41.000Z</time>
      </trkpt>
      <trkpt lat="48.28409" lon="2.59615">
        <ele>84.6</ele>
        <time>2022-06-05T13:31:42.000Z</time>
      </trkpt>
      <trkpt lat="48.28408" lon="2.59615">
        <ele>84.7</ele>
        <time>2022-06-05T13:31:44.000Z</time>
      </trkpt>
      <trkpt lat="48.284" lon="2.5961">
        <ele>85.5</ele>
        <time>2022-06-05T13:31:56.000Z</time>
      </trkpt>
      <trkpt lat="48.28398" lon="2.59613">
        <ele>85.3</ele>
        <time>2022-06-05T13:32:07.000Z</time>
      </trkpt>
      <trkpt lat="48.28398" lon="2.59613">
        <ele>85.2</ele>
        <time>2022-06-05T13:32:08.000Z</time>
      </trkpt>
      <trkpt lat="48.28402" lon="2.59615">
        <ele>85.1</ele>
        <time>2022-06-05T13:32:21.000Z</time>
      </trkpt>
      <trkpt lat="48.28402" lon="2.59615">
        <ele>85</ele>
        <time>2022-06-05T13:32:22.000Z</time>
      </trkpt>
      <trkpt lat="48.28396" lon="2.59626">
        <ele>84.4</ele>
        <time>2022-06-05T13:32:32.000Z</time>
      </trkpt>
      <trkpt lat="48.28385" lon="2.59641">
        <ele>77.5</ele>
        <time>2022-06-05T13:41:28.000Z</time>
      </trkpt>
      <trkpt lat="48.28382" lon="2.59656">
        <ele>77</ele>
        <time>2022-06-05T13:41:40.000Z</time>
      </trkpt>
      <trkpt lat="48.28386" lon="2.59669">
        <ele>77</ele>
        <time>2022-06-05T13:41:48.000Z</time>
      </trkpt>
      <trkpt lat="48.28388" lon="2.59672">
        <ele>76.7</ele>
        <time>2022-06-05T13:41:55.000Z</time>
      </trkpt>
      <trkpt lat="48.28389" lon="2.59672">
        <ele>76.7</ele>
        <time>2022-06-05T13:41:56.000Z</time>
      </trkpt>
      <trkpt lat="48.28389" lon="2.59672">
        <ele>76.8</ele>
        <time>2022-06-05T13:41:57.000Z</time>
      </trkpt>
      <trkpt lat="48.28389" lon="2.59672">
        <ele>76.6</ele>
        <time>2022-06-05T13:42:03.000Z</time>
      </trkpt>
      <trkpt lat="48.28389" lon="2.59686">
        <ele>76.7</ele>
        <time>2022-06-05T13:42:13.000Z</time>
      </trkpt>
      <trkpt lat="48.28386" lon="2.597">
        <ele>71.7</ele>
        <time>2022-06-05T13:42:21.000Z</time>
      </trkpt>
      <trkpt lat="48.28382" lon="2.59712">
        <ele>70.2</ele>
        <time>2022-06-05T13:42:45.000Z</time>
      </trkpt>
      <trkpt lat="48.28373" lon="2.59723">
        <ele>70.2</ele>
        <time>2022-06-05T13:42:56.000Z</time>
      </trkpt>
      <trkpt lat="48.28367" lon="2.59733">
        <ele>69.3</ele>
        <time>2022-06-05T13:43:00.000Z</time>
      </trkpt>
      <trkpt lat="48.28362" lon="2.59744">
        <ele>68.9</ele>
        <time>2022-06-05T13:43:06.000Z</time>
      </trkpt>
      <trkpt lat="48.28357" lon="2.59757">
        <ele>69.1</ele>
        <time>2022-06-05T13:43:13.000Z</time>
      </trkpt>
      <trkpt lat="48.28348" lon="2.59764">
        <ele>69.3</ele>
        <time>2022-06-05T13:43:21.000Z</time>
      </trkpt>
      <trkpt lat="48.2834" lon="2.59772">
        <ele>69.9</ele>
        <time>2022-06-05T13:43:29.000Z</time>
      </trkpt>
      <trkpt lat="48.28331" lon="2.5978">
        <ele>70.9</ele>
        <time>2022-06-05T13:43:37.000Z</time>
      </trkpt>
      <trkpt lat="48.28323" lon="2.59787">
        <ele>70.8</ele>
        <time>2022-06-05T13:43:47.000Z</time>
      </trkpt>
      <trkpt lat="48.28315" lon="2.59796">
        <ele>72</ele>
        <time>2022-06-05T13:43:56.000Z</time>
      </trkpt>
      <trkpt lat="48.28308" lon="2.59806">
        <ele>73.3</ele>
        <time>2022-06-05T13:44:05.000Z</time>
      </trkpt>
      <trkpt lat="48.28299" lon="2.59812">
        <ele>72.7</ele>
        <time>2022-06-05T13:44:12.000Z</time>
      </trkpt>
      <trkpt lat="48.2829" lon="2.59818">
        <ele>72.5</ele>
        <time>2022-06-05T13:44:19.000Z</time>
      </trkpt>
      <trkpt lat="48.28282" lon="2.59822">
        <ele>73.3</ele>
        <time>2022-06-05T13:44:28.000Z</time>
      </trkpt>
      <trkpt lat="48.28272" lon="2.59825">
        <ele>73.6</ele>
        <time>2022-06-05T13:44:37.000Z</time>
      </trkpt>
      <trkpt lat="48.28265" lon="2.59832">
        <ele>73.8</ele>
        <time>2022-06-05T13:44:45.000Z</time>
      </trkpt>
      <trkpt lat="48.28256" lon="2.59836">
        <ele>74.8</ele>
        <time>2022-06-05T13:44:52.000Z</time>
      </trkpt>
      <trkpt lat="48.28248" lon="2.59842">
        <ele>75.6</ele>
        <time>2022-06-05T13:45:00.000Z</time>
      </trkpt>
      <trkpt lat="48.2824" lon="2.59849">
        <ele>76.4</ele>
        <time>2022-06-05T13:45:08.000Z</time>
      </trkpt>
      <trkpt lat="48.2823" lon="2.59851">
        <ele>76.7</ele>
        <time>2022-06-05T13:45:15.000Z</time>
      </trkpt>
      <trkpt lat="48.2822" lon="2.59855">
        <ele>77.4</ele>
        <time>2022-06-05T13:45:24.000Z</time>
      </trkpt>
      <trkpt lat="48.2821" lon="2.59856">
        <ele>77.9</ele>
        <time>2022-06-05T13:45:30.000Z</time>
      </trkpt>
      <trkpt lat="48.28201" lon="2.59864">
        <ele>78.1</ele>
        <time>2022-06-05T13:45:38.000Z</time>
      </trkpt>
      <trkpt lat="48.28192" lon="2.59861">
        <ele>78.2</ele>
        <time>2022-06-05T13:45:42.000Z</time>
      </trkpt>
      <trkpt lat="48.28181" lon="2.5986">
        <ele>78.5</ele>
        <time>2022-06-05T13:45:49.000Z</time>
      </trkpt>
      <trkpt lat="48.28172" lon="2.59868">
        <ele>78.5</ele>
        <time>2022-06-05T13:45:58.000Z</time>
      </trkpt>
      <trkpt lat="48.28165" lon="2.5988">
        <ele>79.3</ele>
        <time>2022-06-05T13:46:07.000Z</time>
      </trkpt>
      <trkpt lat="48.28159" lon="2.59891">
        <ele>79.9</ele>
        <time>2022-06-05T13:46:16.000Z</time>
      </trkpt>
      <trkpt lat="48.28152" lon="2.59901">
        <ele>79.8</ele>
        <time>2022-06-05T13:46:25.000Z</time>
      </trkpt>
      <trkpt lat="48.28143" lon="2.59908">
        <ele>79.6</ele>
        <time>2022-06-05T13:46:33.000Z</time>
      </trkpt>
      <trkpt lat="48.28134" lon="2.59914">
        <ele>80.3</ele>
        <time>2022-06-05T13:46:41.000Z</time>
      </trkpt>
      <trkpt lat="48.28126" lon="2.5992">
        <ele>80.9</ele>
        <time>2022-06-05T13:46:49.000Z</time>
      </trkpt>
      <trkpt lat="48.28119" lon="2.59929">
        <ele>81.3</ele>
        <time>2022-06-05T13:46:56.000Z</time>
      </trkpt>
      <trkpt lat="48.28112" lon="2.5994">
        <ele>80.7</ele>
        <time>2022-06-05T13:47:02.000Z</time>
      </trkpt>
      <trkpt lat="48.28106" lon="2.5995">
        <ele>80.3</ele>
        <time>2022-06-05T13:47:09.000Z</time>
      </trkpt>
      <trkpt lat="48.281" lon="2.59962">
        <ele>79.9</ele>
        <time>2022-06-05T13:47:17.000Z</time>
      </trkpt>
      <trkpt lat="48.28093" lon="2.59973">
        <ele>80.2</ele>
        <time>2022-06-05T13:47:26.000Z</time>
      </trkpt>
      <trkpt lat="48.28087" lon="2.59984">
        <ele>81.1</ele>
        <time>2022-06-05T13:47:35.000Z</time>
      </trkpt>
      <trkpt lat="48.28081" lon="2.59996">
        <ele>81.7</ele>
        <time>2022-06-05T13:47:43.000Z</time>
      </trkpt>
      <trkpt lat="48.28075" lon="2.60007">
        <ele>81.9</ele>
        <time>2022-06-05T13:47:51.000Z</time>
      </trkpt>
      <trkpt lat="48.28066" lon="2.60014">
        <ele>82.4</ele>
        <time>2022-06-05T13:48:04.000Z</time>
      </trkpt>
      <trkpt lat="48.28067" lon="2.60017">
        <ele>80.7</ele>
        <time>2022-06-05T13:48:14.000Z</time>
      </trkpt>
      <trkpt lat="48.28067" lon="2.60017">
        <ele>81.1</ele>
        <time>2022-06-05T13:48:21.000Z</time>
      </trkpt>
      <trkpt lat="48.28067" lon="2.60017">
        <ele>81.3</ele>
        <time>2022-06-05T13:48:22.000Z</time>
      </trkpt>
      <trkpt lat="48.28068" lon="2.60018">
        <ele>81.3</ele>
        <time>2022-06-05T13:48:26.000Z</time>
      </trkpt>
      <trkpt lat="48.28069" lon="2.6002">
        <ele>82.5</ele>
        <time>2022-06-05T13:48:33.000Z</time>
      </trkpt>
      <trkpt lat="48.28068" lon="2.60019">
        <ele>82.5</ele>
        <time>2022-06-05T13:48:34.000Z</time>
      </trkpt>
      <trkpt lat="48.28065" lon="2.6002">
        <ele>82.6</ele>
        <time>2022-06-05T13:48:47.000Z</time>
      </trkpt>
      <trkpt lat="48.28065" lon="2.6002">
        <ele>82.9</ele>
        <time>2022-06-05T13:48:55.000Z</time>
      </trkpt>
      <trkpt lat="48.28062" lon="2.60033">
        <ele>82.3</ele>
        <time>2022-06-05T13:49:07.000Z</time>
      </trkpt>
      <trkpt lat="48.28057" lon="2.60045">
        <ele>81.5</ele>
        <time>2022-06-05T13:49:17.000Z</time>
      </trkpt>
      <trkpt lat="48.28051" lon="2.60058">
        <ele>80.6</ele>
        <time>2022-06-05T13:49:31.000Z</time>
      </trkpt>
      <trkpt lat="48.2805" lon="2.60073">
        <ele>80</ele>
        <time>2022-06-05T13:49:38.000Z</time>
      </trkpt>
      <trkpt lat="48.28048" lon="2.60086">
        <ele>81.6</ele>
        <time>2022-06-05T13:49:45.000Z</time>
      </trkpt>
      <trkpt lat="48.28041" lon="2.60095">
        <ele>82.5</ele>
        <time>2022-06-05T13:49:51.000Z</time>
      </trkpt>
      <trkpt lat="48.28036" lon="2.60108">
        <ele>83.4</ele>
        <time>2022-06-05T13:49:57.000Z</time>
      </trkpt>
      <trkpt lat="48.28029" lon="2.6012">
        <ele>83.2</ele>
        <time>2022-06-05T13:50:03.000Z</time>
      </trkpt>
      <trkpt lat="48.28027" lon="2.60134">
        <ele>83.5</ele>
        <time>2022-06-05T13:50:15.000Z</time>
      </trkpt>
      <trkpt lat="48.28024" lon="2.60148">
        <ele>83.7</ele>
        <time>2022-06-05T13:50:22.000Z</time>
      </trkpt>
      <trkpt lat="48.28019" lon="2.60162">
        <ele>83.5</ele>
        <time>2022-06-05T13:50:28.000Z</time>
      </trkpt>
      <trkpt lat="48.28017" lon="2.60178">
        <ele>83.6</ele>
        <time>2022-06-05T13:50:34.000Z</time>
      </trkpt>
      <trkpt lat="48.28014" lon="2.60192">
        <ele>83.9</ele>
        <time>2022-06-05T13:50:40.000Z</time>
      </trkpt>
      <trkpt lat="48.2801" lon="2.60205">
        <ele>84.2</ele>
        <time>2022-06-05T13:50:48.000Z</time>
      </trkpt>
      <trkpt lat="48.28" lon="2.60209">
        <ele>84.2</ele>
        <time>2022-06-05T13:50:56.000Z</time>
      </trkpt>
      <trkpt lat="48.27999" lon="2.60223">
        <ele>84.1</ele>
        <time>2022-06-05T13:51:05.000Z</time>
      </trkpt>
      <trkpt lat="48.27998" lon="2.60225">
        <ele>84</ele>
        <time>2022-06-05T13:51:08.000Z</time>
      </trkpt>
      <trkpt lat="48.27997" lon="2.60226">
        <ele>83.8</ele>
        <time>2022-06-05T13:51:09.000Z</time>
      </trkpt>
      <trkpt lat="48.27994" lon="2.60239">
        <ele>83.6</ele>
        <time>2022-06-05T13:51:17.000Z</time>
      </trkpt>
      <trkpt lat="48.2799" lon="2.60254">
        <ele>84</ele>
        <time>2022-06-05T13:51:23.000Z</time>
      </trkpt>
      <trkpt lat="48.27993" lon="2.60269">
        <ele>83.9</ele>
        <time>2022-06-05T13:51:28.000Z</time>
      </trkpt>
      <trkpt lat="48.27995" lon="2.60284">
        <ele>83.9</ele>
        <time>2022-06-05T13:51:35.000Z</time>
      </trkpt>
      <trkpt lat="48.27994" lon="2.60299">
        <ele>84.1</ele>
        <time>2022-06-05T13:51:45.000Z</time>
      </trkpt>
      <trkpt lat="48.2799" lon="2.60311">
        <ele>84.3</ele>
        <time>2022-06-05T13:51:50.000Z</time>
      </trkpt>
      <trkpt lat="48.27985" lon="2.60323">
        <ele>84.2</ele>
        <time>2022-06-05T13:51:56.000Z</time>
      </trkpt>
      <trkpt lat="48.27979" lon="2.60333">
        <ele>84.2</ele>
        <time>2022-06-05T13:52:05.000Z</time>
      </trkpt>
      <trkpt lat="48.27975" lon="2.60346">
        <ele>84</ele>
        <time>2022-06-05T13:52:13.000Z</time>
      </trkpt>
      <trkpt lat="48.27969" lon="2.60357">
        <ele>84.1</ele>
        <time>2022-06-05T13:52:20.000Z</time>
      </trkpt>
      <trkpt lat="48.27965" lon="2.60372">
        <ele>83.9</ele>
        <time>2022-06-05T13:52:26.000Z</time>
      </trkpt>
      <trkpt lat="48.27965" lon="2.60387">
        <ele>83.9</ele>
        <time>2022-06-05T13:52:33.000Z</time>
      </trkpt>
      <trkpt lat="48.27961" lon="2.604">
        <ele>83.4</ele>
        <time>2022-06-05T13:52:41.000Z</time>
      </trkpt>
      <trkpt lat="48.27955" lon="2.60411">
        <ele>83.1</ele>
        <time>2022-06-05T13:52:48.000Z</time>
      </trkpt>
      <trkpt lat="48.2795" lon="2.60425">
        <ele>83</ele>
        <time>2022-06-05T13:52:55.000Z</time>
      </trkpt>
      <trkpt lat="48.27946" lon="2.60439">
        <ele>82.2</ele>
        <time>2022-06-05T13:53:03.000Z</time>
      </trkpt>
      <trkpt lat="48.27941" lon="2.60451">
        <ele>81.4</ele>
        <time>2022-06-05T13:53:09.000Z</time>
      </trkpt>
      <trkpt lat="48.27936" lon="2.60463">
        <ele>80.1</ele>
        <time>2022-06-05T13:53:15.000Z</time>
      </trkpt>
      <trkpt lat="48.27931" lon="2.60476">
        <ele>79.5</ele>
        <time>2022-06-05T13:53:20.000Z</time>
      </trkpt>
      <trkpt lat="48.27939" lon="2.60491">
        <ele>78.8</ele>
        <time>2022-06-05T13:53:26.000Z</time>
      </trkpt>
      <trkpt lat="48.27933" lon="2.60504">
        <ele>78.4</ele>
        <time>2022-06-05T13:53:34.000Z</time>
      </trkpt>
      <trkpt lat="48.27929" lon="2.60517">
        <ele>77.1</ele>
        <time>2022-06-05T13:53:42.000Z</time>
      </trkpt>
      <trkpt lat="48.27923" lon="2.60528">
        <ele>76.7</ele>
        <time>2022-06-05T13:53:52.000Z</time>
      </trkpt>
      <trkpt lat="48.27921" lon="2.60541">
        <ele>76.4</ele>
        <time>2022-06-05T13:53:58.000Z</time>
      </trkpt>
      <trkpt lat="48.27916" lon="2.60556">
        <ele>75.2</ele>
        <time>2022-06-05T13:54:05.000Z</time>
      </trkpt>
      <trkpt lat="48.27912" lon="2.60569">
        <ele>75.2</ele>
        <time>2022-06-05T13:54:13.000Z</time>
      </trkpt>
      <trkpt lat="48.27908" lon="2.60583">
        <ele>74.2</ele>
        <time>2022-06-05T13:54:21.000Z</time>
      </trkpt>
      <trkpt lat="48.27901" lon="2.60593">
        <ele>74.8</ele>
        <time>2022-06-05T13:54:30.000Z</time>
      </trkpt>
      <trkpt lat="48.279" lon="2.60608">
        <ele>74.5</ele>
        <time>2022-06-05T13:54:43.000Z</time>
      </trkpt>
      <trkpt lat="48.27899" lon="2.60622">
        <ele>74.2</ele>
        <time>2022-06-05T13:54:51.000Z</time>
      </trkpt>
      <trkpt lat="48.27896" lon="2.60637">
        <ele>74.2</ele>
        <time>2022-06-05T13:54:57.000Z</time>
      </trkpt>
      <trkpt lat="48.27887" lon="2.60647">
        <ele>74.4</ele>
        <time>2022-06-05T13:55:03.000Z</time>
      </trkpt>
      <trkpt lat="48.27882" lon="2.60659">
        <ele>74.2</ele>
        <time>2022-06-05T13:55:08.000Z</time>
      </trkpt>
      <trkpt lat="48.27875" lon="2.6067">
        <ele>74.5</ele>
        <time>2022-06-05T13:55:15.000Z</time>
      </trkpt>
      <trkpt lat="48.27873" lon="2.60684">
        <ele>74.7</ele>
        <time>2022-06-05T13:55:20.000Z</time>
      </trkpt>
      <trkpt lat="48.27868" lon="2.60695">
        <ele>74.4</ele>
        <time>2022-06-05T13:55:26.000Z</time>
      </trkpt>
      <trkpt lat="48.27863" lon="2.60707">
        <ele>73.6</ele>
        <time>2022-06-05T13:55:33.000Z</time>
      </trkpt>
      <trkpt lat="48.27861" lon="2.60721">
        <ele>73.8</ele>
        <time>2022-06-05T13:55:41.000Z</time>
      </trkpt>
      <trkpt lat="48.27859" lon="2.60735">
        <ele>73.1</ele>
        <time>2022-06-05T13:55:49.000Z</time>
      </trkpt>
      <trkpt lat="48.27856" lon="2.60748">
        <ele>77.4</ele>
        <time>2022-06-05T13:55:56.000Z</time>
      </trkpt>
      <trkpt lat="48.27853" lon="2.60762">
        <ele>76.2</ele>
        <time>2022-06-05T13:56:04.000Z</time>
      </trkpt>
      <trkpt lat="48.27849" lon="2.60776">
        <ele>76.7</ele>
        <time>2022-06-05T13:56:13.000Z</time>
      </trkpt>
      <trkpt lat="48.27848" lon="2.60783">
        <ele>77.5</ele>
        <time>2022-06-05T13:56:21.000Z</time>
      </trkpt>
      <trkpt lat="48.27847" lon="2.60784">
        <ele>78.4</ele>
        <time>2022-06-05T13:56:31.000Z</time>
      </trkpt>
      <trkpt lat="48.27845" lon="2.60797">
        <ele>79</ele>
        <time>2022-06-05T13:56:39.000Z</time>
      </trkpt>
      <trkpt lat="48.27841" lon="2.60811">
        <ele>79.7</ele>
        <time>2022-06-05T13:56:48.000Z</time>
      </trkpt>
      <trkpt lat="48.27837" lon="2.60824">
        <ele>80.1</ele>
        <time>2022-06-05T13:56:56.000Z</time>
      </trkpt>
      <trkpt lat="48.27832" lon="2.60835">
        <ele>80.1</ele>
        <time>2022-06-05T13:57:03.000Z</time>
      </trkpt>
      <trkpt lat="48.27826" lon="2.60848">
        <ele>80.6</ele>
        <time>2022-06-05T13:57:10.000Z</time>
      </trkpt>
      <trkpt lat="48.27819" lon="2.60858">
        <ele>80.5</ele>
        <time>2022-06-05T13:57:19.000Z</time>
      </trkpt>
      <trkpt lat="48.27814" lon="2.6087">
        <ele>81</ele>
        <time>2022-06-05T13:57:27.000Z</time>
      </trkpt>
      <trkpt lat="48.27806" lon="2.6088">
        <ele>81.5</ele>
        <time>2022-06-05T13:57:35.000Z</time>
      </trkpt>
      <trkpt lat="48.27799" lon="2.60888">
        <ele>81.9</ele>
        <time>2022-06-05T13:57:41.000Z</time>
      </trkpt>
      <trkpt lat="48.27792" lon="2.60898">
        <ele>82.4</ele>
        <time>2022-06-05T13:57:48.000Z</time>
      </trkpt>
      <trkpt lat="48.27784" lon="2.60906">
        <ele>83</ele>
        <time>2022-06-05T13:57:56.000Z</time>
      </trkpt>
      <trkpt lat="48.27779" lon="2.60903">
        <ele>79.7</ele>
        <time>2022-06-05T13:58:13.000Z</time>
      </trkpt>
      <trkpt lat="48.27779" lon="2.60903">
        <ele>79.6</ele>
        <time>2022-06-05T13:58:14.000Z</time>
      </trkpt>
      <trkpt lat="48.2778" lon="2.60901">
        <ele>78.9</ele>
        <time>2022-06-05T13:58:19.000Z</time>
      </trkpt>
      <trkpt lat="48.2778" lon="2.60901">
        <ele>78.8</ele>
        <time>2022-06-05T13:58:20.000Z</time>
      </trkpt>
      <trkpt lat="48.2778" lon="2.609">
        <ele>78.4</ele>
        <time>2022-06-05T13:58:26.000Z</time>
      </trkpt>
      <trkpt lat="48.2778" lon="2.60899">
        <ele>78.4</ele>
        <time>2022-06-05T13:58:27.000Z</time>
      </trkpt>
      <trkpt lat="48.27774" lon="2.60888">
        <ele>78.7</ele>
        <time>2022-06-05T13:58:36.000Z</time>
      </trkpt>
      <trkpt lat="48.27784" lon="2.60897">
        <ele>79.2</ele>
        <time>2022-06-05T13:58:42.000Z</time>
      </trkpt>
      <trkpt lat="48.27788" lon="2.60911">
        <ele>79.6</ele>
        <time>2022-06-05T13:58:49.000Z</time>
      </trkpt>
      <trkpt lat="48.27791" lon="2.60924">
        <ele>79</ele>
        <time>2022-06-05T13:58:55.000Z</time>
      </trkpt>
      <trkpt lat="48.27791" lon="2.60939">
        <ele>79.5</ele>
        <time>2022-06-05T13:59:04.000Z</time>
      </trkpt>
      <trkpt lat="48.27788" lon="2.60954">
        <ele>79.8</ele>
        <time>2022-06-05T13:59:13.000Z</time>
      </trkpt>
      <trkpt lat="48.27787" lon="2.60968">
        <ele>79.8</ele>
        <time>2022-06-05T13:59:21.000Z</time>
      </trkpt>
      <trkpt lat="48.27779" lon="2.60978">
        <ele>80.4</ele>
        <time>2022-06-05T13:59:30.000Z</time>
      </trkpt>
      <trkpt lat="48.27777" lon="2.60992">
        <ele>80.8</ele>
        <time>2022-06-05T13:59:36.000Z</time>
      </trkpt>
      <trkpt lat="48.27771" lon="2.61003">
        <ele>80.9</ele>
        <time>2022-06-05T13:59:43.000Z</time>
      </trkpt>
      <trkpt lat="48.27765" lon="2.61015">
        <ele>81.4</ele>
        <time>2022-06-05T13:59:48.000Z</time>
      </trkpt>
      <trkpt lat="48.27762" lon="2.61028">
        <ele>81.5</ele>
        <time>2022-06-05T13:59:55.000Z</time>
      </trkpt>
      <trkpt lat="48.2776" lon="2.61043">
        <ele>81.5</ele>
        <time>2022-06-05T14:00:03.000Z</time>
      </trkpt>
      <trkpt lat="48.27752" lon="2.6105">
        <ele>80.8</ele>
        <time>2022-06-05T14:00:11.000Z</time>
      </trkpt>
      <trkpt lat="48.27745" lon="2.61059">
        <ele>78.9</ele>
        <time>2022-06-05T14:00:21.000Z</time>
      </trkpt>
      <trkpt lat="48.27737" lon="2.61069">
        <ele>76.7</ele>
        <time>2022-06-05T14:00:29.000Z</time>
      </trkpt>
      <trkpt lat="48.27729" lon="2.61077">
        <ele>75.5</ele>
        <time>2022-06-05T14:00:40.000Z</time>
      </trkpt>
      <trkpt lat="48.27721" lon="2.61084">
        <ele>78.8</ele>
        <time>2022-06-05T14:00:48.000Z</time>
      </trkpt>
      <trkpt lat="48.27714" lon="2.61093">
        <ele>79.3</ele>
        <time>2022-06-05T14:00:57.000Z</time>
      </trkpt>
      <trkpt lat="48.27705" lon="2.611">
        <ele>79.8</ele>
        <time>2022-06-05T14:01:07.000Z</time>
      </trkpt>
      <trkpt lat="48.27697" lon="2.61108">
        <ele>81.3</ele>
        <time>2022-06-05T14:01:15.000Z</time>
      </trkpt>
      <trkpt lat="48.27688" lon="2.61115">
        <ele>81.6</ele>
        <time>2022-06-05T14:01:22.000Z</time>
      </trkpt>
      <trkpt lat="48.27683" lon="2.61126">
        <ele>82.3</ele>
        <time>2022-06-05T14:01:29.000Z</time>
      </trkpt>
      <trkpt lat="48.27675" lon="2.61135">
        <ele>83</ele>
        <time>2022-06-05T14:01:38.000Z</time>
      </trkpt>
      <trkpt lat="48.27667" lon="2.61145">
        <ele>83</ele>
        <time>2022-06-05T14:01:43.000Z</time>
      </trkpt>
      <trkpt lat="48.27659" lon="2.61152">
        <ele>83.5</ele>
        <time>2022-06-05T14:01:51.000Z</time>
      </trkpt>
      <trkpt lat="48.27653" lon="2.61164">
        <ele>84.4</ele>
        <time>2022-06-05T14:02:01.000Z</time>
      </trkpt>
      <trkpt lat="48.27647" lon="2.61175">
        <ele>85.2</ele>
        <time>2022-06-05T14:02:07.000Z</time>
      </trkpt>
      <trkpt lat="48.2764" lon="2.61183">
        <ele>84.4</ele>
        <time>2022-06-05T14:02:13.000Z</time>
      </trkpt>
      <trkpt lat="48.27632" lon="2.61191">
        <ele>85.2</ele>
        <time>2022-06-05T14:02:21.000Z</time>
      </trkpt>
      <trkpt lat="48.27624" lon="2.61198">
        <ele>84.9</ele>
        <time>2022-06-05T14:02:31.000Z</time>
      </trkpt>
      <trkpt lat="48.27618" lon="2.6121">
        <ele>85.3</ele>
        <time>2022-06-05T14:02:41.000Z</time>
      </trkpt>
      <trkpt lat="48.27609" lon="2.61217">
        <ele>85.8</ele>
        <time>2022-06-05T14:02:48.000Z</time>
      </trkpt>
      <trkpt lat="48.276" lon="2.61219">
        <ele>86.4</ele>
        <time>2022-06-05T14:02:53.000Z</time>
      </trkpt>
      <trkpt lat="48.27588" lon="2.61218">
        <ele>86.8</ele>
        <time>2022-06-05T14:02:56.000Z</time>
      </trkpt>
      <trkpt lat="48.2758" lon="2.61225">
        <ele>86.8</ele>
        <time>2022-06-05T14:03:01.000Z</time>
      </trkpt>
      <trkpt lat="48.27574" lon="2.61235">
        <ele>86.9</ele>
        <time>2022-06-05T14:03:06.000Z</time>
      </trkpt>
      <trkpt lat="48.27575" lon="2.61249">
        <ele>86.9</ele>
        <time>2022-06-05T14:03:10.000Z</time>
      </trkpt>
      <trkpt lat="48.27567" lon="2.61259">
        <ele>86.4</ele>
        <time>2022-06-05T14:03:18.000Z</time>
      </trkpt>
      <trkpt lat="48.27557" lon="2.61264">
        <ele>86.2</ele>
        <time>2022-06-05T14:03:23.000Z</time>
      </trkpt>
      <trkpt lat="48.27548" lon="2.61271">
        <ele>85.7</ele>
        <time>2022-06-05T14:03:29.000Z</time>
      </trkpt>
      <trkpt lat="48.27539" lon="2.61276">
        <ele>84.4</ele>
        <time>2022-06-05T14:03:39.000Z</time>
      </trkpt>
      <trkpt lat="48.27531" lon="2.61285">
        <ele>83.7</ele>
        <time>2022-06-05T14:03:47.000Z</time>
      </trkpt>
      <trkpt lat="48.27525" lon="2.61296">
        <ele>82.9</ele>
        <time>2022-06-05T14:03:53.000Z</time>
      </trkpt>
      <trkpt lat="48.27522" lon="2.61309">
        <ele>81.7</ele>
        <time>2022-06-05T14:04:02.000Z</time>
      </trkpt>
      <trkpt lat="48.27516" lon="2.61319">
        <ele>81.2</ele>
        <time>2022-06-05T14:04:07.000Z</time>
      </trkpt>
      <trkpt lat="48.2751" lon="2.6133">
        <ele>81.5</ele>
        <time>2022-06-05T14:04:17.000Z</time>
      </trkpt>
      <trkpt lat="48.27505" lon="2.61342">
        <ele>81.2</ele>
        <time>2022-06-05T14:04:27.000Z</time>
      </trkpt>
      <trkpt lat="48.27498" lon="2.61355">
        <ele>81.2</ele>
        <time>2022-06-05T14:04:34.000Z</time>
      </trkpt>
      <trkpt lat="48.27493" lon="2.61366">
        <ele>81</ele>
        <time>2022-06-05T14:04:40.000Z</time>
      </trkpt>
      <trkpt lat="48.27487" lon="2.61378">
        <ele>80.7</ele>
        <time>2022-06-05T14:04:48.000Z</time>
      </trkpt>
      <trkpt lat="48.27482" lon="2.6139">
        <ele>80.7</ele>
        <time>2022-06-05T14:04:56.000Z</time>
      </trkpt>
      <trkpt lat="48.27475" lon="2.61401">
        <ele>81.3</ele>
        <time>2022-06-05T14:05:04.000Z</time>
      </trkpt>
      <trkpt lat="48.27467" lon="2.61411">
        <ele>80.7</ele>
        <time>2022-06-05T14:05:12.000Z</time>
      </trkpt>
      <trkpt lat="48.27461" lon="2.61422">
        <ele>81</ele>
        <time>2022-06-05T14:05:17.000Z</time>
      </trkpt>
      <trkpt lat="48.27453" lon="2.6143">
        <ele>80.5</ele>
        <time>2022-06-05T14:05:26.000Z</time>
      </trkpt>
      <trkpt lat="48.27448" lon="2.61444">
        <ele>80.2</ele>
        <time>2022-06-05T14:05:33.000Z</time>
      </trkpt>
      <trkpt lat="48.27441" lon="2.61454">
        <ele>81</ele>
        <time>2022-06-05T14:05:42.000Z</time>
      </trkpt>
      <trkpt lat="48.27434" lon="2.61466">
        <ele>81.5</ele>
        <time>2022-06-05T14:05:49.000Z</time>
      </trkpt>
      <trkpt lat="48.27427" lon="2.61475">
        <ele>81.5</ele>
        <time>2022-06-05T14:05:55.000Z</time>
      </trkpt>
      <trkpt lat="48.2742" lon="2.61484">
        <ele>81.6</ele>
        <time>2022-06-05T14:06:02.000Z</time>
      </trkpt>
      <trkpt lat="48.27413" lon="2.61494">
        <ele>81.7</ele>
        <time>2022-06-05T14:06:08.000Z</time>
      </trkpt>
      <trkpt lat="48.27405" lon="2.61503">
        <ele>82.3</ele>
        <time>2022-06-05T14:06:15.000Z</time>
      </trkpt>
      <trkpt lat="48.27397" lon="2.61511">
        <ele>82.8</ele>
        <time>2022-06-05T14:06:23.000Z</time>
      </trkpt>
      <trkpt lat="48.27391" lon="2.61522">
        <ele>83.3</ele>
        <time>2022-06-05T14:06:31.000Z</time>
      </trkpt>
      <trkpt lat="48.27383" lon="2.6153">
        <ele>82.6</ele>
        <time>2022-06-05T14:06:39.000Z</time>
      </trkpt>
      <trkpt lat="48.27377" lon="2.61541">
        <ele>82.2</ele>
        <time>2022-06-05T14:06:49.000Z</time>
      </trkpt>
      <trkpt lat="48.27372" lon="2.61554">
        <ele>82.3</ele>
        <time>2022-06-05T14:06:57.000Z</time>
      </trkpt>
      <trkpt lat="48.27366" lon="2.61566">
        <ele>82.5</ele>
        <time>2022-06-05T14:07:06.000Z</time>
      </trkpt>
      <trkpt lat="48.27357" lon="2.61574">
        <ele>82.7</ele>
        <time>2022-06-05T14:07:12.000Z</time>
      </trkpt>
      <trkpt lat="48.27348" lon="2.61583">
        <ele>83.3</ele>
        <time>2022-06-05T14:07:20.000Z</time>
      </trkpt>
      <trkpt lat="48.27342" lon="2.61595">
        <ele>83.6</ele>
        <time>2022-06-05T14:07:25.000Z</time>
      </trkpt>
      <trkpt lat="48.27336" lon="2.61607">
        <ele>84</ele>
        <time>2022-06-05T14:07:32.000Z</time>
      </trkpt>
      <trkpt lat="48.27339" lon="2.61621">
        <ele>84.2</ele>
        <time>2022-06-05T14:07:38.000Z</time>
      </trkpt>
      <trkpt lat="48.2734" lon="2.61634">
        <ele>84.5</ele>
        <time>2022-06-05T14:07:43.000Z</time>
      </trkpt>
      <trkpt lat="48.27335" lon="2.61647">
        <ele>84.6</ele>
        <time>2022-06-05T14:07:50.000Z</time>
      </trkpt>
      <trkpt lat="48.27334" lon="2.61661">
        <ele>83.9</ele>
        <time>2022-06-05T14:08:02.000Z</time>
      </trkpt>
      <trkpt lat="48.27337" lon="2.61674">
        <ele>83.5</ele>
        <time>2022-06-05T14:08:07.000Z</time>
      </trkpt>
      <trkpt lat="48.27339" lon="2.61687">
        <ele>83.9</ele>
        <time>2022-06-05T14:08:22.000Z</time>
      </trkpt>
      <trkpt lat="48.27339" lon="2.61686">
        <ele>83.9</ele>
        <time>2022-06-05T14:08:23.000Z</time>
      </trkpt>
      <trkpt lat="48.27338" lon="2.61686">
        <ele>83.3</ele>
        <time>2022-06-05T14:08:27.000Z</time>
      </trkpt>
      <trkpt lat="48.27338" lon="2.61687">
        <ele>81.7</ele>
        <time>2022-06-05T14:08:38.000Z</time>
      </trkpt>
      <trkpt lat="48.27338" lon="2.61687">
        <ele>82.2</ele>
        <time>2022-06-05T14:08:39.000Z</time>
      </trkpt>
      <trkpt lat="48.27338" lon="2.61687">
        <ele>82.3</ele>
        <time>2022-06-05T14:09:03.000Z</time>
      </trkpt>
      <trkpt lat="48.27338" lon="2.61686">
        <ele>82.1</ele>
        <time>2022-06-05T14:09:04.000Z</time>
      </trkpt>
      <trkpt lat="48.27338" lon="2.61686">
        <ele>82.6</ele>
        <time>2022-06-05T14:09:07.000Z</time>
      </trkpt>
      <trkpt lat="48.27339" lon="2.61686">
        <ele>82.8</ele>
        <time>2022-06-05T14:09:09.000Z</time>
      </trkpt>
      <trkpt lat="48.27339" lon="2.61686">
        <ele>82.9</ele>
        <time>2022-06-05T14:09:22.000Z</time>
      </trkpt>
      <trkpt lat="48.27339" lon="2.61686">
        <ele>82.9</ele>
        <time>2022-06-05T14:09:23.000Z</time>
      </trkpt>
      <trkpt lat="48.27339" lon="2.61686">
        <ele>83</ele>
        <time>2022-06-05T14:09:43.000Z</time>
      </trkpt>
      <trkpt lat="48.27339" lon="2.61686">
        <ele>82.7</ele>
        <time>2022-06-05T14:09:44.000Z</time>
      </trkpt>
      <trkpt lat="48.27339" lon="2.61686">
        <ele>82.6</ele>
        <time>2022-06-05T14:09:49.000Z</time>
      </trkpt>
      <trkpt lat="48.27339" lon="2.61686">
        <ele>82.6</ele>
        <time>2022-06-05T14:09:50.000Z</time>
      </trkpt>
      <trkpt lat="48.27339" lon="2.61687">
        <ele>79.2</ele>
        <time>2022-06-05T14:09:55.000Z</time>
      </trkpt>
      <trkpt lat="48.27337" lon="2.61685">
        <ele>81.5</ele>
        <time>2022-06-05T14:10:05.000Z</time>
      </trkpt>
      <trkpt lat="48.27338" lon="2.61685">
        <ele>81.4</ele>
        <time>2022-06-05T14:10:07.000Z</time>
      </trkpt>
      <trkpt lat="48.27338" lon="2.61684">
        <ele>82</ele>
        <time>2022-06-05T14:10:09.000Z</time>
      </trkpt>
      <trkpt lat="48.27338" lon="2.61684">
        <ele>82.2</ele>
        <time>2022-06-05T14:10:23.000Z</time>
      </trkpt>
      <trkpt lat="48.27338" lon="2.61684">
        <ele>82.3</ele>
        <time>2022-06-05T14:10:24.000Z</time>
      </trkpt>
      <trkpt lat="48.27339" lon="2.61684">
        <ele>82.1</ele>
        <time>2022-06-05T14:10:26.000Z</time>
      </trkpt>
      <trkpt lat="48.27338" lon="2.61684">
        <ele>84.6</ele>
        <time>2022-06-05T14:10:31.000Z</time>
      </trkpt>
      <trkpt lat="48.27338" lon="2.61684">
        <ele>84.8</ele>
        <time>2022-06-05T14:10:32.000Z</time>
      </trkpt>
      <trkpt lat="48.27338" lon="2.61685">
        <ele>83.8</ele>
        <time>2022-06-05T14:10:36.000Z</time>
      </trkpt>
      <trkpt lat="48.27338" lon="2.61685">
        <ele>83</ele>
        <time>2022-06-05T14:10:40.000Z</time>
      </trkpt>
      <trkpt lat="48.27338" lon="2.61685">
        <ele>82.9</ele>
        <time>2022-06-05T14:10:41.000Z</time>
      </trkpt>
      <trkpt lat="48.27337" lon="2.61685">
        <ele>82.7</ele>
        <time>2022-06-05T14:10:44.000Z</time>
      </trkpt>
      <trkpt lat="48.27337" lon="2.61685">
        <ele>82.3</ele>
        <time>2022-06-05T14:10:46.000Z</time>
      </trkpt>
      <trkpt lat="48.27337" lon="2.61686">
        <ele>82.6</ele>
        <time>2022-06-05T14:10:51.000Z</time>
      </trkpt>
      <trkpt lat="48.27332" lon="2.61698">
        <ele>83.2</ele>
        <time>2022-06-05T14:11:01.000Z</time>
      </trkpt>
      <trkpt lat="48.27333" lon="2.61712">
        <ele>83.4</ele>
        <time>2022-06-05T14:11:07.000Z</time>
      </trkpt>
      <trkpt lat="48.27337" lon="2.61725">
        <ele>83.8</ele>
        <time>2022-06-05T14:11:14.000Z</time>
      </trkpt>
      <trkpt lat="48.27342" lon="2.61739">
        <ele>83</ele>
        <time>2022-06-05T14:11:24.000Z</time>
      </trkpt>
      <trkpt lat="48.27347" lon="2.61749">
        <ele>83</ele>
        <time>2022-06-05T14:11:32.000Z</time>
      </trkpt>
      <trkpt lat="48.27353" lon="2.61761">
        <ele>82.6</ele>
        <time>2022-06-05T14:11:39.000Z</time>
      </trkpt>
      <trkpt lat="48.27358" lon="2.61772">
        <ele>82.4</ele>
        <time>2022-06-05T14:11:47.000Z</time>
      </trkpt>
      <trkpt lat="48.27364" lon="2.61784">
        <ele>83.1</ele>
        <time>2022-06-05T14:11:55.000Z</time>
      </trkpt>
      <trkpt lat="48.27369" lon="2.61796">
        <ele>83.7</ele>
        <time>2022-06-05T14:12:02.000Z</time>
      </trkpt>
      <trkpt lat="48.27374" lon="2.6181">
        <ele>83.9</ele>
        <time>2022-06-05T14:12:09.000Z</time>
      </trkpt>
      <trkpt lat="48.2738" lon="2.61821">
        <ele>83.6</ele>
        <time>2022-06-05T14:12:18.000Z</time>
      </trkpt>
      <trkpt lat="48.27387" lon="2.61831">
        <ele>83.7</ele>
        <time>2022-06-05T14:12:27.000Z</time>
      </trkpt>
      <trkpt lat="48.27391" lon="2.61844">
        <ele>83.6</ele>
        <time>2022-06-05T14:12:34.000Z</time>
      </trkpt>
      <trkpt lat="48.27394" lon="2.61857">
        <ele>83</ele>
        <time>2022-06-05T14:12:42.000Z</time>
      </trkpt>
      <trkpt lat="48.27397" lon="2.6187">
        <ele>83.1</ele>
        <time>2022-06-05T14:12:49.000Z</time>
      </trkpt>
      <trkpt lat="48.27401" lon="2.61883">
        <ele>84</ele>
        <time>2022-06-05T14:12:57.000Z</time>
      </trkpt>
      <trkpt lat="48.27405" lon="2.61897">
        <ele>84.3</ele>
        <time>2022-06-05T14:13:05.000Z</time>
      </trkpt>
      <trkpt lat="48.27408" lon="2.61911">
        <ele>84.8</ele>
        <time>2022-06-05T14:13:13.000Z</time>
      </trkpt>
      <trkpt lat="48.27411" lon="2.61925">
        <ele>84.8</ele>
        <time>2022-06-05T14:13:21.000Z</time>
      </trkpt>
      <trkpt lat="48.27414" lon="2.61939">
        <ele>84.7</ele>
        <time>2022-06-05T14:13:29.000Z</time>
      </trkpt>
      <trkpt lat="48.27418" lon="2.61951">
        <ele>85.3</ele>
        <time>2022-06-05T14:13:38.000Z</time>
      </trkpt>
      <trkpt lat="48.2742" lon="2.61964">
        <ele>86.3</ele>
        <time>2022-06-05T14:13:48.000Z</time>
      </trkpt>
      <trkpt lat="48.27423" lon="2.61979">
        <ele>87.2</ele>
        <time>2022-06-05T14:13:56.000Z</time>
      </trkpt>
      <trkpt lat="48.27426" lon="2.61992">
        <ele>87.9</ele>
        <time>2022-06-05T14:14:04.000Z</time>
      </trkpt>
      <trkpt lat="48.27429" lon="2.62007">
        <ele>88.1</ele>
        <time>2022-06-05T14:14:12.000Z</time>
      </trkpt>
      <trkpt lat="48.27435" lon="2.62019">
        <ele>87.9</ele>
        <time>2022-06-05T14:14:20.000Z</time>
      </trkpt>
      <trkpt lat="48.27436" lon="2.62033">
        <ele>88.1</ele>
        <time>2022-06-05T14:14:25.000Z</time>
      </trkpt>
      <trkpt lat="48.27439" lon="2.62047">
        <ele>87.9</ele>
        <time>2022-06-05T14:14:34.000Z</time>
      </trkpt>
      <trkpt lat="48.27442" lon="2.62062">
        <ele>87.2</ele>
        <time>2022-06-05T14:14:44.000Z</time>
      </trkpt>
      <trkpt lat="48.27445" lon="2.62076">
        <ele>86.2</ele>
        <time>2022-06-05T14:14:52.000Z</time>
      </trkpt>
      <trkpt lat="48.27448" lon="2.62091">
        <ele>85.7</ele>
        <time>2022-06-05T14:15:01.000Z</time>
      </trkpt>
      <trkpt lat="48.27451" lon="2.62105">
        <ele>84.6</ele>
        <time>2022-06-05T14:15:09.000Z</time>
      </trkpt>
      <trkpt lat="48.27453" lon="2.62119">
        <ele>84</ele>
        <time>2022-06-05T14:15:17.000Z</time>
      </trkpt>
      <trkpt lat="48.27455" lon="2.62133">
        <ele>83.7</ele>
        <time>2022-06-05T14:15:24.000Z</time>
      </trkpt>
      <trkpt lat="48.27457" lon="2.62147">
        <ele>83.7</ele>
        <time>2022-06-05T14:15:31.000Z</time>
      </trkpt>
      <trkpt lat="48.27458" lon="2.62161">
        <ele>84.1</ele>
        <time>2022-06-05T14:15:38.000Z</time>
      </trkpt>
      <trkpt lat="48.27457" lon="2.62175">
        <ele>84.6</ele>
        <time>2022-06-05T14:15:45.000Z</time>
      </trkpt>
      <trkpt lat="48.27458" lon="2.62189">
        <ele>84.8</ele>
        <time>2022-06-05T14:15:53.000Z</time>
      </trkpt>
      <trkpt lat="48.27458" lon="2.62204">
        <ele>84.2</ele>
        <time>2022-06-05T14:16:01.000Z</time>
      </trkpt>
      <trkpt lat="48.27458" lon="2.62219">
        <ele>84.5</ele>
        <time>2022-06-05T14:16:08.000Z</time>
      </trkpt>
      <trkpt lat="48.27459" lon="2.62234">
        <ele>84.3</ele>
        <time>2022-06-05T14:16:16.000Z</time>
      </trkpt>
      <trkpt lat="48.2746" lon="2.62248">
        <ele>84.4</ele>
        <time>2022-06-05T14:16:23.000Z</time>
      </trkpt>
      <trkpt lat="48.27461" lon="2.62262">
        <ele>83.9</ele>
        <time>2022-06-05T14:16:30.000Z</time>
      </trkpt>
      <trkpt lat="48.27462" lon="2.62276">
        <ele>84</ele>
        <time>2022-06-05T14:16:37.000Z</time>
      </trkpt>
      <trkpt lat="48.27462" lon="2.6228">
        <ele>84.1</ele>
        <time>2022-06-05T14:16:45.000Z</time>
      </trkpt>
      <trkpt lat="48.27461" lon="2.6228">
        <ele>84.3</ele>
        <time>2022-06-05T14:16:46.000Z</time>
      </trkpt>
      <trkpt lat="48.2746" lon="2.62294">
        <ele>84.6</ele>
        <time>2022-06-05T14:16:55.000Z</time>
      </trkpt>
      <trkpt lat="48.2746" lon="2.62309">
        <ele>85</ele>
        <time>2022-06-05T14:17:03.000Z</time>
      </trkpt>
      <trkpt lat="48.2746" lon="2.62322">
        <ele>84.8</ele>
        <time>2022-06-05T14:17:09.000Z</time>
      </trkpt>
      <trkpt lat="48.27461" lon="2.62337">
        <ele>85.3</ele>
        <time>2022-06-05T14:17:17.000Z</time>
      </trkpt>
      <trkpt lat="48.27463" lon="2.62351">
        <ele>85.6</ele>
        <time>2022-06-05T14:17:24.000Z</time>
      </trkpt>
      <trkpt lat="48.27462" lon="2.62366">
        <ele>85.8</ele>
        <time>2022-06-05T14:17:31.000Z</time>
      </trkpt>
      <trkpt lat="48.27465" lon="2.6238">
        <ele>86.4</ele>
        <time>2022-06-05T14:17:38.000Z</time>
      </trkpt>
      <trkpt lat="48.27468" lon="2.62395">
        <ele>86.4</ele>
        <time>2022-06-05T14:17:46.000Z</time>
      </trkpt>
      <trkpt lat="48.27469" lon="2.62409">
        <ele>85.9</ele>
        <time>2022-06-05T14:18:10.000Z</time>
      </trkpt>
      <trkpt lat="48.27468" lon="2.62424">
        <ele>86.2</ele>
        <time>2022-06-05T14:18:19.000Z</time>
      </trkpt>
      <trkpt lat="48.27466" lon="2.62437">
        <ele>85.6</ele>
        <time>2022-06-05T14:18:28.000Z</time>
      </trkpt>
      <trkpt lat="48.27466" lon="2.62451">
        <ele>85.3</ele>
        <time>2022-06-05T14:18:38.000Z</time>
      </trkpt>
      <trkpt lat="48.27464" lon="2.62466">
        <ele>85.3</ele>
        <time>2022-06-05T14:18:46.000Z</time>
      </trkpt>
      <trkpt lat="48.27463" lon="2.62481">
        <ele>86</ele>
        <time>2022-06-05T14:18:54.000Z</time>
      </trkpt>
      <trkpt lat="48.27462" lon="2.62496">
        <ele>85.9</ele>
        <time>2022-06-05T14:19:02.000Z</time>
      </trkpt>
      <trkpt lat="48.27462" lon="2.62511">
        <ele>87</ele>
        <time>2022-06-05T14:19:10.000Z</time>
      </trkpt>
      <trkpt lat="48.27461" lon="2.62525">
        <ele>87.3</ele>
        <time>2022-06-05T14:19:19.000Z</time>
      </trkpt>
      <trkpt lat="48.27458" lon="2.62538">
        <ele>87.5</ele>
        <time>2022-06-05T14:19:26.000Z</time>
      </trkpt>
      <trkpt lat="48.27461" lon="2.6254">
        <ele>88.2</ele>
        <time>2022-06-05T14:19:32.000Z</time>
      </trkpt>
      <trkpt lat="48.27461" lon="2.62541">
        <ele>87.6</ele>
        <time>2022-06-05T14:19:38.000Z</time>
      </trkpt>
      <trkpt lat="48.27461" lon="2.62541">
        <ele>87.6</ele>
        <time>2022-06-05T14:19:39.000Z</time>
      </trkpt>
      <trkpt lat="48.27461" lon="2.62541">
        <ele>87.8</ele>
        <time>2022-06-05T14:19:42.000Z</time>
      </trkpt>
      <trkpt lat="48.27461" lon="2.62541">
        <ele>87.6</ele>
        <time>2022-06-05T14:19:44.000Z</time>
      </trkpt>
      <trkpt lat="48.27462" lon="2.62541">
        <ele>87.7</ele>
        <time>2022-06-05T14:19:45.000Z</time>
      </trkpt>
      <trkpt lat="48.27466" lon="2.62531">
        <ele>87.5</ele>
        <time>2022-06-05T14:20:00.000Z</time>
      </trkpt>
      <trkpt lat="48.27466" lon="2.62531">
        <ele>87.6</ele>
        <time>2022-06-05T14:20:01.000Z</time>
      </trkpt>
      <trkpt lat="48.27469" lon="2.62544">
        <ele>86.6</ele>
        <time>2022-06-05T14:20:14.000Z</time>
      </trkpt>
      <trkpt lat="48.27466" lon="2.62557">
        <ele>87.1</ele>
        <time>2022-06-05T14:20:23.000Z</time>
      </trkpt>
      <trkpt lat="48.27459" lon="2.62566">
        <ele>86.9</ele>
        <time>2022-06-05T14:20:29.000Z</time>
      </trkpt>
      <trkpt lat="48.27455" lon="2.62581">
        <ele>86.3</ele>
        <time>2022-06-05T14:20:38.000Z</time>
      </trkpt>
      <trkpt lat="48.27452" lon="2.62594">
        <ele>87</ele>
        <time>2022-06-05T14:20:43.000Z</time>
      </trkpt>
      <trkpt lat="48.2745" lon="2.6261">
        <ele>88</ele>
        <time>2022-06-05T14:20:51.000Z</time>
      </trkpt>
      <trkpt lat="48.27449" lon="2.62624">
        <ele>88.9</ele>
        <time>2022-06-05T14:20:59.000Z</time>
      </trkpt>
      <trkpt lat="48.2745" lon="2.62639">
        <ele>89.1</ele>
        <time>2022-06-05T14:21:06.000Z</time>
      </trkpt>
      <trkpt lat="48.2745" lon="2.62653">
        <ele>89.2</ele>
        <time>2022-06-05T14:21:16.000Z</time>
      </trkpt>
      <trkpt lat="48.2745" lon="2.62668">
        <ele>88.8</ele>
        <time>2022-06-05T14:21:25.000Z</time>
      </trkpt>
      <trkpt lat="48.27449" lon="2.62682">
        <ele>88.9</ele>
        <time>2022-06-05T14:21:34.000Z</time>
      </trkpt>
      <trkpt lat="48.27443" lon="2.62693">
        <ele>88.9</ele>
        <time>2022-06-05T14:21:40.000Z</time>
      </trkpt>
      <trkpt lat="48.2744" lon="2.62707">
        <ele>89</ele>
        <time>2022-06-05T14:21:46.000Z</time>
      </trkpt>
      <trkpt lat="48.27443" lon="2.62721">
        <ele>89.5</ele>
        <time>2022-06-05T14:21:53.000Z</time>
      </trkpt>
      <trkpt lat="48.27444" lon="2.62735">
        <ele>90</ele>
        <time>2022-06-05T14:22:01.000Z</time>
      </trkpt>
      <trkpt lat="48.27445" lon="2.62743">
        <ele>90.2</ele>
        <time>2022-06-05T14:22:08.000Z</time>
      </trkpt>
      <trkpt lat="48.27445" lon="2.62744">
        <ele>90.6</ele>
        <time>2022-06-05T14:22:11.000Z</time>
      </trkpt>
      <trkpt lat="48.27446" lon="2.62758">
        <ele>90.7</ele>
        <time>2022-06-05T14:22:19.000Z</time>
      </trkpt>
      <trkpt lat="48.27443" lon="2.62772">
        <ele>90.3</ele>
        <time>2022-06-05T14:22:26.000Z</time>
      </trkpt>
      <trkpt lat="48.27441" lon="2.62786">
        <ele>89.8</ele>
        <time>2022-06-05T14:22:32.000Z</time>
      </trkpt>
      <trkpt lat="48.27443" lon="2.62801">
        <ele>90.1</ele>
        <time>2022-06-05T14:22:40.000Z</time>
      </trkpt>
      <trkpt lat="48.2744" lon="2.62816">
        <ele>89.8</ele>
        <time>2022-06-05T14:22:49.000Z</time>
      </trkpt>
      <trkpt lat="48.27442" lon="2.62829">
        <ele>89.7</ele>
        <time>2022-06-05T14:22:57.000Z</time>
      </trkpt>
      <trkpt lat="48.27441" lon="2.62844">
        <ele>89.8</ele>
        <time>2022-06-05T14:23:06.000Z</time>
      </trkpt>
      <trkpt lat="48.27441" lon="2.62858">
        <ele>89.8</ele>
        <time>2022-06-05T14:23:13.000Z</time>
      </trkpt>
      <trkpt lat="48.27439" lon="2.62872">
        <ele>90.5</ele>
        <time>2022-06-05T14:23:22.000Z</time>
      </trkpt>
      <trkpt lat="48.27433" lon="2.62883">
        <ele>89.6</ele>
        <time>2022-06-05T14:23:36.000Z</time>
      </trkpt>
      <trkpt lat="48.27433" lon="2.62899">
        <ele>89.4</ele>
        <time>2022-06-05T14:23:45.000Z</time>
      </trkpt>
      <trkpt lat="48.27438" lon="2.62912">
        <ele>89</ele>
        <time>2022-06-05T14:23:49.000Z</time>
      </trkpt>
      <trkpt lat="48.27442" lon="2.62925">
        <ele>88.2</ele>
        <time>2022-06-05T14:23:52.000Z</time>
      </trkpt>
      <trkpt lat="48.2744" lon="2.62939">
        <ele>88.2</ele>
        <time>2022-06-05T14:23:59.000Z</time>
      </trkpt>
      <trkpt lat="48.27439" lon="2.62954">
        <ele>87.7</ele>
        <time>2022-06-05T14:24:09.000Z</time>
      </trkpt>
      <trkpt lat="48.27437" lon="2.62967">
        <ele>87.7</ele>
        <time>2022-06-05T14:24:17.000Z</time>
      </trkpt>
      <trkpt lat="48.27433" lon="2.62981">
        <ele>87.5</ele>
        <time>2022-06-05T14:24:25.000Z</time>
      </trkpt>
      <trkpt lat="48.27427" lon="2.62993">
        <ele>87.7</ele>
        <time>2022-06-05T14:24:33.000Z</time>
      </trkpt>
      <trkpt lat="48.27423" lon="2.63007">
        <ele>87.9</ele>
        <time>2022-06-05T14:24:41.000Z</time>
      </trkpt>
      <trkpt lat="48.27422" lon="2.63023">
        <ele>88.2</ele>
        <time>2022-06-05T14:24:47.000Z</time>
      </trkpt>
      <trkpt lat="48.27425" lon="2.63037">
        <ele>88.7</ele>
        <time>2022-06-05T14:24:53.000Z</time>
      </trkpt>
      <trkpt lat="48.27423" lon="2.63051">
        <ele>89</ele>
        <time>2022-06-05T14:24:59.000Z</time>
      </trkpt>
      <trkpt lat="48.27424" lon="2.63065">
        <ele>89.1</ele>
        <time>2022-06-05T14:25:03.000Z</time>
      </trkpt>
      <trkpt lat="48.27425" lon="2.6308">
        <ele>90</ele>
        <time>2022-06-05T14:25:11.000Z</time>
      </trkpt>
      <trkpt lat="48.27422" lon="2.63093">
        <ele>90.5</ele>
        <time>2022-06-05T14:25:18.000Z</time>
      </trkpt>
      <trkpt lat="48.27422" lon="2.63108">
        <ele>90.5</ele>
        <time>2022-06-05T14:25:26.000Z</time>
      </trkpt>
      <trkpt lat="48.27421" lon="2.63123">
        <ele>90.4</ele>
        <time>2022-06-05T14:25:33.000Z</time>
      </trkpt>
      <trkpt lat="48.2742" lon="2.63136">
        <ele>90.6</ele>
        <time>2022-06-05T14:25:40.000Z</time>
      </trkpt>
      <trkpt lat="48.27416" lon="2.6315">
        <ele>90.3</ele>
        <time>2022-06-05T14:25:48.000Z</time>
      </trkpt>
      <trkpt lat="48.27413" lon="2.63163">
        <ele>90.6</ele>
        <time>2022-06-05T14:25:57.000Z</time>
      </trkpt>
      <trkpt lat="48.27412" lon="2.63177">
        <ele>90.5</ele>
        <time>2022-06-05T14:26:04.000Z</time>
      </trkpt>
      <trkpt lat="48.27412" lon="2.63192">
        <ele>90.9</ele>
        <time>2022-06-05T14:26:11.000Z</time>
      </trkpt>
      <trkpt lat="48.27412" lon="2.63206">
        <ele>90.8</ele>
        <time>2022-06-05T14:26:18.000Z</time>
      </trkpt>
      <trkpt lat="48.2741" lon="2.63219">
        <ele>90.5</ele>
        <time>2022-06-05T14:26:25.000Z</time>
      </trkpt>
      <trkpt lat="48.27413" lon="2.63232">
        <ele>90.6</ele>
        <time>2022-06-05T14:26:33.000Z</time>
      </trkpt>
      <trkpt lat="48.27413" lon="2.63246">
        <ele>90.5</ele>
        <time>2022-06-05T14:26:43.000Z</time>
      </trkpt>
      <trkpt lat="48.27411" lon="2.6326">
        <ele>90.3</ele>
        <time>2022-06-05T14:26:50.000Z</time>
      </trkpt>
      <trkpt lat="48.27405" lon="2.63273">
        <ele>89.9</ele>
        <time>2022-06-05T14:27:00.000Z</time>
      </trkpt>
      <trkpt lat="48.27404" lon="2.63287">
        <ele>89.9</ele>
        <time>2022-06-05T14:27:09.000Z</time>
      </trkpt>
      <trkpt lat="48.274" lon="2.63301">
        <ele>89.6</ele>
        <time>2022-06-05T14:27:18.000Z</time>
      </trkpt>
      <trkpt lat="48.27398" lon="2.63315">
        <ele>89.3</ele>
        <time>2022-06-05T14:27:25.000Z</time>
      </trkpt>
      <trkpt lat="48.27398" lon="2.63329">
        <ele>90</ele>
        <time>2022-06-05T14:27:32.000Z</time>
      </trkpt>
      <trkpt lat="48.27399" lon="2.63343">
        <ele>89.8</ele>
        <time>2022-06-05T14:27:50.000Z</time>
      </trkpt>
      <trkpt lat="48.27397" lon="2.63358">
        <ele>89.5</ele>
        <time>2022-06-05T14:28:00.000Z</time>
      </trkpt>
      <trkpt lat="48.27394" lon="2.63372">
        <ele>88.7</ele>
        <time>2022-06-05T14:28:19.000Z</time>
      </trkpt>
      <trkpt lat="48.27395" lon="2.63386">
        <ele>88.4</ele>
        <time>2022-06-05T14:28:32.000Z</time>
      </trkpt>
      <trkpt lat="48.27391" lon="2.63386">
        <ele>87.3</ele>
        <time>2022-06-05T14:28:44.000Z</time>
      </trkpt>
      <trkpt lat="48.27392" lon="2.63386">
        <ele>87.2</ele>
        <time>2022-06-05T14:28:46.000Z</time>
      </trkpt>
      <trkpt lat="48.27392" lon="2.63386">
        <ele>87</ele>
        <time>2022-06-05T14:28:48.000Z</time>
      </trkpt>
      <trkpt lat="48.27392" lon="2.63386">
        <ele>87.1</ele>
        <time>2022-06-05T14:28:49.000Z</time>
      </trkpt>
      <trkpt lat="48.27392" lon="2.63386">
        <ele>87.1</ele>
        <time>2022-06-05T14:28:50.000Z</time>
      </trkpt>
      <trkpt lat="48.27392" lon="2.63385">
        <ele>87.1</ele>
        <time>2022-06-05T14:28:51.000Z</time>
      </trkpt>
      <trkpt lat="48.27392" lon="2.63384">
        <ele>86.8</ele>
        <time>2022-06-05T14:28:55.000Z</time>
      </trkpt>
      <trkpt lat="48.27391" lon="2.63384">
        <ele>86.1</ele>
        <time>2022-06-05T14:28:59.000Z</time>
      </trkpt>
      <trkpt lat="48.27391" lon="2.63384">
        <ele>86.1</ele>
        <time>2022-06-05T14:29:00.000Z</time>
      </trkpt>
      <trkpt lat="48.27392" lon="2.63384">
        <ele>85.6</ele>
        <time>2022-06-05T14:29:07.000Z</time>
      </trkpt>
      <trkpt lat="48.27388" lon="2.63397">
        <ele>85.2</ele>
        <time>2022-06-05T14:29:19.000Z</time>
      </trkpt>
      <trkpt lat="48.27385" lon="2.6341">
        <ele>85.3</ele>
        <time>2022-06-05T14:29:28.000Z</time>
      </trkpt>
      <trkpt lat="48.27385" lon="2.63411">
        <ele>85.5</ele>
        <time>2022-06-05T14:29:30.000Z</time>
      </trkpt>
      <trkpt lat="48.27385" lon="2.6341">
        <ele>85.6</ele>
        <time>2022-06-05T14:29:31.000Z</time>
      </trkpt>
      <trkpt lat="48.27382" lon="2.63422">
        <ele>85.9</ele>
        <time>2022-06-05T14:29:45.000Z</time>
      </trkpt>
      <trkpt lat="48.27381" lon="2.63422">
        <ele>85.9</ele>
        <time>2022-06-05T14:29:48.000Z</time>
      </trkpt>
      <trkpt lat="48.27382" lon="2.63422">
        <ele>86.1</ele>
        <time>2022-06-05T14:29:50.000Z</time>
      </trkpt>
      <trkpt lat="48.27382" lon="2.63421">
        <ele>86.1</ele>
        <time>2022-06-05T14:29:51.000Z</time>
      </trkpt>
      <trkpt lat="48.27382" lon="2.63422">
        <ele>85.8</ele>
        <time>2022-06-05T14:29:53.000Z</time>
      </trkpt>
      <trkpt lat="48.27382" lon="2.63423">
        <ele>85.4</ele>
        <time>2022-06-05T14:29:54.000Z</time>
      </trkpt>
      <trkpt lat="48.27382" lon="2.63423">
        <ele>84.8</ele>
        <time>2022-06-05T14:29:57.000Z</time>
      </trkpt>
      <trkpt lat="48.27382" lon="2.63423">
        <ele>85</ele>
        <time>2022-06-05T14:29:59.000Z</time>
      </trkpt>
      <trkpt lat="48.2738" lon="2.63425">
        <ele>85</ele>
        <time>2022-06-05T14:30:08.000Z</time>
      </trkpt>
      <trkpt lat="48.2738" lon="2.63425">
        <ele>85.3</ele>
        <time>2022-06-05T14:30:10.000Z</time>
      </trkpt>
      <trkpt lat="48.2738" lon="2.63426">
        <ele>85.1</ele>
        <time>2022-06-05T14:30:13.000Z</time>
      </trkpt>
      <trkpt lat="48.27379" lon="2.63426">
        <ele>85.2</ele>
        <time>2022-06-05T14:30:14.000Z</time>
      </trkpt>
      <trkpt lat="48.27379" lon="2.63426">
        <ele>85.3</ele>
        <time>2022-06-05T14:30:15.000Z</time>
      </trkpt>
      <trkpt lat="48.27379" lon="2.63426">
        <ele>85.3</ele>
        <time>2022-06-05T14:30:16.000Z</time>
      </trkpt>
      <trkpt lat="48.2738" lon="2.63418">
        <ele>84.1</ele>
        <time>2022-06-05T14:30:54.000Z</time>
      </trkpt>
      <trkpt lat="48.2738" lon="2.63419">
        <ele>83.8</ele>
        <time>2022-06-05T14:30:56.000Z</time>
      </trkpt>
      <trkpt lat="48.2738" lon="2.63419">
        <ele>83.9</ele>
        <time>2022-06-05T14:30:57.000Z</time>
      </trkpt>
      <trkpt lat="48.2738" lon="2.63419">
        <ele>83.7</ele>
        <time>2022-06-05T14:31:06.000Z</time>
      </trkpt>
      <trkpt lat="48.27371" lon="2.63421">
        <ele>83</ele>
        <time>2022-06-05T14:31:20.000Z</time>
      </trkpt>
      <trkpt lat="48.27362" lon="2.63413">
        <ele>83.4</ele>
        <time>2022-06-05T14:31:31.000Z</time>
      </trkpt>
      <trkpt lat="48.27353" lon="2.63412">
        <ele>83.9</ele>
        <time>2022-06-05T14:31:40.000Z</time>
      </trkpt>
      <trkpt lat="48.27345" lon="2.63409">
        <ele>84.2</ele>
        <time>2022-06-05T14:31:47.000Z</time>
      </trkpt>
      <trkpt lat="48.27344" lon="2.63408">
        <ele>84.2</ele>
        <time>2022-06-05T14:31:48.000Z</time>
      </trkpt>
      <trkpt lat="48.2734" lon="2.63405">
        <ele>84.5</ele>
        <time>2022-06-05T14:31:54.000Z</time>
      </trkpt>
      <trkpt lat="48.2734" lon="2.63405">
        <ele>84.6</ele>
        <time>2022-06-05T14:31:55.000Z</time>
      </trkpt>
      <trkpt lat="48.27331" lon="2.63405">
        <ele>84.5</ele>
        <time>2022-06-05T14:32:05.000Z</time>
      </trkpt>
      <trkpt lat="48.2732" lon="2.63405">
        <ele>85.3</ele>
        <time>2022-06-05T14:32:12.000Z</time>
      </trkpt>
      <trkpt lat="48.2732" lon="2.63405">
        <ele>85.4</ele>
        <time>2022-06-05T14:32:13.000Z</time>
      </trkpt>
      <trkpt lat="48.2732" lon="2.63404">
        <ele>85.3</ele>
        <time>2022-06-05T14:32:14.000Z</time>
      </trkpt>
      <trkpt lat="48.27311" lon="2.63399">
        <ele>85.1</ele>
        <time>2022-06-05T14:32:21.000Z</time>
      </trkpt>
      <trkpt lat="48.27303" lon="2.63395">
        <ele>85</ele>
        <time>2022-06-05T14:32:27.000Z</time>
      </trkpt>
      <trkpt lat="48.27292" lon="2.63391">
        <ele>85.1</ele>
        <time>2022-06-05T14:32:33.000Z</time>
      </trkpt>
      <trkpt lat="48.27283" lon="2.63387">
        <ele>85.4</ele>
        <time>2022-06-05T14:32:42.000Z</time>
      </trkpt>
      <trkpt lat="48.27274" lon="2.63382">
        <ele>85.8</ele>
        <time>2022-06-05T14:32:53.000Z</time>
      </trkpt>
      <trkpt lat="48.27265" lon="2.63377">
        <ele>86.4</ele>
        <time>2022-06-05T14:32:59.000Z</time>
      </trkpt>
      <trkpt lat="48.27256" lon="2.63371">
        <ele>86.3</ele>
        <time>2022-06-05T14:33:06.000Z</time>
      </trkpt>
      <trkpt lat="48.27247" lon="2.6337">
        <ele>86.3</ele>
        <time>2022-06-05T14:33:13.000Z</time>
      </trkpt>
      <trkpt lat="48.27237" lon="2.63368">
        <ele>85.9</ele>
        <time>2022-06-05T14:33:23.000Z</time>
      </trkpt>
      <trkpt lat="48.27227" lon="2.63367">
        <ele>85</ele>
        <time>2022-06-05T14:33:32.000Z</time>
      </trkpt>
      <trkpt lat="48.27218" lon="2.63363">
        <ele>84.8</ele>
        <time>2022-06-05T14:33:41.000Z</time>
      </trkpt>
      <trkpt lat="48.27208" lon="2.63362">
        <ele>83</ele>
        <time>2022-06-05T14:33:52.000Z</time>
      </trkpt>
      <trkpt lat="48.27199" lon="2.6336">
        <ele>83</ele>
        <time>2022-06-05T14:34:02.000Z</time>
      </trkpt>
      <trkpt lat="48.2719" lon="2.63356">
        <ele>82.7</ele>
        <time>2022-06-05T14:34:12.000Z</time>
      </trkpt>
      <trkpt lat="48.27183" lon="2.63349">
        <ele>83</ele>
        <time>2022-06-05T14:34:20.000Z</time>
      </trkpt>
      <trkpt lat="48.27173" lon="2.63347">
        <ele>82.6</ele>
        <time>2022-06-05T14:34:25.000Z</time>
      </trkpt>
      <trkpt lat="48.27164" lon="2.63351">
        <ele>81.5</ele>
        <time>2022-06-05T14:34:39.000Z</time>
      </trkpt>
      <trkpt lat="48.27154" lon="2.63355">
        <ele>81.3</ele>
        <time>2022-06-05T14:34:48.000Z</time>
      </trkpt>
      <trkpt lat="48.27145" lon="2.63358">
        <ele>81.6</ele>
        <time>2022-06-05T14:34:54.000Z</time>
      </trkpt>
      <trkpt lat="48.27143" lon="2.63371">
        <ele>82.2</ele>
        <time>2022-06-05T14:35:05.000Z</time>
      </trkpt>
      <trkpt lat="48.27139" lon="2.63384">
        <ele>82.9</ele>
        <time>2022-06-05T14:35:14.000Z</time>
      </trkpt>
      <trkpt lat="48.27134" lon="2.63395">
        <ele>83.2</ele>
        <time>2022-06-05T14:35:24.000Z</time>
      </trkpt>
      <trkpt lat="48.27127" lon="2.63405">
        <ele>83.7</ele>
        <time>2022-06-05T14:35:31.000Z</time>
      </trkpt>
      <trkpt lat="48.2712" lon="2.63414">
        <ele>84.2</ele>
        <time>2022-06-05T14:35:40.000Z</time>
      </trkpt>
      <trkpt lat="48.27112" lon="2.63421">
        <ele>84.6</ele>
        <time>2022-06-05T14:35:47.000Z</time>
      </trkpt>
      <trkpt lat="48.27103" lon="2.63426">
        <ele>84.9</ele>
        <time>2022-06-05T14:35:57.000Z</time>
      </trkpt>
      <trkpt lat="48.27093" lon="2.63428">
        <ele>85.4</ele>
        <time>2022-06-05T14:36:04.000Z</time>
      </trkpt>
      <trkpt lat="48.27084" lon="2.63429">
        <ele>85.7</ele>
        <time>2022-06-05T14:36:09.000Z</time>
      </trkpt>
      <trkpt lat="48.27075" lon="2.6343">
        <ele>85.9</ele>
        <time>2022-06-05T14:36:20.000Z</time>
      </trkpt>
      <trkpt lat="48.27067" lon="2.63432">
        <ele>86.5</ele>
        <time>2022-06-05T14:36:46.000Z</time>
      </trkpt>
      <trkpt lat="48.27066" lon="2.63432">
        <ele>86.4</ele>
        <time>2022-06-05T14:36:47.000Z</time>
      </trkpt>
      <trkpt lat="48.27061" lon="2.63444">
        <ele>86.2</ele>
        <time>2022-06-05T14:37:04.000Z</time>
      </trkpt>
      <trkpt lat="48.27053" lon="2.63452">
        <ele>86.1</ele>
        <time>2022-06-05T14:37:13.000Z</time>
      </trkpt>
      <trkpt lat="48.27053" lon="2.63467">
        <ele>85.6</ele>
        <time>2022-06-05T14:37:27.000Z</time>
      </trkpt>
      <trkpt lat="48.27051" lon="2.63481">
        <ele>85.5</ele>
        <time>2022-06-05T14:37:35.000Z</time>
      </trkpt>
      <trkpt lat="48.27048" lon="2.63494">
        <ele>85.8</ele>
        <time>2022-06-05T14:37:44.000Z</time>
      </trkpt>
      <trkpt lat="48.27045" lon="2.63508">
        <ele>86.5</ele>
        <time>2022-06-05T14:37:51.000Z</time>
      </trkpt>
      <trkpt lat="48.27042" lon="2.63522">
        <ele>87.1</ele>
        <time>2022-06-05T14:38:00.000Z</time>
      </trkpt>
      <trkpt lat="48.27042" lon="2.63537">
        <ele>87.3</ele>
        <time>2022-06-05T14:38:06.000Z</time>
      </trkpt>
      <trkpt lat="48.27045" lon="2.63551">
        <ele>87.4</ele>
        <time>2022-06-05T14:38:12.000Z</time>
      </trkpt>
      <trkpt lat="48.27045" lon="2.63566">
        <ele>87.3</ele>
        <time>2022-06-05T14:38:23.000Z</time>
      </trkpt>
      <trkpt lat="48.27048" lon="2.63579">
        <ele>87.1</ele>
        <time>2022-06-05T14:38:30.000Z</time>
      </trkpt>
      <trkpt lat="48.2705" lon="2.63592">
        <ele>87.2</ele>
        <time>2022-06-05T14:38:35.000Z</time>
      </trkpt>
      <trkpt lat="48.27052" lon="2.63607">
        <ele>87.5</ele>
        <time>2022-06-05T14:38:43.000Z</time>
      </trkpt>
      <trkpt lat="48.27052" lon="2.63621">
        <ele>85.9</ele>
        <time>2022-06-05T14:38:52.000Z</time>
      </trkpt>
      <trkpt lat="48.27053" lon="2.63635">
        <ele>86.4</ele>
        <time>2022-06-05T14:38:59.000Z</time>
      </trkpt>
      <trkpt lat="48.27053" lon="2.6365">
        <ele>86.7</ele>
        <time>2022-06-05T14:39:08.000Z</time>
      </trkpt>
      <trkpt lat="48.2705" lon="2.63665">
        <ele>87.1</ele>
        <time>2022-06-05T14:39:16.000Z</time>
      </trkpt>
      <trkpt lat="48.27047" lon="2.63679">
        <ele>87.3</ele>
        <time>2022-06-05T14:39:25.000Z</time>
      </trkpt>
      <trkpt lat="48.27045" lon="2.63694">
        <ele>86.9</ele>
        <time>2022-06-05T14:39:34.000Z</time>
      </trkpt>
      <trkpt lat="48.27044" lon="2.63708">
        <ele>86.1</ele>
        <time>2022-06-05T14:39:44.000Z</time>
      </trkpt>
      <trkpt lat="48.27045" lon="2.63723">
        <ele>86.4</ele>
        <time>2022-06-05T14:39:52.000Z</time>
      </trkpt>
      <trkpt lat="48.27043" lon="2.63738">
        <ele>84.3</ele>
        <time>2022-06-05T14:40:00.000Z</time>
      </trkpt>
      <trkpt lat="48.27042" lon="2.63753">
        <ele>85.9</ele>
        <time>2022-06-05T14:40:07.000Z</time>
      </trkpt>
      <trkpt lat="48.27041" lon="2.63768">
        <ele>85.8</ele>
        <time>2022-06-05T14:40:16.000Z</time>
      </trkpt>
      <trkpt lat="48.27041" lon="2.63783">
        <ele>85.8</ele>
        <time>2022-06-05T14:40:25.000Z</time>
      </trkpt>
      <trkpt lat="48.2704" lon="2.63797">
        <ele>85.7</ele>
        <time>2022-06-05T14:40:33.000Z</time>
      </trkpt>
      <trkpt lat="48.2704" lon="2.63811">
        <ele>86.3</ele>
        <time>2022-06-05T14:40:39.000Z</time>
      </trkpt>
      <trkpt lat="48.2704" lon="2.63825">
        <ele>86.9</ele>
        <time>2022-06-05T14:40:47.000Z</time>
      </trkpt>
      <trkpt lat="48.2704" lon="2.63839">
        <ele>86.8</ele>
        <time>2022-06-05T14:40:55.000Z</time>
      </trkpt>
      <trkpt lat="48.27038" lon="2.63853">
        <ele>86.8</ele>
        <time>2022-06-05T14:41:02.000Z</time>
      </trkpt>
      <trkpt lat="48.2704" lon="2.63866">
        <ele>86.4</ele>
        <time>2022-06-05T14:41:08.000Z</time>
      </trkpt>
      <trkpt lat="48.27038" lon="2.63881">
        <ele>86.2</ele>
        <time>2022-06-05T14:41:13.000Z</time>
      </trkpt>
      <trkpt lat="48.27036" lon="2.63895">
        <ele>86.1</ele>
        <time>2022-06-05T14:41:22.000Z</time>
      </trkpt>
      <trkpt lat="48.27033" lon="2.63908">
        <ele>86</ele>
        <time>2022-06-05T14:41:28.000Z</time>
      </trkpt>
      <trkpt lat="48.27032" lon="2.63924">
        <ele>86.2</ele>
        <time>2022-06-05T14:41:35.000Z</time>
      </trkpt>
      <trkpt lat="48.2703" lon="2.63937">
        <ele>85.3</ele>
        <time>2022-06-05T14:41:43.000Z</time>
      </trkpt>
      <trkpt lat="48.27022" lon="2.63947">
        <ele>84.7</ele>
        <time>2022-06-05T14:41:49.000Z</time>
      </trkpt>
      <trkpt lat="48.27017" lon="2.63961">
        <ele>84.3</ele>
        <time>2022-06-05T14:41:56.000Z</time>
      </trkpt>
      <trkpt lat="48.27014" lon="2.63976">
        <ele>83.8</ele>
        <time>2022-06-05T14:42:05.000Z</time>
      </trkpt>
      <trkpt lat="48.27016" lon="2.63991">
        <ele>84.6</ele>
        <time>2022-06-05T14:42:13.000Z</time>
      </trkpt>
      <trkpt lat="48.27012" lon="2.64005">
        <ele>85.3</ele>
        <time>2022-06-05T14:42:19.000Z</time>
      </trkpt>
      <trkpt lat="48.27013" lon="2.6402">
        <ele>85.5</ele>
        <time>2022-06-05T14:42:27.000Z</time>
      </trkpt>
      <trkpt lat="48.27015" lon="2.64034">
        <ele>85.8</ele>
        <time>2022-06-05T14:42:34.000Z</time>
      </trkpt>
      <trkpt lat="48.27014" lon="2.64049">
        <ele>85.7</ele>
        <time>2022-06-05T14:42:43.000Z</time>
      </trkpt>
      <trkpt lat="48.27013" lon="2.64062">
        <ele>85.5</ele>
        <time>2022-06-05T14:42:49.000Z</time>
      </trkpt>
      <trkpt lat="48.27011" lon="2.64076">
        <ele>85.4</ele>
        <time>2022-06-05T14:42:57.000Z</time>
      </trkpt>
      <trkpt lat="48.27008" lon="2.6409">
        <ele>84.4</ele>
        <time>2022-06-05T14:43:03.000Z</time>
      </trkpt>
      <trkpt lat="48.27007" lon="2.64104">
        <ele>82.7</ele>
        <time>2022-06-05T14:43:10.000Z</time>
      </trkpt>
      <trkpt lat="48.27004" lon="2.64118">
        <ele>81.8</ele>
        <time>2022-06-05T14:43:18.000Z</time>
      </trkpt>
      <trkpt lat="48.26998" lon="2.64128">
        <ele>81.6</ele>
        <time>2022-06-05T14:43:26.000Z</time>
      </trkpt>
      <trkpt lat="48.26991" lon="2.64138">
        <ele>82.6</ele>
        <time>2022-06-05T14:43:35.000Z</time>
      </trkpt>
      <trkpt lat="48.26984" lon="2.64148">
        <ele>83.5</ele>
        <time>2022-06-05T14:43:43.000Z</time>
      </trkpt>
      <trkpt lat="48.26979" lon="2.6416">
        <ele>84.5</ele>
        <time>2022-06-05T14:43:53.000Z</time>
      </trkpt>
      <trkpt lat="48.26973" lon="2.6417">
        <ele>84.8</ele>
        <time>2022-06-05T14:44:05.000Z</time>
      </trkpt>
      <trkpt lat="48.26966" lon="2.6418">
        <ele>84.6</ele>
        <time>2022-06-05T14:44:13.000Z</time>
      </trkpt>
      <trkpt lat="48.26957" lon="2.64186">
        <ele>84.8</ele>
        <time>2022-06-05T14:44:20.000Z</time>
      </trkpt>
      <trkpt lat="48.26948" lon="2.64192">
        <ele>84.7</ele>
        <time>2022-06-05T14:44:27.000Z</time>
      </trkpt>
      <trkpt lat="48.26945" lon="2.64206">
        <ele>84.1</ele>
        <time>2022-06-05T14:44:37.000Z</time>
      </trkpt>
      <trkpt lat="48.26941" lon="2.64219">
        <ele>83.8</ele>
        <time>2022-06-05T14:44:45.000Z</time>
      </trkpt>
      <trkpt lat="48.26939" lon="2.64233">
        <ele>83.3</ele>
        <time>2022-06-05T14:44:56.000Z</time>
      </trkpt>
      <trkpt lat="48.26933" lon="2.64244">
        <ele>83.7</ele>
        <time>2022-06-05T14:45:04.000Z</time>
      </trkpt>
      <trkpt lat="48.26927" lon="2.64254">
        <ele>83.6</ele>
        <time>2022-06-05T14:45:11.000Z</time>
      </trkpt>
      <trkpt lat="48.26921" lon="2.64265">
        <ele>83.5</ele>
        <time>2022-06-05T14:45:17.000Z</time>
      </trkpt>
      <trkpt lat="48.26916" lon="2.64278">
        <ele>83.3</ele>
        <time>2022-06-05T14:45:25.000Z</time>
      </trkpt>
      <trkpt lat="48.26912" lon="2.64292">
        <ele>82.9</ele>
        <time>2022-06-05T14:45:35.000Z</time>
      </trkpt>
      <trkpt lat="48.26907" lon="2.64304">
        <ele>83.3</ele>
        <time>2022-06-05T14:45:43.000Z</time>
      </trkpt>
      <trkpt lat="48.26899" lon="2.64311">
        <ele>83.1</ele>
        <time>2022-06-05T14:45:51.000Z</time>
      </trkpt>
      <trkpt lat="48.26892" lon="2.64322">
        <ele>83.3</ele>
        <time>2022-06-05T14:45:58.000Z</time>
      </trkpt>
      <trkpt lat="48.26884" lon="2.64332">
        <ele>83.5</ele>
        <time>2022-06-05T14:46:04.000Z</time>
      </trkpt>
      <trkpt lat="48.26881" lon="2.64345">
        <ele>83.8</ele>
        <time>2022-06-05T14:46:12.000Z</time>
      </trkpt>
      <trkpt lat="48.26876" lon="2.64357">
        <ele>84.5</ele>
        <time>2022-06-05T14:46:19.000Z</time>
      </trkpt>
      <trkpt lat="48.26868" lon="2.64365">
        <ele>85.1</ele>
        <time>2022-06-05T14:46:27.000Z</time>
      </trkpt>
      <trkpt lat="48.26863" lon="2.64368">
        <ele>86</ele>
        <time>2022-06-05T14:46:36.000Z</time>
      </trkpt>
      <trkpt lat="48.26862" lon="2.64368">
        <ele>86.1</ele>
        <time>2022-06-05T14:46:41.000Z</time>
      </trkpt>
      <trkpt lat="48.26862" lon="2.64367">
        <ele>86.1</ele>
        <time>2022-06-05T14:46:42.000Z</time>
      </trkpt>
      <trkpt lat="48.26862" lon="2.64369">
        <ele>85.5</ele>
        <time>2022-06-05T14:46:44.000Z</time>
      </trkpt>
      <trkpt lat="48.26853" lon="2.64363">
        <ele>85</ele>
        <time>2022-06-05T14:46:55.000Z</time>
      </trkpt>
      <trkpt lat="48.26846" lon="2.64372">
        <ele>84</ele>
        <time>2022-06-05T14:47:02.000Z</time>
      </trkpt>
      <trkpt lat="48.26841" lon="2.64384">
        <ele>81.9</ele>
        <time>2022-06-05T14:47:09.000Z</time>
      </trkpt>
      <trkpt lat="48.26838" lon="2.64398">
        <ele>85</ele>
        <time>2022-06-05T14:47:16.000Z</time>
      </trkpt>
      <trkpt lat="48.26833" lon="2.64409">
        <ele>85.5</ele>
        <time>2022-06-05T14:47:23.000Z</time>
      </trkpt>
      <trkpt lat="48.26829" lon="2.64422">
        <ele>86.1</ele>
        <time>2022-06-05T14:47:44.000Z</time>
      </trkpt>
      <trkpt lat="48.26829" lon="2.64422">
        <ele>86.2</ele>
        <time>2022-06-05T14:47:47.000Z</time>
      </trkpt>
      <trkpt lat="48.26829" lon="2.64422">
        <ele>86</ele>
        <time>2022-06-05T14:47:48.000Z</time>
      </trkpt>
      <trkpt lat="48.26829" lon="2.64423">
        <ele>86</ele>
        <time>2022-06-05T14:47:49.000Z</time>
      </trkpt>
      <trkpt lat="48.26829" lon="2.64422">
        <ele>86.1</ele>
        <time>2022-06-05T14:47:50.000Z</time>
      </trkpt>
      <trkpt lat="48.26829" lon="2.64422">
        <ele>86</ele>
        <time>2022-06-05T14:47:51.000Z</time>
      </trkpt>
      <trkpt lat="48.26828" lon="2.64422">
        <ele>86</ele>
        <time>2022-06-05T14:47:52.000Z</time>
      </trkpt>
      <trkpt lat="48.26827" lon="2.64422">
        <ele>85.6</ele>
        <time>2022-06-05T14:47:57.000Z</time>
      </trkpt>
      <trkpt lat="48.26826" lon="2.64421">
        <ele>85.6</ele>
        <time>2022-06-05T14:47:58.000Z</time>
      </trkpt>
      <trkpt lat="48.26819" lon="2.64409">
        <ele>85.2</ele>
        <time>2022-06-05T14:48:03.000Z</time>
      </trkpt>
      <trkpt lat="48.26826" lon="2.64419">
        <ele>84.5</ele>
        <time>2022-06-05T14:48:16.000Z</time>
      </trkpt>
      <trkpt lat="48.26835" lon="2.64424">
        <ele>85.1</ele>
        <time>2022-06-05T14:48:21.000Z</time>
      </trkpt>
      <trkpt lat="48.26845" lon="2.64429">
        <ele>85.3</ele>
        <time>2022-06-05T14:48:28.000Z</time>
      </trkpt>
      <trkpt lat="48.26853" lon="2.64439">
        <ele>85.8</ele>
        <time>2022-06-05T14:48:40.000Z</time>
      </trkpt>
      <trkpt lat="48.26859" lon="2.6445">
        <ele>86.6</ele>
        <time>2022-06-05T14:48:48.000Z</time>
      </trkpt>
      <trkpt lat="48.26866" lon="2.6446">
        <ele>88.3</ele>
        <time>2022-06-05T14:49:02.000Z</time>
      </trkpt>
      <trkpt lat="48.26874" lon="2.64468">
        <ele>90.2</ele>
        <time>2022-06-05T14:49:16.000Z</time>
      </trkpt>
      <trkpt lat="48.26877" lon="2.64477">
        <ele>93.5</ele>
        <time>2022-06-05T14:49:34.000Z</time>
      </trkpt>
      <trkpt lat="48.26878" lon="2.64477">
        <ele>93.5</ele>
        <time>2022-06-05T14:49:35.000Z</time>
      </trkpt>
      <trkpt lat="48.2687" lon="2.64484">
        <ele>97.4</ele>
        <time>2022-06-05T14:50:05.000Z</time>
      </trkpt>
      <trkpt lat="48.26869" lon="2.64485">
        <ele>95.5</ele>
        <time>2022-06-05T14:50:19.000Z</time>
      </trkpt>
      <trkpt lat="48.26868" lon="2.64485">
        <ele>94.1</ele>
        <time>2022-06-05T14:50:20.000Z</time>
      </trkpt>
      <trkpt lat="48.26868" lon="2.64485">
        <ele>92</ele>
        <time>2022-06-05T14:50:23.000Z</time>
      </trkpt>
      <trkpt lat="48.26868" lon="2.64484">
        <ele>93.3</ele>
        <time>2022-06-05T14:50:24.000Z</time>
      </trkpt>
      <trkpt lat="48.26875" lon="2.64492">
        <ele>96.2</ele>
        <time>2022-06-05T14:50:48.000Z</time>
      </trkpt>
      <trkpt lat="48.26871" lon="2.64505">
        <ele>96.5</ele>
        <time>2022-06-05T14:51:07.000Z</time>
      </trkpt>
      <trkpt lat="48.26862" lon="2.64506">
        <ele>96.6</ele>
        <time>2022-06-05T14:51:15.000Z</time>
      </trkpt>
      <trkpt lat="48.26871" lon="2.64506">
        <ele>97.6</ele>
        <time>2022-06-05T14:51:25.000Z</time>
      </trkpt>
      <trkpt lat="48.26879" lon="2.64512">
        <ele>99.4</ele>
        <time>2022-06-05T14:51:33.000Z</time>
      </trkpt>
      <trkpt lat="48.26877" lon="2.64526">
        <ele>101.3</ele>
        <time>2022-06-05T14:51:43.000Z</time>
      </trkpt>
      <trkpt lat="48.26871" lon="2.64539">
        <ele>103</ele>
        <time>2022-06-05T14:51:51.000Z</time>
      </trkpt>
      <trkpt lat="48.26871" lon="2.64552">
        <ele>109.4</ele>
        <time>2022-06-05T14:52:26.000Z</time>
      </trkpt>
      <trkpt lat="48.2687" lon="2.64553">
        <ele>109.7</ele>
        <time>2022-06-05T14:52:28.000Z</time>
      </trkpt>
      <trkpt lat="48.2687" lon="2.64554">
        <ele>110.3</ele>
        <time>2022-06-05T14:52:33.000Z</time>
      </trkpt>
      <trkpt lat="48.26872" lon="2.64556">
        <ele>110.5</ele>
        <time>2022-06-05T14:52:40.000Z</time>
      </trkpt>
      <trkpt lat="48.26872" lon="2.64556">
        <ele>110</ele>
        <time>2022-06-05T14:52:42.000Z</time>
      </trkpt>
      <trkpt lat="48.26871" lon="2.64557">
        <ele>110.6</ele>
        <time>2022-06-05T14:52:46.000Z</time>
      </trkpt>
      <trkpt lat="48.26872" lon="2.64558">
        <ele>111</ele>
        <time>2022-06-05T14:52:48.000Z</time>
      </trkpt>
      <trkpt lat="48.26873" lon="2.64572">
        <ele>111.1</ele>
        <time>2022-06-05T14:53:00.000Z</time>
      </trkpt>
      <trkpt lat="48.26872" lon="2.64573">
        <ele>111.4</ele>
        <time>2022-06-05T14:53:04.000Z</time>
      </trkpt>
      <trkpt lat="48.26872" lon="2.64573">
        <ele>111.7</ele>
        <time>2022-06-05T14:53:17.000Z</time>
      </trkpt>
      <trkpt lat="48.26872" lon="2.64572">
        <ele>112</ele>
        <time>2022-06-05T14:53:19.000Z</time>
      </trkpt>
      <trkpt lat="48.26872" lon="2.64572">
        <ele>111.8</ele>
        <time>2022-06-05T14:53:21.000Z</time>
      </trkpt>
      <trkpt lat="48.26872" lon="2.64572">
        <ele>111.8</ele>
        <time>2022-06-05T14:53:22.000Z</time>
      </trkpt>
      <trkpt lat="48.26872" lon="2.64572">
        <ele>110.2</ele>
        <time>2022-06-05T14:53:25.000Z</time>
      </trkpt>
      <trkpt lat="48.26869" lon="2.64586">
        <ele>111.2</ele>
        <time>2022-06-05T14:53:43.000Z</time>
      </trkpt>
      <trkpt lat="48.26871" lon="2.64601">
        <ele>112.5</ele>
        <time>2022-06-05T14:53:52.000Z</time>
      </trkpt>
      <trkpt lat="48.2687" lon="2.64604">
        <ele>113.9</ele>
        <time>2022-06-05T14:53:57.000Z</time>
      </trkpt>
      <trkpt lat="48.2687" lon="2.64604">
        <ele>113.7</ele>
        <time>2022-06-05T14:53:58.000Z</time>
      </trkpt>
      <trkpt lat="48.2687" lon="2.64604">
        <ele>113.6</ele>
        <time>2022-06-05T14:53:59.000Z</time>
      </trkpt>
      <trkpt lat="48.2687" lon="2.64604">
        <ele>113.6</ele>
        <time>2022-06-05T14:54:00.000Z</time>
      </trkpt>
      <trkpt lat="48.26873" lon="2.64615">
        <ele>111.1</ele>
        <time>2022-06-05T14:54:24.000Z</time>
      </trkpt>
      <trkpt lat="48.26873" lon="2.64615">
        <ele>111.1</ele>
        <time>2022-06-05T14:54:25.000Z</time>
      </trkpt>
      <trkpt lat="48.26875" lon="2.64629">
        <ele>110.3</ele>
        <time>2022-06-05T14:54:36.000Z</time>
      </trkpt>
      <trkpt lat="48.26875" lon="2.64644">
        <ele>108.9</ele>
        <time>2022-06-05T14:54:47.000Z</time>
      </trkpt>
      <trkpt lat="48.26878" lon="2.64651">
        <ele>110</ele>
        <time>2022-06-05T14:54:57.000Z</time>
      </trkpt>
      <trkpt lat="48.26879" lon="2.64651">
        <ele>109</ele>
        <time>2022-06-05T14:54:59.000Z</time>
      </trkpt>
      <trkpt lat="48.26879" lon="2.6465">
        <ele>108.8</ele>
        <time>2022-06-05T14:55:04.000Z</time>
      </trkpt>
      <trkpt lat="48.2688" lon="2.6465">
        <ele>108.1</ele>
        <time>2022-06-05T14:55:08.000Z</time>
      </trkpt>
      <trkpt lat="48.26881" lon="2.64651">
        <ele>106.8</ele>
        <time>2022-06-05T14:55:15.000Z</time>
      </trkpt>
      <trkpt lat="48.26882" lon="2.64651">
        <ele>105.8</ele>
        <time>2022-06-05T14:55:18.000Z</time>
      </trkpt>
      <trkpt lat="48.26884" lon="2.64652">
        <ele>106.4</ele>
        <time>2022-06-05T14:55:23.000Z</time>
      </trkpt>
      <trkpt lat="48.26884" lon="2.64653">
        <ele>105.7</ele>
        <time>2022-06-05T14:55:26.000Z</time>
      </trkpt>
      <trkpt lat="48.26884" lon="2.64667">
        <ele>104.1</ele>
        <time>2022-06-05T14:55:39.000Z</time>
      </trkpt>
      <trkpt lat="48.2689" lon="2.64678">
        <ele>104.6</ele>
        <time>2022-06-05T14:55:55.000Z</time>
      </trkpt>
      <trkpt lat="48.26895" lon="2.64682">
        <ele>106.7</ele>
        <time>2022-06-05T14:56:06.000Z</time>
      </trkpt>
      <trkpt lat="48.26895" lon="2.64682">
        <ele>108.1</ele>
        <time>2022-06-05T14:56:07.000Z</time>
      </trkpt>
      <trkpt lat="48.26895" lon="2.64689">
        <ele>109</ele>
        <time>2022-06-05T14:56:24.000Z</time>
      </trkpt>
      <trkpt lat="48.26895" lon="2.64688">
        <ele>108.5</ele>
        <time>2022-06-05T14:56:26.000Z</time>
      </trkpt>
      <trkpt lat="48.26898" lon="2.64689">
        <ele>107</ele>
        <time>2022-06-05T14:56:35.000Z</time>
      </trkpt>
      <trkpt lat="48.26898" lon="2.64689">
        <ele>106.7</ele>
        <time>2022-06-05T14:56:36.000Z</time>
      </trkpt>
      <trkpt lat="48.26898" lon="2.64689">
        <ele>106.7</ele>
        <time>2022-06-05T14:56:37.000Z</time>
      </trkpt>
      <trkpt lat="48.26898" lon="2.64689">
        <ele>106.4</ele>
        <time>2022-06-05T14:56:39.000Z</time>
      </trkpt>
      <trkpt lat="48.26898" lon="2.64696">
        <ele>104.1</ele>
        <time>2022-06-05T14:56:52.000Z</time>
      </trkpt>
      <trkpt lat="48.26898" lon="2.64696">
        <ele>104</ele>
        <time>2022-06-05T14:56:54.000Z</time>
      </trkpt>
      <trkpt lat="48.26898" lon="2.64696">
        <ele>104.1</ele>
        <time>2022-06-05T14:56:55.000Z</time>
      </trkpt>
      <trkpt lat="48.26898" lon="2.64697">
        <ele>103.7</ele>
        <time>2022-06-05T14:56:57.000Z</time>
      </trkpt>
      <trkpt lat="48.26892" lon="2.64707">
        <ele>102</ele>
        <time>2022-06-05T14:57:12.000Z</time>
      </trkpt>
      <trkpt lat="48.26892" lon="2.64707">
        <ele>101.5</ele>
        <time>2022-06-05T14:57:16.000Z</time>
      </trkpt>
      <trkpt lat="48.26888" lon="2.64718">
        <ele>99.9</ele>
        <time>2022-06-05T14:57:30.000Z</time>
      </trkpt>
      <trkpt lat="48.26888" lon="2.64718">
        <ele>99.6</ele>
        <time>2022-06-05T14:57:32.000Z</time>
      </trkpt>
      <trkpt lat="48.2689" lon="2.64729">
        <ele>97.5</ele>
        <time>2022-06-05T14:57:54.000Z</time>
      </trkpt>
      <trkpt lat="48.26891" lon="2.64729">
        <ele>97.4</ele>
        <time>2022-06-05T14:57:55.000Z</time>
      </trkpt>
      <trkpt lat="48.26891" lon="2.64729">
        <ele>97.2</ele>
        <time>2022-06-05T14:57:56.000Z</time>
      </trkpt>
      <trkpt lat="48.2689" lon="2.64729">
        <ele>96.6</ele>
        <time>2022-06-05T14:58:04.000Z</time>
      </trkpt>
      <trkpt lat="48.26889" lon="2.64744">
        <ele>95.2</ele>
        <time>2022-06-05T14:58:18.000Z</time>
      </trkpt>
      <trkpt lat="48.26894" lon="2.64755">
        <ele>94.7</ele>
        <time>2022-06-05T14:58:30.000Z</time>
      </trkpt>
      <trkpt lat="48.26892" lon="2.64768">
        <ele>94.9</ele>
        <time>2022-06-05T14:58:40.000Z</time>
      </trkpt>
      <trkpt lat="48.26896" lon="2.64781">
        <ele>95.3</ele>
        <time>2022-06-05T14:58:54.000Z</time>
      </trkpt>
      <trkpt lat="48.26901" lon="2.64785">
        <ele>96</ele>
        <time>2022-06-05T14:59:05.000Z</time>
      </trkpt>
      <trkpt lat="48.26901" lon="2.64786">
        <ele>95.9</ele>
        <time>2022-06-05T14:59:06.000Z</time>
      </trkpt>
      <trkpt lat="48.26903" lon="2.64786">
        <ele>96.1</ele>
        <time>2022-06-05T14:59:10.000Z</time>
      </trkpt>
      <trkpt lat="48.26904" lon="2.64786">
        <ele>96.1</ele>
        <time>2022-06-05T14:59:18.000Z</time>
      </trkpt>
      <trkpt lat="48.269" lon="2.64792">
        <ele>96.7</ele>
        <time>2022-06-05T14:59:29.000Z</time>
      </trkpt>
      <trkpt lat="48.269" lon="2.64793">
        <ele>96.8</ele>
        <time>2022-06-05T14:59:30.000Z</time>
      </trkpt>
      <trkpt lat="48.26906" lon="2.64803">
        <ele>97.8</ele>
        <time>2022-06-05T14:59:45.000Z</time>
      </trkpt>
      <trkpt lat="48.26908" lon="2.64804">
        <ele>98.9</ele>
        <time>2022-06-05T14:59:55.000Z</time>
      </trkpt>
      <trkpt lat="48.26908" lon="2.64804">
        <ele>98.8</ele>
        <time>2022-06-05T14:59:56.000Z</time>
      </trkpt>
      <trkpt lat="48.26915" lon="2.64808">
        <ele>98.9</ele>
        <time>2022-06-05T15:00:06.000Z</time>
      </trkpt>
      <trkpt lat="48.26915" lon="2.64808">
        <ele>99.1</ele>
        <time>2022-06-05T15:00:10.000Z</time>
      </trkpt>
      <trkpt lat="48.26915" lon="2.64808">
        <ele>99.2</ele>
        <time>2022-06-05T15:00:11.000Z</time>
      </trkpt>
      <trkpt lat="48.26916" lon="2.64809">
        <ele>99.1</ele>
        <time>2022-06-05T15:00:12.000Z</time>
      </trkpt>
      <trkpt lat="48.26916" lon="2.64821">
        <ele>100.8</ele>
        <time>2022-06-05T15:00:29.000Z</time>
      </trkpt>
      <trkpt lat="48.26916" lon="2.64822">
        <ele>101.3</ele>
        <time>2022-06-05T15:00:34.000Z</time>
      </trkpt>
      <trkpt lat="48.26915" lon="2.64823">
        <ele>101.9</ele>
        <time>2022-06-05T15:00:39.000Z</time>
      </trkpt>
      <trkpt lat="48.26915" lon="2.64823">
        <ele>102</ele>
        <time>2022-06-05T15:00:40.000Z</time>
      </trkpt>
      <trkpt lat="48.26915" lon="2.64823">
        <ele>102.1</ele>
        <time>2022-06-05T15:00:41.000Z</time>
      </trkpt>
      <trkpt lat="48.26914" lon="2.64824">
        <ele>102.1</ele>
        <time>2022-06-05T15:00:42.000Z</time>
      </trkpt>
      <trkpt lat="48.26915" lon="2.64826">
        <ele>102.6</ele>
        <time>2022-06-05T15:00:50.000Z</time>
      </trkpt>
      <trkpt lat="48.26915" lon="2.64826">
        <ele>102.8</ele>
        <time>2022-06-05T15:00:52.000Z</time>
      </trkpt>
      <trkpt lat="48.26915" lon="2.64826">
        <ele>103</ele>
        <time>2022-06-05T15:00:53.000Z</time>
      </trkpt>
      <trkpt lat="48.26915" lon="2.64826">
        <ele>102.9</ele>
        <time>2022-06-05T15:00:55.000Z</time>
      </trkpt>
      <trkpt lat="48.26915" lon="2.64827">
        <ele>102.7</ele>
        <time>2022-06-05T15:00:58.000Z</time>
      </trkpt>
      <trkpt lat="48.26915" lon="2.64827">
        <ele>102.6</ele>
        <time>2022-06-05T15:00:59.000Z</time>
      </trkpt>
      <trkpt lat="48.26914" lon="2.6483">
        <ele>103.1</ele>
        <time>2022-06-05T15:01:06.000Z</time>
      </trkpt>
      <trkpt lat="48.26914" lon="2.64829">
        <ele>103.3</ele>
        <time>2022-06-05T15:01:07.000Z</time>
      </trkpt>
      <trkpt lat="48.26914" lon="2.6483">
        <ele>103.9</ele>
        <time>2022-06-05T15:01:09.000Z</time>
      </trkpt>
      <trkpt lat="48.26914" lon="2.64829">
        <ele>103.6</ele>
        <time>2022-06-05T15:01:22.000Z</time>
      </trkpt>
      <trkpt lat="48.26913" lon="2.64828">
        <ele>103.3</ele>
        <time>2022-06-05T15:01:25.000Z</time>
      </trkpt>
      <trkpt lat="48.26913" lon="2.64828">
        <ele>102.6</ele>
        <time>2022-06-05T15:01:36.000Z</time>
      </trkpt>
      <trkpt lat="48.26909" lon="2.64841">
        <ele>103.7</ele>
        <time>2022-06-05T15:01:56.000Z</time>
      </trkpt>
      <trkpt lat="48.26903" lon="2.64851">
        <ele>103.4</ele>
        <time>2022-06-05T15:02:06.000Z</time>
      </trkpt>
      <trkpt lat="48.26901" lon="2.64865">
        <ele>102.4</ele>
        <time>2022-06-05T15:02:22.000Z</time>
      </trkpt>
      <trkpt lat="48.26898" lon="2.64879">
        <ele>100.2</ele>
        <time>2022-06-05T15:02:33.000Z</time>
      </trkpt>
      <trkpt lat="48.26895" lon="2.64881">
        <ele>98.9</ele>
        <time>2022-06-05T15:02:40.000Z</time>
      </trkpt>
      <trkpt lat="48.26895" lon="2.6488">
        <ele>98.4</ele>
        <time>2022-06-05T15:02:43.000Z</time>
      </trkpt>
      <trkpt lat="48.26894" lon="2.64893">
        <ele>95.6</ele>
        <time>2022-06-05T15:02:58.000Z</time>
      </trkpt>
      <trkpt lat="48.26894" lon="2.64893">
        <ele>95.5</ele>
        <time>2022-06-05T15:03:00.000Z</time>
      </trkpt>
      <trkpt lat="48.26894" lon="2.64893">
        <ele>95.4</ele>
        <time>2022-06-05T15:03:01.000Z</time>
      </trkpt>
      <trkpt lat="48.26894" lon="2.64893">
        <ele>95.4</ele>
        <time>2022-06-05T15:03:03.000Z</time>
      </trkpt>
      <trkpt lat="48.26898" lon="2.64898">
        <ele>94</ele>
        <time>2022-06-05T15:03:15.000Z</time>
      </trkpt>
      <trkpt lat="48.26898" lon="2.64899">
        <ele>93.5</ele>
        <time>2022-06-05T15:03:17.000Z</time>
      </trkpt>
      <trkpt lat="48.26898" lon="2.64899">
        <ele>90.5</ele>
        <time>2022-06-05T15:03:22.000Z</time>
      </trkpt>
      <trkpt lat="48.26898" lon="2.64899">
        <ele>89.8</ele>
        <time>2022-06-05T15:03:32.000Z</time>
      </trkpt>
      <trkpt lat="48.26898" lon="2.64899">
        <ele>89.7</ele>
        <time>2022-06-05T15:03:33.000Z</time>
      </trkpt>
      <trkpt lat="48.26898" lon="2.649">
        <ele>90.3</ele>
        <time>2022-06-05T15:03:37.000Z</time>
      </trkpt>
      <trkpt lat="48.2689" lon="2.6489">
        <ele>89.3</ele>
        <time>2022-06-05T15:03:51.000Z</time>
      </trkpt>
      <trkpt lat="48.2689" lon="2.64887">
        <ele>88.8</ele>
        <time>2022-06-05T15:03:57.000Z</time>
      </trkpt>
      <trkpt lat="48.2689" lon="2.64888">
        <ele>88.8</ele>
        <time>2022-06-05T15:03:58.000Z</time>
      </trkpt>
      <trkpt lat="48.26889" lon="2.64874">
        <ele>86.6</ele>
        <time>2022-06-05T15:04:23.000Z</time>
      </trkpt>
      <trkpt lat="48.26878" lon="2.64875">
        <ele>85.2</ele>
        <time>2022-06-05T15:04:39.000Z</time>
      </trkpt>
      <trkpt lat="48.26868" lon="2.64881">
        <ele>83.8</ele>
        <time>2022-06-05T15:04:44.000Z</time>
      </trkpt>
      <trkpt lat="48.26859" lon="2.64888">
        <ele>84.3</ele>
        <time>2022-06-05T15:04:52.000Z</time>
      </trkpt>
      <trkpt lat="48.26853" lon="2.64899">
        <ele>83.2</ele>
        <time>2022-06-05T15:05:01.000Z</time>
      </trkpt>
      <trkpt lat="48.26851" lon="2.64899">
        <ele>81.6</ele>
        <time>2022-06-05T15:05:13.000Z</time>
      </trkpt>
      <trkpt lat="48.26851" lon="2.64899">
        <ele>81.4</ele>
        <time>2022-06-05T15:05:14.000Z</time>
      </trkpt>
      <trkpt lat="48.26841" lon="2.64899">
        <ele>80.3</ele>
        <time>2022-06-05T15:05:24.000Z</time>
      </trkpt>
      <trkpt lat="48.26832" lon="2.64903">
        <ele>79.9</ele>
        <time>2022-06-05T15:05:32.000Z</time>
      </trkpt>
      <trkpt lat="48.26824" lon="2.6491">
        <ele>80</ele>
        <time>2022-06-05T15:05:39.000Z</time>
      </trkpt>
      <trkpt lat="48.2682" lon="2.64923">
        <ele>79.5</ele>
        <time>2022-06-05T15:05:47.000Z</time>
      </trkpt>
      <trkpt lat="48.26815" lon="2.64927">
        <ele>78.6</ele>
        <time>2022-06-05T15:05:52.000Z</time>
      </trkpt>
      <trkpt lat="48.26815" lon="2.64928">
        <ele>78.4</ele>
        <time>2022-06-05T15:05:53.000Z</time>
      </trkpt>
      <trkpt lat="48.26805" lon="2.64931">
        <ele>77.7</ele>
        <time>2022-06-05T15:06:00.000Z</time>
      </trkpt>
      <trkpt lat="48.26798" lon="2.64941">
        <ele>77.2</ele>
        <time>2022-06-05T15:06:05.000Z</time>
      </trkpt>
      <trkpt lat="48.26801" lon="2.64956">
        <ele>76.3</ele>
        <time>2022-06-05T15:06:15.000Z</time>
      </trkpt>
      <trkpt lat="48.26792" lon="2.64959">
        <ele>76.5</ele>
        <time>2022-06-05T15:06:33.000Z</time>
      </trkpt>
      <trkpt lat="48.26787" lon="2.64968">
        <ele>75.8</ele>
        <time>2022-06-05T15:06:43.000Z</time>
      </trkpt>
      <trkpt lat="48.26787" lon="2.6497">
        <ele>75.6</ele>
        <time>2022-06-05T15:06:44.000Z</time>
      </trkpt>
      <trkpt lat="48.26786" lon="2.64984">
        <ele>75.6</ele>
        <time>2022-06-05T15:06:53.000Z</time>
      </trkpt>
      <trkpt lat="48.26789" lon="2.64997">
        <ele>74</ele>
        <time>2022-06-05T15:07:01.000Z</time>
      </trkpt>
      <trkpt lat="48.26793" lon="2.65009">
        <ele>73.5</ele>
        <time>2022-06-05T15:07:10.000Z</time>
      </trkpt>
      <trkpt lat="48.268" lon="2.65021">
        <ele>72.6</ele>
        <time>2022-06-05T15:07:21.000Z</time>
      </trkpt>
      <trkpt lat="48.26803" lon="2.65036">
        <ele>71.8</ele>
        <time>2022-06-05T15:07:27.000Z</time>
      </trkpt>
      <trkpt lat="48.2681" lon="2.65047">
        <ele>71.2</ele>
        <time>2022-06-05T15:07:32.000Z</time>
      </trkpt>
      <trkpt lat="48.26807" lon="2.6506">
        <ele>71</ele>
        <time>2022-06-05T15:07:38.000Z</time>
      </trkpt>
      <trkpt lat="48.26797" lon="2.65061">
        <ele>70.8</ele>
        <time>2022-06-05T15:07:42.000Z</time>
      </trkpt>
      <trkpt lat="48.2679" lon="2.6507">
        <ele>71.1</ele>
        <time>2022-06-05T15:07:49.000Z</time>
      </trkpt>
      <trkpt lat="48.26786" lon="2.65082">
        <ele>71.1</ele>
        <time>2022-06-05T15:08:01.000Z</time>
      </trkpt>
      <trkpt lat="48.26786" lon="2.6509">
        <ele>69.8</ele>
        <time>2022-06-05T15:08:14.000Z</time>
      </trkpt>
      <trkpt lat="48.26786" lon="2.65089">
        <ele>69.8</ele>
        <time>2022-06-05T15:08:15.000Z</time>
      </trkpt>
      <trkpt lat="48.26779" lon="2.65075">
        <ele>67.3</ele>
        <time>2022-06-05T15:08:26.000Z</time>
      </trkpt>
      <trkpt lat="48.2678" lon="2.65068">
        <ele>70.4</ele>
        <time>2022-06-05T15:08:37.000Z</time>
      </trkpt>
      <trkpt lat="48.2678" lon="2.65069">
        <ele>70.6</ele>
        <time>2022-06-05T15:08:40.000Z</time>
      </trkpt>
      <trkpt lat="48.26781" lon="2.65084">
        <ele>70.9</ele>
        <time>2022-06-05T15:08:50.000Z</time>
      </trkpt>
      <trkpt lat="48.26778" lon="2.65097">
        <ele>70.8</ele>
        <time>2022-06-05T15:08:58.000Z</time>
      </trkpt>
      <trkpt lat="48.26776" lon="2.6511">
        <ele>71.1</ele>
        <time>2022-06-05T15:09:05.000Z</time>
      </trkpt>
      <trkpt lat="48.26783" lon="2.651">
        <ele>70.9</ele>
        <time>2022-06-05T15:09:17.000Z</time>
      </trkpt>
      <trkpt lat="48.26786" lon="2.651">
        <ele>71.1</ele>
        <time>2022-06-05T15:09:22.000Z</time>
      </trkpt>
      <trkpt lat="48.26787" lon="2.65101">
        <ele>71.1</ele>
        <time>2022-06-05T15:09:23.000Z</time>
      </trkpt>
      <trkpt lat="48.26795" lon="2.65107">
        <ele>71</ele>
        <time>2022-06-05T15:09:37.000Z</time>
      </trkpt>
      <trkpt lat="48.26803" lon="2.65099">
        <ele>70.8</ele>
        <time>2022-06-05T15:09:47.000Z</time>
      </trkpt>
      <trkpt lat="48.26804" lon="2.65098">
        <ele>70.8</ele>
        <time>2022-06-05T15:09:51.000Z</time>
      </trkpt>
      <trkpt lat="48.26804" lon="2.65098">
        <ele>70.8</ele>
        <time>2022-06-05T15:09:55.000Z</time>
      </trkpt>
      <trkpt lat="48.26804" lon="2.65098">
        <ele>70.7</ele>
        <time>2022-06-05T15:09:57.000Z</time>
      </trkpt>
      <trkpt lat="48.26804" lon="2.65098">
        <ele>70.7</ele>
        <time>2022-06-05T15:09:58.000Z</time>
      </trkpt>
      <trkpt lat="48.26804" lon="2.65098">
        <ele>70.7</ele>
        <time>2022-06-05T15:09:59.000Z</time>
      </trkpt>
      <trkpt lat="48.26804" lon="2.65097">
        <ele>70.6</ele>
        <time>2022-06-05T15:10:00.000Z</time>
      </trkpt>
      <trkpt lat="48.26804" lon="2.65097">
        <ele>70.4</ele>
        <time>2022-06-05T15:10:02.000Z</time>
      </trkpt>
      <trkpt lat="48.26804" lon="2.65098">
        <ele>70.3</ele>
        <time>2022-06-05T15:10:06.000Z</time>
      </trkpt>
      <trkpt lat="48.26804" lon="2.65097">
        <ele>70.2</ele>
        <time>2022-06-05T15:10:08.000Z</time>
      </trkpt>
      <trkpt lat="48.26804" lon="2.65097">
        <ele>70.1</ele>
        <time>2022-06-05T15:10:13.000Z</time>
      </trkpt>
      <trkpt lat="48.26804" lon="2.65098">
        <ele>70</ele>
        <time>2022-06-05T15:10:15.000Z</time>
      </trkpt>
      <trkpt lat="48.26804" lon="2.65098">
        <ele>69.8</ele>
        <time>2022-06-05T15:10:22.000Z</time>
      </trkpt>
      <trkpt lat="48.26804" lon="2.65098">
        <ele>69.9</ele>
        <time>2022-06-05T15:10:24.000Z</time>
      </trkpt>
      <trkpt lat="48.26804" lon="2.65099">
        <ele>69.7</ele>
        <time>2022-06-05T15:10:28.000Z</time>
      </trkpt>
      <trkpt lat="48.26804" lon="2.65098">
        <ele>69.3</ele>
        <time>2022-06-05T15:10:31.000Z</time>
      </trkpt>
      <trkpt lat="48.26804" lon="2.65099">
        <ele>69.2</ele>
        <time>2022-06-05T15:10:32.000Z</time>
      </trkpt>
      <trkpt lat="48.26804" lon="2.65099">
        <ele>69.2</ele>
        <time>2022-06-05T15:10:33.000Z</time>
      </trkpt>
      <trkpt lat="48.26804" lon="2.65099">
        <ele>69.2</ele>
        <time>2022-06-05T15:10:34.000Z</time>
      </trkpt>
      <trkpt lat="48.26805" lon="2.65099">
        <ele>69</ele>
        <time>2022-06-05T15:10:37.000Z</time>
      </trkpt>
      <trkpt lat="48.26805" lon="2.65099">
        <ele>68.9</ele>
        <time>2022-06-05T15:10:47.000Z</time>
      </trkpt>
      <trkpt lat="48.26805" lon="2.651">
        <ele>69</ele>
        <time>2022-06-05T15:10:48.000Z</time>
      </trkpt>
      <trkpt lat="48.26805" lon="2.65099">
        <ele>69.1</ele>
        <time>2022-06-05T15:10:49.000Z</time>
      </trkpt>
      <trkpt lat="48.26802" lon="2.65102">
        <ele>68.7</ele>
        <time>2022-06-05T15:10:59.000Z</time>
      </trkpt>
      <trkpt lat="48.26803" lon="2.65102">
        <ele>68.6</ele>
        <time>2022-06-05T15:11:00.000Z</time>
      </trkpt>
      <trkpt lat="48.26799" lon="2.65115">
        <ele>68.1</ele>
        <time>2022-06-05T15:11:08.000Z</time>
      </trkpt>
      <trkpt lat="48.2679" lon="2.65119">
        <ele>68.2</ele>
        <time>2022-06-05T15:11:16.000Z</time>
      </trkpt>
      <trkpt lat="48.2678" lon="2.6512">
        <ele>68.5</ele>
        <time>2022-06-05T15:11:24.000Z</time>
      </trkpt>
      <trkpt lat="48.26775" lon="2.65123">
        <ele>68.7</ele>
        <time>2022-06-05T15:11:31.000Z</time>
      </trkpt>
      <trkpt lat="48.26775" lon="2.65123">
        <ele>69.1</ele>
        <time>2022-06-05T15:11:41.000Z</time>
      </trkpt>
      <trkpt lat="48.26775" lon="2.65123">
        <ele>69.1</ele>
        <time>2022-06-05T15:11:42.000Z</time>
      </trkpt>
      <trkpt lat="48.26775" lon="2.65123">
        <ele>68.3</ele>
        <time>2022-06-05T15:12:00.000Z</time>
      </trkpt>
      <trkpt lat="48.26775" lon="2.65123">
        <ele>68.1</ele>
        <time>2022-06-05T15:12:02.000Z</time>
      </trkpt>
      <trkpt lat="48.26774" lon="2.65123">
        <ele>68</ele>
        <time>2022-06-05T15:12:03.000Z</time>
      </trkpt>
      <trkpt lat="48.26774" lon="2.65123">
        <ele>68.1</ele>
        <time>2022-06-05T15:12:05.000Z</time>
      </trkpt>
      <trkpt lat="48.26774" lon="2.65123">
        <ele>67.8</ele>
        <time>2022-06-05T15:12:13.000Z</time>
      </trkpt>
      <trkpt lat="48.26774" lon="2.65123">
        <ele>67.7</ele>
        <time>2022-06-05T15:12:14.000Z</time>
      </trkpt>
      <trkpt lat="48.26774" lon="2.65123">
        <ele>67.5</ele>
        <time>2022-06-05T15:12:20.000Z</time>
      </trkpt>
      <trkpt lat="48.26774" lon="2.65123">
        <ele>67.2</ele>
        <time>2022-06-05T15:12:24.000Z</time>
      </trkpt>
      <trkpt lat="48.26774" lon="2.65124">
        <ele>67.6</ele>
        <time>2022-06-05T15:12:32.000Z</time>
      </trkpt>
      <trkpt lat="48.26765" lon="2.65126">
        <ele>67.8</ele>
        <time>2022-06-05T15:12:44.000Z</time>
      </trkpt>
      <trkpt lat="48.26755" lon="2.65129">
        <ele>67.8</ele>
        <time>2022-06-05T15:12:52.000Z</time>
      </trkpt>
      <trkpt lat="48.26746" lon="2.6513">
        <ele>67.8</ele>
        <time>2022-06-05T15:13:01.000Z</time>
      </trkpt>
      <trkpt lat="48.26737" lon="2.65135">
        <ele>68</ele>
        <time>2022-06-05T15:13:12.000Z</time>
      </trkpt>
      <trkpt lat="48.26728" lon="2.65134">
        <ele>68.2</ele>
        <time>2022-06-05T15:13:23.000Z</time>
      </trkpt>
      <trkpt lat="48.26718" lon="2.65139">
        <ele>68.1</ele>
        <time>2022-06-05T15:13:32.000Z</time>
      </trkpt>
      <trkpt lat="48.2671" lon="2.65145">
        <ele>68.5</ele>
        <time>2022-06-05T15:13:40.000Z</time>
      </trkpt>
      <trkpt lat="48.26701" lon="2.65149">
        <ele>68.3</ele>
        <time>2022-06-05T15:13:48.000Z</time>
      </trkpt>
      <trkpt lat="48.26692" lon="2.6515">
        <ele>68.6</ele>
        <time>2022-06-05T15:13:56.000Z</time>
      </trkpt>
      <trkpt lat="48.26683" lon="2.65151">
        <ele>68.6</ele>
        <time>2022-06-05T15:14:03.000Z</time>
      </trkpt>
      <trkpt lat="48.26674" lon="2.65151">
        <ele>68.7</ele>
        <time>2022-06-05T15:14:10.000Z</time>
      </trkpt>
      <trkpt lat="48.26665" lon="2.6515">
        <ele>69</ele>
        <time>2022-06-05T15:14:17.000Z</time>
      </trkpt>
      <trkpt lat="48.26656" lon="2.65147">
        <ele>69.2</ele>
        <time>2022-06-05T15:14:25.000Z</time>
      </trkpt>
      <trkpt lat="48.26647" lon="2.65148">
        <ele>69.7</ele>
        <time>2022-06-05T15:14:33.000Z</time>
      </trkpt>
      <trkpt lat="48.26637" lon="2.65152">
        <ele>70.2</ele>
        <time>2022-06-05T15:14:41.000Z</time>
      </trkpt>
      <trkpt lat="48.26628" lon="2.65158">
        <ele>71.2</ele>
        <time>2022-06-05T15:14:50.000Z</time>
      </trkpt>
      <trkpt lat="48.2662" lon="2.65164">
        <ele>71.4</ele>
        <time>2022-06-05T15:14:58.000Z</time>
      </trkpt>
      <trkpt lat="48.26612" lon="2.65172">
        <ele>71.5</ele>
        <time>2022-06-05T15:15:06.000Z</time>
      </trkpt>
      <trkpt lat="48.26609" lon="2.65186">
        <ele>71</ele>
        <time>2022-06-05T15:15:15.000Z</time>
      </trkpt>
      <trkpt lat="48.26612" lon="2.65199">
        <ele>69</ele>
        <time>2022-06-05T15:15:23.000Z</time>
      </trkpt>
      <trkpt lat="48.26617" lon="2.65212">
        <ele>68.9</ele>
        <time>2022-06-05T15:15:32.000Z</time>
      </trkpt>
      <trkpt lat="48.26622" lon="2.65225">
        <ele>68.1</ele>
        <time>2022-06-05T15:15:41.000Z</time>
      </trkpt>
      <trkpt lat="48.26626" lon="2.65237">
        <ele>67.8</ele>
        <time>2022-06-05T15:15:49.000Z</time>
      </trkpt>
      <trkpt lat="48.26631" lon="2.6525">
        <ele>66.8</ele>
        <time>2022-06-05T15:15:57.000Z</time>
      </trkpt>
      <trkpt lat="48.26633" lon="2.65264">
        <ele>67.6</ele>
        <time>2022-06-05T15:16:07.000Z</time>
      </trkpt>
      <trkpt lat="48.26633" lon="2.65265">
        <ele>67.1</ele>
        <time>2022-06-05T15:16:13.000Z</time>
      </trkpt>
      <trkpt lat="48.26633" lon="2.65266">
        <ele>67</ele>
        <time>2022-06-05T15:16:14.000Z</time>
      </trkpt>
      <trkpt lat="48.26638" lon="2.65279">
        <ele>65.7</ele>
        <time>2022-06-05T15:16:30.000Z</time>
      </trkpt>
      <trkpt lat="48.26642" lon="2.65293">
        <ele>63.9</ele>
        <time>2022-06-05T15:16:39.000Z</time>
      </trkpt>
      <trkpt lat="48.26646" lon="2.65306">
        <ele>64.1</ele>
        <time>2022-06-05T15:16:47.000Z</time>
      </trkpt>
      <trkpt lat="48.26651" lon="2.65318">
        <ele>63.8</ele>
        <time>2022-06-05T15:16:58.000Z</time>
      </trkpt>
      <trkpt lat="48.26656" lon="2.65331">
        <ele>63.6</ele>
        <time>2022-06-05T15:17:05.000Z</time>
      </trkpt>
      <trkpt lat="48.26659" lon="2.65344">
        <ele>63.4</ele>
        <time>2022-06-05T15:17:15.000Z</time>
      </trkpt>
      <trkpt lat="48.26664" lon="2.65357">
        <ele>63.1</ele>
        <time>2022-06-05T15:17:21.000Z</time>
      </trkpt>
      <trkpt lat="48.26668" lon="2.65371">
        <ele>62.8</ele>
        <time>2022-06-05T15:17:28.000Z</time>
      </trkpt>
      <trkpt lat="48.26671" lon="2.65384">
        <ele>63.3</ele>
        <time>2022-06-05T15:17:36.000Z</time>
      </trkpt>
      <trkpt lat="48.26673" lon="2.65398">
        <ele>63.3</ele>
        <time>2022-06-05T15:17:46.000Z</time>
      </trkpt>
      <trkpt lat="48.26679" lon="2.6541">
        <ele>63.4</ele>
        <time>2022-06-05T15:17:52.000Z</time>
      </trkpt>
      <trkpt lat="48.26686" lon="2.6542">
        <ele>63.3</ele>
        <time>2022-06-05T15:18:00.000Z</time>
      </trkpt>
      <trkpt lat="48.2669" lon="2.65433">
        <ele>62.8</ele>
        <time>2022-06-05T15:18:06.000Z</time>
      </trkpt>
      <trkpt lat="48.26693" lon="2.65446">
        <ele>62.8</ele>
        <time>2022-06-05T15:18:14.000Z</time>
      </trkpt>
      <trkpt lat="48.26696" lon="2.65459">
        <ele>63.1</ele>
        <time>2022-06-05T15:18:22.000Z</time>
      </trkpt>
      <trkpt lat="48.267" lon="2.65473">
        <ele>62.8</ele>
        <time>2022-06-05T15:18:30.000Z</time>
      </trkpt>
      <trkpt lat="48.26701" lon="2.65488">
        <ele>63.8</ele>
        <time>2022-06-05T15:18:40.000Z</time>
      </trkpt>
      <trkpt lat="48.26707" lon="2.65499">
        <ele>64</ele>
        <time>2022-06-05T15:18:47.000Z</time>
      </trkpt>
      <trkpt lat="48.26712" lon="2.65511">
        <ele>63.5</ele>
        <time>2022-06-05T15:18:53.000Z</time>
      </trkpt>
      <trkpt lat="48.26715" lon="2.65524">
        <ele>62.9</ele>
        <time>2022-06-05T15:19:00.000Z</time>
      </trkpt>
      <trkpt lat="48.26714" lon="2.6554">
        <ele>61.1</ele>
        <time>2022-06-05T15:19:08.000Z</time>
      </trkpt>
      <trkpt lat="48.26715" lon="2.65555">
        <ele>62.3</ele>
        <time>2022-06-05T15:19:17.000Z</time>
      </trkpt>
      <trkpt lat="48.26718" lon="2.65569">
        <ele>61.4</ele>
        <time>2022-06-05T15:19:25.000Z</time>
      </trkpt>
      <trkpt lat="48.26719" lon="2.65583">
        <ele>61.2</ele>
        <time>2022-06-05T15:19:33.000Z</time>
      </trkpt>
      <trkpt lat="48.26726" lon="2.65593">
        <ele>61.6</ele>
        <time>2022-06-05T15:19:39.000Z</time>
      </trkpt>
      <trkpt lat="48.26727" lon="2.65607">
        <ele>62.2</ele>
        <time>2022-06-05T15:19:47.000Z</time>
      </trkpt>
      <trkpt lat="48.26727" lon="2.65621">
        <ele>62.6</ele>
        <time>2022-06-05T15:19:54.000Z</time>
      </trkpt>
      <trkpt lat="48.26729" lon="2.65635">
        <ele>62.9</ele>
        <time>2022-06-05T15:20:04.000Z</time>
      </trkpt>
      <trkpt lat="48.26725" lon="2.65649">
        <ele>63</ele>
        <time>2022-06-05T15:20:10.000Z</time>
      </trkpt>
      <trkpt lat="48.26726" lon="2.65662">
        <ele>62.7</ele>
        <time>2022-06-05T15:20:16.000Z</time>
      </trkpt>
      <trkpt lat="48.26728" lon="2.65677">
        <ele>63.1</ele>
        <time>2022-06-05T15:20:24.000Z</time>
      </trkpt>
      <trkpt lat="48.26734" lon="2.65688">
        <ele>63</ele>
        <time>2022-06-05T15:20:31.000Z</time>
      </trkpt>
      <trkpt lat="48.26734" lon="2.65703">
        <ele>63.4</ele>
        <time>2022-06-05T15:20:38.000Z</time>
      </trkpt>
      <trkpt lat="48.26737" lon="2.65716">
        <ele>63.8</ele>
        <time>2022-06-05T15:20:44.000Z</time>
      </trkpt>
      <trkpt lat="48.26738" lon="2.65732">
        <ele>63.6</ele>
        <time>2022-06-05T15:20:51.000Z</time>
      </trkpt>
      <trkpt lat="48.26738" lon="2.65746">
        <ele>63.2</ele>
        <time>2022-06-05T15:20:58.000Z</time>
      </trkpt>
      <trkpt lat="48.26736" lon="2.6576">
        <ele>63</ele>
        <time>2022-06-05T15:21:05.000Z</time>
      </trkpt>
      <trkpt lat="48.26738" lon="2.65774">
        <ele>62.9</ele>
        <time>2022-06-05T15:21:10.000Z</time>
      </trkpt>
      <trkpt lat="48.26739" lon="2.65789">
        <ele>62.7</ele>
        <time>2022-06-05T15:21:17.000Z</time>
      </trkpt>
      <trkpt lat="48.26739" lon="2.65805">
        <ele>62.5</ele>
        <time>2022-06-05T15:21:24.000Z</time>
      </trkpt>
      <trkpt lat="48.26741" lon="2.65819">
        <ele>61.7</ele>
        <time>2022-06-05T15:21:31.000Z</time>
      </trkpt>
      <trkpt lat="48.26748" lon="2.65829">
        <ele>62.2</ele>
        <time>2022-06-05T15:21:36.000Z</time>
      </trkpt>
      <trkpt lat="48.26754" lon="2.65839">
        <ele>62.1</ele>
        <time>2022-06-05T15:21:44.000Z</time>
      </trkpt>
      <trkpt lat="48.2676" lon="2.65852">
        <ele>62</ele>
        <time>2022-06-05T15:21:53.000Z</time>
      </trkpt>
      <trkpt lat="48.26758" lon="2.65865">
        <ele>62.2</ele>
        <time>2022-06-05T15:21:59.000Z</time>
      </trkpt>
      <trkpt lat="48.26761" lon="2.65879">
        <ele>62.4</ele>
        <time>2022-06-05T15:22:05.000Z</time>
      </trkpt>
      <trkpt lat="48.26765" lon="2.65892">
        <ele>62.5</ele>
        <time>2022-06-05T15:22:13.000Z</time>
      </trkpt>
      <trkpt lat="48.26766" lon="2.65906">
        <ele>63.2</ele>
        <time>2022-06-05T15:22:23.000Z</time>
      </trkpt>
      <trkpt lat="48.26769" lon="2.65921">
        <ele>63.3</ele>
        <time>2022-06-05T15:22:32.000Z</time>
      </trkpt>
      <trkpt lat="48.26774" lon="2.65934">
        <ele>63</ele>
        <time>2022-06-05T15:22:39.000Z</time>
      </trkpt>
      <trkpt lat="48.26778" lon="2.65949">
        <ele>62.9</ele>
        <time>2022-06-05T15:22:46.000Z</time>
      </trkpt>
      <trkpt lat="48.26781" lon="2.65962">
        <ele>63.1</ele>
        <time>2022-06-05T15:22:53.000Z</time>
      </trkpt>
      <trkpt lat="48.26783" lon="2.65975">
        <ele>63.2</ele>
        <time>2022-06-05T15:23:00.000Z</time>
      </trkpt>
      <trkpt lat="48.26786" lon="2.65988">
        <ele>63</ele>
        <time>2022-06-05T15:23:07.000Z</time>
      </trkpt>
      <trkpt lat="48.26788" lon="2.66003">
        <ele>62.2</ele>
        <time>2022-06-05T15:23:14.000Z</time>
      </trkpt>
      <trkpt lat="48.26793" lon="2.66016">
        <ele>62.1</ele>
        <time>2022-06-05T15:23:20.000Z</time>
      </trkpt>
      <trkpt lat="48.26799" lon="2.66029">
        <ele>61.5</ele>
        <time>2022-06-05T15:23:28.000Z</time>
      </trkpt>
      <trkpt lat="48.26799" lon="2.66044">
        <ele>60.7</ele>
        <time>2022-06-05T15:23:35.000Z</time>
      </trkpt>
      <trkpt lat="48.268" lon="2.66058">
        <ele>61.2</ele>
        <time>2022-06-05T15:23:40.000Z</time>
      </trkpt>
      <trkpt lat="48.26803" lon="2.66073">
        <ele>60.5</ele>
        <time>2022-06-05T15:23:47.000Z</time>
      </trkpt>
      <trkpt lat="48.26808" lon="2.66087">
        <ele>60.3</ele>
        <time>2022-06-05T15:23:54.000Z</time>
      </trkpt>
      <trkpt lat="48.26808" lon="2.66101">
        <ele>60</ele>
        <time>2022-06-05T15:24:02.000Z</time>
      </trkpt>
      <trkpt lat="48.26813" lon="2.66114">
        <ele>59.7</ele>
        <time>2022-06-05T15:24:09.000Z</time>
      </trkpt>
      <trkpt lat="48.26809" lon="2.66127">
        <ele>59.6</ele>
        <time>2022-06-05T15:24:16.000Z</time>
      </trkpt>
      <trkpt lat="48.2681" lon="2.66142">
        <ele>59</ele>
        <time>2022-06-05T15:24:25.000Z</time>
      </trkpt>
      <trkpt lat="48.26814" lon="2.66156">
        <ele>59.2</ele>
        <time>2022-06-05T15:24:32.000Z</time>
      </trkpt>
      <trkpt lat="48.26814" lon="2.66171">
        <ele>58.6</ele>
        <time>2022-06-05T15:24:40.000Z</time>
      </trkpt>
      <trkpt lat="48.26818" lon="2.66185">
        <ele>58.7</ele>
        <time>2022-06-05T15:24:46.000Z</time>
      </trkpt>
      <trkpt lat="48.26823" lon="2.66197">
        <ele>58.6</ele>
        <time>2022-06-05T15:24:53.000Z</time>
      </trkpt>
      <trkpt lat="48.26822" lon="2.66213">
        <ele>58.7</ele>
        <time>2022-06-05T15:24:59.000Z</time>
      </trkpt>
      <trkpt lat="48.26821" lon="2.66228">
        <ele>58.8</ele>
        <time>2022-06-05T15:25:05.000Z</time>
      </trkpt>
      <trkpt lat="48.26818" lon="2.66242">
        <ele>59.6</ele>
        <time>2022-06-05T15:25:11.000Z</time>
      </trkpt>
      <trkpt lat="48.26814" lon="2.66254">
        <ele>60.1</ele>
        <time>2022-06-05T15:25:22.000Z</time>
      </trkpt>
      <trkpt lat="48.2681" lon="2.66267">
        <ele>60.1</ele>
        <time>2022-06-05T15:25:32.000Z</time>
      </trkpt>
      <trkpt lat="48.26809" lon="2.66281">
        <ele>59.9</ele>
        <time>2022-06-05T15:25:40.000Z</time>
      </trkpt>
      <trkpt lat="48.26804" lon="2.66293">
        <ele>60</ele>
        <time>2022-06-05T15:25:48.000Z</time>
      </trkpt>
      <trkpt lat="48.26797" lon="2.66302">
        <ele>60.3</ele>
        <time>2022-06-05T15:25:54.000Z</time>
      </trkpt>
      <trkpt lat="48.26789" lon="2.66311">
        <ele>60.1</ele>
        <time>2022-06-05T15:25:59.000Z</time>
      </trkpt>
      <trkpt lat="48.26783" lon="2.66322">
        <ele>61</ele>
        <time>2022-06-05T15:26:06.000Z</time>
      </trkpt>
      <trkpt lat="48.26782" lon="2.66337">
        <ele>60.7</ele>
        <time>2022-06-05T15:26:20.000Z</time>
      </trkpt>
      <trkpt lat="48.26775" lon="2.66347">
        <ele>61</ele>
        <time>2022-06-05T15:26:27.000Z</time>
      </trkpt>
      <trkpt lat="48.26769" lon="2.66358">
        <ele>60.8</ele>
        <time>2022-06-05T15:26:33.000Z</time>
      </trkpt>
      <trkpt lat="48.26761" lon="2.66367">
        <ele>61.4</ele>
        <time>2022-06-05T15:26:38.000Z</time>
      </trkpt>
      <trkpt lat="48.26753" lon="2.66373">
        <ele>61.4</ele>
        <time>2022-06-05T15:26:45.000Z</time>
      </trkpt>
      <trkpt lat="48.26745" lon="2.66383">
        <ele>61.6</ele>
        <time>2022-06-05T15:26:51.000Z</time>
      </trkpt>
      <trkpt lat="48.26738" lon="2.66392">
        <ele>61.7</ele>
        <time>2022-06-05T15:26:59.000Z</time>
      </trkpt>
      <trkpt lat="48.26731" lon="2.66401">
        <ele>62</ele>
        <time>2022-06-05T15:27:06.000Z</time>
      </trkpt>
      <trkpt lat="48.26734" lon="2.66413">
        <ele>62.4</ele>
        <time>2022-06-05T15:27:41.000Z</time>
      </trkpt>
      <trkpt lat="48.26731" lon="2.66409">
        <ele>62.5</ele>
        <time>2022-06-05T15:28:32.000Z</time>
      </trkpt>
      <trkpt lat="48.2673" lon="2.66409">
        <ele>61.9</ele>
        <time>2022-06-05T15:28:34.000Z</time>
      </trkpt>
      <trkpt lat="48.26721" lon="2.6641">
        <ele>63</ele>
        <time>2022-06-05T15:28:40.000Z</time>
      </trkpt>
      <trkpt lat="48.26717" lon="2.66418">
        <ele>63.2</ele>
        <time>2022-06-05T15:28:49.000Z</time>
      </trkpt>
      <trkpt lat="48.26717" lon="2.66418">
        <ele>63.2</ele>
        <time>2022-06-05T15:28:51.000Z</time>
      </trkpt>
      <trkpt lat="48.26715" lon="2.6642">
        <ele>63.5</ele>
        <time>2022-06-05T15:28:56.000Z</time>
      </trkpt>
      <trkpt lat="48.26715" lon="2.6642">
        <ele>63.4</ele>
        <time>2022-06-05T15:29:00.000Z</time>
      </trkpt>
      <trkpt lat="48.26708" lon="2.66428">
        <ele>65.2</ele>
        <time>2022-06-05T15:29:17.000Z</time>
      </trkpt>
      <trkpt lat="48.26698" lon="2.66434">
        <ele>65.8</ele>
        <time>2022-06-05T15:29:28.000Z</time>
      </trkpt>
      <trkpt lat="48.26689" lon="2.66442">
        <ele>67.1</ele>
        <time>2022-06-05T15:29:41.000Z</time>
      </trkpt>
      <trkpt lat="48.2668" lon="2.66451">
        <ele>67.3</ele>
        <time>2022-06-05T15:29:45.000Z</time>
      </trkpt>
      <trkpt lat="48.26673" lon="2.66459">
        <ele>67.5</ele>
        <time>2022-06-05T15:29:50.000Z</time>
      </trkpt>
      <trkpt lat="48.26667" lon="2.6647">
        <ele>67.9</ele>
        <time>2022-06-05T15:29:58.000Z</time>
      </trkpt>
      <trkpt lat="48.2666" lon="2.66479">
        <ele>66.5</ele>
        <time>2022-06-05T15:30:05.000Z</time>
      </trkpt>
      <trkpt lat="48.26654" lon="2.6649">
        <ele>68.1</ele>
        <time>2022-06-05T15:30:13.000Z</time>
      </trkpt>
      <trkpt lat="48.26646" lon="2.665">
        <ele>68.3</ele>
        <time>2022-06-05T15:30:22.000Z</time>
      </trkpt>
      <trkpt lat="48.26639" lon="2.66508">
        <ele>68.3</ele>
        <time>2022-06-05T15:30:29.000Z</time>
      </trkpt>
      <trkpt lat="48.26632" lon="2.66516">
        <ele>68.3</ele>
        <time>2022-06-05T15:30:39.000Z</time>
      </trkpt>
      <trkpt lat="48.26623" lon="2.66522">
        <ele>69.2</ele>
        <time>2022-06-05T15:30:45.000Z</time>
      </trkpt>
      <trkpt lat="48.26615" lon="2.66529">
        <ele>69.4</ele>
        <time>2022-06-05T15:30:52.000Z</time>
      </trkpt>
      <trkpt lat="48.26607" lon="2.66539">
        <ele>69.4</ele>
        <time>2022-06-05T15:31:00.000Z</time>
      </trkpt>
      <trkpt lat="48.26601" lon="2.6655">
        <ele>69.7</ele>
        <time>2022-06-05T15:31:07.000Z</time>
      </trkpt>
      <trkpt lat="48.26601" lon="2.66562">
        <ele>70</ele>
        <time>2022-06-05T15:31:16.000Z</time>
      </trkpt>
      <trkpt lat="48.26601" lon="2.66563">
        <ele>70.1</ele>
        <time>2022-06-05T15:31:17.000Z</time>
      </trkpt>
      <trkpt lat="48.26602" lon="2.66578">
        <ele>69.7</ele>
        <time>2022-06-05T15:31:30.000Z</time>
      </trkpt>
      <trkpt lat="48.26602" lon="2.66592">
        <ele>69.2</ele>
        <time>2022-06-05T15:31:39.000Z</time>
      </trkpt>
      <trkpt lat="48.26604" lon="2.66606">
        <ele>69.2</ele>
        <time>2022-06-05T15:31:47.000Z</time>
      </trkpt>
      <trkpt lat="48.26606" lon="2.6662">
        <ele>69.5</ele>
        <time>2022-06-05T15:31:53.000Z</time>
      </trkpt>
      <trkpt lat="48.26609" lon="2.66633">
        <ele>69.1</ele>
        <time>2022-06-05T15:32:00.000Z</time>
      </trkpt>
      <trkpt lat="48.26611" lon="2.66649">
        <ele>68.9</ele>
        <time>2022-06-05T15:32:06.000Z</time>
      </trkpt>
      <trkpt lat="48.26612" lon="2.66663">
        <ele>69.4</ele>
        <time>2022-06-05T15:32:13.000Z</time>
      </trkpt>
      <trkpt lat="48.26613" lon="2.66676">
        <ele>69.2</ele>
        <time>2022-06-05T15:32:19.000Z</time>
      </trkpt>
      <trkpt lat="48.26614" lon="2.66691">
        <ele>69.2</ele>
        <time>2022-06-05T15:32:26.000Z</time>
      </trkpt>
      <trkpt lat="48.26617" lon="2.66705">
        <ele>68.7</ele>
        <time>2022-06-05T15:32:33.000Z</time>
      </trkpt>
      <trkpt lat="48.26621" lon="2.66718">
        <ele>68.2</ele>
        <time>2022-06-05T15:32:41.000Z</time>
      </trkpt>
      <trkpt lat="48.26623" lon="2.66733">
        <ele>68.1</ele>
        <time>2022-06-05T15:32:49.000Z</time>
      </trkpt>
      <trkpt lat="48.26622" lon="2.66746">
        <ele>67.9</ele>
        <time>2022-06-05T15:32:55.000Z</time>
      </trkpt>
      <trkpt lat="48.26622" lon="2.66761">
        <ele>67</ele>
        <time>2022-06-05T15:33:03.000Z</time>
      </trkpt>
      <trkpt lat="48.26624" lon="2.66775">
        <ele>67.8</ele>
        <time>2022-06-05T15:33:12.000Z</time>
      </trkpt>
      <trkpt lat="48.26627" lon="2.66791">
        <ele>67.5</ele>
        <time>2022-06-05T15:33:19.000Z</time>
      </trkpt>
      <trkpt lat="48.26625" lon="2.66804">
        <ele>67.7</ele>
        <time>2022-06-05T15:33:25.000Z</time>
      </trkpt>
      <trkpt lat="48.26624" lon="2.66818">
        <ele>67.8</ele>
        <time>2022-06-05T15:33:32.000Z</time>
      </trkpt>
      <trkpt lat="48.26626" lon="2.66834">
        <ele>68.1</ele>
        <time>2022-06-05T15:33:40.000Z</time>
      </trkpt>
      <trkpt lat="48.26629" lon="2.66848">
        <ele>67.8</ele>
        <time>2022-06-05T15:33:47.000Z</time>
      </trkpt>
      <trkpt lat="48.26627" lon="2.66863">
        <ele>68.5</ele>
        <time>2022-06-05T15:33:53.000Z</time>
      </trkpt>
      <trkpt lat="48.26625" lon="2.66877">
        <ele>69.1</ele>
        <time>2022-06-05T15:33:58.000Z</time>
      </trkpt>
      <trkpt lat="48.26627" lon="2.6689">
        <ele>69.6</ele>
        <time>2022-06-05T15:34:06.000Z</time>
      </trkpt>
      <trkpt lat="48.26634" lon="2.66901">
        <ele>70</ele>
        <time>2022-06-05T15:34:14.000Z</time>
      </trkpt>
      <trkpt lat="48.26638" lon="2.66914">
        <ele>68.4</ele>
        <time>2022-06-05T15:34:25.000Z</time>
      </trkpt>
      <trkpt lat="48.26637" lon="2.66928">
        <ele>68.5</ele>
        <time>2022-06-05T15:34:33.000Z</time>
      </trkpt>
      <trkpt lat="48.2664" lon="2.66941">
        <ele>68.7</ele>
        <time>2022-06-05T15:34:45.000Z</time>
      </trkpt>
      <trkpt lat="48.2664" lon="2.66956">
        <ele>68.8</ele>
        <time>2022-06-05T15:34:54.000Z</time>
      </trkpt>
      <trkpt lat="48.26642" lon="2.66971">
        <ele>69.6</ele>
        <time>2022-06-05T15:35:01.000Z</time>
      </trkpt>
      <trkpt lat="48.26647" lon="2.66984">
        <ele>68.9</ele>
        <time>2022-06-05T15:35:07.000Z</time>
      </trkpt>
      <trkpt lat="48.26652" lon="2.66996">
        <ele>68.5</ele>
        <time>2022-06-05T15:35:15.000Z</time>
      </trkpt>
      <trkpt lat="48.26652" lon="2.6701">
        <ele>67.9</ele>
        <time>2022-06-05T15:35:21.000Z</time>
      </trkpt>
      <trkpt lat="48.26652" lon="2.67025">
        <ele>67.6</ele>
        <time>2022-06-05T15:35:28.000Z</time>
      </trkpt>
      <trkpt lat="48.26653" lon="2.67039">
        <ele>67.6</ele>
        <time>2022-06-05T15:35:35.000Z</time>
      </trkpt>
      <trkpt lat="48.26655" lon="2.67053">
        <ele>67.7</ele>
        <time>2022-06-05T15:35:42.000Z</time>
      </trkpt>
      <trkpt lat="48.26657" lon="2.67068">
        <ele>67.9</ele>
        <time>2022-06-05T15:35:50.000Z</time>
      </trkpt>
      <trkpt lat="48.26659" lon="2.67083">
        <ele>67.6</ele>
        <time>2022-06-05T15:35:57.000Z</time>
      </trkpt>
      <trkpt lat="48.26663" lon="2.67097">
        <ele>67.5</ele>
        <time>2022-06-05T15:36:04.000Z</time>
      </trkpt>
      <trkpt lat="48.26663" lon="2.67112">
        <ele>67.3</ele>
        <time>2022-06-05T15:36:11.000Z</time>
      </trkpt>
      <trkpt lat="48.26665" lon="2.67127">
        <ele>66.9</ele>
        <time>2022-06-05T15:36:18.000Z</time>
      </trkpt>
      <trkpt lat="48.26668" lon="2.67141">
        <ele>66.7</ele>
        <time>2022-06-05T15:36:26.000Z</time>
      </trkpt>
      <trkpt lat="48.2667" lon="2.67154">
        <ele>66.9</ele>
        <time>2022-06-05T15:36:33.000Z</time>
      </trkpt>
      <trkpt lat="48.26668" lon="2.67168">
        <ele>66.1</ele>
        <time>2022-06-05T15:36:40.000Z</time>
      </trkpt>
      <trkpt lat="48.26669" lon="2.67182">
        <ele>65.7</ele>
        <time>2022-06-05T15:36:47.000Z</time>
      </trkpt>
      <trkpt lat="48.2667" lon="2.67196">
        <ele>64.2</ele>
        <time>2022-06-05T15:36:55.000Z</time>
      </trkpt>
      <trkpt lat="48.26671" lon="2.67209">
        <ele>65.5</ele>
        <time>2022-06-05T15:37:02.000Z</time>
      </trkpt>
      <trkpt lat="48.26671" lon="2.67224">
        <ele>66.9</ele>
        <time>2022-06-05T15:37:10.000Z</time>
      </trkpt>
      <trkpt lat="48.26672" lon="2.67238">
        <ele>66.8</ele>
        <time>2022-06-05T15:37:18.000Z</time>
      </trkpt>
      <trkpt lat="48.26673" lon="2.67254">
        <ele>67.3</ele>
        <time>2022-06-05T15:37:26.000Z</time>
      </trkpt>
      <trkpt lat="48.26673" lon="2.67269">
        <ele>67.9</ele>
        <time>2022-06-05T15:37:34.000Z</time>
      </trkpt>
      <trkpt lat="48.26674" lon="2.67284">
        <ele>68.4</ele>
        <time>2022-06-05T15:37:42.000Z</time>
      </trkpt>
      <trkpt lat="48.26676" lon="2.67299">
        <ele>68.7</ele>
        <time>2022-06-05T15:37:49.000Z</time>
      </trkpt>
      <trkpt lat="48.26677" lon="2.67313">
        <ele>69.1</ele>
        <time>2022-06-05T15:37:57.000Z</time>
      </trkpt>
      <trkpt lat="48.26675" lon="2.67327">
        <ele>69.3</ele>
        <time>2022-06-05T15:38:05.000Z</time>
      </trkpt>
      <trkpt lat="48.26677" lon="2.67342">
        <ele>69.6</ele>
        <time>2022-06-05T15:38:12.000Z</time>
      </trkpt>
      <trkpt lat="48.26677" lon="2.67357">
        <ele>70</ele>
        <time>2022-06-05T15:38:20.000Z</time>
      </trkpt>
      <trkpt lat="48.26677" lon="2.6736">
        <ele>69.2</ele>
        <time>2022-06-05T15:38:26.000Z</time>
      </trkpt>
      <trkpt lat="48.26677" lon="2.67361">
        <ele>64.7</ele>
        <time>2022-06-05T15:39:00.000Z</time>
      </trkpt>
      <trkpt lat="48.26674" lon="2.67374">
        <ele>67.1</ele>
        <time>2022-06-05T15:39:14.000Z</time>
      </trkpt>
      <trkpt lat="48.26673" lon="2.67389">
        <ele>66.5</ele>
        <time>2022-06-05T15:39:25.000Z</time>
      </trkpt>
      <trkpt lat="48.26673" lon="2.67402">
        <ele>66.4</ele>
        <time>2022-06-05T15:39:33.000Z</time>
      </trkpt>
      <trkpt lat="48.26673" lon="2.67417">
        <ele>68.5</ele>
        <time>2022-06-05T15:39:42.000Z</time>
      </trkpt>
      <trkpt lat="48.26672" lon="2.67431">
        <ele>68.6</ele>
        <time>2022-06-05T15:39:49.000Z</time>
      </trkpt>
      <trkpt lat="48.26671" lon="2.67446">
        <ele>71.5</ele>
        <time>2022-06-05T15:39:56.000Z</time>
      </trkpt>
      <trkpt lat="48.2667" lon="2.67461">
        <ele>72.8</ele>
        <time>2022-06-05T15:40:05.000Z</time>
      </trkpt>
      <trkpt lat="48.2667" lon="2.67475">
        <ele>73.1</ele>
        <time>2022-06-05T15:40:12.000Z</time>
      </trkpt>
      <trkpt lat="48.26667" lon="2.67488">
        <ele>73.8</ele>
        <time>2022-06-05T15:40:19.000Z</time>
      </trkpt>
      <trkpt lat="48.26667" lon="2.67502">
        <ele>73.8</ele>
        <time>2022-06-05T15:40:28.000Z</time>
      </trkpt>
      <trkpt lat="48.26664" lon="2.67516">
        <ele>73.9</ele>
        <time>2022-06-05T15:40:34.000Z</time>
      </trkpt>
      <trkpt lat="48.26665" lon="2.6753">
        <ele>73.4</ele>
        <time>2022-06-05T15:40:40.000Z</time>
      </trkpt>
      <trkpt lat="48.26663" lon="2.67545">
        <ele>73</ele>
        <time>2022-06-05T15:40:46.000Z</time>
      </trkpt>
      <trkpt lat="48.26662" lon="2.67559">
        <ele>72.7</ele>
        <time>2022-06-05T15:40:55.000Z</time>
      </trkpt>
      <trkpt lat="48.26664" lon="2.67573">
        <ele>72.3</ele>
        <time>2022-06-05T15:41:03.000Z</time>
      </trkpt>
      <trkpt lat="48.26662" lon="2.6759">
        <ele>72.6</ele>
        <time>2022-06-05T15:41:09.000Z</time>
      </trkpt>
      <trkpt lat="48.26662" lon="2.67603">
        <ele>73.1</ele>
        <time>2022-06-05T15:41:14.000Z</time>
      </trkpt>
      <trkpt lat="48.26662" lon="2.67617">
        <ele>73.3</ele>
        <time>2022-06-05T15:41:20.000Z</time>
      </trkpt>
      <trkpt lat="48.26659" lon="2.67632">
        <ele>73.5</ele>
        <time>2022-06-05T15:41:28.000Z</time>
      </trkpt>
      <trkpt lat="48.26661" lon="2.67647">
        <ele>74.2</ele>
        <time>2022-06-05T15:41:36.000Z</time>
      </trkpt>
      <trkpt lat="48.26662" lon="2.67661">
        <ele>75.1</ele>
        <time>2022-06-05T15:41:44.000Z</time>
      </trkpt>
      <trkpt lat="48.26661" lon="2.67675">
        <ele>75.7</ele>
        <time>2022-06-05T15:41:51.000Z</time>
      </trkpt>
      <trkpt lat="48.26659" lon="2.67691">
        <ele>75.5</ele>
        <time>2022-06-05T15:41:59.000Z</time>
      </trkpt>
      <trkpt lat="48.26659" lon="2.67706">
        <ele>75.2</ele>
        <time>2022-06-05T15:42:07.000Z</time>
      </trkpt>
      <trkpt lat="48.26661" lon="2.67713">
        <ele>75.9</ele>
        <time>2022-06-05T15:42:17.000Z</time>
      </trkpt>
      <trkpt lat="48.26661" lon="2.67713">
        <ele>75.9</ele>
        <time>2022-06-05T15:42:18.000Z</time>
      </trkpt>
      <trkpt lat="48.26663" lon="2.67719">
        <ele>75.2</ele>
        <time>2022-06-05T15:42:25.000Z</time>
      </trkpt>
      <trkpt lat="48.26663" lon="2.67719">
        <ele>75</ele>
        <time>2022-06-05T15:42:26.000Z</time>
      </trkpt>
      <trkpt lat="48.26663" lon="2.67722">
        <ele>74.8</ele>
        <time>2022-06-05T15:42:33.000Z</time>
      </trkpt>
      <trkpt lat="48.26664" lon="2.67722">
        <ele>74.8</ele>
        <time>2022-06-05T15:42:34.000Z</time>
      </trkpt>
      <trkpt lat="48.26663" lon="2.67735">
        <ele>75.3</ele>
        <time>2022-06-05T15:43:07.000Z</time>
      </trkpt>
      <trkpt lat="48.26661" lon="2.67749">
        <ele>75.3</ele>
        <time>2022-06-05T15:43:14.000Z</time>
      </trkpt>
      <trkpt lat="48.26663" lon="2.67764">
        <ele>75.3</ele>
        <time>2022-06-05T15:43:22.000Z</time>
      </trkpt>
      <trkpt lat="48.26666" lon="2.67777">
        <ele>75.6</ele>
        <time>2022-06-05T15:43:29.000Z</time>
      </trkpt>
      <trkpt lat="48.26663" lon="2.6779">
        <ele>75.8</ele>
        <time>2022-06-05T15:43:36.000Z</time>
      </trkpt>
      <trkpt lat="48.2666" lon="2.67804">
        <ele>75.9</ele>
        <time>2022-06-05T15:43:43.000Z</time>
      </trkpt>
      <trkpt lat="48.26657" lon="2.67818">
        <ele>76.4</ele>
        <time>2022-06-05T15:43:51.000Z</time>
      </trkpt>
      <trkpt lat="48.26656" lon="2.67833">
        <ele>76.6</ele>
        <time>2022-06-05T15:43:59.000Z</time>
      </trkpt>
      <trkpt lat="48.26654" lon="2.67848">
        <ele>76.7</ele>
        <time>2022-06-05T15:44:06.000Z</time>
      </trkpt>
      <trkpt lat="48.26653" lon="2.67862">
        <ele>77.5</ele>
        <time>2022-06-05T15:44:15.000Z</time>
      </trkpt>
      <trkpt lat="48.26652" lon="2.67876">
        <ele>78.4</ele>
        <time>2022-06-05T15:44:22.000Z</time>
      </trkpt>
      <trkpt lat="48.26654" lon="2.6789">
        <ele>78.7</ele>
        <time>2022-06-05T15:44:30.000Z</time>
      </trkpt>
      <trkpt lat="48.26653" lon="2.67904">
        <ele>78.4</ele>
        <time>2022-06-05T15:44:40.000Z</time>
      </trkpt>
      <trkpt lat="48.26652" lon="2.67918">
        <ele>78.9</ele>
        <time>2022-06-05T15:44:48.000Z</time>
      </trkpt>
      <trkpt lat="48.26653" lon="2.67932">
        <ele>79.6</ele>
        <time>2022-06-05T15:44:56.000Z</time>
      </trkpt>
      <trkpt lat="48.26653" lon="2.67946">
        <ele>80</ele>
        <time>2022-06-05T15:45:03.000Z</time>
      </trkpt>
      <trkpt lat="48.26651" lon="2.67959">
        <ele>81</ele>
        <time>2022-06-05T15:45:10.000Z</time>
      </trkpt>
      <trkpt lat="48.2665" lon="2.67974">
        <ele>81.3</ele>
        <time>2022-06-05T15:45:17.000Z</time>
      </trkpt>
      <trkpt lat="48.26648" lon="2.67988">
        <ele>82.1</ele>
        <time>2022-06-05T15:45:25.000Z</time>
      </trkpt>
      <trkpt lat="48.2665" lon="2.68003">
        <ele>82</ele>
        <time>2022-06-05T15:45:33.000Z</time>
      </trkpt>
      <trkpt lat="48.26651" lon="2.68018">
        <ele>82</ele>
        <time>2022-06-05T15:45:40.000Z</time>
      </trkpt>
      <trkpt lat="48.26651" lon="2.68032">
        <ele>81.8</ele>
        <time>2022-06-05T15:45:47.000Z</time>
      </trkpt>
      <trkpt lat="48.2665" lon="2.68046">
        <ele>82</ele>
        <time>2022-06-05T15:45:54.000Z</time>
      </trkpt>
      <trkpt lat="48.26652" lon="2.68059">
        <ele>82.2</ele>
        <time>2022-06-05T15:46:00.000Z</time>
      </trkpt>
      <trkpt lat="48.26653" lon="2.68075">
        <ele>82.4</ele>
        <time>2022-06-05T15:46:07.000Z</time>
      </trkpt>
      <trkpt lat="48.26656" lon="2.68088">
        <ele>82.1</ele>
        <time>2022-06-05T15:46:14.000Z</time>
      </trkpt>
      <trkpt lat="48.26658" lon="2.68103">
        <ele>80.3</ele>
        <time>2022-06-05T15:46:22.000Z</time>
      </trkpt>
      <trkpt lat="48.26659" lon="2.68117">
        <ele>80.6</ele>
        <time>2022-06-05T15:46:29.000Z</time>
      </trkpt>
      <trkpt lat="48.26659" lon="2.68132">
        <ele>80.2</ele>
        <time>2022-06-05T15:46:37.000Z</time>
      </trkpt>
      <trkpt lat="48.26661" lon="2.68145">
        <ele>80.6</ele>
        <time>2022-06-05T15:46:44.000Z</time>
      </trkpt>
      <trkpt lat="48.26661" lon="2.68159">
        <ele>80.4</ele>
        <time>2022-06-05T15:46:51.000Z</time>
      </trkpt>
      <trkpt lat="48.26663" lon="2.68173">
        <ele>80.4</ele>
        <time>2022-06-05T15:47:00.000Z</time>
      </trkpt>
      <trkpt lat="48.26662" lon="2.68187">
        <ele>80.2</ele>
        <time>2022-06-05T15:47:06.000Z</time>
      </trkpt>
      <trkpt lat="48.26662" lon="2.68202">
        <ele>80</ele>
        <time>2022-06-05T15:47:13.000Z</time>
      </trkpt>
      <trkpt lat="48.2666" lon="2.68216">
        <ele>79.9</ele>
        <time>2022-06-05T15:47:19.000Z</time>
      </trkpt>
      <trkpt lat="48.26658" lon="2.6823">
        <ele>79.1</ele>
        <time>2022-06-05T15:47:25.000Z</time>
      </trkpt>
      <trkpt lat="48.26657" lon="2.68245">
        <ele>78.1</ele>
        <time>2022-06-05T15:47:33.000Z</time>
      </trkpt>
      <trkpt lat="48.26661" lon="2.6826">
        <ele>77.9</ele>
        <time>2022-06-05T15:47:40.000Z</time>
      </trkpt>
      <trkpt lat="48.26666" lon="2.68272">
        <ele>77.2</ele>
        <time>2022-06-05T15:47:47.000Z</time>
      </trkpt>
      <trkpt lat="48.26675" lon="2.68278">
        <ele>77.2</ele>
        <time>2022-06-05T15:47:53.000Z</time>
      </trkpt>
      <trkpt lat="48.26684" lon="2.68286">
        <ele>77.7</ele>
        <time>2022-06-05T15:48:00.000Z</time>
      </trkpt>
      <trkpt lat="48.26693" lon="2.68286">
        <ele>77.5</ele>
        <time>2022-06-05T15:48:07.000Z</time>
      </trkpt>
      <trkpt lat="48.26696" lon="2.68284">
        <ele>77.7</ele>
        <time>2022-06-05T15:48:21.000Z</time>
      </trkpt>
      <trkpt lat="48.26696" lon="2.68285">
        <ele>77.7</ele>
        <time>2022-06-05T15:48:22.000Z</time>
      </trkpt>
      <trkpt lat="48.26695" lon="2.68299">
        <ele>77.1</ele>
        <time>2022-06-05T15:48:42.000Z</time>
      </trkpt>
      <trkpt lat="48.26694" lon="2.68313">
        <ele>76.7</ele>
        <time>2022-06-05T15:48:51.000Z</time>
      </trkpt>
      <trkpt lat="48.26692" lon="2.68327">
        <ele>76.5</ele>
        <time>2022-06-05T15:48:57.000Z</time>
      </trkpt>
      <trkpt lat="48.26697" lon="2.68339">
        <ele>75.9</ele>
        <time>2022-06-05T15:49:03.000Z</time>
      </trkpt>
      <trkpt lat="48.26694" lon="2.68353">
        <ele>75.9</ele>
        <time>2022-06-05T15:49:10.000Z</time>
      </trkpt>
      <trkpt lat="48.26694" lon="2.68367">
        <ele>76.1</ele>
        <time>2022-06-05T15:49:17.000Z</time>
      </trkpt>
      <trkpt lat="48.26689" lon="2.68379">
        <ele>75.8</ele>
        <time>2022-06-05T15:49:23.000Z</time>
      </trkpt>
      <trkpt lat="48.26688" lon="2.68393">
        <ele>75.7</ele>
        <time>2022-06-05T15:49:31.000Z</time>
      </trkpt>
      <trkpt lat="48.26684" lon="2.68408">
        <ele>75.4</ele>
        <time>2022-06-05T15:49:37.000Z</time>
      </trkpt>
      <trkpt lat="48.26679" lon="2.68421">
        <ele>74.9</ele>
        <time>2022-06-05T15:49:45.000Z</time>
      </trkpt>
      <trkpt lat="48.26674" lon="2.68433">
        <ele>74.4</ele>
        <time>2022-06-05T15:49:53.000Z</time>
      </trkpt>
      <trkpt lat="48.26676" lon="2.68449">
        <ele>74.1</ele>
        <time>2022-06-05T15:50:01.000Z</time>
      </trkpt>
      <trkpt lat="48.26678" lon="2.68462">
        <ele>74.1</ele>
        <time>2022-06-05T15:50:07.000Z</time>
      </trkpt>
      <trkpt lat="48.2668" lon="2.68476">
        <ele>73.9</ele>
        <time>2022-06-05T15:50:14.000Z</time>
      </trkpt>
      <trkpt lat="48.26679" lon="2.68492">
        <ele>73.3</ele>
        <time>2022-06-05T15:50:22.000Z</time>
      </trkpt>
      <trkpt lat="48.26685" lon="2.68503">
        <ele>72.7</ele>
        <time>2022-06-05T15:50:38.000Z</time>
      </trkpt>
      <trkpt lat="48.26686" lon="2.68517">
        <ele>71.9</ele>
        <time>2022-06-05T15:50:49.000Z</time>
      </trkpt>
      <trkpt lat="48.26688" lon="2.68531">
        <ele>71.4</ele>
        <time>2022-06-05T15:50:56.000Z</time>
      </trkpt>
      <trkpt lat="48.26693" lon="2.68545">
        <ele>70.7</ele>
        <time>2022-06-05T15:51:05.000Z</time>
      </trkpt>
      <trkpt lat="48.26698" lon="2.68559">
        <ele>70.8</ele>
        <time>2022-06-05T15:51:12.000Z</time>
      </trkpt>
      <trkpt lat="48.26698" lon="2.68572">
        <ele>70.7</ele>
        <time>2022-06-05T15:51:19.000Z</time>
      </trkpt>
      <trkpt lat="48.26696" lon="2.68587">
        <ele>70.9</ele>
        <time>2022-06-05T15:51:28.000Z</time>
      </trkpt>
      <trkpt lat="48.26692" lon="2.68601">
        <ele>71.4</ele>
        <time>2022-06-05T15:51:35.000Z</time>
      </trkpt>
      <trkpt lat="48.26691" lon="2.68614">
        <ele>71.1</ele>
        <time>2022-06-05T15:51:41.000Z</time>
      </trkpt>
      <trkpt lat="48.26699" lon="2.68621">
        <ele>73.5</ele>
        <time>2022-06-05T15:51:48.000Z</time>
      </trkpt>
      <trkpt lat="48.26702" lon="2.68618">
        <ele>72.3</ele>
        <time>2022-06-05T15:52:06.000Z</time>
      </trkpt>
      <trkpt lat="48.26701" lon="2.68618">
        <ele>71.9</ele>
        <time>2022-06-05T15:52:12.000Z</time>
      </trkpt>
      <trkpt lat="48.267" lon="2.68618">
        <ele>71.5</ele>
        <time>2022-06-05T15:52:15.000Z</time>
      </trkpt>
      <trkpt lat="48.267" lon="2.68618">
        <ele>71.4</ele>
        <time>2022-06-05T15:52:16.000Z</time>
      </trkpt>
      <trkpt lat="48.26709" lon="2.68614">
        <ele>70.9</ele>
        <time>2022-06-05T15:52:25.000Z</time>
      </trkpt>
      <trkpt lat="48.26718" lon="2.68607">
        <ele>70.7</ele>
        <time>2022-06-05T15:52:33.000Z</time>
      </trkpt>
      <trkpt lat="48.26726" lon="2.686">
        <ele>70.3</ele>
        <time>2022-06-05T15:52:40.000Z</time>
      </trkpt>
      <trkpt lat="48.26732" lon="2.6859">
        <ele>69.8</ele>
        <time>2022-06-05T15:52:48.000Z</time>
      </trkpt>
      <trkpt lat="48.26734" lon="2.68587">
        <ele>70.2</ele>
        <time>2022-06-05T15:52:56.000Z</time>
      </trkpt>
      <trkpt lat="48.26733" lon="2.68587">
        <ele>70.2</ele>
        <time>2022-06-05T15:52:57.000Z</time>
      </trkpt>
      <trkpt lat="48.26732" lon="2.68585">
        <ele>70.7</ele>
        <time>2022-06-05T15:53:04.000Z</time>
      </trkpt>
      <trkpt lat="48.26733" lon="2.68586">
        <ele>70.7</ele>
        <time>2022-06-05T15:53:10.000Z</time>
      </trkpt>
      <trkpt lat="48.26742" lon="2.68583">
        <ele>71.6</ele>
        <time>2022-06-05T15:53:21.000Z</time>
      </trkpt>
      <trkpt lat="48.26751" lon="2.68576">
        <ele>72.5</ele>
        <time>2022-06-05T15:53:28.000Z</time>
      </trkpt>
      <trkpt lat="48.26759" lon="2.68568">
        <ele>73.8</ele>
        <time>2022-06-05T15:53:38.000Z</time>
      </trkpt>
      <trkpt lat="48.26766" lon="2.6856">
        <ele>74.8</ele>
        <time>2022-06-05T15:53:47.000Z</time>
      </trkpt>
      <trkpt lat="48.26775" lon="2.68557">
        <ele>75.7</ele>
        <time>2022-06-05T15:53:57.000Z</time>
      </trkpt>
      <trkpt lat="48.26784" lon="2.68554">
        <ele>76.6</ele>
        <time>2022-06-05T15:54:07.000Z</time>
      </trkpt>
      <trkpt lat="48.26792" lon="2.68545">
        <ele>76.5</ele>
        <time>2022-06-05T15:54:12.000Z</time>
      </trkpt>
      <trkpt lat="48.26792" lon="2.68541">
        <ele>77</ele>
        <time>2022-06-05T15:54:17.000Z</time>
      </trkpt>
      <trkpt lat="48.26792" lon="2.68541">
        <ele>77</ele>
        <time>2022-06-05T15:54:18.000Z</time>
      </trkpt>
      <trkpt lat="48.26792" lon="2.68541">
        <ele>76.8</ele>
        <time>2022-06-05T15:54:19.000Z</time>
      </trkpt>
      <trkpt lat="48.26792" lon="2.68541">
        <ele>77</ele>
        <time>2022-06-05T15:54:22.000Z</time>
      </trkpt>
      <trkpt lat="48.26795" lon="2.68548">
        <ele>77.4</ele>
        <time>2022-06-05T15:54:31.000Z</time>
      </trkpt>
      <trkpt lat="48.26795" lon="2.68547">
        <ele>77.4</ele>
        <time>2022-06-05T15:54:32.000Z</time>
      </trkpt>
      <trkpt lat="48.26793" lon="2.6854">
        <ele>77.4</ele>
        <time>2022-06-05T15:54:39.000Z</time>
      </trkpt>
      <trkpt lat="48.26793" lon="2.6854">
        <ele>77.6</ele>
        <time>2022-06-05T15:54:44.000Z</time>
      </trkpt>
      <trkpt lat="48.26793" lon="2.68546">
        <ele>77.6</ele>
        <time>2022-06-05T15:54:53.000Z</time>
      </trkpt>
      <trkpt lat="48.26793" lon="2.68546">
        <ele>77.5</ele>
        <time>2022-06-05T15:54:54.000Z</time>
      </trkpt>
      <trkpt lat="48.26787" lon="2.68555">
        <ele>76.3</ele>
        <time>2022-06-05T15:55:05.000Z</time>
      </trkpt>
      <trkpt lat="48.26786" lon="2.68559">
        <ele>73.1</ele>
        <time>2022-06-05T15:55:28.000Z</time>
      </trkpt>
      <trkpt lat="48.26786" lon="2.68559">
        <ele>73</ele>
        <time>2022-06-05T15:55:29.000Z</time>
      </trkpt>
      <trkpt lat="48.26786" lon="2.68559">
        <ele>73.1</ele>
        <time>2022-06-05T15:55:30.000Z</time>
      </trkpt>
      <trkpt lat="48.26787" lon="2.68559">
        <ele>73</ele>
        <time>2022-06-05T15:55:32.000Z</time>
      </trkpt>
      <trkpt lat="48.2679" lon="2.68554">
        <ele>72.7</ele>
        <time>2022-06-05T15:55:50.000Z</time>
      </trkpt>
      <trkpt lat="48.26789" lon="2.68552">
        <ele>72.7</ele>
        <time>2022-06-05T15:56:02.000Z</time>
      </trkpt>
      <trkpt lat="48.2679" lon="2.68551">
        <ele>72.6</ele>
        <time>2022-06-05T15:56:04.000Z</time>
      </trkpt>
      <trkpt lat="48.2679" lon="2.68551">
        <ele>72.5</ele>
        <time>2022-06-05T15:56:05.000Z</time>
      </trkpt>
      <trkpt lat="48.26791" lon="2.68551">
        <ele>72.7</ele>
        <time>2022-06-05T15:56:07.000Z</time>
      </trkpt>
      <trkpt lat="48.26791" lon="2.68551">
        <ele>72.8</ele>
        <time>2022-06-05T15:56:08.000Z</time>
      </trkpt>
      <trkpt lat="48.26796" lon="2.68546">
        <ele>71.1</ele>
        <time>2022-06-05T15:56:25.000Z</time>
      </trkpt>
      <trkpt lat="48.26796" lon="2.68546">
        <ele>71.1</ele>
        <time>2022-06-05T15:56:25.000Z</time>
      </trkpt>
    </trkseg>
  </trk>
</gpx>